<?xml version="1.0" encoding="UTF-8" standalone="no" ?>
<gpx xmlns="http://www.topografix.com/GPX/1/1" xmlns:xsi="http://www.w3.org/2001/XMLSchema-instance" xsi:schemaLocation="http://www.topografix.com/GPX/1/1 http://www.topografix.com/GPX/1/1/gpx.xsd" version="1.1" creator="VisuGPX - https://www.visugpx.com">
  <metadata>
    <name>20150822 Tignes Bonneval</name>
    <desc><![CDATA[Etape 5 du GR5]]></desc>
  </metadata>
  <trk>
    <name><![CDATA[20150822 Tignes Bonneval_1]]></name>
    <trkseg>
      <trkpt lat="45.46893" lon="6.90811">
        <ele>2100.8</ele>
        <time>2015-08-22T07:40:16Z</time>
      </trkpt>
      <trkpt lat="45.46893" lon="6.90812">
        <ele>2100.8</ele>
        <time>2015-08-22T07:40:21Z</time>
      </trkpt>
      <trkpt lat="45.46896" lon="6.90813">
        <ele>2100.8</ele>
        <time>2015-08-22T07:40:31Z</time>
      </trkpt>
      <trkpt lat="45.46896" lon="6.90813">
        <ele>2100.8</ele>
        <time>2015-08-22T07:40:36Z</time>
      </trkpt>
      <trkpt lat="45.46893" lon="6.9081">
        <ele>2100.8</ele>
        <time>2015-08-22T07:41:16Z</time>
      </trkpt>
      <trkpt lat="45.46892" lon="6.908">
        <ele>2101.7537</ele>
        <time>2015-08-22T07:41:21Z</time>
      </trkpt>
      <trkpt lat="45.46871" lon="6.90819">
        <ele>2112.8774</ele>
        <time>2015-08-22T07:41:36Z</time>
      </trkpt>
      <trkpt lat="45.46868" lon="6.90827">
        <ele>2112.8774</ele>
        <time>2015-08-22T07:41:41Z</time>
      </trkpt>
      <trkpt lat="45.46861" lon="6.90843">
        <ele>2124.3462</ele>
        <time>2015-08-22T07:41:51Z</time>
      </trkpt>
      <trkpt lat="45.4686" lon="6.90848">
        <ele>2124.3462</ele>
        <time>2015-08-22T07:41:56Z</time>
      </trkpt>
      <trkpt lat="45.4685" lon="6.90865">
        <ele>2135.562</ele>
        <time>2015-08-22T07:42:06Z</time>
      </trkpt>
      <trkpt lat="45.46845" lon="6.90864">
        <ele>2135.562</ele>
        <time>2015-08-22T07:42:11Z</time>
      </trkpt>
      <trkpt lat="45.4684" lon="6.90866">
        <ele>2146.3213</ele>
        <time>2015-08-22T07:42:21Z</time>
      </trkpt>
      <trkpt lat="45.46838" lon="6.90873">
        <ele>2146.3213</ele>
        <time>2015-08-22T07:42:26Z</time>
      </trkpt>
      <trkpt lat="45.46832" lon="6.90884">
        <ele>2155.9075</ele>
        <time>2015-08-22T07:42:36Z</time>
      </trkpt>
      <trkpt lat="45.46828" lon="6.90889">
        <ele>2155.9075</ele>
        <time>2015-08-22T07:42:41Z</time>
      </trkpt>
      <trkpt lat="45.46821" lon="6.90901">
        <ele>2164.1116</ele>
        <time>2015-08-22T07:42:51Z</time>
      </trkpt>
      <trkpt lat="45.46815" lon="6.90909">
        <ele>2164.1116</ele>
        <time>2015-08-22T07:42:56Z</time>
      </trkpt>
      <trkpt lat="45.46805" lon="6.90924">
        <ele>2170.815</ele>
        <time>2015-08-22T07:43:06Z</time>
      </trkpt>
      <trkpt lat="45.46801" lon="6.90932">
        <ele>2170.815</ele>
        <time>2015-08-22T07:43:11Z</time>
      </trkpt>
      <trkpt lat="45.46797" lon="6.90944">
        <ele>2176.1309</ele>
        <time>2015-08-22T07:43:21Z</time>
      </trkpt>
      <trkpt lat="45.46796" lon="6.90951">
        <ele>2176.1309</ele>
        <time>2015-08-22T07:43:26Z</time>
      </trkpt>
      <trkpt lat="45.46788" lon="6.90963">
        <ele>2179.6177</ele>
        <time>2015-08-22T07:43:36Z</time>
      </trkpt>
      <trkpt lat="45.46782" lon="6.90975">
        <ele>2181.37</ele>
        <time>2015-08-22T07:43:41Z</time>
      </trkpt>
      <trkpt lat="45.46769" lon="6.90995">
        <ele>2181.3674</ele>
        <time>2015-08-22T07:43:56Z</time>
      </trkpt>
      <trkpt lat="45.46764" lon="6.90995">
        <ele>2181.3674</ele>
        <time>2015-08-22T07:44:01Z</time>
      </trkpt>
      <trkpt lat="45.46758" lon="6.91006">
        <ele>2180.0967</ele>
        <time>2015-08-22T07:44:11Z</time>
      </trkpt>
      <trkpt lat="45.46756" lon="6.91013">
        <ele>2180.0967</ele>
        <time>2015-08-22T07:44:16Z</time>
      </trkpt>
      <trkpt lat="45.46752" lon="6.91024">
        <ele>2177.9126</ele>
        <time>2015-08-22T07:44:26Z</time>
      </trkpt>
      <trkpt lat="45.46751" lon="6.91029">
        <ele>2177.9126</ele>
        <time>2015-08-22T07:44:31Z</time>
      </trkpt>
      <trkpt lat="45.4675" lon="6.91039">
        <ele>2175.069</ele>
        <time>2015-08-22T07:44:41Z</time>
      </trkpt>
      <trkpt lat="45.46747" lon="6.91046">
        <ele>2175.069</ele>
        <time>2015-08-22T07:44:46Z</time>
      </trkpt>
      <trkpt lat="45.46749" lon="6.91059">
        <ele>2171.6768</ele>
        <time>2015-08-22T07:44:56Z</time>
      </trkpt>
      <trkpt lat="45.46751" lon="6.91067">
        <ele>2171.6768</ele>
        <time>2015-08-22T07:45:01Z</time>
      </trkpt>
      <trkpt lat="45.4676" lon="6.91079">
        <ele>2168.572</ele>
        <time>2015-08-22T07:45:11Z</time>
      </trkpt>
      <trkpt lat="45.46765" lon="6.9108">
        <ele>2168.572</ele>
        <time>2015-08-22T07:45:16Z</time>
      </trkpt>
      <trkpt lat="45.46773" lon="6.91087">
        <ele>2165.6477</ele>
        <time>2015-08-22T07:45:26Z</time>
      </trkpt>
      <trkpt lat="45.46773" lon="6.91087">
        <ele>2165.6477</ele>
        <time>2015-08-22T07:45:31Z</time>
      </trkpt>
      <trkpt lat="45.4678" lon="6.91094">
        <ele>2162.8828</ele>
        <time>2015-08-22T07:45:41Z</time>
      </trkpt>
      <trkpt lat="45.46785" lon="6.91099">
        <ele>2162.8828</ele>
        <time>2015-08-22T07:45:46Z</time>
      </trkpt>
      <trkpt lat="45.46793" lon="6.91109">
        <ele>2160.2395</ele>
        <time>2015-08-22T07:45:56Z</time>
      </trkpt>
      <trkpt lat="45.46796" lon="6.91114">
        <ele>2160.2395</ele>
        <time>2015-08-22T07:46:01Z</time>
      </trkpt>
      <trkpt lat="45.46802" lon="6.91126">
        <ele>2157.779</ele>
        <time>2015-08-22T07:46:11Z</time>
      </trkpt>
      <trkpt lat="45.46804" lon="6.91132">
        <ele>2157.779</ele>
        <time>2015-08-22T07:46:16Z</time>
      </trkpt>
      <trkpt lat="45.46809" lon="6.91142">
        <ele>2155.3892</ele>
        <time>2015-08-22T07:46:26Z</time>
      </trkpt>
      <trkpt lat="45.46812" lon="6.91147">
        <ele>2155.3892</ele>
        <time>2015-08-22T07:46:31Z</time>
      </trkpt>
      <trkpt lat="45.46818" lon="6.91157">
        <ele>2153.143</ele>
        <time>2015-08-22T07:46:41Z</time>
      </trkpt>
      <trkpt lat="45.46819" lon="6.91162">
        <ele>2153.143</ele>
        <time>2015-08-22T07:46:46Z</time>
      </trkpt>
      <trkpt lat="45.46826" lon="6.91173">
        <ele>2151.0525</ele>
        <time>2015-08-22T07:46:56Z</time>
      </trkpt>
      <trkpt lat="45.46824" lon="6.91174">
        <ele>2151.0525</ele>
        <time>2015-08-22T07:47:01Z</time>
      </trkpt>
      <trkpt lat="45.46823" lon="6.91175">
        <ele>2151.0525</ele>
        <time>2015-08-22T07:47:11Z</time>
      </trkpt>
      <trkpt lat="45.46825" lon="6.91173">
        <ele>2151.0525</ele>
        <time>2015-08-22T07:47:16Z</time>
      </trkpt>
      <trkpt lat="45.46837" lon="6.91188">
        <ele>2149.1223</ele>
        <time>2015-08-22T07:47:31Z</time>
      </trkpt>
      <trkpt lat="45.46839" lon="6.91194">
        <ele>2149.1223</ele>
        <time>2015-08-22T07:47:36Z</time>
      </trkpt>
      <trkpt lat="45.46847" lon="6.9121">
        <ele>2147.3523</ele>
        <time>2015-08-22T07:47:46Z</time>
      </trkpt>
      <trkpt lat="45.46848" lon="6.91215">
        <ele>2147.3523</ele>
        <time>2015-08-22T07:47:51Z</time>
      </trkpt>
      <trkpt lat="45.46854" lon="6.91228">
        <ele>2145.5408</ele>
        <time>2015-08-22T07:48:01Z</time>
      </trkpt>
      <trkpt lat="45.46855" lon="6.91235">
        <ele>2145.5408</ele>
        <time>2015-08-22T07:48:06Z</time>
      </trkpt>
      <trkpt lat="45.46853" lon="6.9125">
        <ele>2143.336</ele>
        <time>2015-08-22T07:48:16Z</time>
      </trkpt>
      <trkpt lat="45.46853" lon="6.91255">
        <ele>2143.336</ele>
        <time>2015-08-22T07:48:21Z</time>
      </trkpt>
      <trkpt lat="45.4685" lon="6.9125">
        <ele>2143.336</ele>
        <time>2015-08-22T07:48:31Z</time>
      </trkpt>
      <trkpt lat="45.46852" lon="6.91251">
        <ele>2141.2888</ele>
        <time>2015-08-22T07:48:36Z</time>
      </trkpt>
      <trkpt lat="45.46853" lon="6.91261">
        <ele>2141.2888</ele>
        <time>2015-08-22T07:48:46Z</time>
      </trkpt>
      <trkpt lat="45.46854" lon="6.91274">
        <ele>2139.3403</ele>
        <time>2015-08-22T07:48:51Z</time>
      </trkpt>
      <trkpt lat="45.46859" lon="6.91293">
        <ele>2137.3538</ele>
        <time>2015-08-22T07:49:06Z</time>
      </trkpt>
      <trkpt lat="45.4686" lon="6.913">
        <ele>2137.3538</ele>
        <time>2015-08-22T07:49:11Z</time>
      </trkpt>
      <trkpt lat="45.46862" lon="6.91314">
        <ele>2135.2747</ele>
        <time>2015-08-22T07:49:21Z</time>
      </trkpt>
      <trkpt lat="45.46864" lon="6.91321">
        <ele>2135.2747</ele>
        <time>2015-08-22T07:49:26Z</time>
      </trkpt>
      <trkpt lat="45.46865" lon="6.91333">
        <ele>2133.3313</ele>
        <time>2015-08-22T07:49:36Z</time>
      </trkpt>
      <trkpt lat="45.46865" lon="6.91336">
        <ele>2133.3313</ele>
        <time>2015-08-22T07:49:41Z</time>
      </trkpt>
      <trkpt lat="45.46867" lon="6.91342">
        <ele>2133.3313</ele>
        <time>2015-08-22T07:49:51Z</time>
      </trkpt>
      <trkpt lat="45.46868" lon="6.91346">
        <ele>2131.4465</ele>
        <time>2015-08-22T07:49:56Z</time>
      </trkpt>
      <trkpt lat="45.46871" lon="6.91351">
        <ele>2131.4465</ele>
        <time>2015-08-22T07:50:06Z</time>
      </trkpt>
      <trkpt lat="45.46873" lon="6.91353">
        <ele>2131.4465</ele>
        <time>2015-08-22T07:50:11Z</time>
      </trkpt>
      <trkpt lat="45.46877" lon="6.91362">
        <ele>2129.746</ele>
        <time>2015-08-22T07:50:21Z</time>
      </trkpt>
      <trkpt lat="45.46879" lon="6.91365">
        <ele>2129.746</ele>
        <time>2015-08-22T07:50:26Z</time>
      </trkpt>
      <trkpt lat="45.46881" lon="6.91371">
        <ele>2129.746</ele>
        <time>2015-08-22T07:50:36Z</time>
      </trkpt>
      <trkpt lat="45.46883" lon="6.91373">
        <ele>2128.1958</ele>
        <time>2015-08-22T07:50:41Z</time>
      </trkpt>
      <trkpt lat="45.46888" lon="6.91386">
        <ele>2126.7092</ele>
        <time>2015-08-22T07:50:56Z</time>
      </trkpt>
      <trkpt lat="45.4689" lon="6.91389">
        <ele>2126.7092</ele>
        <time>2015-08-22T07:51:01Z</time>
      </trkpt>
      <trkpt lat="45.46893" lon="6.91396">
        <ele>2126.7092</ele>
        <time>2015-08-22T07:51:11Z</time>
      </trkpt>
      <trkpt lat="45.46894" lon="6.91396">
        <ele>2125.3484</ele>
        <time>2015-08-22T07:51:16Z</time>
      </trkpt>
      <trkpt lat="45.46897" lon="6.91401">
        <ele>2125.3484</ele>
        <time>2015-08-22T07:51:26Z</time>
      </trkpt>
      <trkpt lat="45.46899" lon="6.91404">
        <ele>2125.3484</ele>
        <time>2015-08-22T07:51:31Z</time>
      </trkpt>
      <trkpt lat="45.46902" lon="6.91409">
        <ele>2124.3438</ele>
        <time>2015-08-22T07:51:41Z</time>
      </trkpt>
      <trkpt lat="45.46903" lon="6.91411">
        <ele>2124.3438</ele>
        <time>2015-08-22T07:51:46Z</time>
      </trkpt>
      <trkpt lat="45.46904" lon="6.91417">
        <ele>2124.3438</ele>
        <time>2015-08-22T07:51:56Z</time>
      </trkpt>
      <trkpt lat="45.46905" lon="6.91419">
        <ele>2124.3438</ele>
        <time>2015-08-22T07:52:01Z</time>
      </trkpt>
      <trkpt lat="45.46908" lon="6.91426">
        <ele>2123.6848</ele>
        <time>2015-08-22T07:52:11Z</time>
      </trkpt>
      <trkpt lat="45.46908" lon="6.91429">
        <ele>2123.6848</ele>
        <time>2015-08-22T07:52:16Z</time>
      </trkpt>
      <trkpt lat="45.46909" lon="6.91434">
        <ele>2123.6848</ele>
        <time>2015-08-22T07:52:26Z</time>
      </trkpt>
      <trkpt lat="45.4691" lon="6.91436">
        <ele>2123.6848</ele>
        <time>2015-08-22T07:52:31Z</time>
      </trkpt>
      <trkpt lat="45.46914" lon="6.91438">
        <ele>2123.606</ele>
        <time>2015-08-22T07:52:41Z</time>
      </trkpt>
      <trkpt lat="45.46914" lon="6.91438">
        <ele>2123.606</ele>
        <time>2015-08-22T07:52:46Z</time>
      </trkpt>
      <trkpt lat="45.46911" lon="6.91443">
        <ele>2123.606</ele>
        <time>2015-08-22T07:52:56Z</time>
      </trkpt>
      <trkpt lat="45.46912" lon="6.91445">
        <ele>2123.606</ele>
        <time>2015-08-22T07:53:01Z</time>
      </trkpt>
      <trkpt lat="45.46915" lon="6.91444">
        <ele>2123.7312</ele>
        <time>2015-08-22T07:53:11Z</time>
      </trkpt>
      <trkpt lat="45.46915" lon="6.91445">
        <ele>2123.7312</ele>
        <time>2015-08-22T07:53:16Z</time>
      </trkpt>
      <trkpt lat="45.46915" lon="6.91445">
        <ele>2123.7312</ele>
        <time>2015-08-22T07:53:31Z</time>
      </trkpt>
      <trkpt lat="45.46912" lon="6.91446">
        <ele>2123.7312</ele>
        <time>2015-08-22T07:53:51Z</time>
      </trkpt>
      <trkpt lat="45.46901" lon="6.91446">
        <ele>2123.7747</ele>
        <time>2015-08-22T07:54:01Z</time>
      </trkpt>
      <trkpt lat="45.46893" lon="6.91448">
        <ele>2123.7747</ele>
        <time>2015-08-22T07:54:06Z</time>
      </trkpt>
      <trkpt lat="45.46883" lon="6.91451">
        <ele>2123.7024</ele>
        <time>2015-08-22T07:54:16Z</time>
      </trkpt>
      <trkpt lat="45.46881" lon="6.91452">
        <ele>2123.7024</ele>
        <time>2015-08-22T07:54:21Z</time>
      </trkpt>
      <trkpt lat="45.46873" lon="6.91453">
        <ele>2123.571</ele>
        <time>2015-08-22T07:54:31Z</time>
      </trkpt>
      <trkpt lat="45.46873" lon="6.91459">
        <ele>2123.571</ele>
        <time>2015-08-22T07:54:36Z</time>
      </trkpt>
      <trkpt lat="45.46878" lon="6.91479">
        <ele>2123.1663</ele>
        <time>2015-08-22T07:54:46Z</time>
      </trkpt>
      <trkpt lat="45.46879" lon="6.91484">
        <ele>2123.1663</ele>
        <time>2015-08-22T07:54:51Z</time>
      </trkpt>
      <trkpt lat="45.46882" lon="6.91499">
        <ele>2122.6768</ele>
        <time>2015-08-22T07:55:01Z</time>
      </trkpt>
      <trkpt lat="45.46887" lon="6.91503">
        <ele>2122.6768</ele>
        <time>2015-08-22T07:55:06Z</time>
      </trkpt>
      <trkpt lat="45.46894" lon="6.91512">
        <ele>2122.0989</ele>
        <time>2015-08-22T07:55:16Z</time>
      </trkpt>
      <trkpt lat="45.46896" lon="6.91518">
        <ele>2122.0989</ele>
        <time>2015-08-22T07:55:21Z</time>
      </trkpt>
      <trkpt lat="45.46903" lon="6.91526">
        <ele>2121.4001</ele>
        <time>2015-08-22T07:55:31Z</time>
      </trkpt>
      <trkpt lat="45.46906" lon="6.91528">
        <ele>2121.4001</ele>
        <time>2015-08-22T07:55:36Z</time>
      </trkpt>
      <trkpt lat="45.46912" lon="6.91538">
        <ele>2120.5654</ele>
        <time>2015-08-22T07:55:46Z</time>
      </trkpt>
      <trkpt lat="45.46915" lon="6.91541">
        <ele>2120.5654</ele>
        <time>2015-08-22T07:55:51Z</time>
      </trkpt>
      <trkpt lat="45.46921" lon="6.9155">
        <ele>2119.6257</ele>
        <time>2015-08-22T07:56:01Z</time>
      </trkpt>
      <trkpt lat="45.46923" lon="6.91552">
        <ele>2119.6257</ele>
        <time>2015-08-22T07:56:06Z</time>
      </trkpt>
      <trkpt lat="45.46926" lon="6.91561">
        <ele>2118.8674</ele>
        <time>2015-08-22T07:56:16Z</time>
      </trkpt>
      <trkpt lat="45.46926" lon="6.91563">
        <ele>2118.8674</ele>
        <time>2015-08-22T07:56:21Z</time>
      </trkpt>
      <trkpt lat="45.4693" lon="6.91569">
        <ele>2118.8674</ele>
        <time>2015-08-22T07:56:31Z</time>
      </trkpt>
      <trkpt lat="45.46932" lon="6.91569">
        <ele>2118.4177</ele>
        <time>2015-08-22T07:56:36Z</time>
      </trkpt>
      <trkpt lat="45.46939" lon="6.91572">
        <ele>2118.4177</ele>
        <time>2015-08-22T07:56:46Z</time>
      </trkpt>
      <trkpt lat="45.46941" lon="6.91574">
        <ele>2118.1208</ele>
        <time>2015-08-22T07:56:51Z</time>
      </trkpt>
      <trkpt lat="45.46943" lon="6.91579">
        <ele>2118.1208</ele>
        <time>2015-08-22T07:57:06Z</time>
      </trkpt>
      <trkpt lat="45.46945" lon="6.9158">
        <ele>2118.1208</ele>
        <time>2015-08-22T07:57:11Z</time>
      </trkpt>
      <trkpt lat="45.46947" lon="6.91584">
        <ele>2117.937</ele>
        <time>2015-08-22T07:57:21Z</time>
      </trkpt>
      <trkpt lat="45.46949" lon="6.91584">
        <ele>2117.937</ele>
        <time>2015-08-22T07:57:26Z</time>
      </trkpt>
      <trkpt lat="45.46952" lon="6.91591">
        <ele>2117.937</ele>
        <time>2015-08-22T07:57:36Z</time>
      </trkpt>
      <trkpt lat="45.46953" lon="6.91593">
        <ele>2117.937</ele>
        <time>2015-08-22T07:57:41Z</time>
      </trkpt>
      <trkpt lat="45.46955" lon="6.916">
        <ele>2118.1006</ele>
        <time>2015-08-22T07:57:51Z</time>
      </trkpt>
      <trkpt lat="45.46955" lon="6.91604">
        <ele>2118.1006</ele>
        <time>2015-08-22T07:57:56Z</time>
      </trkpt>
      <trkpt lat="45.46958" lon="6.91609">
        <ele>2118.1006</ele>
        <time>2015-08-22T07:58:06Z</time>
      </trkpt>
      <trkpt lat="45.4696" lon="6.91612">
        <ele>2118.6296</ele>
        <time>2015-08-22T07:58:11Z</time>
      </trkpt>
      <trkpt lat="45.46963" lon="6.91618">
        <ele>2118.6296</ele>
        <time>2015-08-22T07:58:21Z</time>
      </trkpt>
      <trkpt lat="45.46965" lon="6.9162">
        <ele>2118.6296</ele>
        <time>2015-08-22T07:58:26Z</time>
      </trkpt>
      <trkpt lat="45.4697" lon="6.91626">
        <ele>2119.4644</ele>
        <time>2015-08-22T07:58:36Z</time>
      </trkpt>
      <trkpt lat="45.46971" lon="6.9163">
        <ele>2119.4644</ele>
        <time>2015-08-22T07:58:41Z</time>
      </trkpt>
      <trkpt lat="45.46975" lon="6.91635">
        <ele>2119.4644</ele>
        <time>2015-08-22T07:58:51Z</time>
      </trkpt>
      <trkpt lat="45.46976" lon="6.91638">
        <ele>2120.3235</ele>
        <time>2015-08-22T07:58:56Z</time>
      </trkpt>
      <trkpt lat="45.46982" lon="6.91645">
        <ele>2120.3235</ele>
        <time>2015-08-22T07:59:06Z</time>
      </trkpt>
      <trkpt lat="45.46984" lon="6.9165">
        <ele>2121.3535</ele>
        <time>2015-08-22T07:59:11Z</time>
      </trkpt>
      <trkpt lat="45.46986" lon="6.91659">
        <ele>2121.3535</ele>
        <time>2015-08-22T07:59:21Z</time>
      </trkpt>
      <trkpt lat="45.46987" lon="6.91662">
        <ele>2121.3535</ele>
        <time>2015-08-22T07:59:26Z</time>
      </trkpt>
      <trkpt lat="45.46994" lon="6.91673">
        <ele>2122.568</ele>
        <time>2015-08-22T07:59:41Z</time>
      </trkpt>
      <trkpt lat="45.46994" lon="6.91677">
        <ele>2122.568</ele>
        <time>2015-08-22T07:59:46Z</time>
      </trkpt>
      <trkpt lat="45.46994" lon="6.91686">
        <ele>2123.7864</ele>
        <time>2015-08-22T07:59:56Z</time>
      </trkpt>
      <trkpt lat="45.46995" lon="6.91689">
        <ele>2123.7864</ele>
        <time>2015-08-22T08:00:01Z</time>
      </trkpt>
      <trkpt lat="45.46997" lon="6.91697">
        <ele>2123.7864</ele>
        <time>2015-08-22T08:00:11Z</time>
      </trkpt>
      <trkpt lat="45.46998" lon="6.91701">
        <ele>2125.1245</ele>
        <time>2015-08-22T08:00:16Z</time>
      </trkpt>
      <trkpt lat="45.46998" lon="6.91712">
        <ele>2125.1245</ele>
        <time>2015-08-22T08:00:26Z</time>
      </trkpt>
      <trkpt lat="45.46998" lon="6.91716">
        <ele>2126.5403</ele>
        <time>2015-08-22T08:00:31Z</time>
      </trkpt>
      <trkpt lat="45.46995" lon="6.91725">
        <ele>2126.5403</ele>
        <time>2015-08-22T08:00:41Z</time>
      </trkpt>
      <trkpt lat="45.46995" lon="6.91729">
        <ele>2127.9807</ele>
        <time>2015-08-22T08:00:46Z</time>
      </trkpt>
      <trkpt lat="45.46992" lon="6.91736">
        <ele>2127.9807</ele>
        <time>2015-08-22T08:00:56Z</time>
      </trkpt>
      <trkpt lat="45.46991" lon="6.91735">
        <ele>2127.9807</ele>
        <time>2015-08-22T08:01:01Z</time>
      </trkpt>
      <trkpt lat="45.46989" lon="6.91733">
        <ele>2129.7202</ele>
        <time>2015-08-22T08:01:11Z</time>
      </trkpt>
      <trkpt lat="45.4699" lon="6.91732">
        <ele>2129.7202</ele>
        <time>2015-08-22T08:01:16Z</time>
      </trkpt>
      <trkpt lat="45.46989" lon="6.91729">
        <ele>2129.7202</ele>
        <time>2015-08-22T08:01:26Z</time>
      </trkpt>
      <trkpt lat="45.46987" lon="6.91725">
        <ele>2129.7202</ele>
        <time>2015-08-22T08:01:31Z</time>
      </trkpt>
      <trkpt lat="45.46982" lon="6.91714">
        <ele>2132.4949</ele>
        <time>2015-08-22T08:01:46Z</time>
      </trkpt>
      <trkpt lat="45.46978" lon="6.91712">
        <ele>2132.4949</ele>
        <time>2015-08-22T08:01:51Z</time>
      </trkpt>
      <trkpt lat="45.46974" lon="6.91708">
        <ele>2135.3074</ele>
        <time>2015-08-22T08:02:01Z</time>
      </trkpt>
      <trkpt lat="45.46973" lon="6.91705">
        <ele>2135.3074</ele>
        <time>2015-08-22T08:02:06Z</time>
      </trkpt>
      <trkpt lat="45.46971" lon="6.917">
        <ele>2135.3074</ele>
        <time>2015-08-22T08:02:16Z</time>
      </trkpt>
      <trkpt lat="45.46969" lon="6.91699">
        <ele>2135.3074</ele>
        <time>2015-08-22T08:02:21Z</time>
      </trkpt>
      <trkpt lat="45.46966" lon="6.91697">
        <ele>2138.1482</ele>
        <time>2015-08-22T08:02:31Z</time>
      </trkpt>
      <trkpt lat="45.46963" lon="6.91695">
        <ele>2138.1482</ele>
        <time>2015-08-22T08:02:36Z</time>
      </trkpt>
      <trkpt lat="45.46958" lon="6.91691">
        <ele>2138.1482</ele>
        <time>2015-08-22T08:02:46Z</time>
      </trkpt>
      <trkpt lat="45.46956" lon="6.91689">
        <ele>2140.8928</ele>
        <time>2015-08-22T08:02:51Z</time>
      </trkpt>
      <trkpt lat="45.46949" lon="6.91688">
        <ele>2140.8928</ele>
        <time>2015-08-22T08:03:01Z</time>
      </trkpt>
      <trkpt lat="45.46948" lon="6.91683">
        <ele>2143.5571</ele>
        <time>2015-08-22T08:03:06Z</time>
      </trkpt>
      <trkpt lat="45.46943" lon="6.91682">
        <ele>2143.5571</ele>
        <time>2015-08-22T08:03:16Z</time>
      </trkpt>
      <trkpt lat="45.46941" lon="6.91682">
        <ele>2143.5571</ele>
        <time>2015-08-22T08:03:21Z</time>
      </trkpt>
      <trkpt lat="45.46936" lon="6.91675">
        <ele>2146.1272</ele>
        <time>2015-08-22T08:03:31Z</time>
      </trkpt>
      <trkpt lat="45.46933" lon="6.91674">
        <ele>2146.1272</ele>
        <time>2015-08-22T08:03:36Z</time>
      </trkpt>
      <trkpt lat="45.46923" lon="6.91666">
        <ele>2148.7214</ele>
        <time>2015-08-22T08:03:51Z</time>
      </trkpt>
      <trkpt lat="45.46922" lon="6.91665">
        <ele>2148.7214</ele>
        <time>2015-08-22T08:03:56Z</time>
      </trkpt>
      <trkpt lat="45.46919" lon="6.91663">
        <ele>2148.7214</ele>
        <time>2015-08-22T08:04:06Z</time>
      </trkpt>
      <trkpt lat="45.46916" lon="6.91663">
        <ele>2148.7214</ele>
        <time>2015-08-22T08:04:11Z</time>
      </trkpt>
      <trkpt lat="45.4691" lon="6.91658">
        <ele>2151.463</ele>
        <time>2015-08-22T08:04:21Z</time>
      </trkpt>
      <trkpt lat="45.46905" lon="6.91652">
        <ele>2151.463</ele>
        <time>2015-08-22T08:04:26Z</time>
      </trkpt>
      <trkpt lat="45.469" lon="6.91647">
        <ele>2154.117</ele>
        <time>2015-08-22T08:04:36Z</time>
      </trkpt>
      <trkpt lat="45.46898" lon="6.91646">
        <ele>2154.117</ele>
        <time>2015-08-22T08:04:41Z</time>
      </trkpt>
      <trkpt lat="45.46891" lon="6.91636">
        <ele>2156.859</ele>
        <time>2015-08-22T08:04:51Z</time>
      </trkpt>
      <trkpt lat="45.46889" lon="6.91635">
        <ele>2156.859</ele>
        <time>2015-08-22T08:04:56Z</time>
      </trkpt>
      <trkpt lat="45.46882" lon="6.91631">
        <ele>2159.8933</ele>
        <time>2015-08-22T08:05:06Z</time>
      </trkpt>
      <trkpt lat="45.46879" lon="6.9163">
        <ele>2159.8933</ele>
        <time>2015-08-22T08:05:11Z</time>
      </trkpt>
      <trkpt lat="45.46876" lon="6.91627">
        <ele>2159.8933</ele>
        <time>2015-08-22T08:05:21Z</time>
      </trkpt>
      <trkpt lat="45.46873" lon="6.91625">
        <ele>2163.0469</ele>
        <time>2015-08-22T08:05:26Z</time>
      </trkpt>
      <trkpt lat="45.46869" lon="6.91622">
        <ele>2163.0469</ele>
        <time>2015-08-22T08:05:36Z</time>
      </trkpt>
      <trkpt lat="45.46869" lon="6.91622">
        <ele>2163.0469</ele>
        <time>2015-08-22T08:05:41Z</time>
      </trkpt>
      <trkpt lat="45.46869" lon="6.91622">
        <ele>2163.0469</ele>
        <time>2015-08-22T08:08:26Z</time>
      </trkpt>
      <trkpt lat="45.4687" lon="6.91624">
        <ele>2163.0469</ele>
        <time>2015-08-22T08:08:31Z</time>
      </trkpt>
      <trkpt lat="45.46873" lon="6.91634">
        <ele>2165.9575</ele>
        <time>2015-08-22T08:08:41Z</time>
      </trkpt>
      <trkpt lat="45.46874" lon="6.91637">
        <ele>2165.9575</ele>
        <time>2015-08-22T08:08:46Z</time>
      </trkpt>
      <trkpt lat="45.46874" lon="6.91638">
        <ele>2165.9575</ele>
        <time>2015-08-22T08:09:01Z</time>
      </trkpt>
      <trkpt lat="45.46877" lon="6.91647">
        <ele>2168.9988</ele>
        <time>2015-08-22T08:09:21Z</time>
      </trkpt>
      <trkpt lat="45.46886" lon="6.91664">
        <ele>2171.8948</ele>
        <time>2015-08-22T08:09:31Z</time>
      </trkpt>
      <trkpt lat="45.46889" lon="6.91669">
        <ele>2171.8948</ele>
        <time>2015-08-22T08:09:36Z</time>
      </trkpt>
      <trkpt lat="45.46891" lon="6.91678">
        <ele>2174.5928</ele>
        <time>2015-08-22T08:09:46Z</time>
      </trkpt>
      <trkpt lat="45.46892" lon="6.91681">
        <ele>2174.5928</ele>
        <time>2015-08-22T08:09:51Z</time>
      </trkpt>
      <trkpt lat="45.46892" lon="6.91682">
        <ele>2174.5928</ele>
        <time>2015-08-22T08:10:01Z</time>
      </trkpt>
      <trkpt lat="45.46893" lon="6.91683">
        <ele>2174.5928</ele>
        <time>2015-08-22T08:10:06Z</time>
      </trkpt>
      <trkpt lat="45.46899" lon="6.91689">
        <ele>2177.2185</ele>
        <time>2015-08-22T08:10:16Z</time>
      </trkpt>
      <trkpt lat="45.46901" lon="6.91691">
        <ele>2177.2185</ele>
        <time>2015-08-22T08:10:21Z</time>
      </trkpt>
      <trkpt lat="45.46903" lon="6.91693">
        <ele>2177.2185</ele>
        <time>2015-08-22T08:10:31Z</time>
      </trkpt>
      <trkpt lat="45.46905" lon="6.91694">
        <ele>2177.2185</ele>
        <time>2015-08-22T08:10:36Z</time>
      </trkpt>
      <trkpt lat="45.46903" lon="6.91703">
        <ele>2179.6855</ele>
        <time>2015-08-22T08:10:46Z</time>
      </trkpt>
      <trkpt lat="45.46902" lon="6.91707">
        <ele>2179.6855</ele>
        <time>2015-08-22T08:10:51Z</time>
      </trkpt>
      <trkpt lat="45.46901" lon="6.91709">
        <ele>2179.6855</ele>
        <time>2015-08-22T08:11:01Z</time>
      </trkpt>
      <trkpt lat="45.46902" lon="6.91711">
        <ele>2179.6855</ele>
        <time>2015-08-22T08:11:06Z</time>
      </trkpt>
      <trkpt lat="45.46902" lon="6.91718">
        <ele>2182.0886</ele>
        <time>2015-08-22T08:11:16Z</time>
      </trkpt>
      <trkpt lat="45.46902" lon="6.91719">
        <ele>2182.0886</ele>
        <time>2015-08-22T08:11:21Z</time>
      </trkpt>
      <trkpt lat="45.46904" lon="6.91724">
        <ele>2182.0886</ele>
        <time>2015-08-22T08:11:31Z</time>
      </trkpt>
      <trkpt lat="45.46903" lon="6.91725">
        <ele>2182.0886</ele>
        <time>2015-08-22T08:11:36Z</time>
      </trkpt>
      <trkpt lat="45.46903" lon="6.91732">
        <ele>2184.76</ele>
        <time>2015-08-22T08:11:51Z</time>
      </trkpt>
      <trkpt lat="45.46904" lon="6.91734">
        <ele>2184.76</ele>
        <time>2015-08-22T08:11:56Z</time>
      </trkpt>
      <trkpt lat="45.46908" lon="6.91742">
        <ele>2184.76</ele>
        <time>2015-08-22T08:12:06Z</time>
      </trkpt>
      <trkpt lat="45.46911" lon="6.91745">
        <ele>2187.3728</ele>
        <time>2015-08-22T08:12:11Z</time>
      </trkpt>
      <trkpt lat="45.46914" lon="6.91751">
        <ele>2187.3728</ele>
        <time>2015-08-22T08:12:21Z</time>
      </trkpt>
      <trkpt lat="45.46915" lon="6.91753">
        <ele>2187.3728</ele>
        <time>2015-08-22T08:12:26Z</time>
      </trkpt>
      <trkpt lat="45.46914" lon="6.91758">
        <ele>2190.1008</ele>
        <time>2015-08-22T08:12:36Z</time>
      </trkpt>
      <trkpt lat="45.46915" lon="6.9176">
        <ele>2190.1008</ele>
        <time>2015-08-22T08:12:41Z</time>
      </trkpt>
      <trkpt lat="45.46914" lon="6.91766">
        <ele>2190.1008</ele>
        <time>2015-08-22T08:12:51Z</time>
      </trkpt>
      <trkpt lat="45.46912" lon="6.9177">
        <ele>2192.96</ele>
        <time>2015-08-22T08:12:56Z</time>
      </trkpt>
      <trkpt lat="45.46912" lon="6.91772">
        <ele>2192.96</ele>
        <time>2015-08-22T08:13:06Z</time>
      </trkpt>
      <trkpt lat="45.46914" lon="6.91774">
        <ele>2192.96</ele>
        <time>2015-08-22T08:13:11Z</time>
      </trkpt>
      <trkpt lat="45.46916" lon="6.91781">
        <ele>2195.9072</ele>
        <time>2015-08-22T08:13:26Z</time>
      </trkpt>
      <trkpt lat="45.46916" lon="6.91784">
        <ele>2195.9072</ele>
        <time>2015-08-22T08:13:31Z</time>
      </trkpt>
      <trkpt lat="45.46914" lon="6.91791">
        <ele>2195.9072</ele>
        <time>2015-08-22T08:13:41Z</time>
      </trkpt>
      <trkpt lat="45.46915" lon="6.91794">
        <ele>2198.788</ele>
        <time>2015-08-22T08:13:46Z</time>
      </trkpt>
      <trkpt lat="45.46916" lon="6.91797">
        <ele>2198.788</ele>
        <time>2015-08-22T08:13:56Z</time>
      </trkpt>
      <trkpt lat="45.46917" lon="6.918">
        <ele>2198.788</ele>
        <time>2015-08-22T08:14:01Z</time>
      </trkpt>
      <trkpt lat="45.46918" lon="6.91807">
        <ele>2201.5742</ele>
        <time>2015-08-22T08:14:11Z</time>
      </trkpt>
      <trkpt lat="45.46918" lon="6.91809">
        <ele>2201.5742</ele>
        <time>2015-08-22T08:14:16Z</time>
      </trkpt>
      <trkpt lat="45.46919" lon="6.91812">
        <ele>2201.5742</ele>
        <time>2015-08-22T08:14:26Z</time>
      </trkpt>
      <trkpt lat="45.46919" lon="6.91815">
        <ele>2201.5742</ele>
        <time>2015-08-22T08:14:31Z</time>
      </trkpt>
      <trkpt lat="45.46917" lon="6.91824">
        <ele>2204.37</ele>
        <time>2015-08-22T08:14:41Z</time>
      </trkpt>
      <trkpt lat="45.46916" lon="6.91829">
        <ele>2204.37</ele>
        <time>2015-08-22T08:14:46Z</time>
      </trkpt>
      <trkpt lat="45.46917" lon="6.91833">
        <ele>2204.37</ele>
        <time>2015-08-22T08:14:56Z</time>
      </trkpt>
      <trkpt lat="45.46918" lon="6.91836">
        <ele>2204.37</ele>
        <time>2015-08-22T08:15:01Z</time>
      </trkpt>
      <trkpt lat="45.46919" lon="6.91845">
        <ele>2207.1423</ele>
        <time>2015-08-22T08:15:11Z</time>
      </trkpt>
      <trkpt lat="45.46919" lon="6.9185">
        <ele>2207.1423</ele>
        <time>2015-08-22T08:15:16Z</time>
      </trkpt>
      <trkpt lat="45.46918" lon="6.91863">
        <ele>2209.9473</ele>
        <time>2015-08-22T08:15:31Z</time>
      </trkpt>
      <trkpt lat="45.46919" lon="6.9187">
        <ele>2209.9473</ele>
        <time>2015-08-22T08:15:36Z</time>
      </trkpt>
      <trkpt lat="45.4692" lon="6.91873">
        <ele>2209.9473</ele>
        <time>2015-08-22T08:15:46Z</time>
      </trkpt>
      <trkpt lat="45.4692" lon="6.91875">
        <ele>2209.9473</ele>
        <time>2015-08-22T08:15:51Z</time>
      </trkpt>
      <trkpt lat="45.46921" lon="6.91882">
        <ele>2212.7505</ele>
        <time>2015-08-22T08:16:01Z</time>
      </trkpt>
      <trkpt lat="45.46922" lon="6.91883">
        <ele>2212.7505</ele>
        <time>2015-08-22T08:16:06Z</time>
      </trkpt>
      <trkpt lat="45.46923" lon="6.91892">
        <ele>2212.7505</ele>
        <time>2015-08-22T08:16:16Z</time>
      </trkpt>
      <trkpt lat="45.46924" lon="6.91897">
        <ele>2215.506</ele>
        <time>2015-08-22T08:16:21Z</time>
      </trkpt>
      <trkpt lat="45.46924" lon="6.91905">
        <ele>2215.506</ele>
        <time>2015-08-22T08:16:31Z</time>
      </trkpt>
      <trkpt lat="45.46923" lon="6.91909">
        <ele>2215.506</ele>
        <time>2015-08-22T08:16:36Z</time>
      </trkpt>
      <trkpt lat="45.46923" lon="6.91916">
        <ele>2218.3154</ele>
        <time>2015-08-22T08:16:46Z</time>
      </trkpt>
      <trkpt lat="45.46923" lon="6.9192">
        <ele>2218.3154</ele>
        <time>2015-08-22T08:16:51Z</time>
      </trkpt>
      <trkpt lat="45.46921" lon="6.91924">
        <ele>2218.3154</ele>
        <time>2015-08-22T08:17:01Z</time>
      </trkpt>
      <trkpt lat="45.4692" lon="6.91927">
        <ele>2221.0132</ele>
        <time>2015-08-22T08:17:06Z</time>
      </trkpt>
      <trkpt lat="45.4692" lon="6.91935">
        <ele>2221.0132</ele>
        <time>2015-08-22T08:17:16Z</time>
      </trkpt>
      <trkpt lat="45.46921" lon="6.9194">
        <ele>2223.4902</ele>
        <time>2015-08-22T08:17:21Z</time>
      </trkpt>
      <trkpt lat="45.46922" lon="6.91948">
        <ele>2223.4902</ele>
        <time>2015-08-22T08:17:36Z</time>
      </trkpt>
      <trkpt lat="45.46921" lon="6.91949">
        <ele>2223.4902</ele>
        <time>2015-08-22T08:17:41Z</time>
      </trkpt>
      <trkpt lat="45.4692" lon="6.91954">
        <ele>2226.1072</ele>
        <time>2015-08-22T08:17:51Z</time>
      </trkpt>
      <trkpt lat="45.4692" lon="6.91958">
        <ele>2226.1072</ele>
        <time>2015-08-22T08:17:56Z</time>
      </trkpt>
      <trkpt lat="45.46922" lon="6.91967">
        <ele>2228.477</ele>
        <time>2015-08-22T08:18:06Z</time>
      </trkpt>
      <trkpt lat="45.46922" lon="6.91971">
        <ele>2228.477</ele>
        <time>2015-08-22T08:18:11Z</time>
      </trkpt>
      <trkpt lat="45.46922" lon="6.91981">
        <ele>2230.6172</ele>
        <time>2015-08-22T08:18:21Z</time>
      </trkpt>
      <trkpt lat="45.46921" lon="6.91984">
        <ele>2230.6172</ele>
        <time>2015-08-22T08:18:26Z</time>
      </trkpt>
      <trkpt lat="45.46921" lon="6.9198">
        <ele>2230.6172</ele>
        <time>2015-08-22T08:18:36Z</time>
      </trkpt>
      <trkpt lat="45.4692" lon="6.9198">
        <ele>2230.6172</ele>
        <time>2015-08-22T08:18:41Z</time>
      </trkpt>
      <trkpt lat="45.46919" lon="6.91986">
        <ele>2232.227</ele>
        <time>2015-08-22T08:18:51Z</time>
      </trkpt>
      <trkpt lat="45.4692" lon="6.91988">
        <ele>2232.227</ele>
        <time>2015-08-22T08:18:56Z</time>
      </trkpt>
      <trkpt lat="45.46918" lon="6.91992">
        <ele>2232.227</ele>
        <time>2015-08-22T08:19:06Z</time>
      </trkpt>
      <trkpt lat="45.46916" lon="6.91994">
        <ele>2232.227</ele>
        <time>2015-08-22T08:19:11Z</time>
      </trkpt>
      <trkpt lat="45.46915" lon="6.91994">
        <ele>2232.227</ele>
        <time>2015-08-22T08:19:21Z</time>
      </trkpt>
      <trkpt lat="45.46918" lon="6.91992">
        <ele>2233.6497</ele>
        <time>2015-08-22T08:19:26Z</time>
      </trkpt>
      <trkpt lat="45.4692" lon="6.91989">
        <ele>2233.6497</ele>
        <time>2015-08-22T08:19:36Z</time>
      </trkpt>
      <trkpt lat="45.4692" lon="6.9199">
        <ele>2233.6497</ele>
        <time>2015-08-22T08:19:41Z</time>
      </trkpt>
      <trkpt lat="45.46914" lon="6.91999">
        <ele>2235.2332</ele>
        <time>2015-08-22T08:19:56Z</time>
      </trkpt>
      <trkpt lat="45.46911" lon="6.92002">
        <ele>2235.2332</ele>
        <time>2015-08-22T08:20:01Z</time>
      </trkpt>
      <trkpt lat="45.46907" lon="6.92013">
        <ele>2236.794</ele>
        <time>2015-08-22T08:20:11Z</time>
      </trkpt>
      <trkpt lat="45.46906" lon="6.92017">
        <ele>2236.794</ele>
        <time>2015-08-22T08:20:16Z</time>
      </trkpt>
      <trkpt lat="45.46902" lon="6.92025">
        <ele>2238.1914</ele>
        <time>2015-08-22T08:20:26Z</time>
      </trkpt>
      <trkpt lat="45.46901" lon="6.9203">
        <ele>2238.1914</ele>
        <time>2015-08-22T08:20:31Z</time>
      </trkpt>
      <trkpt lat="45.46898" lon="6.92036">
        <ele>2238.1914</ele>
        <time>2015-08-22T08:20:41Z</time>
      </trkpt>
      <trkpt lat="45.46898" lon="6.9204">
        <ele>2239.4255</ele>
        <time>2015-08-22T08:20:46Z</time>
      </trkpt>
      <trkpt lat="45.46897" lon="6.92047">
        <ele>2239.4255</ele>
        <time>2015-08-22T08:20:56Z</time>
      </trkpt>
      <trkpt lat="45.46895" lon="6.9205">
        <ele>2239.4255</ele>
        <time>2015-08-22T08:21:01Z</time>
      </trkpt>
      <trkpt lat="45.46893" lon="6.92059">
        <ele>2240.742</ele>
        <time>2015-08-22T08:21:11Z</time>
      </trkpt>
      <trkpt lat="45.46894" lon="6.92064">
        <ele>2240.742</ele>
        <time>2015-08-22T08:21:16Z</time>
      </trkpt>
      <trkpt lat="45.46895" lon="6.92072">
        <ele>2242.0364</ele>
        <time>2015-08-22T08:21:26Z</time>
      </trkpt>
      <trkpt lat="45.46895" lon="6.92077">
        <ele>2242.0364</ele>
        <time>2015-08-22T08:21:31Z</time>
      </trkpt>
      <trkpt lat="45.46893" lon="6.92084">
        <ele>2242.0364</ele>
        <time>2015-08-22T08:21:41Z</time>
      </trkpt>
      <trkpt lat="45.46893" lon="6.92087">
        <ele>2243.241</ele>
        <time>2015-08-22T08:21:46Z</time>
      </trkpt>
      <trkpt lat="45.4689" lon="6.92091">
        <ele>2243.241</ele>
        <time>2015-08-22T08:21:56Z</time>
      </trkpt>
      <trkpt lat="45.4689" lon="6.92095">
        <ele>2243.241</ele>
        <time>2015-08-22T08:22:01Z</time>
      </trkpt>
      <trkpt lat="45.46889" lon="6.92104">
        <ele>2244.5386</ele>
        <time>2015-08-22T08:22:11Z</time>
      </trkpt>
      <trkpt lat="45.46889" lon="6.92106">
        <ele>2244.5386</ele>
        <time>2015-08-22T08:22:16Z</time>
      </trkpt>
      <trkpt lat="45.46886" lon="6.92113">
        <ele>2244.5386</ele>
        <time>2015-08-22T08:22:31Z</time>
      </trkpt>
      <trkpt lat="45.46887" lon="6.92116">
        <ele>2245.983</ele>
        <time>2015-08-22T08:22:36Z</time>
      </trkpt>
      <trkpt lat="45.46886" lon="6.92123">
        <ele>2245.983</ele>
        <time>2015-08-22T08:22:46Z</time>
      </trkpt>
      <trkpt lat="45.46887" lon="6.92126">
        <ele>2245.983</ele>
        <time>2015-08-22T08:22:51Z</time>
      </trkpt>
      <trkpt lat="45.46888" lon="6.92137">
        <ele>2247.5796</ele>
        <time>2015-08-22T08:23:01Z</time>
      </trkpt>
      <trkpt lat="45.46886" lon="6.92139">
        <ele>2247.5796</ele>
        <time>2015-08-22T08:23:06Z</time>
      </trkpt>
      <trkpt lat="45.4688" lon="6.92142">
        <ele>2247.5796</ele>
        <time>2015-08-22T08:23:16Z</time>
      </trkpt>
      <trkpt lat="45.46877" lon="6.92144">
        <ele>2249.0889</ele>
        <time>2015-08-22T08:23:21Z</time>
      </trkpt>
      <trkpt lat="45.46876" lon="6.92153">
        <ele>2249.0889</ele>
        <time>2015-08-22T08:23:31Z</time>
      </trkpt>
      <trkpt lat="45.46876" lon="6.92156">
        <ele>2249.0889</ele>
        <time>2015-08-22T08:23:36Z</time>
      </trkpt>
      <trkpt lat="45.46874" lon="6.92166">
        <ele>2250.5627</ele>
        <time>2015-08-22T08:23:46Z</time>
      </trkpt>
      <trkpt lat="45.46873" lon="6.92169">
        <ele>2250.5627</ele>
        <time>2015-08-22T08:23:51Z</time>
      </trkpt>
      <trkpt lat="45.46871" lon="6.92176">
        <ele>2250.5627</ele>
        <time>2015-08-22T08:24:01Z</time>
      </trkpt>
      <trkpt lat="45.46869" lon="6.92181">
        <ele>2251.9338</ele>
        <time>2015-08-22T08:24:06Z</time>
      </trkpt>
      <trkpt lat="45.46868" lon="6.9219">
        <ele>2251.9338</ele>
        <time>2015-08-22T08:24:16Z</time>
      </trkpt>
      <trkpt lat="45.46869" lon="6.92195">
        <ele>2253.2412</ele>
        <time>2015-08-22T08:24:21Z</time>
      </trkpt>
      <trkpt lat="45.46871" lon="6.92206">
        <ele>2253.2412</ele>
        <time>2015-08-22T08:24:31Z</time>
      </trkpt>
      <trkpt lat="45.46872" lon="6.92209">
        <ele>2254.4487</ele>
        <time>2015-08-22T08:24:36Z</time>
      </trkpt>
      <trkpt lat="45.4687" lon="6.92218">
        <ele>2254.4487</ele>
        <time>2015-08-22T08:24:51Z</time>
      </trkpt>
      <trkpt lat="45.4687" lon="6.92221">
        <ele>2254.4487</ele>
        <time>2015-08-22T08:24:56Z</time>
      </trkpt>
      <trkpt lat="45.46871" lon="6.92226">
        <ele>2255.8118</ele>
        <time>2015-08-22T08:25:06Z</time>
      </trkpt>
      <trkpt lat="45.46871" lon="6.9223">
        <ele>2255.8118</ele>
        <time>2015-08-22T08:25:11Z</time>
      </trkpt>
      <trkpt lat="45.46872" lon="6.92238">
        <ele>2255.8118</ele>
        <time>2015-08-22T08:25:21Z</time>
      </trkpt>
      <trkpt lat="45.46871" lon="6.92242">
        <ele>2257.1772</ele>
        <time>2015-08-22T08:25:26Z</time>
      </trkpt>
      <trkpt lat="45.46869" lon="6.92251">
        <ele>2257.1772</ele>
        <time>2015-08-22T08:25:36Z</time>
      </trkpt>
      <trkpt lat="45.4687" lon="6.92254">
        <ele>2257.1772</ele>
        <time>2015-08-22T08:25:41Z</time>
      </trkpt>
      <trkpt lat="45.46871" lon="6.9226">
        <ele>2258.6052</ele>
        <time>2015-08-22T08:25:51Z</time>
      </trkpt>
      <trkpt lat="45.46872" lon="6.92264">
        <ele>2258.6052</ele>
        <time>2015-08-22T08:25:56Z</time>
      </trkpt>
      <trkpt lat="45.46872" lon="6.92275">
        <ele>2260.0352</ele>
        <time>2015-08-22T08:26:11Z</time>
      </trkpt>
      <trkpt lat="45.46871" lon="6.92279">
        <ele>2260.0352</ele>
        <time>2015-08-22T08:26:16Z</time>
      </trkpt>
      <trkpt lat="45.46871" lon="6.92288">
        <ele>2260.0352</ele>
        <time>2015-08-22T08:26:26Z</time>
      </trkpt>
      <trkpt lat="45.46871" lon="6.92291">
        <ele>2261.3105</ele>
        <time>2015-08-22T08:26:31Z</time>
      </trkpt>
      <trkpt lat="45.46872" lon="6.923">
        <ele>2261.3105</ele>
        <time>2015-08-22T08:26:41Z</time>
      </trkpt>
      <trkpt lat="45.46875" lon="6.92303">
        <ele>2262.5032</ele>
        <time>2015-08-22T08:26:46Z</time>
      </trkpt>
      <trkpt lat="45.46877" lon="6.92311">
        <ele>2262.5032</ele>
        <time>2015-08-22T08:26:56Z</time>
      </trkpt>
      <trkpt lat="45.46878" lon="6.92314">
        <ele>2262.5032</ele>
        <time>2015-08-22T08:27:01Z</time>
      </trkpt>
      <trkpt lat="45.46881" lon="6.92323">
        <ele>2263.7947</ele>
        <time>2015-08-22T08:27:11Z</time>
      </trkpt>
      <trkpt lat="45.46884" lon="6.92325">
        <ele>2263.7947</ele>
        <time>2015-08-22T08:27:16Z</time>
      </trkpt>
      <trkpt lat="45.46888" lon="6.92332">
        <ele>2265.0212</ele>
        <time>2015-08-22T08:27:26Z</time>
      </trkpt>
      <trkpt lat="45.46889" lon="6.92334">
        <ele>2265.0212</ele>
        <time>2015-08-22T08:27:31Z</time>
      </trkpt>
      <trkpt lat="45.46887" lon="6.92342">
        <ele>2265.0212</ele>
        <time>2015-08-22T08:27:41Z</time>
      </trkpt>
      <trkpt lat="45.46888" lon="6.92346">
        <ele>2266.1328</ele>
        <time>2015-08-22T08:27:46Z</time>
      </trkpt>
      <trkpt lat="45.46891" lon="6.92351">
        <ele>2266.1328</ele>
        <time>2015-08-22T08:27:56Z</time>
      </trkpt>
      <trkpt lat="45.46895" lon="6.92353">
        <ele>2266.1328</ele>
        <time>2015-08-22T08:28:01Z</time>
      </trkpt>
      <trkpt lat="45.46899" lon="6.9236">
        <ele>2267.2844</ele>
        <time>2015-08-22T08:28:11Z</time>
      </trkpt>
      <trkpt lat="45.469" lon="6.92365">
        <ele>2267.2844</ele>
        <time>2015-08-22T08:28:16Z</time>
      </trkpt>
      <trkpt lat="45.46904" lon="6.92381">
        <ele>2268.5044</ele>
        <time>2015-08-22T08:28:31Z</time>
      </trkpt>
      <trkpt lat="45.46903" lon="6.92384">
        <ele>2268.5044</ele>
        <time>2015-08-22T08:28:36Z</time>
      </trkpt>
      <trkpt lat="45.46901" lon="6.92391">
        <ele>2268.5044</ele>
        <time>2015-08-22T08:28:46Z</time>
      </trkpt>
      <trkpt lat="45.469" lon="6.92396">
        <ele>2269.6316</ele>
        <time>2015-08-22T08:28:51Z</time>
      </trkpt>
      <trkpt lat="45.46902" lon="6.92406">
        <ele>2269.6316</ele>
        <time>2015-08-22T08:29:01Z</time>
      </trkpt>
      <trkpt lat="45.46902" lon="6.92409">
        <ele>2270.7183</ele>
        <time>2015-08-22T08:29:06Z</time>
      </trkpt>
      <trkpt lat="45.46905" lon="6.92418">
        <ele>2270.7183</ele>
        <time>2015-08-22T08:29:16Z</time>
      </trkpt>
      <trkpt lat="45.46905" lon="6.92422">
        <ele>2271.8135</ele>
        <time>2015-08-22T08:29:21Z</time>
      </trkpt>
      <trkpt lat="45.46905" lon="6.92431">
        <ele>2271.8135</ele>
        <time>2015-08-22T08:29:31Z</time>
      </trkpt>
      <trkpt lat="45.46903" lon="6.92434">
        <ele>2271.8135</ele>
        <time>2015-08-22T08:29:36Z</time>
      </trkpt>
      <trkpt lat="45.469" lon="6.92443">
        <ele>2272.8608</ele>
        <time>2015-08-22T08:29:46Z</time>
      </trkpt>
      <trkpt lat="45.46897" lon="6.92447">
        <ele>2272.8608</ele>
        <time>2015-08-22T08:29:51Z</time>
      </trkpt>
      <trkpt lat="45.46893" lon="6.92452">
        <ele>2273.7227</ele>
        <time>2015-08-22T08:30:01Z</time>
      </trkpt>
      <trkpt lat="45.46889" lon="6.92457">
        <ele>2273.7227</ele>
        <time>2015-08-22T08:30:06Z</time>
      </trkpt>
      <trkpt lat="45.46886" lon="6.92465">
        <ele>2274.487</ele>
        <time>2015-08-22T08:30:16Z</time>
      </trkpt>
      <trkpt lat="45.46885" lon="6.9247">
        <ele>2274.487</ele>
        <time>2015-08-22T08:30:21Z</time>
      </trkpt>
      <trkpt lat="45.46884" lon="6.92479">
        <ele>2275.0925</ele>
        <time>2015-08-22T08:30:31Z</time>
      </trkpt>
      <trkpt lat="45.46884" lon="6.92482">
        <ele>2275.0925</ele>
        <time>2015-08-22T08:30:36Z</time>
      </trkpt>
      <trkpt lat="45.46882" lon="6.92491">
        <ele>2275.0925</ele>
        <time>2015-08-22T08:30:46Z</time>
      </trkpt>
      <trkpt lat="45.4688" lon="6.92494">
        <ele>2275.4531</ele>
        <time>2015-08-22T08:30:51Z</time>
      </trkpt>
      <trkpt lat="45.46873" lon="6.92501">
        <ele>2275.4531</ele>
        <time>2015-08-22T08:31:06Z</time>
      </trkpt>
      <trkpt lat="45.46873" lon="6.92503">
        <ele>2275.7205</ele>
        <time>2015-08-22T08:31:11Z</time>
      </trkpt>
      <trkpt lat="45.46872" lon="6.92504">
        <ele>2275.7205</ele>
        <time>2015-08-22T08:31:21Z</time>
      </trkpt>
      <trkpt lat="45.46871" lon="6.92502">
        <ele>2275.7205</ele>
        <time>2015-08-22T08:31:26Z</time>
      </trkpt>
      <trkpt lat="45.46873" lon="6.92499">
        <ele>2275.7205</ele>
        <time>2015-08-22T08:31:36Z</time>
      </trkpt>
      <trkpt lat="45.46873" lon="6.92496">
        <ele>2275.7205</ele>
        <time>2015-08-22T08:31:41Z</time>
      </trkpt>
      <trkpt lat="45.46869" lon="6.92499">
        <ele>2276.0354</ele>
        <time>2015-08-22T08:31:51Z</time>
      </trkpt>
      <trkpt lat="45.4687" lon="6.92501">
        <ele>2276.0354</ele>
        <time>2015-08-22T08:31:56Z</time>
      </trkpt>
      <trkpt lat="45.46871" lon="6.92502">
        <ele>2276.0354</ele>
        <time>2015-08-22T08:32:06Z</time>
      </trkpt>
      <trkpt lat="45.46871" lon="6.92502">
        <ele>2276.0354</ele>
        <time>2015-08-22T08:32:11Z</time>
      </trkpt>
      <trkpt lat="45.46873" lon="6.92503">
        <ele>2276.0354</ele>
        <time>2015-08-22T08:32:21Z</time>
      </trkpt>
      <trkpt lat="45.46873" lon="6.92502">
        <ele>2276.0354</ele>
        <time>2015-08-22T08:32:26Z</time>
      </trkpt>
      <trkpt lat="45.46873" lon="6.92501">
        <ele>2276.0354</ele>
        <time>2015-08-22T08:32:36Z</time>
      </trkpt>
      <trkpt lat="45.46873" lon="6.92501">
        <ele>2276.0354</ele>
        <time>2015-08-22T08:32:41Z</time>
      </trkpt>
      <trkpt lat="45.46874" lon="6.92503">
        <ele>2276.0354</ele>
        <time>2015-08-22T08:32:56Z</time>
      </trkpt>
      <trkpt lat="45.46874" lon="6.92504">
        <ele>2276.0354</ele>
        <time>2015-08-22T08:33:01Z</time>
      </trkpt>
      <trkpt lat="45.46875" lon="6.92504">
        <ele>2276.0354</ele>
        <time>2015-08-22T08:33:11Z</time>
      </trkpt>
      <trkpt lat="45.46874" lon="6.92504">
        <ele>2276.4558</ele>
        <time>2015-08-22T08:33:16Z</time>
      </trkpt>
      <trkpt lat="45.46875" lon="6.92504">
        <ele>2276.4558</ele>
        <time>2015-08-22T08:33:26Z</time>
      </trkpt>
      <trkpt lat="45.46875" lon="6.92505">
        <ele>2276.4558</ele>
        <time>2015-08-22T08:33:31Z</time>
      </trkpt>
      <trkpt lat="45.46875" lon="6.92504">
        <ele>2276.4558</ele>
        <time>2015-08-22T08:33:41Z</time>
      </trkpt>
      <trkpt lat="45.46876" lon="6.92503">
        <ele>2276.4558</ele>
        <time>2015-08-22T08:33:46Z</time>
      </trkpt>
      <trkpt lat="45.46875" lon="6.925">
        <ele>2276.4558</ele>
        <time>2015-08-22T08:33:56Z</time>
      </trkpt>
      <trkpt lat="45.46872" lon="6.925">
        <ele>2276.4558</ele>
        <time>2015-08-22T08:34:01Z</time>
      </trkpt>
      <trkpt lat="45.4687" lon="6.92501">
        <ele>2276.9924</ele>
        <time>2015-08-22T08:34:11Z</time>
      </trkpt>
      <trkpt lat="45.4687" lon="6.92502">
        <ele>2276.9924</ele>
        <time>2015-08-22T08:34:16Z</time>
      </trkpt>
      <trkpt lat="45.46872" lon="6.92503">
        <ele>2276.9924</ele>
        <time>2015-08-22T08:34:26Z</time>
      </trkpt>
      <trkpt lat="45.46874" lon="6.92503">
        <ele>2276.9924</ele>
        <time>2015-08-22T08:34:31Z</time>
      </trkpt>
      <trkpt lat="45.46875" lon="6.92504">
        <ele>2276.9924</ele>
        <time>2015-08-22T08:34:41Z</time>
      </trkpt>
      <trkpt lat="45.46874" lon="6.92503">
        <ele>2276.9924</ele>
        <time>2015-08-22T08:34:46Z</time>
      </trkpt>
      <trkpt lat="45.46876" lon="6.92504">
        <ele>2277.351</ele>
        <time>2015-08-22T08:34:56Z</time>
      </trkpt>
      <trkpt lat="45.46877" lon="6.92502">
        <ele>2277.351</ele>
        <time>2015-08-22T08:35:01Z</time>
      </trkpt>
      <trkpt lat="45.46874" lon="6.92501">
        <ele>2277.351</ele>
        <time>2015-08-22T08:35:11Z</time>
      </trkpt>
      <trkpt lat="45.46873" lon="6.92501">
        <ele>2277.351</ele>
        <time>2015-08-22T08:35:16Z</time>
      </trkpt>
      <trkpt lat="45.46872" lon="6.92501">
        <ele>2277.351</ele>
        <time>2015-08-22T08:35:26Z</time>
      </trkpt>
      <trkpt lat="45.46872" lon="6.92501">
        <ele>2277.351</ele>
        <time>2015-08-22T08:35:31Z</time>
      </trkpt>
      <trkpt lat="45.46872" lon="6.92498">
        <ele>2277.351</ele>
        <time>2015-08-22T08:35:46Z</time>
      </trkpt>
      <trkpt lat="45.46871" lon="6.92496">
        <ele>2277.5916</ele>
        <time>2015-08-22T08:35:51Z</time>
      </trkpt>
      <trkpt lat="45.46871" lon="6.92498">
        <ele>2277.5916</ele>
        <time>2015-08-22T08:36:01Z</time>
      </trkpt>
      <trkpt lat="45.46873" lon="6.92502">
        <ele>2277.5916</ele>
        <time>2015-08-22T08:36:06Z</time>
      </trkpt>
      <trkpt lat="45.46874" lon="6.92502">
        <ele>2277.5916</ele>
        <time>2015-08-22T08:36:16Z</time>
      </trkpt>
      <trkpt lat="45.46875" lon="6.92505">
        <ele>2277.5916</ele>
        <time>2015-08-22T08:36:21Z</time>
      </trkpt>
      <trkpt lat="45.46874" lon="6.92503">
        <ele>2277.7988</ele>
        <time>2015-08-22T08:36:31Z</time>
      </trkpt>
      <trkpt lat="45.46874" lon="6.92503">
        <ele>2277.7988</ele>
        <time>2015-08-22T08:36:36Z</time>
      </trkpt>
      <trkpt lat="45.46876" lon="6.92496">
        <ele>2277.7988</ele>
        <time>2015-08-22T08:36:46Z</time>
      </trkpt>
      <trkpt lat="45.46875" lon="6.92499">
        <ele>2277.7988</ele>
        <time>2015-08-22T08:36:51Z</time>
      </trkpt>
      <trkpt lat="45.46873" lon="6.92504">
        <ele>2277.8057</ele>
        <time>2015-08-22T08:37:01Z</time>
      </trkpt>
      <trkpt lat="45.46872" lon="6.92506">
        <ele>2277.8057</ele>
        <time>2015-08-22T08:37:06Z</time>
      </trkpt>
      <trkpt lat="45.46867" lon="6.92512">
        <ele>2277.8057</ele>
        <time>2015-08-22T08:37:16Z</time>
      </trkpt>
      <trkpt lat="45.46864" lon="6.92515">
        <ele>2277.6743</ele>
        <time>2015-08-22T08:37:21Z</time>
      </trkpt>
      <trkpt lat="45.4686" lon="6.9252">
        <ele>2277.6743</ele>
        <time>2015-08-22T08:37:31Z</time>
      </trkpt>
      <trkpt lat="45.46859" lon="6.92523">
        <ele>2277.6743</ele>
        <time>2015-08-22T08:37:36Z</time>
      </trkpt>
      <trkpt lat="45.46853" lon="6.9253">
        <ele>2277.4048</ele>
        <time>2015-08-22T08:37:46Z</time>
      </trkpt>
      <trkpt lat="45.46851" lon="6.92532">
        <ele>2277.4048</ele>
        <time>2015-08-22T08:37:51Z</time>
      </trkpt>
      <trkpt lat="45.46846" lon="6.92539">
        <ele>2277.0554</ele>
        <time>2015-08-22T08:38:01Z</time>
      </trkpt>
      <trkpt lat="45.46844" lon="6.92545">
        <ele>2277.0554</ele>
        <time>2015-08-22T08:38:06Z</time>
      </trkpt>
      <trkpt lat="45.4684" lon="6.9255">
        <ele>2276.6943</ele>
        <time>2015-08-22T08:38:16Z</time>
      </trkpt>
      <trkpt lat="45.46838" lon="6.92552">
        <ele>2276.6943</ele>
        <time>2015-08-22T08:38:21Z</time>
      </trkpt>
      <trkpt lat="45.46833" lon="6.92567">
        <ele>2276.298</ele>
        <time>2015-08-22T08:38:36Z</time>
      </trkpt>
      <trkpt lat="45.4683" lon="6.92568">
        <ele>2276.298</ele>
        <time>2015-08-22T08:38:41Z</time>
      </trkpt>
      <trkpt lat="45.46826" lon="6.92569">
        <ele>2276.298</ele>
        <time>2015-08-22T08:38:51Z</time>
      </trkpt>
      <trkpt lat="45.46825" lon="6.92573">
        <ele>2275.903</ele>
        <time>2015-08-22T08:38:56Z</time>
      </trkpt>
      <trkpt lat="45.46819" lon="6.9258">
        <ele>2275.903</ele>
        <time>2015-08-22T08:39:06Z</time>
      </trkpt>
      <trkpt lat="45.46818" lon="6.9258">
        <ele>2275.903</ele>
        <time>2015-08-22T08:39:11Z</time>
      </trkpt>
      <trkpt lat="45.46812" lon="6.92585">
        <ele>2275.4414</ele>
        <time>2015-08-22T08:39:21Z</time>
      </trkpt>
      <trkpt lat="45.4681" lon="6.92588">
        <ele>2275.4414</ele>
        <time>2015-08-22T08:39:26Z</time>
      </trkpt>
      <trkpt lat="45.46806" lon="6.92598">
        <ele>2274.966</ele>
        <time>2015-08-22T08:39:36Z</time>
      </trkpt>
      <trkpt lat="45.46805" lon="6.92602">
        <ele>2274.966</ele>
        <time>2015-08-22T08:39:41Z</time>
      </trkpt>
      <trkpt lat="45.46802" lon="6.9261">
        <ele>2274.6836</ele>
        <time>2015-08-22T08:39:51Z</time>
      </trkpt>
      <trkpt lat="45.46801" lon="6.92615">
        <ele>2274.6836</ele>
        <time>2015-08-22T08:39:56Z</time>
      </trkpt>
      <trkpt lat="45.46797" lon="6.92626">
        <ele>2274.5842</ele>
        <time>2015-08-22T08:40:06Z</time>
      </trkpt>
      <trkpt lat="45.46798" lon="6.92631">
        <ele>2274.5842</ele>
        <time>2015-08-22T08:40:11Z</time>
      </trkpt>
      <trkpt lat="45.46797" lon="6.92639">
        <ele>2274.5132</ele>
        <time>2015-08-22T08:40:21Z</time>
      </trkpt>
      <trkpt lat="45.46796" lon="6.92644">
        <ele>2274.5132</ele>
        <time>2015-08-22T08:40:26Z</time>
      </trkpt>
      <trkpt lat="45.46793" lon="6.92655">
        <ele>2274.5432</ele>
        <time>2015-08-22T08:40:36Z</time>
      </trkpt>
      <trkpt lat="45.46791" lon="6.9266">
        <ele>2274.5432</ele>
        <time>2015-08-22T08:40:41Z</time>
      </trkpt>
      <trkpt lat="45.46788" lon="6.92668">
        <ele>2274.6262</ele>
        <time>2015-08-22T08:40:51Z</time>
      </trkpt>
      <trkpt lat="45.46786" lon="6.92673">
        <ele>2274.6262</ele>
        <time>2015-08-22T08:40:56Z</time>
      </trkpt>
      <trkpt lat="45.46778" lon="6.92689">
        <ele>2274.645</ele>
        <time>2015-08-22T08:41:11Z</time>
      </trkpt>
      <trkpt lat="45.46777" lon="6.92695">
        <ele>2274.645</ele>
        <time>2015-08-22T08:41:16Z</time>
      </trkpt>
      <trkpt lat="45.46773" lon="6.92704">
        <ele>2274.7363</ele>
        <time>2015-08-22T08:41:26Z</time>
      </trkpt>
      <trkpt lat="45.46772" lon="6.92707">
        <ele>2274.7363</ele>
        <time>2015-08-22T08:41:31Z</time>
      </trkpt>
      <trkpt lat="45.46767" lon="6.92715">
        <ele>2274.767</ele>
        <time>2015-08-22T08:41:41Z</time>
      </trkpt>
      <trkpt lat="45.46764" lon="6.92718">
        <ele>2274.767</ele>
        <time>2015-08-22T08:41:46Z</time>
      </trkpt>
      <trkpt lat="45.46759" lon="6.92725">
        <ele>2274.931</ele>
        <time>2015-08-22T08:41:56Z</time>
      </trkpt>
      <trkpt lat="45.46757" lon="6.9273">
        <ele>2274.931</ele>
        <time>2015-08-22T08:42:01Z</time>
      </trkpt>
      <trkpt lat="45.46753" lon="6.9274">
        <ele>2275.104</ele>
        <time>2015-08-22T08:42:11Z</time>
      </trkpt>
      <trkpt lat="45.46753" lon="6.92747">
        <ele>2275.104</ele>
        <time>2015-08-22T08:42:16Z</time>
      </trkpt>
      <trkpt lat="45.46748" lon="6.92762">
        <ele>2275.3013</ele>
        <time>2015-08-22T08:42:26Z</time>
      </trkpt>
      <trkpt lat="45.46746" lon="6.92765">
        <ele>2275.3013</ele>
        <time>2015-08-22T08:42:31Z</time>
      </trkpt>
      <trkpt lat="45.46742" lon="6.92775">
        <ele>2275.5942</ele>
        <time>2015-08-22T08:42:41Z</time>
      </trkpt>
      <trkpt lat="45.46741" lon="6.92782">
        <ele>2275.5942</ele>
        <time>2015-08-22T08:42:46Z</time>
      </trkpt>
      <trkpt lat="45.4674" lon="6.92795">
        <ele>2275.9045</ele>
        <time>2015-08-22T08:42:56Z</time>
      </trkpt>
      <trkpt lat="45.46738" lon="6.92801">
        <ele>2275.9045</ele>
        <time>2015-08-22T08:43:01Z</time>
      </trkpt>
      <trkpt lat="45.46733" lon="6.92811">
        <ele>2276.3467</ele>
        <time>2015-08-22T08:43:11Z</time>
      </trkpt>
      <trkpt lat="45.46731" lon="6.92814">
        <ele>2276.3467</ele>
        <time>2015-08-22T08:43:16Z</time>
      </trkpt>
      <trkpt lat="45.46728" lon="6.92824">
        <ele>2276.882</ele>
        <time>2015-08-22T08:43:26Z</time>
      </trkpt>
      <trkpt lat="45.46728" lon="6.92829">
        <ele>2276.882</ele>
        <time>2015-08-22T08:43:31Z</time>
      </trkpt>
      <trkpt lat="45.4673" lon="6.9284">
        <ele>2277.5327</ele>
        <time>2015-08-22T08:43:46Z</time>
      </trkpt>
      <trkpt lat="45.46731" lon="6.92843">
        <ele>2277.5327</ele>
        <time>2015-08-22T08:43:51Z</time>
      </trkpt>
      <trkpt lat="45.46729" lon="6.9285">
        <ele>2277.5327</ele>
        <time>2015-08-22T08:44:01Z</time>
      </trkpt>
      <trkpt lat="45.4673" lon="6.92855">
        <ele>2278.3037</ele>
        <time>2015-08-22T08:44:06Z</time>
      </trkpt>
      <trkpt lat="45.46729" lon="6.92865">
        <ele>2278.3037</ele>
        <time>2015-08-22T08:44:16Z</time>
      </trkpt>
      <trkpt lat="45.46728" lon="6.92868">
        <ele>2279.2715</ele>
        <time>2015-08-22T08:44:21Z</time>
      </trkpt>
      <trkpt lat="45.46726" lon="6.92874">
        <ele>2279.2715</ele>
        <time>2015-08-22T08:44:31Z</time>
      </trkpt>
      <trkpt lat="45.46723" lon="6.92876">
        <ele>2279.2715</ele>
        <time>2015-08-22T08:44:36Z</time>
      </trkpt>
      <trkpt lat="45.46718" lon="6.92881">
        <ele>2280.276</ele>
        <time>2015-08-22T08:44:46Z</time>
      </trkpt>
      <trkpt lat="45.46715" lon="6.92884">
        <ele>2280.276</ele>
        <time>2015-08-22T08:44:51Z</time>
      </trkpt>
      <trkpt lat="45.46706" lon="6.92886">
        <ele>2281.1108</ele>
        <time>2015-08-22T08:45:01Z</time>
      </trkpt>
      <trkpt lat="45.46701" lon="6.92887">
        <ele>2281.1108</ele>
        <time>2015-08-22T08:45:06Z</time>
      </trkpt>
      <trkpt lat="45.46693" lon="6.9289">
        <ele>2281.7148</ele>
        <time>2015-08-22T08:45:16Z</time>
      </trkpt>
      <trkpt lat="45.46689" lon="6.92894">
        <ele>2281.7148</ele>
        <time>2015-08-22T08:45:21Z</time>
      </trkpt>
      <trkpt lat="45.46684" lon="6.92896">
        <ele>2282.0898</ele>
        <time>2015-08-22T08:45:31Z</time>
      </trkpt>
      <trkpt lat="45.46684" lon="6.92899">
        <ele>2282.0898</ele>
        <time>2015-08-22T08:45:36Z</time>
      </trkpt>
      <trkpt lat="45.46684" lon="6.92907">
        <ele>2282.0898</ele>
        <time>2015-08-22T08:45:51Z</time>
      </trkpt>
      <trkpt lat="45.46684" lon="6.92914">
        <ele>2282.44</ele>
        <time>2015-08-22T08:45:56Z</time>
      </trkpt>
      <trkpt lat="45.46687" lon="6.9293">
        <ele>2282.7522</ele>
        <time>2015-08-22T08:46:06Z</time>
      </trkpt>
      <trkpt lat="45.46688" lon="6.92937">
        <ele>2282.7522</ele>
        <time>2015-08-22T08:46:11Z</time>
      </trkpt>
      <trkpt lat="45.4669" lon="6.92942">
        <ele>2282.986</ele>
        <time>2015-08-22T08:46:21Z</time>
      </trkpt>
      <trkpt lat="45.46692" lon="6.92942">
        <ele>2282.986</ele>
        <time>2015-08-22T08:46:26Z</time>
      </trkpt>
      <trkpt lat="45.46689" lon="6.92946">
        <ele>2282.986</ele>
        <time>2015-08-22T08:46:36Z</time>
      </trkpt>
      <trkpt lat="45.4669" lon="6.92947">
        <ele>2282.986</ele>
        <time>2015-08-22T08:46:41Z</time>
      </trkpt>
      <trkpt lat="45.46687" lon="6.9295">
        <ele>2283.1477</ele>
        <time>2015-08-22T08:46:51Z</time>
      </trkpt>
      <trkpt lat="45.46685" lon="6.92956">
        <ele>2283.1477</ele>
        <time>2015-08-22T08:46:56Z</time>
      </trkpt>
      <trkpt lat="45.46681" lon="6.92967">
        <ele>2283.1272</ele>
        <time>2015-08-22T08:47:06Z</time>
      </trkpt>
      <trkpt lat="45.46681" lon="6.92973">
        <ele>2283.1272</ele>
        <time>2015-08-22T08:47:11Z</time>
      </trkpt>
      <trkpt lat="45.46679" lon="6.92983">
        <ele>2283.0825</ele>
        <time>2015-08-22T08:47:21Z</time>
      </trkpt>
      <trkpt lat="45.46682" lon="6.92986">
        <ele>2283.0825</ele>
        <time>2015-08-22T08:47:26Z</time>
      </trkpt>
      <trkpt lat="45.4669" lon="6.92983">
        <ele>2282.6565</ele>
        <time>2015-08-22T08:47:36Z</time>
      </trkpt>
      <trkpt lat="45.46694" lon="6.92982">
        <ele>2282.6565</ele>
        <time>2015-08-22T08:47:41Z</time>
      </trkpt>
      <trkpt lat="45.46702" lon="6.92994">
        <ele>2281.749</ele>
        <time>2015-08-22T08:47:56Z</time>
      </trkpt>
      <trkpt lat="45.46703" lon="6.93003">
        <ele>2281.749</ele>
        <time>2015-08-22T08:48:01Z</time>
      </trkpt>
      <trkpt lat="45.46705" lon="6.93017">
        <ele>2280.7734</ele>
        <time>2015-08-22T08:48:11Z</time>
      </trkpt>
      <trkpt lat="45.46704" lon="6.93027">
        <ele>2280.7734</ele>
        <time>2015-08-22T08:48:16Z</time>
      </trkpt>
      <trkpt lat="45.46707" lon="6.93039">
        <ele>2279.767</ele>
        <time>2015-08-22T08:48:26Z</time>
      </trkpt>
      <trkpt lat="45.46707" lon="6.93043">
        <ele>2279.767</ele>
        <time>2015-08-22T08:48:31Z</time>
      </trkpt>
      <trkpt lat="45.46704" lon="6.93057">
        <ele>2278.6055</ele>
        <time>2015-08-22T08:48:41Z</time>
      </trkpt>
      <trkpt lat="45.46708" lon="6.93066">
        <ele>2278.6055</ele>
        <time>2015-08-22T08:48:46Z</time>
      </trkpt>
      <trkpt lat="45.46718" lon="6.93069">
        <ele>2277.2898</ele>
        <time>2015-08-22T08:48:56Z</time>
      </trkpt>
      <trkpt lat="45.46721" lon="6.9307">
        <ele>2277.2898</ele>
        <time>2015-08-22T08:49:01Z</time>
      </trkpt>
      <trkpt lat="45.46729" lon="6.93076">
        <ele>2275.7488</ele>
        <time>2015-08-22T08:49:11Z</time>
      </trkpt>
      <trkpt lat="45.46732" lon="6.93078">
        <ele>2275.7488</ele>
        <time>2015-08-22T08:49:16Z</time>
      </trkpt>
      <trkpt lat="45.46737" lon="6.93094">
        <ele>2274.0469</ele>
        <time>2015-08-22T08:49:26Z</time>
      </trkpt>
      <trkpt lat="45.46738" lon="6.93101">
        <ele>2274.0469</ele>
        <time>2015-08-22T08:49:31Z</time>
      </trkpt>
      <trkpt lat="45.4674" lon="6.93115">
        <ele>2272.3455</ele>
        <time>2015-08-22T08:49:41Z</time>
      </trkpt>
      <trkpt lat="45.4674" lon="6.93123">
        <ele>2272.3455</ele>
        <time>2015-08-22T08:49:46Z</time>
      </trkpt>
      <trkpt lat="45.46736" lon="6.93136">
        <ele>2270.5771</ele>
        <time>2015-08-22T08:49:56Z</time>
      </trkpt>
      <trkpt lat="45.46733" lon="6.93143">
        <ele>2270.5771</ele>
        <time>2015-08-22T08:50:01Z</time>
      </trkpt>
      <trkpt lat="45.46728" lon="6.93155">
        <ele>2268.5505</ele>
        <time>2015-08-22T08:50:11Z</time>
      </trkpt>
      <trkpt lat="45.46723" lon="6.93158">
        <ele>2268.5505</ele>
        <time>2015-08-22T08:50:16Z</time>
      </trkpt>
      <trkpt lat="45.46713" lon="6.93168">
        <ele>2266.3618</ele>
        <time>2015-08-22T08:50:26Z</time>
      </trkpt>
      <trkpt lat="45.46709" lon="6.93175">
        <ele>2266.3618</ele>
        <time>2015-08-22T08:50:31Z</time>
      </trkpt>
      <trkpt lat="45.46699" lon="6.93192">
        <ele>2264.116</ele>
        <time>2015-08-22T08:50:46Z</time>
      </trkpt>
      <trkpt lat="45.46697" lon="6.93195">
        <ele>2264.116</ele>
        <time>2015-08-22T08:50:51Z</time>
      </trkpt>
      <trkpt lat="45.46689" lon="6.93203">
        <ele>2261.895</ele>
        <time>2015-08-22T08:51:01Z</time>
      </trkpt>
      <trkpt lat="45.46685" lon="6.93208">
        <ele>2261.895</ele>
        <time>2015-08-22T08:51:06Z</time>
      </trkpt>
      <trkpt lat="45.46678" lon="6.93221">
        <ele>2259.6313</ele>
        <time>2015-08-22T08:51:16Z</time>
      </trkpt>
      <trkpt lat="45.46675" lon="6.93228">
        <ele>2259.6313</ele>
        <time>2015-08-22T08:51:21Z</time>
      </trkpt>
      <trkpt lat="45.4667" lon="6.93237">
        <ele>2257.391</ele>
        <time>2015-08-22T08:51:31Z</time>
      </trkpt>
      <trkpt lat="45.46668" lon="6.93237">
        <ele>2257.391</ele>
        <time>2015-08-22T08:51:36Z</time>
      </trkpt>
      <trkpt lat="45.46663" lon="6.93239">
        <ele>2257.391</ele>
        <time>2015-08-22T08:51:46Z</time>
      </trkpt>
      <trkpt lat="45.46659" lon="6.93244">
        <ele>2255.1355</ele>
        <time>2015-08-22T08:51:51Z</time>
      </trkpt>
      <trkpt lat="45.46654" lon="6.93256">
        <ele>2252.9</ele>
        <time>2015-08-22T08:52:01Z</time>
      </trkpt>
      <trkpt lat="45.46652" lon="6.93261">
        <ele>2252.9</ele>
        <time>2015-08-22T08:52:06Z</time>
      </trkpt>
      <trkpt lat="45.46647" lon="6.93278">
        <ele>2250.7026</ele>
        <time>2015-08-22T08:52:16Z</time>
      </trkpt>
      <trkpt lat="45.46645" lon="6.93285">
        <ele>2250.7026</ele>
        <time>2015-08-22T08:52:21Z</time>
      </trkpt>
      <trkpt lat="45.46638" lon="6.93299">
        <ele>2248.4592</ele>
        <time>2015-08-22T08:52:31Z</time>
      </trkpt>
      <trkpt lat="45.46638" lon="6.93303">
        <ele>2248.4592</ele>
        <time>2015-08-22T08:52:36Z</time>
      </trkpt>
      <trkpt lat="45.46636" lon="6.93309">
        <ele>2248.4592</ele>
        <time>2015-08-22T08:52:46Z</time>
      </trkpt>
      <trkpt lat="45.46633" lon="6.93315">
        <ele>2246.164</ele>
        <time>2015-08-22T08:52:51Z</time>
      </trkpt>
      <trkpt lat="45.46628" lon="6.93331">
        <ele>2243.9702</ele>
        <time>2015-08-22T08:53:06Z</time>
      </trkpt>
      <trkpt lat="45.46626" lon="6.93334">
        <ele>2243.9702</ele>
        <time>2015-08-22T08:53:11Z</time>
      </trkpt>
      <trkpt lat="45.46625" lon="6.93337">
        <ele>2243.9702</ele>
        <time>2015-08-22T08:53:21Z</time>
      </trkpt>
      <trkpt lat="45.46621" lon="6.93346">
        <ele>2241.961</ele>
        <time>2015-08-22T08:53:26Z</time>
      </trkpt>
      <trkpt lat="45.46615" lon="6.93357">
        <ele>2240.098</ele>
        <time>2015-08-22T08:53:36Z</time>
      </trkpt>
      <trkpt lat="45.46611" lon="6.93365">
        <ele>2240.098</ele>
        <time>2015-08-22T08:53:41Z</time>
      </trkpt>
      <trkpt lat="45.46605" lon="6.93377">
        <ele>2238.287</ele>
        <time>2015-08-22T08:53:51Z</time>
      </trkpt>
      <trkpt lat="45.46603" lon="6.93382">
        <ele>2238.287</ele>
        <time>2015-08-22T08:53:56Z</time>
      </trkpt>
      <trkpt lat="45.46595" lon="6.93397">
        <ele>2236.5134</ele>
        <time>2015-08-22T08:54:06Z</time>
      </trkpt>
      <trkpt lat="45.46592" lon="6.93402">
        <ele>2236.5134</ele>
        <time>2015-08-22T08:54:11Z</time>
      </trkpt>
      <trkpt lat="45.46585" lon="6.93416">
        <ele>2234.8489</ele>
        <time>2015-08-22T08:54:21Z</time>
      </trkpt>
      <trkpt lat="45.46582" lon="6.93422">
        <ele>2234.8489</ele>
        <time>2015-08-22T08:54:26Z</time>
      </trkpt>
      <trkpt lat="45.46573" lon="6.93436">
        <ele>2233.389</ele>
        <time>2015-08-22T08:54:36Z</time>
      </trkpt>
      <trkpt lat="45.46569" lon="6.9344">
        <ele>2233.389</ele>
        <time>2015-08-22T08:54:41Z</time>
      </trkpt>
      <trkpt lat="45.46556" lon="6.93451">
        <ele>2232.1052</ele>
        <time>2015-08-22T08:54:51Z</time>
      </trkpt>
      <trkpt lat="45.46549" lon="6.93454">
        <ele>2232.1052</ele>
        <time>2015-08-22T08:54:56Z</time>
      </trkpt>
      <trkpt lat="45.4654" lon="6.9346">
        <ele>2231.0723</ele>
        <time>2015-08-22T08:55:06Z</time>
      </trkpt>
      <trkpt lat="45.46539" lon="6.93459">
        <ele>2231.0723</ele>
        <time>2015-08-22T08:55:11Z</time>
      </trkpt>
      <trkpt lat="45.46533" lon="6.93462">
        <ele>2231.0723</ele>
        <time>2015-08-22T08:55:26Z</time>
      </trkpt>
      <trkpt lat="45.46527" lon="6.93467">
        <ele>2230.0847</ele>
        <time>2015-08-22T08:55:31Z</time>
      </trkpt>
      <trkpt lat="45.46521" lon="6.93476">
        <ele>2230.0847</ele>
        <time>2015-08-22T08:55:41Z</time>
      </trkpt>
      <trkpt lat="45.46519" lon="6.93484">
        <ele>2229.2107</ele>
        <time>2015-08-22T08:55:46Z</time>
      </trkpt>
      <trkpt lat="45.46512" lon="6.93497">
        <ele>2228.355</ele>
        <time>2015-08-22T08:55:56Z</time>
      </trkpt>
      <trkpt lat="45.46511" lon="6.93503">
        <ele>2228.355</ele>
        <time>2015-08-22T08:56:01Z</time>
      </trkpt>
      <trkpt lat="45.46508" lon="6.93519">
        <ele>2227.5732</ele>
        <time>2015-08-22T08:56:11Z</time>
      </trkpt>
      <trkpt lat="45.46505" lon="6.93524">
        <ele>2227.5732</ele>
        <time>2015-08-22T08:56:16Z</time>
      </trkpt>
      <trkpt lat="45.46505" lon="6.93541">
        <ele>2226.7578</ele>
        <time>2015-08-22T08:56:26Z</time>
      </trkpt>
      <trkpt lat="45.46506" lon="6.93546">
        <ele>2226.7578</ele>
        <time>2015-08-22T08:56:31Z</time>
      </trkpt>
      <trkpt lat="45.46504" lon="6.93562">
        <ele>2225.9678</ele>
        <time>2015-08-22T08:56:41Z</time>
      </trkpt>
      <trkpt lat="45.46503" lon="6.93571">
        <ele>2225.9678</ele>
        <time>2015-08-22T08:56:46Z</time>
      </trkpt>
      <trkpt lat="45.46502" lon="6.9359">
        <ele>2225.258</ele>
        <time>2015-08-22T08:56:56Z</time>
      </trkpt>
      <trkpt lat="45.465" lon="6.93598">
        <ele>2225.258</ele>
        <time>2015-08-22T08:57:01Z</time>
      </trkpt>
      <trkpt lat="45.46493" lon="6.93614">
        <ele>2224.4045</ele>
        <time>2015-08-22T08:57:11Z</time>
      </trkpt>
      <trkpt lat="45.46489" lon="6.9362">
        <ele>2224.4045</ele>
        <time>2015-08-22T08:57:16Z</time>
      </trkpt>
      <trkpt lat="45.46479" lon="6.93638">
        <ele>2223.5322</ele>
        <time>2015-08-22T08:57:31Z</time>
      </trkpt>
      <trkpt lat="45.46477" lon="6.93645">
        <ele>2223.5322</ele>
        <time>2015-08-22T08:57:36Z</time>
      </trkpt>
      <trkpt lat="45.46471" lon="6.93661">
        <ele>2222.6125</ele>
        <time>2015-08-22T08:57:46Z</time>
      </trkpt>
      <trkpt lat="45.4647" lon="6.9367">
        <ele>2222.6125</ele>
        <time>2015-08-22T08:57:51Z</time>
      </trkpt>
      <trkpt lat="45.46465" lon="6.93681">
        <ele>2221.792</ele>
        <time>2015-08-22T08:58:01Z</time>
      </trkpt>
      <trkpt lat="45.46461" lon="6.93689">
        <ele>2221.792</ele>
        <time>2015-08-22T08:58:06Z</time>
      </trkpt>
      <trkpt lat="45.46452" lon="6.93699">
        <ele>2220.9897</ele>
        <time>2015-08-22T08:58:16Z</time>
      </trkpt>
      <trkpt lat="45.46448" lon="6.93704">
        <ele>2220.9897</ele>
        <time>2015-08-22T08:58:21Z</time>
      </trkpt>
      <trkpt lat="45.4644" lon="6.93711">
        <ele>2220.1309</ele>
        <time>2015-08-22T08:58:31Z</time>
      </trkpt>
      <trkpt lat="45.46436" lon="6.93719">
        <ele>2220.1309</ele>
        <time>2015-08-22T08:58:36Z</time>
      </trkpt>
      <trkpt lat="45.46431" lon="6.93727">
        <ele>2219.0745</ele>
        <time>2015-08-22T08:58:46Z</time>
      </trkpt>
      <trkpt lat="45.46429" lon="6.93732">
        <ele>2219.0745</ele>
        <time>2015-08-22T08:58:51Z</time>
      </trkpt>
      <trkpt lat="45.46424" lon="6.93751">
        <ele>2218.0356</ele>
        <time>2015-08-22T08:59:01Z</time>
      </trkpt>
      <trkpt lat="45.46422" lon="6.93759">
        <ele>2218.0356</ele>
        <time>2015-08-22T08:59:06Z</time>
      </trkpt>
      <trkpt lat="45.4642" lon="6.93775">
        <ele>2217.0413</ele>
        <time>2015-08-22T08:59:16Z</time>
      </trkpt>
      <trkpt lat="45.46418" lon="6.93781">
        <ele>2217.0413</ele>
        <time>2015-08-22T08:59:21Z</time>
      </trkpt>
      <trkpt lat="45.46414" lon="6.93798">
        <ele>2216.0437</ele>
        <time>2015-08-22T08:59:36Z</time>
      </trkpt>
      <trkpt lat="45.46414" lon="6.93804">
        <ele>2216.0437</ele>
        <time>2015-08-22T08:59:41Z</time>
      </trkpt>
      <trkpt lat="45.4641" lon="6.9382">
        <ele>2214.9702</ele>
        <time>2015-08-22T08:59:51Z</time>
      </trkpt>
      <trkpt lat="45.46407" lon="6.93831">
        <ele>2214.9702</ele>
        <time>2015-08-22T08:59:56Z</time>
      </trkpt>
      <trkpt lat="45.46402" lon="6.93845">
        <ele>2213.8113</ele>
        <time>2015-08-22T09:00:06Z</time>
      </trkpt>
      <trkpt lat="45.464" lon="6.9385">
        <ele>2213.8113</ele>
        <time>2015-08-22T09:00:11Z</time>
      </trkpt>
      <trkpt lat="45.46395" lon="6.93863">
        <ele>2212.616</ele>
        <time>2015-08-22T09:00:21Z</time>
      </trkpt>
      <trkpt lat="45.46392" lon="6.9387">
        <ele>2212.616</ele>
        <time>2015-08-22T09:00:26Z</time>
      </trkpt>
      <trkpt lat="45.46385" lon="6.93885">
        <ele>2211.4438</ele>
        <time>2015-08-22T09:00:36Z</time>
      </trkpt>
      <trkpt lat="45.46383" lon="6.93888">
        <ele>2211.4438</ele>
        <time>2015-08-22T09:00:41Z</time>
      </trkpt>
      <trkpt lat="45.46374" lon="6.93908">
        <ele>2210.2065</ele>
        <time>2015-08-22T09:00:51Z</time>
      </trkpt>
      <trkpt lat="45.46371" lon="6.93911">
        <ele>2210.2065</ele>
        <time>2015-08-22T09:00:56Z</time>
      </trkpt>
      <trkpt lat="45.46365" lon="6.93929">
        <ele>2209.0237</ele>
        <time>2015-08-22T09:01:06Z</time>
      </trkpt>
      <trkpt lat="45.46364" lon="6.93938">
        <ele>2209.0237</ele>
        <time>2015-08-22T09:01:11Z</time>
      </trkpt>
      <trkpt lat="45.46361" lon="6.93954">
        <ele>2207.8333</ele>
        <time>2015-08-22T09:01:21Z</time>
      </trkpt>
      <trkpt lat="45.46359" lon="6.93961">
        <ele>2207.8333</ele>
        <time>2015-08-22T09:01:26Z</time>
      </trkpt>
      <trkpt lat="45.46355" lon="6.93977">
        <ele>2206.7075</ele>
        <time>2015-08-22T09:01:36Z</time>
      </trkpt>
      <trkpt lat="45.46352" lon="6.93984">
        <ele>2206.7075</ele>
        <time>2015-08-22T09:01:41Z</time>
      </trkpt>
      <trkpt lat="45.46346" lon="6.93994">
        <ele>2205.7273</ele>
        <time>2015-08-22T09:01:51Z</time>
      </trkpt>
      <trkpt lat="45.46343" lon="6.93998">
        <ele>2205.7273</ele>
        <time>2015-08-22T09:01:56Z</time>
      </trkpt>
      <trkpt lat="45.46334" lon="6.94018">
        <ele>2204.737</ele>
        <time>2015-08-22T09:02:11Z</time>
      </trkpt>
      <trkpt lat="45.4633" lon="6.94024">
        <ele>2204.737</ele>
        <time>2015-08-22T09:02:16Z</time>
      </trkpt>
      <trkpt lat="45.46323" lon="6.9404">
        <ele>2203.6646</ele>
        <time>2015-08-22T09:02:26Z</time>
      </trkpt>
      <trkpt lat="45.46322" lon="6.94046">
        <ele>2203.6646</ele>
        <time>2015-08-22T09:02:31Z</time>
      </trkpt>
      <trkpt lat="45.46315" lon="6.94063">
        <ele>2202.6304</ele>
        <time>2015-08-22T09:02:41Z</time>
      </trkpt>
      <trkpt lat="45.46311" lon="6.9407">
        <ele>2202.6304</ele>
        <time>2015-08-22T09:02:46Z</time>
      </trkpt>
      <trkpt lat="45.46304" lon="6.94081">
        <ele>2201.6738</ele>
        <time>2015-08-22T09:02:56Z</time>
      </trkpt>
      <trkpt lat="45.46301" lon="6.94088">
        <ele>2201.6738</ele>
        <time>2015-08-22T09:03:01Z</time>
      </trkpt>
      <trkpt lat="45.46294" lon="6.94098">
        <ele>2200.7454</ele>
        <time>2015-08-22T09:03:11Z</time>
      </trkpt>
      <trkpt lat="45.4629" lon="6.94107">
        <ele>2200.7454</ele>
        <time>2015-08-22T09:03:16Z</time>
      </trkpt>
      <trkpt lat="45.46283" lon="6.94119">
        <ele>2199.7986</ele>
        <time>2015-08-22T09:03:26Z</time>
      </trkpt>
      <trkpt lat="45.46282" lon="6.94127">
        <ele>2199.7986</ele>
        <time>2015-08-22T09:03:31Z</time>
      </trkpt>
      <trkpt lat="45.46277" lon="6.9414">
        <ele>2198.949</ele>
        <time>2015-08-22T09:03:41Z</time>
      </trkpt>
      <trkpt lat="45.46274" lon="6.94147">
        <ele>2198.949</ele>
        <time>2015-08-22T09:03:46Z</time>
      </trkpt>
      <trkpt lat="45.46266" lon="6.94169">
        <ele>2198.1016</ele>
        <time>2015-08-22T09:04:01Z</time>
      </trkpt>
      <trkpt lat="45.46262" lon="6.94179">
        <ele>2198.1016</ele>
        <time>2015-08-22T09:04:06Z</time>
      </trkpt>
      <trkpt lat="45.46256" lon="6.94191">
        <ele>2197.2407</ele>
        <time>2015-08-22T09:04:16Z</time>
      </trkpt>
      <trkpt lat="45.46253" lon="6.94201">
        <ele>2197.2407</ele>
        <time>2015-08-22T09:04:21Z</time>
      </trkpt>
      <trkpt lat="45.46249" lon="6.94215">
        <ele>2196.4385</ele>
        <time>2015-08-22T09:04:31Z</time>
      </trkpt>
      <trkpt lat="45.46249" lon="6.94223">
        <ele>2196.4385</ele>
        <time>2015-08-22T09:04:36Z</time>
      </trkpt>
      <trkpt lat="45.46244" lon="6.9424">
        <ele>2195.6743</ele>
        <time>2015-08-22T09:04:46Z</time>
      </trkpt>
      <trkpt lat="45.46243" lon="6.94248">
        <ele>2195.6743</ele>
        <time>2015-08-22T09:04:51Z</time>
      </trkpt>
      <trkpt lat="45.4624" lon="6.94265">
        <ele>2194.8438</ele>
        <time>2015-08-22T09:05:01Z</time>
      </trkpt>
      <trkpt lat="45.46239" lon="6.94272">
        <ele>2194.8438</ele>
        <time>2015-08-22T09:05:06Z</time>
      </trkpt>
      <trkpt lat="45.46236" lon="6.94289">
        <ele>2193.907</ele>
        <time>2015-08-22T09:05:16Z</time>
      </trkpt>
      <trkpt lat="45.46234" lon="6.94296">
        <ele>2193.907</ele>
        <time>2015-08-22T09:05:21Z</time>
      </trkpt>
      <trkpt lat="45.4623" lon="6.94313">
        <ele>2192.9285</ele>
        <time>2015-08-22T09:05:31Z</time>
      </trkpt>
      <trkpt lat="45.46228" lon="6.94322">
        <ele>2192.9285</ele>
        <time>2015-08-22T09:05:36Z</time>
      </trkpt>
      <trkpt lat="45.46222" lon="6.94347">
        <ele>2191.925</ele>
        <time>2015-08-22T09:05:51Z</time>
      </trkpt>
      <trkpt lat="45.46222" lon="6.94355">
        <ele>2191.925</ele>
        <time>2015-08-22T09:05:56Z</time>
      </trkpt>
      <trkpt lat="45.46222" lon="6.94371">
        <ele>2190.6965</ele>
        <time>2015-08-22T09:06:06Z</time>
      </trkpt>
      <trkpt lat="45.46223" lon="6.9438">
        <ele>2190.6965</ele>
        <time>2015-08-22T09:06:11Z</time>
      </trkpt>
      <trkpt lat="45.46225" lon="6.94393">
        <ele>2189.3457</ele>
        <time>2015-08-22T09:06:21Z</time>
      </trkpt>
      <trkpt lat="45.46226" lon="6.94401">
        <ele>2189.3457</ele>
        <time>2015-08-22T09:06:26Z</time>
      </trkpt>
      <trkpt lat="45.46227" lon="6.94416">
        <ele>2187.853</ele>
        <time>2015-08-22T09:06:36Z</time>
      </trkpt>
      <trkpt lat="45.46228" lon="6.94424">
        <ele>2187.853</ele>
        <time>2015-08-22T09:06:41Z</time>
      </trkpt>
      <trkpt lat="45.46229" lon="6.94436">
        <ele>2186.331</ele>
        <time>2015-08-22T09:06:51Z</time>
      </trkpt>
      <trkpt lat="45.46229" lon="6.94443">
        <ele>2186.331</ele>
        <time>2015-08-22T09:06:56Z</time>
      </trkpt>
      <trkpt lat="45.46231" lon="6.94456">
        <ele>2184.6816</ele>
        <time>2015-08-22T09:07:06Z</time>
      </trkpt>
      <trkpt lat="45.46234" lon="6.94465">
        <ele>2184.6816</ele>
        <time>2015-08-22T09:07:11Z</time>
      </trkpt>
      <trkpt lat="45.46237" lon="6.94478">
        <ele>2182.9446</ele>
        <time>2015-08-22T09:07:21Z</time>
      </trkpt>
      <trkpt lat="45.46237" lon="6.94485">
        <ele>2182.9446</ele>
        <time>2015-08-22T09:07:26Z</time>
      </trkpt>
      <trkpt lat="45.46235" lon="6.94508">
        <ele>2180.984</ele>
        <time>2015-08-22T09:07:36Z</time>
      </trkpt>
      <trkpt lat="45.46236" lon="6.94515">
        <ele>2180.984</ele>
        <time>2015-08-22T09:07:41Z</time>
      </trkpt>
      <trkpt lat="45.46243" lon="6.94532">
        <ele>2178.832</ele>
        <time>2015-08-22T09:07:56Z</time>
      </trkpt>
      <trkpt lat="45.46245" lon="6.94537">
        <ele>2178.832</ele>
        <time>2015-08-22T09:08:01Z</time>
      </trkpt>
      <trkpt lat="45.46248" lon="6.94548">
        <ele>2176.492</ele>
        <time>2015-08-22T09:08:11Z</time>
      </trkpt>
      <trkpt lat="45.46249" lon="6.94557">
        <ele>2176.492</ele>
        <time>2015-08-22T09:08:16Z</time>
      </trkpt>
      <trkpt lat="45.46248" lon="6.94576">
        <ele>2173.9807</ele>
        <time>2015-08-22T09:08:26Z</time>
      </trkpt>
      <trkpt lat="45.46247" lon="6.94584">
        <ele>2173.9807</ele>
        <time>2015-08-22T09:08:31Z</time>
      </trkpt>
      <trkpt lat="45.46243" lon="6.94599">
        <ele>2171.4297</ele>
        <time>2015-08-22T09:08:41Z</time>
      </trkpt>
      <trkpt lat="45.46242" lon="6.94605">
        <ele>2171.4297</ele>
        <time>2015-08-22T09:08:46Z</time>
      </trkpt>
      <trkpt lat="45.46237" lon="6.94621">
        <ele>2168.6726</ele>
        <time>2015-08-22T09:08:56Z</time>
      </trkpt>
      <trkpt lat="45.46235" lon="6.94624">
        <ele>2168.6726</ele>
        <time>2015-08-22T09:09:01Z</time>
      </trkpt>
      <trkpt lat="45.46231" lon="6.94638">
        <ele>2165.8735</ele>
        <time>2015-08-22T09:09:11Z</time>
      </trkpt>
      <trkpt lat="45.46229" lon="6.94645">
        <ele>2165.8735</ele>
        <time>2015-08-22T09:09:16Z</time>
      </trkpt>
      <trkpt lat="45.46228" lon="6.94662">
        <ele>2162.9817</ele>
        <time>2015-08-22T09:09:26Z</time>
      </trkpt>
      <trkpt lat="45.46227" lon="6.9467">
        <ele>2162.9817</ele>
        <time>2015-08-22T09:09:31Z</time>
      </trkpt>
      <trkpt lat="45.46223" lon="6.94687">
        <ele>2159.937</ele>
        <time>2015-08-22T09:09:46Z</time>
      </trkpt>
      <trkpt lat="45.46223" lon="6.94691">
        <ele>2159.937</ele>
        <time>2015-08-22T09:09:51Z</time>
      </trkpt>
      <trkpt lat="45.46225" lon="6.94707">
        <ele>2156.986</ele>
        <time>2015-08-22T09:10:01Z</time>
      </trkpt>
      <trkpt lat="45.46222" lon="6.94718">
        <ele>2156.986</ele>
        <time>2015-08-22T09:10:06Z</time>
      </trkpt>
      <trkpt lat="45.4622" lon="6.9473">
        <ele>2153.8672</ele>
        <time>2015-08-22T09:10:16Z</time>
      </trkpt>
      <trkpt lat="45.46219" lon="6.94735">
        <ele>2153.8672</ele>
        <time>2015-08-22T09:10:21Z</time>
      </trkpt>
      <trkpt lat="45.46211" lon="6.94751">
        <ele>2150.7708</ele>
        <time>2015-08-22T09:10:31Z</time>
      </trkpt>
      <trkpt lat="45.46208" lon="6.94759">
        <ele>2150.7708</ele>
        <time>2015-08-22T09:10:36Z</time>
      </trkpt>
      <trkpt lat="45.46201" lon="6.94767">
        <ele>2147.6711</ele>
        <time>2015-08-22T09:10:46Z</time>
      </trkpt>
      <trkpt lat="45.46197" lon="6.94773">
        <ele>2147.6711</ele>
        <time>2015-08-22T09:10:51Z</time>
      </trkpt>
      <trkpt lat="45.46188" lon="6.94787">
        <ele>2144.3713</ele>
        <time>2015-08-22T09:11:01Z</time>
      </trkpt>
      <trkpt lat="45.46189" lon="6.9479">
        <ele>2144.3713</ele>
        <time>2015-08-22T09:11:06Z</time>
      </trkpt>
      <trkpt lat="45.46186" lon="6.94794">
        <ele>2144.3713</ele>
        <time>2015-08-22T09:11:16Z</time>
      </trkpt>
      <trkpt lat="45.46179" lon="6.948">
        <ele>2141.1367</ele>
        <time>2015-08-22T09:11:21Z</time>
      </trkpt>
      <trkpt lat="45.46174" lon="6.94817">
        <ele>2138.0825</ele>
        <time>2015-08-22T09:11:31Z</time>
      </trkpt>
      <trkpt lat="45.4617" lon="6.94824">
        <ele>2138.0825</ele>
        <time>2015-08-22T09:11:36Z</time>
      </trkpt>
      <trkpt lat="45.46163" lon="6.94845">
        <ele>2135.0125</ele>
        <time>2015-08-22T09:11:51Z</time>
      </trkpt>
      <trkpt lat="45.46161" lon="6.94851">
        <ele>2135.0125</ele>
        <time>2015-08-22T09:11:56Z</time>
      </trkpt>
      <trkpt lat="45.46154" lon="6.94852">
        <ele>2132.0903</ele>
        <time>2015-08-22T09:12:06Z</time>
      </trkpt>
      <trkpt lat="45.46153" lon="6.94856">
        <ele>2132.0903</ele>
        <time>2015-08-22T09:12:11Z</time>
      </trkpt>
      <trkpt lat="45.46141" lon="6.94868">
        <ele>2129.2659</ele>
        <time>2015-08-22T09:12:21Z</time>
      </trkpt>
      <trkpt lat="45.4614" lon="6.94871">
        <ele>2129.2659</ele>
        <time>2015-08-22T09:12:26Z</time>
      </trkpt>
      <trkpt lat="45.46142" lon="6.94871">
        <ele>2129.2659</ele>
        <time>2015-08-22T09:12:36Z</time>
      </trkpt>
      <trkpt lat="45.46145" lon="6.94869">
        <ele>2129.2659</ele>
        <time>2015-08-22T09:12:41Z</time>
      </trkpt>
      <trkpt lat="45.46144" lon="6.9487">
        <ele>2129.2659</ele>
        <time>2015-08-22T09:12:51Z</time>
      </trkpt>
      <trkpt lat="45.46143" lon="6.94871">
        <ele>2126.708</ele>
        <time>2015-08-22T09:12:56Z</time>
      </trkpt>
      <trkpt lat="45.46137" lon="6.94876">
        <ele>2126.708</ele>
        <time>2015-08-22T09:13:06Z</time>
      </trkpt>
      <trkpt lat="45.46138" lon="6.94876">
        <ele>2126.708</ele>
        <time>2015-08-22T09:13:11Z</time>
      </trkpt>
      <trkpt lat="45.46138" lon="6.9488">
        <ele>2124.2556</ele>
        <time>2015-08-22T09:13:26Z</time>
      </trkpt>
      <trkpt lat="45.46135" lon="6.94883">
        <ele>2124.2556</ele>
        <time>2015-08-22T09:13:31Z</time>
      </trkpt>
      <trkpt lat="45.46127" lon="6.94895">
        <ele>2121.7585</ele>
        <time>2015-08-22T09:13:41Z</time>
      </trkpt>
      <trkpt lat="45.46125" lon="6.94898">
        <ele>2121.7585</ele>
        <time>2015-08-22T09:13:46Z</time>
      </trkpt>
      <trkpt lat="45.46131" lon="6.94908">
        <ele>2119.1357</ele>
        <time>2015-08-22T09:13:56Z</time>
      </trkpt>
      <trkpt lat="45.46134" lon="6.94912">
        <ele>2119.1357</ele>
        <time>2015-08-22T09:14:01Z</time>
      </trkpt>
      <trkpt lat="45.46138" lon="6.94923">
        <ele>2116.1538</ele>
        <time>2015-08-22T09:14:11Z</time>
      </trkpt>
      <trkpt lat="45.46135" lon="6.94925">
        <ele>2116.1538</ele>
        <time>2015-08-22T09:14:16Z</time>
      </trkpt>
      <trkpt lat="45.46127" lon="6.94934">
        <ele>2113.2456</ele>
        <time>2015-08-22T09:14:26Z</time>
      </trkpt>
      <trkpt lat="45.46126" lon="6.94945">
        <ele>2113.2456</ele>
        <time>2015-08-22T09:14:31Z</time>
      </trkpt>
      <trkpt lat="45.46129" lon="6.94957">
        <ele>2110.3652</ele>
        <time>2015-08-22T09:14:41Z</time>
      </trkpt>
      <trkpt lat="45.46134" lon="6.94961">
        <ele>2110.3652</ele>
        <time>2015-08-22T09:14:46Z</time>
      </trkpt>
      <trkpt lat="45.46142" lon="6.94971">
        <ele>2107.1672</ele>
        <time>2015-08-22T09:14:56Z</time>
      </trkpt>
      <trkpt lat="45.46144" lon="6.94976">
        <ele>2107.1672</ele>
        <time>2015-08-22T09:15:01Z</time>
      </trkpt>
      <trkpt lat="45.46149" lon="6.94991">
        <ele>2103.7937</ele>
        <time>2015-08-22T09:15:11Z</time>
      </trkpt>
      <trkpt lat="45.46152" lon="6.94997">
        <ele>2103.7937</ele>
        <time>2015-08-22T09:15:16Z</time>
      </trkpt>
      <trkpt lat="45.46161" lon="6.95009">
        <ele>2100.5063</ele>
        <time>2015-08-22T09:15:26Z</time>
      </trkpt>
      <trkpt lat="45.46166" lon="6.95013">
        <ele>2100.5063</ele>
        <time>2015-08-22T09:15:31Z</time>
      </trkpt>
      <trkpt lat="45.46179" lon="6.9502">
        <ele>2097.1292</ele>
        <time>2015-08-22T09:15:41Z</time>
      </trkpt>
      <trkpt lat="45.46184" lon="6.95022">
        <ele>2097.1292</ele>
        <time>2015-08-22T09:15:46Z</time>
      </trkpt>
      <trkpt lat="45.46203" lon="6.95029">
        <ele>2093.312</ele>
        <time>2015-08-22T09:16:01Z</time>
      </trkpt>
      <trkpt lat="45.46207" lon="6.95031">
        <ele>2093.312</ele>
        <time>2015-08-22T09:16:06Z</time>
      </trkpt>
      <trkpt lat="45.46214" lon="6.95031">
        <ele>2089.495</ele>
        <time>2015-08-22T09:16:16Z</time>
      </trkpt>
      <trkpt lat="45.46218" lon="6.95033">
        <ele>2089.495</ele>
        <time>2015-08-22T09:16:21Z</time>
      </trkpt>
      <trkpt lat="45.46224" lon="6.95039">
        <ele>2085.7122</ele>
        <time>2015-08-22T09:16:31Z</time>
      </trkpt>
      <trkpt lat="45.46228" lon="6.95044">
        <ele>2085.7122</ele>
        <time>2015-08-22T09:16:36Z</time>
      </trkpt>
      <trkpt lat="45.46235" lon="6.95051">
        <ele>2082.296</ele>
        <time>2015-08-22T09:16:46Z</time>
      </trkpt>
      <trkpt lat="45.46237" lon="6.95055">
        <ele>2082.296</ele>
        <time>2015-08-22T09:16:51Z</time>
      </trkpt>
      <trkpt lat="45.46242" lon="6.95065">
        <ele>2079.295</ele>
        <time>2015-08-22T09:17:01Z</time>
      </trkpt>
      <trkpt lat="45.46243" lon="6.95068">
        <ele>2079.295</ele>
        <time>2015-08-22T09:17:06Z</time>
      </trkpt>
      <trkpt lat="45.46241" lon="6.95072">
        <ele>2079.295</ele>
        <time>2015-08-22T09:17:16Z</time>
      </trkpt>
      <trkpt lat="45.46238" lon="6.95078">
        <ele>2076.6082</ele>
        <time>2015-08-22T09:17:21Z</time>
      </trkpt>
      <trkpt lat="45.46234" lon="6.95091">
        <ele>2074.2568</ele>
        <time>2015-08-22T09:17:31Z</time>
      </trkpt>
      <trkpt lat="45.46232" lon="6.95099">
        <ele>2074.2568</ele>
        <time>2015-08-22T09:17:36Z</time>
      </trkpt>
      <trkpt lat="45.46231" lon="6.95118">
        <ele>2071.985</ele>
        <time>2015-08-22T09:17:51Z</time>
      </trkpt>
      <trkpt lat="45.4623" lon="6.95124">
        <ele>2071.985</ele>
        <time>2015-08-22T09:17:56Z</time>
      </trkpt>
      <trkpt lat="45.4623" lon="6.95137">
        <ele>2070.176</ele>
        <time>2015-08-22T09:18:06Z</time>
      </trkpt>
      <trkpt lat="45.4623" lon="6.95144">
        <ele>2070.176</ele>
        <time>2015-08-22T09:18:11Z</time>
      </trkpt>
      <trkpt lat="45.4623" lon="6.95161">
        <ele>2068.3179</ele>
        <time>2015-08-22T09:18:21Z</time>
      </trkpt>
      <trkpt lat="45.46231" lon="6.95166">
        <ele>2068.3179</ele>
        <time>2015-08-22T09:18:26Z</time>
      </trkpt>
      <trkpt lat="45.46236" lon="6.9518">
        <ele>2066.513</ele>
        <time>2015-08-22T09:18:36Z</time>
      </trkpt>
      <trkpt lat="45.46238" lon="6.95184">
        <ele>2066.513</ele>
        <time>2015-08-22T09:18:41Z</time>
      </trkpt>
      <trkpt lat="45.46245" lon="6.95207">
        <ele>2065.0725</ele>
        <time>2015-08-22T09:18:51Z</time>
      </trkpt>
      <trkpt lat="45.46245" lon="6.95212">
        <ele>2065.0725</ele>
        <time>2015-08-22T09:18:56Z</time>
      </trkpt>
      <trkpt lat="45.46243" lon="6.95223">
        <ele>2063.851</ele>
        <time>2015-08-22T09:19:06Z</time>
      </trkpt>
      <trkpt lat="45.4624" lon="6.95228">
        <ele>2063.851</ele>
        <time>2015-08-22T09:19:11Z</time>
      </trkpt>
      <trkpt lat="45.46234" lon="6.95233">
        <ele>2062.3677</ele>
        <time>2015-08-22T09:19:21Z</time>
      </trkpt>
      <trkpt lat="45.46234" lon="6.95225">
        <ele>2062.3677</ele>
        <time>2015-08-22T09:19:26Z</time>
      </trkpt>
      <trkpt lat="45.46231" lon="6.95219">
        <ele>2060.3354</ele>
        <time>2015-08-22T09:19:36Z</time>
      </trkpt>
      <trkpt lat="45.46228" lon="6.95226">
        <ele>2060.3354</ele>
        <time>2015-08-22T09:19:41Z</time>
      </trkpt>
      <trkpt lat="45.46224" lon="6.95243">
        <ele>2058.139</ele>
        <time>2015-08-22T09:19:51Z</time>
      </trkpt>
      <trkpt lat="45.46223" lon="6.95246">
        <ele>2058.139</ele>
        <time>2015-08-22T09:19:56Z</time>
      </trkpt>
      <trkpt lat="45.46224" lon="6.95254">
        <ele>2058.139</ele>
        <time>2015-08-22T09:20:06Z</time>
      </trkpt>
      <trkpt lat="45.46224" lon="6.95254">
        <ele>2058.139</ele>
        <time>2015-08-22T09:20:11Z</time>
      </trkpt>
      <trkpt lat="45.46225" lon="6.95267">
        <ele>2055.775</ele>
        <time>2015-08-22T09:20:26Z</time>
      </trkpt>
      <trkpt lat="45.46225" lon="6.95267">
        <ele>2055.775</ele>
        <time>2015-08-22T09:20:31Z</time>
      </trkpt>
      <trkpt lat="45.46223" lon="6.95272">
        <ele>2055.775</ele>
        <time>2015-08-22T09:20:46Z</time>
      </trkpt>
      <trkpt lat="45.4622" lon="6.9529">
        <ele>2053.5137</ele>
        <time>2015-08-22T09:20:56Z</time>
      </trkpt>
      <trkpt lat="45.46218" lon="6.95296">
        <ele>2053.5137</ele>
        <time>2015-08-22T09:21:01Z</time>
      </trkpt>
      <trkpt lat="45.46216" lon="6.95307">
        <ele>2051.3757</ele>
        <time>2015-08-22T09:21:11Z</time>
      </trkpt>
      <trkpt lat="45.4621" lon="6.95317">
        <ele>2051.3757</ele>
        <time>2015-08-22T09:21:16Z</time>
      </trkpt>
      <trkpt lat="45.46208" lon="6.95327">
        <ele>2049.8982</ele>
        <time>2015-08-22T09:21:26Z</time>
      </trkpt>
      <trkpt lat="45.46208" lon="6.95331">
        <ele>2049.8982</ele>
        <time>2015-08-22T09:21:31Z</time>
      </trkpt>
      <trkpt lat="45.46203" lon="6.95319">
        <ele>2048.554</ele>
        <time>2015-08-22T09:21:41Z</time>
      </trkpt>
      <trkpt lat="45.46198" lon="6.95306">
        <ele>2047.4587</ele>
        <time>2015-08-22T09:21:46Z</time>
      </trkpt>
      <trkpt lat="45.46189" lon="6.9529">
        <ele>2046.5471</ele>
        <time>2015-08-22T09:21:56Z</time>
      </trkpt>
      <trkpt lat="45.46189" lon="6.95284">
        <ele>2046.5471</ele>
        <time>2015-08-22T09:22:01Z</time>
      </trkpt>
      <trkpt lat="45.46188" lon="6.95277">
        <ele>2045.0801</ele>
        <time>2015-08-22T09:22:11Z</time>
      </trkpt>
      <trkpt lat="45.46188" lon="6.95267">
        <ele>2045.0801</ele>
        <time>2015-08-22T09:22:16Z</time>
      </trkpt>
      <trkpt lat="45.46185" lon="6.9526">
        <ele>2043.124</ele>
        <time>2015-08-22T09:22:26Z</time>
      </trkpt>
      <trkpt lat="45.46185" lon="6.95246">
        <ele>2041.3474</ele>
        <time>2015-08-22T09:22:31Z</time>
      </trkpt>
      <trkpt lat="45.46178" lon="6.95231">
        <ele>2039.8643</ele>
        <time>2015-08-22T09:22:41Z</time>
      </trkpt>
      <trkpt lat="45.46172" lon="6.95231">
        <ele>2039.8643</ele>
        <time>2015-08-22T09:22:46Z</time>
      </trkpt>
      <trkpt lat="45.46164" lon="6.95223">
        <ele>2038.6069</ele>
        <time>2015-08-22T09:23:01Z</time>
      </trkpt>
      <trkpt lat="45.46163" lon="6.95209">
        <ele>2037.3391</ele>
        <time>2015-08-22T09:23:06Z</time>
      </trkpt>
      <trkpt lat="45.46161" lon="6.95197">
        <ele>2037.3391</ele>
        <time>2015-08-22T09:23:16Z</time>
      </trkpt>
      <trkpt lat="45.46156" lon="6.95198">
        <ele>2036.0869</ele>
        <time>2015-08-22T09:23:21Z</time>
      </trkpt>
      <trkpt lat="45.46145" lon="6.95204">
        <ele>2034.7881</ele>
        <time>2015-08-22T09:23:31Z</time>
      </trkpt>
      <trkpt lat="45.4614" lon="6.95207">
        <ele>2034.7881</ele>
        <time>2015-08-22T09:23:36Z</time>
      </trkpt>
      <trkpt lat="45.46125" lon="6.9521">
        <ele>2033.4141</ele>
        <time>2015-08-22T09:23:46Z</time>
      </trkpt>
      <trkpt lat="45.46125" lon="6.95214">
        <ele>2033.4141</ele>
        <time>2015-08-22T09:23:51Z</time>
      </trkpt>
      <trkpt lat="45.46125" lon="6.95214">
        <ele>2033.4141</ele>
        <time>2015-08-22T09:24:01Z</time>
      </trkpt>
      <trkpt lat="45.46125" lon="6.95214">
        <ele>2033.4141</ele>
        <time>2015-08-22T09:26:01Z</time>
      </trkpt>
      <trkpt lat="45.46125" lon="6.95214">
        <ele>2033.4141</ele>
        <time>2015-08-22T09:26:06Z</time>
      </trkpt>
      <trkpt lat="45.46126" lon="6.95214">
        <ele>2033.4141</ele>
        <time>2015-08-22T09:26:11Z</time>
      </trkpt>
      <trkpt lat="45.46126" lon="6.95214">
        <ele>2033.4141</ele>
        <time>2015-08-22T09:26:16Z</time>
      </trkpt>
      <trkpt lat="45.46126" lon="6.95212">
        <ele>2033.4141</ele>
        <time>2015-08-22T09:26:26Z</time>
      </trkpt>
      <trkpt lat="45.46126" lon="6.95212">
        <ele>2033.4141</ele>
        <time>2015-08-22T09:26:31Z</time>
      </trkpt>
      <trkpt lat="45.46127" lon="6.95213">
        <ele>2033.4141</ele>
        <time>2015-08-22T09:27:01Z</time>
      </trkpt>
      <trkpt lat="45.46126" lon="6.95213">
        <ele>2033.4141</ele>
        <time>2015-08-22T09:27:11Z</time>
      </trkpt>
      <trkpt lat="45.46128" lon="6.95218">
        <ele>2031.2612</ele>
        <time>2015-08-22T09:27:16Z</time>
      </trkpt>
      <trkpt lat="45.46128" lon="6.95229">
        <ele>2031.2612</ele>
        <time>2015-08-22T09:27:31Z</time>
      </trkpt>
      <trkpt lat="45.46125" lon="6.95233">
        <ele>2029.3228</ele>
        <time>2015-08-22T09:27:36Z</time>
      </trkpt>
      <trkpt lat="45.46118" lon="6.95238">
        <ele>2029.3228</ele>
        <time>2015-08-22T09:27:46Z</time>
      </trkpt>
      <trkpt lat="45.46115" lon="6.9524">
        <ele>2027.3513</ele>
        <time>2015-08-22T09:27:51Z</time>
      </trkpt>
      <trkpt lat="45.46106" lon="6.95246">
        <ele>2025.6941</ele>
        <time>2015-08-22T09:28:01Z</time>
      </trkpt>
      <trkpt lat="45.46104" lon="6.95246">
        <ele>2025.6941</ele>
        <time>2015-08-22T09:28:06Z</time>
      </trkpt>
      <trkpt lat="45.46102" lon="6.95248">
        <ele>2025.6941</ele>
        <time>2015-08-22T09:28:16Z</time>
      </trkpt>
      <trkpt lat="45.46095" lon="6.95254">
        <ele>2024.499</ele>
        <time>2015-08-22T09:28:31Z</time>
      </trkpt>
      <trkpt lat="45.46091" lon="6.95259">
        <ele>2024.499</ele>
        <time>2015-08-22T09:28:36Z</time>
      </trkpt>
      <trkpt lat="45.46083" lon="6.95275">
        <ele>2023.8301</ele>
        <time>2015-08-22T09:28:46Z</time>
      </trkpt>
      <trkpt lat="45.46079" lon="6.95277">
        <ele>2023.8301</ele>
        <time>2015-08-22T09:28:51Z</time>
      </trkpt>
      <trkpt lat="45.46071" lon="6.95287">
        <ele>2023.6586</ele>
        <time>2015-08-22T09:29:01Z</time>
      </trkpt>
      <trkpt lat="45.46064" lon="6.95295">
        <ele>2023.6539</ele>
        <time>2015-08-22T09:29:06Z</time>
      </trkpt>
      <trkpt lat="45.46059" lon="6.95302">
        <ele>2023.6539</ele>
        <time>2015-08-22T09:29:16Z</time>
      </trkpt>
      <trkpt lat="45.46056" lon="6.95305">
        <ele>2023.5961</ele>
        <time>2015-08-22T09:29:21Z</time>
      </trkpt>
      <trkpt lat="45.46043" lon="6.95319">
        <ele>2023.6704</ele>
        <time>2015-08-22T09:29:36Z</time>
      </trkpt>
      <trkpt lat="45.46038" lon="6.95323">
        <ele>2023.6704</ele>
        <time>2015-08-22T09:29:41Z</time>
      </trkpt>
      <trkpt lat="45.46028" lon="6.95333">
        <ele>2023.616</ele>
        <time>2015-08-22T09:29:51Z</time>
      </trkpt>
      <trkpt lat="45.46024" lon="6.9534">
        <ele>2023.616</ele>
        <time>2015-08-22T09:29:56Z</time>
      </trkpt>
      <trkpt lat="45.46012" lon="6.95346">
        <ele>2023.6818</ele>
        <time>2015-08-22T09:30:06Z</time>
      </trkpt>
      <trkpt lat="45.46007" lon="6.9535">
        <ele>2023.6818</ele>
        <time>2015-08-22T09:30:11Z</time>
      </trkpt>
      <trkpt lat="45.45999" lon="6.95359">
        <ele>2023.9108</ele>
        <time>2015-08-22T09:30:21Z</time>
      </trkpt>
      <trkpt lat="45.45996" lon="6.95362">
        <ele>2023.9108</ele>
        <time>2015-08-22T09:30:26Z</time>
      </trkpt>
      <trkpt lat="45.45987" lon="6.95367">
        <ele>2024.1837</ele>
        <time>2015-08-22T09:30:36Z</time>
      </trkpt>
      <trkpt lat="45.4598" lon="6.95369">
        <ele>2024.1837</ele>
        <time>2015-08-22T09:30:41Z</time>
      </trkpt>
      <trkpt lat="45.45968" lon="6.95374">
        <ele>2024.2178</ele>
        <time>2015-08-22T09:30:51Z</time>
      </trkpt>
      <trkpt lat="45.45968" lon="6.95375">
        <ele>2024.2178</ele>
        <time>2015-08-22T09:30:56Z</time>
      </trkpt>
      <trkpt lat="45.45967" lon="6.95381">
        <ele>2024.2178</ele>
        <time>2015-08-22T09:31:06Z</time>
      </trkpt>
      <trkpt lat="45.45967" lon="6.9538">
        <ele>2024.2178</ele>
        <time>2015-08-22T09:31:11Z</time>
      </trkpt>
      <trkpt lat="45.4597" lon="6.95379">
        <ele>2024.2178</ele>
        <time>2015-08-22T09:31:21Z</time>
      </trkpt>
      <trkpt lat="45.4597" lon="6.95374">
        <ele>2024.731</ele>
        <time>2015-08-22T09:31:26Z</time>
      </trkpt>
      <trkpt lat="45.45971" lon="6.95368">
        <ele>2024.731</ele>
        <time>2015-08-22T09:31:36Z</time>
      </trkpt>
      <trkpt lat="45.45962" lon="6.9538">
        <ele>2025.0623</ele>
        <time>2015-08-22T09:32:26Z</time>
      </trkpt>
      <trkpt lat="45.45954" lon="6.95381">
        <ele>2025.0623</ele>
        <time>2015-08-22T09:32:31Z</time>
      </trkpt>
      <trkpt lat="45.45939" lon="6.95382">
        <ele>2025.5073</ele>
        <time>2015-08-22T09:32:41Z</time>
      </trkpt>
      <trkpt lat="45.45931" lon="6.95381">
        <ele>2025.5073</ele>
        <time>2015-08-22T09:32:46Z</time>
      </trkpt>
      <trkpt lat="45.45919" lon="6.95382">
        <ele>2025.9797</ele>
        <time>2015-08-22T09:32:56Z</time>
      </trkpt>
      <trkpt lat="45.45913" lon="6.95385">
        <ele>2025.9797</ele>
        <time>2015-08-22T09:33:01Z</time>
      </trkpt>
      <trkpt lat="45.45903" lon="6.95394">
        <ele>2026.5869</ele>
        <time>2015-08-22T09:33:11Z</time>
      </trkpt>
      <trkpt lat="45.45899" lon="6.95398">
        <ele>2026.5869</ele>
        <time>2015-08-22T09:33:16Z</time>
      </trkpt>
      <trkpt lat="45.45895" lon="6.95411">
        <ele>2027.0104</ele>
        <time>2015-08-22T09:33:26Z</time>
      </trkpt>
      <trkpt lat="45.45893" lon="6.9542">
        <ele>2027.0104</ele>
        <time>2015-08-22T09:33:31Z</time>
      </trkpt>
      <trkpt lat="45.4589" lon="6.95435">
        <ele>2027.388</ele>
        <time>2015-08-22T09:33:41Z</time>
      </trkpt>
      <trkpt lat="45.4589" lon="6.95446">
        <ele>2027.388</ele>
        <time>2015-08-22T09:33:46Z</time>
      </trkpt>
      <trkpt lat="45.45891" lon="6.95463">
        <ele>2027.5593</ele>
        <time>2015-08-22T09:33:56Z</time>
      </trkpt>
      <trkpt lat="45.45894" lon="6.9547">
        <ele>2027.5593</ele>
        <time>2015-08-22T09:34:01Z</time>
      </trkpt>
      <trkpt lat="45.45899" lon="6.95483">
        <ele>2027.4779</ele>
        <time>2015-08-22T09:34:11Z</time>
      </trkpt>
      <trkpt lat="45.459" lon="6.95487">
        <ele>2027.4779</ele>
        <time>2015-08-22T09:34:16Z</time>
      </trkpt>
      <trkpt lat="45.45902" lon="6.95501">
        <ele>2027.0002</ele>
        <time>2015-08-22T09:34:26Z</time>
      </trkpt>
      <trkpt lat="45.45903" lon="6.95511">
        <ele>2027.0002</ele>
        <time>2015-08-22T09:34:31Z</time>
      </trkpt>
      <trkpt lat="45.45906" lon="6.95527">
        <ele>2025.8075</ele>
        <time>2015-08-22T09:34:46Z</time>
      </trkpt>
      <trkpt lat="45.45906" lon="6.95534">
        <ele>2025.8075</ele>
        <time>2015-08-22T09:34:51Z</time>
      </trkpt>
      <trkpt lat="45.45907" lon="6.95554">
        <ele>2024.111</ele>
        <time>2015-08-22T09:35:01Z</time>
      </trkpt>
      <trkpt lat="45.45909" lon="6.9556">
        <ele>2024.111</ele>
        <time>2015-08-22T09:35:06Z</time>
      </trkpt>
      <trkpt lat="45.45913" lon="6.95575">
        <ele>2022.1797</ele>
        <time>2015-08-22T09:35:16Z</time>
      </trkpt>
      <trkpt lat="45.45913" lon="6.95582">
        <ele>2022.1797</ele>
        <time>2015-08-22T09:35:21Z</time>
      </trkpt>
      <trkpt lat="45.45913" lon="6.956">
        <ele>2020.0336</ele>
        <time>2015-08-22T09:35:31Z</time>
      </trkpt>
      <trkpt lat="45.45912" lon="6.95605">
        <ele>2020.0336</ele>
        <time>2015-08-22T09:35:36Z</time>
      </trkpt>
      <trkpt lat="45.45914" lon="6.95608">
        <ele>2020.0336</ele>
        <time>2015-08-22T09:35:46Z</time>
      </trkpt>
      <trkpt lat="45.45914" lon="6.95607">
        <ele>2020.0336</ele>
        <time>2015-08-22T09:36:01Z</time>
      </trkpt>
      <trkpt lat="45.45911" lon="6.9561">
        <ele>2017.5618</ele>
        <time>2015-08-22T09:36:06Z</time>
      </trkpt>
      <trkpt lat="45.45908" lon="6.9562">
        <ele>2017.5618</ele>
        <time>2015-08-22T09:36:16Z</time>
      </trkpt>
      <trkpt lat="45.45908" lon="6.9562">
        <ele>2017.5618</ele>
        <time>2015-08-22T09:36:21Z</time>
      </trkpt>
      <trkpt lat="45.45907" lon="6.95632">
        <ele>2015.0519</ele>
        <time>2015-08-22T09:36:31Z</time>
      </trkpt>
      <trkpt lat="45.45903" lon="6.9564">
        <ele>2015.0519</ele>
        <time>2015-08-22T09:36:36Z</time>
      </trkpt>
      <trkpt lat="45.45897" lon="6.95656">
        <ele>2012.6552</ele>
        <time>2015-08-22T09:36:46Z</time>
      </trkpt>
      <trkpt lat="45.45893" lon="6.95668">
        <ele>2010.4828</ele>
        <time>2015-08-22T09:36:51Z</time>
      </trkpt>
      <trkpt lat="45.45887" lon="6.9568">
        <ele>2008.421</ele>
        <time>2015-08-22T09:37:01Z</time>
      </trkpt>
      <trkpt lat="45.45885" lon="6.95688">
        <ele>2008.421</ele>
        <time>2015-08-22T09:37:06Z</time>
      </trkpt>
      <trkpt lat="45.4588" lon="6.95703">
        <ele>2006.2921</ele>
        <time>2015-08-22T09:37:16Z</time>
      </trkpt>
      <trkpt lat="45.45877" lon="6.9571">
        <ele>2006.2921</ele>
        <time>2015-08-22T09:37:21Z</time>
      </trkpt>
      <trkpt lat="45.45868" lon="6.95723">
        <ele>2003.9602</ele>
        <time>2015-08-22T09:37:36Z</time>
      </trkpt>
      <trkpt lat="45.45867" lon="6.95725">
        <ele>2003.9602</ele>
        <time>2015-08-22T09:37:41Z</time>
      </trkpt>
      <trkpt lat="45.45864" lon="6.95733">
        <ele>2003.9602</ele>
        <time>2015-08-22T09:37:51Z</time>
      </trkpt>
      <trkpt lat="45.45861" lon="6.95738">
        <ele>2001.6896</ele>
        <time>2015-08-22T09:37:56Z</time>
      </trkpt>
      <trkpt lat="45.45855" lon="6.95751">
        <ele>1999.4795</ele>
        <time>2015-08-22T09:38:06Z</time>
      </trkpt>
      <trkpt lat="45.45852" lon="6.95758">
        <ele>1999.4795</ele>
        <time>2015-08-22T09:38:11Z</time>
      </trkpt>
      <trkpt lat="45.45842" lon="6.95778">
        <ele>1997.3868</ele>
        <time>2015-08-22T09:38:21Z</time>
      </trkpt>
      <trkpt lat="45.45838" lon="6.95785">
        <ele>1997.3868</ele>
        <time>2015-08-22T09:38:26Z</time>
      </trkpt>
      <trkpt lat="45.4583" lon="6.95794">
        <ele>1995.5219</ele>
        <time>2015-08-22T09:38:36Z</time>
      </trkpt>
      <trkpt lat="45.45824" lon="6.95798">
        <ele>1995.5219</ele>
        <time>2015-08-22T09:38:41Z</time>
      </trkpt>
      <trkpt lat="45.45813" lon="6.95807">
        <ele>1993.6829</ele>
        <time>2015-08-22T09:38:51Z</time>
      </trkpt>
      <trkpt lat="45.45807" lon="6.95813">
        <ele>1993.6829</ele>
        <time>2015-08-22T09:38:56Z</time>
      </trkpt>
      <trkpt lat="45.45799" lon="6.95821">
        <ele>1991.6691</ele>
        <time>2015-08-22T09:39:06Z</time>
      </trkpt>
      <trkpt lat="45.45797" lon="6.95828">
        <ele>1991.6691</ele>
        <time>2015-08-22T09:39:11Z</time>
      </trkpt>
      <trkpt lat="45.45792" lon="6.95844">
        <ele>1989.309</ele>
        <time>2015-08-22T09:39:21Z</time>
      </trkpt>
      <trkpt lat="45.45789" lon="6.95853">
        <ele>1989.309</ele>
        <time>2015-08-22T09:39:26Z</time>
      </trkpt>
      <trkpt lat="45.45781" lon="6.95868">
        <ele>1986.8336</ele>
        <time>2015-08-22T09:39:36Z</time>
      </trkpt>
      <trkpt lat="45.45776" lon="6.9588">
        <ele>1984.5729</ele>
        <time>2015-08-22T09:39:41Z</time>
      </trkpt>
      <trkpt lat="45.45771" lon="6.95897">
        <ele>1982.5144</ele>
        <time>2015-08-22T09:39:51Z</time>
      </trkpt>
      <trkpt lat="45.45769" lon="6.95902">
        <ele>1982.5144</ele>
        <time>2015-08-22T09:39:56Z</time>
      </trkpt>
      <trkpt lat="45.45758" lon="6.95913">
        <ele>1980.6606</ele>
        <time>2015-08-22T09:40:06Z</time>
      </trkpt>
      <trkpt lat="45.45754" lon="6.95916">
        <ele>1980.6606</ele>
        <time>2015-08-22T09:40:11Z</time>
      </trkpt>
      <trkpt lat="45.45746" lon="6.9592">
        <ele>1979.0422</ele>
        <time>2015-08-22T09:40:21Z</time>
      </trkpt>
      <trkpt lat="45.45741" lon="6.95919">
        <ele>1979.0422</ele>
        <time>2015-08-22T09:40:26Z</time>
      </trkpt>
      <trkpt lat="45.45725" lon="6.95925">
        <ele>1976.8076</ele>
        <time>2015-08-22T09:40:41Z</time>
      </trkpt>
      <trkpt lat="45.45718" lon="6.95931">
        <ele>1976.8076</ele>
        <time>2015-08-22T09:40:46Z</time>
      </trkpt>
      <trkpt lat="45.4571" lon="6.95936">
        <ele>1974.8264</ele>
        <time>2015-08-22T09:40:56Z</time>
      </trkpt>
      <trkpt lat="45.45708" lon="6.95937">
        <ele>1974.8264</ele>
        <time>2015-08-22T09:41:01Z</time>
      </trkpt>
      <trkpt lat="45.45697" lon="6.95938">
        <ele>1972.6215</ele>
        <time>2015-08-22T09:41:11Z</time>
      </trkpt>
      <trkpt lat="45.4569" lon="6.95936">
        <ele>1972.6215</ele>
        <time>2015-08-22T09:41:16Z</time>
      </trkpt>
      <trkpt lat="45.45677" lon="6.95945">
        <ele>1969.8949</ele>
        <time>2015-08-22T09:41:26Z</time>
      </trkpt>
      <trkpt lat="45.45671" lon="6.95945">
        <ele>1969.8949</ele>
        <time>2015-08-22T09:41:31Z</time>
      </trkpt>
      <trkpt lat="45.45663" lon="6.95954">
        <ele>1967.0067</ele>
        <time>2015-08-22T09:41:41Z</time>
      </trkpt>
      <trkpt lat="45.45656" lon="6.95957">
        <ele>1967.0067</ele>
        <time>2015-08-22T09:41:46Z</time>
      </trkpt>
      <trkpt lat="45.45655" lon="6.95958">
        <ele>1967.0067</ele>
        <time>2015-08-22T09:41:56Z</time>
      </trkpt>
      <trkpt lat="45.45657" lon="6.95958">
        <ele>1963.5553</ele>
        <time>2015-08-22T09:43:06Z</time>
      </trkpt>
      <trkpt lat="45.45656" lon="6.95956">
        <ele>1963.5553</ele>
        <time>2015-08-22T09:43:16Z</time>
      </trkpt>
      <trkpt lat="45.4565" lon="6.9596">
        <ele>1963.5553</ele>
        <time>2015-08-22T09:43:21Z</time>
      </trkpt>
      <trkpt lat="45.45639" lon="6.95972">
        <ele>1960.1213</ele>
        <time>2015-08-22T09:43:31Z</time>
      </trkpt>
      <trkpt lat="45.45632" lon="6.95978">
        <ele>1960.1213</ele>
        <time>2015-08-22T09:43:36Z</time>
      </trkpt>
      <trkpt lat="45.45628" lon="6.95986">
        <ele>1956.9692</ele>
        <time>2015-08-22T09:43:46Z</time>
      </trkpt>
      <trkpt lat="45.45624" lon="6.95997">
        <ele>1956.9692</ele>
        <time>2015-08-22T09:43:51Z</time>
      </trkpt>
      <trkpt lat="45.45617" lon="6.96012">
        <ele>1953.9534</ele>
        <time>2015-08-22T09:44:01Z</time>
      </trkpt>
      <trkpt lat="45.45615" lon="6.96016">
        <ele>1953.9534</ele>
        <time>2015-08-22T09:44:06Z</time>
      </trkpt>
      <trkpt lat="45.45605" lon="6.9603">
        <ele>1951.1694</ele>
        <time>2015-08-22T09:44:16Z</time>
      </trkpt>
      <trkpt lat="45.45601" lon="6.96038">
        <ele>1951.1694</ele>
        <time>2015-08-22T09:44:21Z</time>
      </trkpt>
      <trkpt lat="45.45592" lon="6.96054">
        <ele>1948.5753</ele>
        <time>2015-08-22T09:44:31Z</time>
      </trkpt>
      <trkpt lat="45.4559" lon="6.96058">
        <ele>1948.5753</ele>
        <time>2015-08-22T09:44:36Z</time>
      </trkpt>
      <trkpt lat="45.45586" lon="6.9607">
        <ele>1945.8287</ele>
        <time>2015-08-22T09:44:46Z</time>
      </trkpt>
      <trkpt lat="45.45581" lon="6.96076">
        <ele>1945.8287</ele>
        <time>2015-08-22T09:44:51Z</time>
      </trkpt>
      <trkpt lat="45.45573" lon="6.9609">
        <ele>1942.8002</ele>
        <time>2015-08-22T09:45:01Z</time>
      </trkpt>
      <trkpt lat="45.45568" lon="6.96096">
        <ele>1942.8002</ele>
        <time>2015-08-22T09:45:06Z</time>
      </trkpt>
      <trkpt lat="45.45562" lon="6.96103">
        <ele>1939.3273</ele>
        <time>2015-08-22T09:45:21Z</time>
      </trkpt>
      <trkpt lat="45.45558" lon="6.96109">
        <ele>1939.3273</ele>
        <time>2015-08-22T09:45:26Z</time>
      </trkpt>
      <trkpt lat="45.45547" lon="6.96122">
        <ele>1935.7792</ele>
        <time>2015-08-22T09:45:36Z</time>
      </trkpt>
      <trkpt lat="45.45542" lon="6.96128">
        <ele>1935.7792</ele>
        <time>2015-08-22T09:45:41Z</time>
      </trkpt>
      <trkpt lat="45.45535" lon="6.96141">
        <ele>1932.3685</ele>
        <time>2015-08-22T09:45:51Z</time>
      </trkpt>
      <trkpt lat="45.45532" lon="6.96148">
        <ele>1932.3685</ele>
        <time>2015-08-22T09:45:56Z</time>
      </trkpt>
      <trkpt lat="45.45527" lon="6.9616">
        <ele>1928.8306</ele>
        <time>2015-08-22T09:46:06Z</time>
      </trkpt>
      <trkpt lat="45.45524" lon="6.96169">
        <ele>1928.8306</ele>
        <time>2015-08-22T09:46:11Z</time>
      </trkpt>
      <trkpt lat="45.45517" lon="6.96186">
        <ele>1925.2229</ele>
        <time>2015-08-22T09:46:21Z</time>
      </trkpt>
      <trkpt lat="45.45513" lon="6.96189">
        <ele>1925.2229</ele>
        <time>2015-08-22T09:46:26Z</time>
      </trkpt>
      <trkpt lat="45.45506" lon="6.96205">
        <ele>1921.8005</ele>
        <time>2015-08-22T09:46:36Z</time>
      </trkpt>
      <trkpt lat="45.45501" lon="6.96213">
        <ele>1921.8005</ele>
        <time>2015-08-22T09:46:41Z</time>
      </trkpt>
      <trkpt lat="45.45495" lon="6.96223">
        <ele>1918.5111</ele>
        <time>2015-08-22T09:46:51Z</time>
      </trkpt>
      <trkpt lat="45.45491" lon="6.96228">
        <ele>1918.5111</ele>
        <time>2015-08-22T09:46:56Z</time>
      </trkpt>
      <trkpt lat="45.45482" lon="6.96239">
        <ele>1915.3773</ele>
        <time>2015-08-22T09:47:06Z</time>
      </trkpt>
      <trkpt lat="45.45478" lon="6.96243">
        <ele>1915.3773</ele>
        <time>2015-08-22T09:47:11Z</time>
      </trkpt>
      <trkpt lat="45.45468" lon="6.9626">
        <ele>1912.2471</ele>
        <time>2015-08-22T09:47:26Z</time>
      </trkpt>
      <trkpt lat="45.45465" lon="6.96271">
        <ele>1912.2471</ele>
        <time>2015-08-22T09:47:31Z</time>
      </trkpt>
      <trkpt lat="45.45455" lon="6.96286">
        <ele>1909.0797</ele>
        <time>2015-08-22T09:47:41Z</time>
      </trkpt>
      <trkpt lat="45.45452" lon="6.96293">
        <ele>1909.0797</ele>
        <time>2015-08-22T09:47:46Z</time>
      </trkpt>
      <trkpt lat="45.45442" lon="6.96304">
        <ele>1905.9531</ele>
        <time>2015-08-22T09:47:56Z</time>
      </trkpt>
      <trkpt lat="45.45437" lon="6.9631">
        <ele>1905.9531</ele>
        <time>2015-08-22T09:48:01Z</time>
      </trkpt>
      <trkpt lat="45.45428" lon="6.96324">
        <ele>1902.8959</ele>
        <time>2015-08-22T09:48:11Z</time>
      </trkpt>
      <trkpt lat="45.45426" lon="6.96326">
        <ele>1902.8959</ele>
        <time>2015-08-22T09:48:16Z</time>
      </trkpt>
      <trkpt lat="45.45417" lon="6.96336">
        <ele>1899.8331</ele>
        <time>2015-08-22T09:48:26Z</time>
      </trkpt>
      <trkpt lat="45.45413" lon="6.96343">
        <ele>1899.8331</ele>
        <time>2015-08-22T09:48:31Z</time>
      </trkpt>
      <trkpt lat="45.45405" lon="6.96355">
        <ele>1896.883</ele>
        <time>2015-08-22T09:48:41Z</time>
      </trkpt>
      <trkpt lat="45.45401" lon="6.96359">
        <ele>1896.883</ele>
        <time>2015-08-22T09:48:46Z</time>
      </trkpt>
      <trkpt lat="45.45393" lon="6.96372">
        <ele>1893.9093</ele>
        <time>2015-08-22T09:48:56Z</time>
      </trkpt>
      <trkpt lat="45.45391" lon="6.96378">
        <ele>1893.9093</ele>
        <time>2015-08-22T09:49:01Z</time>
      </trkpt>
      <trkpt lat="45.45383" lon="6.96395">
        <ele>1890.9155</ele>
        <time>2015-08-22T09:49:11Z</time>
      </trkpt>
      <trkpt lat="45.4538" lon="6.96401">
        <ele>1890.9155</ele>
        <time>2015-08-22T09:49:16Z</time>
      </trkpt>
      <trkpt lat="45.45377" lon="6.96407">
        <ele>1887.7894</ele>
        <time>2015-08-22T09:49:26Z</time>
      </trkpt>
      <trkpt lat="45.45374" lon="6.96417">
        <ele>1887.7894</ele>
        <time>2015-08-22T09:49:31Z</time>
      </trkpt>
      <trkpt lat="45.45366" lon="6.96433">
        <ele>1884.7301</ele>
        <time>2015-08-22T09:49:41Z</time>
      </trkpt>
      <trkpt lat="45.45362" lon="6.96438">
        <ele>1884.7301</ele>
        <time>2015-08-22T09:49:46Z</time>
      </trkpt>
      <trkpt lat="45.45367" lon="6.96429">
        <ele>1881.9362</ele>
        <time>2015-08-22T09:50:01Z</time>
      </trkpt>
      <trkpt lat="45.45367" lon="6.96431">
        <ele>1881.9362</ele>
        <time>2015-08-22T09:50:06Z</time>
      </trkpt>
      <trkpt lat="45.45369" lon="6.96428">
        <ele>1881.9362</ele>
        <time>2015-08-22T09:50:16Z</time>
      </trkpt>
      <trkpt lat="45.45369" lon="6.96427">
        <ele>1881.9362</ele>
        <time>2015-08-22T09:50:21Z</time>
      </trkpt>
      <trkpt lat="45.45369" lon="6.96427">
        <ele>1881.9362</ele>
        <time>2015-08-22T09:50:31Z</time>
      </trkpt>
      <trkpt lat="45.45367" lon="6.96429">
        <ele>1881.9362</ele>
        <time>2015-08-22T09:51:01Z</time>
      </trkpt>
      <trkpt lat="45.45363" lon="6.96438">
        <ele>1879.2589</ele>
        <time>2015-08-22T09:51:06Z</time>
      </trkpt>
      <trkpt lat="45.45352" lon="6.96453">
        <ele>1876.8344</ele>
        <time>2015-08-22T09:51:16Z</time>
      </trkpt>
      <trkpt lat="45.45352" lon="6.96455">
        <ele>1876.8344</ele>
        <time>2015-08-22T09:51:21Z</time>
      </trkpt>
      <trkpt lat="45.45352" lon="6.96455">
        <ele>1876.8344</ele>
        <time>2015-08-22T09:51:31Z</time>
      </trkpt>
      <trkpt lat="45.4535" lon="6.96455">
        <ele>1876.8344</ele>
        <time>2015-08-22T09:51:36Z</time>
      </trkpt>
      <trkpt lat="45.45338" lon="6.96468">
        <ele>1873.9661</ele>
        <time>2015-08-22T09:51:51Z</time>
      </trkpt>
      <trkpt lat="45.45334" lon="6.96474">
        <ele>1873.9661</ele>
        <time>2015-08-22T09:51:56Z</time>
      </trkpt>
      <trkpt lat="45.45328" lon="6.96489">
        <ele>1871.3215</ele>
        <time>2015-08-22T09:52:06Z</time>
      </trkpt>
      <trkpt lat="45.45327" lon="6.96494">
        <ele>1871.3215</ele>
        <time>2015-08-22T09:52:11Z</time>
      </trkpt>
      <trkpt lat="45.45325" lon="6.96515">
        <ele>1868.4807</ele>
        <time>2015-08-22T09:52:21Z</time>
      </trkpt>
      <trkpt lat="45.45323" lon="6.96525">
        <ele>1868.4807</ele>
        <time>2015-08-22T09:52:26Z</time>
      </trkpt>
      <trkpt lat="45.45323" lon="6.96529">
        <ele>1866.0636</ele>
        <time>2015-08-22T09:52:36Z</time>
      </trkpt>
      <trkpt lat="45.45324" lon="6.9653">
        <ele>1866.0636</ele>
        <time>2015-08-22T09:52:41Z</time>
      </trkpt>
      <trkpt lat="45.45324" lon="6.9653">
        <ele>1866.0636</ele>
        <time>2015-08-22T09:52:51Z</time>
      </trkpt>
      <trkpt lat="45.4532" lon="6.96546">
        <ele>1864.0096</ele>
        <time>2015-08-22T09:53:21Z</time>
      </trkpt>
      <trkpt lat="45.45319" lon="6.96557">
        <ele>1864.0096</ele>
        <time>2015-08-22T09:53:26Z</time>
      </trkpt>
      <trkpt lat="45.45315" lon="6.96582">
        <ele>1861.3533</ele>
        <time>2015-08-22T09:53:41Z</time>
      </trkpt>
      <trkpt lat="45.45314" lon="6.96587">
        <ele>1861.3533</ele>
        <time>2015-08-22T09:53:46Z</time>
      </trkpt>
      <trkpt lat="45.4531" lon="6.96601">
        <ele>1858.47</ele>
        <time>2015-08-22T09:53:56Z</time>
      </trkpt>
      <trkpt lat="45.45306" lon="6.9661">
        <ele>1858.47</ele>
        <time>2015-08-22T09:54:01Z</time>
      </trkpt>
      <trkpt lat="45.45301" lon="6.96626">
        <ele>1855.1606</ele>
        <time>2015-08-22T09:54:11Z</time>
      </trkpt>
      <trkpt lat="45.45299" lon="6.9663">
        <ele>1855.1606</ele>
        <time>2015-08-22T09:54:16Z</time>
      </trkpt>
      <trkpt lat="45.45294" lon="6.96644">
        <ele>1851.631</ele>
        <time>2015-08-22T09:54:26Z</time>
      </trkpt>
      <trkpt lat="45.4529" lon="6.96652">
        <ele>1851.631</ele>
        <time>2015-08-22T09:54:31Z</time>
      </trkpt>
      <trkpt lat="45.45284" lon="6.96664">
        <ele>1848.0431</ele>
        <time>2015-08-22T09:54:41Z</time>
      </trkpt>
      <trkpt lat="45.45283" lon="6.96673">
        <ele>1848.0431</ele>
        <time>2015-08-22T09:54:46Z</time>
      </trkpt>
      <trkpt lat="45.45285" lon="6.96691">
        <ele>1844.6196</ele>
        <time>2015-08-22T09:54:56Z</time>
      </trkpt>
      <trkpt lat="45.45287" lon="6.96697">
        <ele>1844.6196</ele>
        <time>2015-08-22T09:55:01Z</time>
      </trkpt>
      <trkpt lat="45.45288" lon="6.96713">
        <ele>1841.7103</ele>
        <time>2015-08-22T09:55:11Z</time>
      </trkpt>
      <trkpt lat="45.45286" lon="6.96721">
        <ele>1841.7103</ele>
        <time>2015-08-22T09:55:16Z</time>
      </trkpt>
      <trkpt lat="45.45287" lon="6.9674">
        <ele>1839.3641</ele>
        <time>2015-08-22T09:55:26Z</time>
      </trkpt>
      <trkpt lat="45.45289" lon="6.96747">
        <ele>1839.3641</ele>
        <time>2015-08-22T09:55:31Z</time>
      </trkpt>
      <trkpt lat="45.45293" lon="6.96767">
        <ele>1837.6823</ele>
        <time>2015-08-22T09:55:46Z</time>
      </trkpt>
      <trkpt lat="45.45296" lon="6.96779">
        <ele>1836.3529</ele>
        <time>2015-08-22T09:55:51Z</time>
      </trkpt>
      <trkpt lat="45.453" lon="6.96792">
        <ele>1835.3171</ele>
        <time>2015-08-22T09:56:01Z</time>
      </trkpt>
      <trkpt lat="45.45302" lon="6.96803">
        <ele>1835.3171</ele>
        <time>2015-08-22T09:56:06Z</time>
      </trkpt>
      <trkpt lat="45.45302" lon="6.9682">
        <ele>1834.5048</ele>
        <time>2015-08-22T09:56:16Z</time>
      </trkpt>
      <trkpt lat="45.45302" lon="6.96829">
        <ele>1834.5048</ele>
        <time>2015-08-22T09:56:21Z</time>
      </trkpt>
      <trkpt lat="45.45304" lon="6.96843">
        <ele>1833.7206</ele>
        <time>2015-08-22T09:56:31Z</time>
      </trkpt>
      <trkpt lat="45.45303" lon="6.96849">
        <ele>1833.7206</ele>
        <time>2015-08-22T09:56:36Z</time>
      </trkpt>
      <trkpt lat="45.45302" lon="6.96854">
        <ele>1833.7206</ele>
        <time>2015-08-22T09:56:46Z</time>
      </trkpt>
      <trkpt lat="45.45305" lon="6.96867">
        <ele>1833.1583</ele>
        <time>2015-08-22T09:57:31Z</time>
      </trkpt>
      <trkpt lat="45.45307" lon="6.96874">
        <ele>1833.1583</ele>
        <time>2015-08-22T09:57:36Z</time>
      </trkpt>
      <trkpt lat="45.45308" lon="6.96896">
        <ele>1832.2906</ele>
        <time>2015-08-22T09:57:51Z</time>
      </trkpt>
      <trkpt lat="45.4531" lon="6.969">
        <ele>1832.2906</ele>
        <time>2015-08-22T09:57:56Z</time>
      </trkpt>
      <trkpt lat="45.45312" lon="6.96918">
        <ele>1831.2787</ele>
        <time>2015-08-22T09:58:06Z</time>
      </trkpt>
      <trkpt lat="45.45311" lon="6.96929">
        <ele>1831.2787</ele>
        <time>2015-08-22T09:58:11Z</time>
      </trkpt>
      <trkpt lat="45.45314" lon="6.96946">
        <ele>1830.416</ele>
        <time>2015-08-22T09:58:21Z</time>
      </trkpt>
      <trkpt lat="45.45316" lon="6.96953">
        <ele>1830.416</ele>
        <time>2015-08-22T09:58:26Z</time>
      </trkpt>
      <trkpt lat="45.45321" lon="6.9697">
        <ele>1829.5277</ele>
        <time>2015-08-22T09:58:36Z</time>
      </trkpt>
      <trkpt lat="45.45324" lon="6.96976">
        <ele>1829.5277</ele>
        <time>2015-08-22T09:58:41Z</time>
      </trkpt>
      <trkpt lat="45.45332" lon="6.96986">
        <ele>1828.6101</ele>
        <time>2015-08-22T09:58:51Z</time>
      </trkpt>
      <trkpt lat="45.45335" lon="6.96989">
        <ele>1828.6101</ele>
        <time>2015-08-22T09:58:56Z</time>
      </trkpt>
      <trkpt lat="45.45345" lon="6.96998">
        <ele>1827.4154</ele>
        <time>2015-08-22T09:59:06Z</time>
      </trkpt>
      <trkpt lat="45.45351" lon="6.97002">
        <ele>1827.4154</ele>
        <time>2015-08-22T09:59:11Z</time>
      </trkpt>
      <trkpt lat="45.45358" lon="6.97018">
        <ele>1825.83</ele>
        <time>2015-08-22T09:59:21Z</time>
      </trkpt>
      <trkpt lat="45.45352" lon="6.9703">
        <ele>1824.2972</ele>
        <time>2015-08-22T09:59:26Z</time>
      </trkpt>
      <trkpt lat="45.45348" lon="6.97046">
        <ele>1822.6086</ele>
        <time>2015-08-22T09:59:36Z</time>
      </trkpt>
      <trkpt lat="45.45347" lon="6.97056">
        <ele>1822.6086</ele>
        <time>2015-08-22T09:59:41Z</time>
      </trkpt>
      <trkpt lat="45.45344" lon="6.9707">
        <ele>1820.9027</ele>
        <time>2015-08-22T09:59:51Z</time>
      </trkpt>
      <trkpt lat="45.45341" lon="6.97077">
        <ele>1820.9027</ele>
        <time>2015-08-22T09:59:56Z</time>
      </trkpt>
      <trkpt lat="45.45339" lon="6.97099">
        <ele>1819.207</ele>
        <time>2015-08-22T10:00:06Z</time>
      </trkpt>
      <trkpt lat="45.45336" lon="6.9711">
        <ele>1819.207</ele>
        <time>2015-08-22T10:00:11Z</time>
      </trkpt>
      <trkpt lat="45.45341" lon="6.97119">
        <ele>1817.7347</ele>
        <time>2015-08-22T10:00:26Z</time>
      </trkpt>
      <trkpt lat="45.45341" lon="6.97119">
        <ele>1817.7347</ele>
        <time>2015-08-22T10:00:31Z</time>
      </trkpt>
      <trkpt lat="45.45341" lon="6.97119">
        <ele>1817.7347</ele>
        <time>2015-08-22T10:00:41Z</time>
      </trkpt>
      <trkpt lat="45.4534" lon="6.97119">
        <ele>1817.7347</ele>
        <time>2015-08-22T10:00:56Z</time>
      </trkpt>
      <trkpt lat="45.45332" lon="6.97127">
        <ele>1816.654</ele>
        <time>2015-08-22T10:01:01Z</time>
      </trkpt>
      <trkpt lat="45.4532" lon="6.97137">
        <ele>1816.307</ele>
        <time>2015-08-22T10:01:11Z</time>
      </trkpt>
      <trkpt lat="45.45318" lon="6.9714">
        <ele>1816.307</ele>
        <time>2015-08-22T10:01:16Z</time>
      </trkpt>
      <trkpt lat="45.45314" lon="6.97155">
        <ele>1816.2017</ele>
        <time>2015-08-22T10:01:26Z</time>
      </trkpt>
      <trkpt lat="45.45309" lon="6.97163">
        <ele>1816.2017</ele>
        <time>2015-08-22T10:01:31Z</time>
      </trkpt>
      <trkpt lat="45.45304" lon="6.97174">
        <ele>1816.386</ele>
        <time>2015-08-22T10:01:41Z</time>
      </trkpt>
      <trkpt lat="45.45302" lon="6.97179">
        <ele>1816.386</ele>
        <time>2015-08-22T10:01:46Z</time>
      </trkpt>
      <trkpt lat="45.45295" lon="6.97192">
        <ele>1816.5145</ele>
        <time>2015-08-22T10:01:56Z</time>
      </trkpt>
      <trkpt lat="45.45292" lon="6.97199">
        <ele>1816.5145</ele>
        <time>2015-08-22T10:02:01Z</time>
      </trkpt>
      <trkpt lat="45.45287" lon="6.9721">
        <ele>1816.5704</ele>
        <time>2015-08-22T10:02:11Z</time>
      </trkpt>
      <trkpt lat="45.45279" lon="6.97218">
        <ele>1816.6536</ele>
        <time>2015-08-22T10:02:16Z</time>
      </trkpt>
      <trkpt lat="45.45269" lon="6.97228">
        <ele>1816.842</ele>
        <time>2015-08-22T10:02:26Z</time>
      </trkpt>
      <trkpt lat="45.45264" lon="6.97231">
        <ele>1816.842</ele>
        <time>2015-08-22T10:02:31Z</time>
      </trkpt>
      <trkpt lat="45.45255" lon="6.97238">
        <ele>1816.9633</ele>
        <time>2015-08-22T10:02:41Z</time>
      </trkpt>
      <trkpt lat="45.45252" lon="6.97242">
        <ele>1816.9633</ele>
        <time>2015-08-22T10:02:46Z</time>
      </trkpt>
      <trkpt lat="45.45237" lon="6.97257">
        <ele>1816.7856</ele>
        <time>2015-08-22T10:03:01Z</time>
      </trkpt>
      <trkpt lat="45.45233" lon="6.97264">
        <ele>1816.7856</ele>
        <time>2015-08-22T10:03:06Z</time>
      </trkpt>
      <trkpt lat="45.45227" lon="6.97274">
        <ele>1816.8159</ele>
        <time>2015-08-22T10:03:16Z</time>
      </trkpt>
      <trkpt lat="45.45227" lon="6.97274">
        <ele>1816.8159</ele>
        <time>2015-08-22T10:03:21Z</time>
      </trkpt>
      <trkpt lat="45.45225" lon="6.97275">
        <ele>1816.8159</ele>
        <time>2015-08-22T10:03:36Z</time>
      </trkpt>
      <trkpt lat="45.45215" lon="6.97284">
        <ele>1817.0336</ele>
        <time>2015-08-22T10:03:46Z</time>
      </trkpt>
      <trkpt lat="45.4521" lon="6.97289">
        <ele>1817.0336</ele>
        <time>2015-08-22T10:03:51Z</time>
      </trkpt>
      <trkpt lat="45.45199" lon="6.97296">
        <ele>1817.5199</ele>
        <time>2015-08-22T10:04:01Z</time>
      </trkpt>
      <trkpt lat="45.45195" lon="6.97298">
        <ele>1817.5199</ele>
        <time>2015-08-22T10:04:06Z</time>
      </trkpt>
      <trkpt lat="45.45194" lon="6.97298">
        <ele>1817.5199</ele>
        <time>2015-08-22T10:04:16Z</time>
      </trkpt>
      <trkpt lat="45.45188" lon="6.97303">
        <ele>1818.2776</ele>
        <time>2015-08-22T10:04:21Z</time>
      </trkpt>
      <trkpt lat="45.45178" lon="6.9731">
        <ele>1819.2799</ele>
        <time>2015-08-22T10:04:31Z</time>
      </trkpt>
      <trkpt lat="45.45175" lon="6.97314">
        <ele>1819.2799</ele>
        <time>2015-08-22T10:04:36Z</time>
      </trkpt>
      <trkpt lat="45.45176" lon="6.97314">
        <ele>1819.2799</ele>
        <time>2015-08-22T10:04:46Z</time>
      </trkpt>
      <trkpt lat="45.45175" lon="6.97315">
        <ele>1819.2799</ele>
        <time>2015-08-22T10:04:51Z</time>
      </trkpt>
      <trkpt lat="45.45176" lon="6.97315">
        <ele>1819.2799</ele>
        <time>2015-08-22T10:05:01Z</time>
      </trkpt>
      <trkpt lat="45.4517" lon="6.97321">
        <ele>1820.3574</ele>
        <time>2015-08-22T10:05:06Z</time>
      </trkpt>
      <trkpt lat="45.45159" lon="6.97331">
        <ele>1821.7133</ele>
        <time>2015-08-22T10:05:16Z</time>
      </trkpt>
      <trkpt lat="45.45152" lon="6.9734">
        <ele>1821.7133</ele>
        <time>2015-08-22T10:05:21Z</time>
      </trkpt>
      <trkpt lat="45.4514" lon="6.97346">
        <ele>1823.2183</ele>
        <time>2015-08-22T10:05:31Z</time>
      </trkpt>
      <trkpt lat="45.45135" lon="6.97351">
        <ele>1823.2183</ele>
        <time>2015-08-22T10:05:36Z</time>
      </trkpt>
      <trkpt lat="45.45122" lon="6.97363">
        <ele>1824.6947</ele>
        <time>2015-08-22T10:05:51Z</time>
      </trkpt>
      <trkpt lat="45.45117" lon="6.97365">
        <ele>1824.6947</ele>
        <time>2015-08-22T10:05:56Z</time>
      </trkpt>
      <trkpt lat="45.45108" lon="6.97377">
        <ele>1826.0216</ele>
        <time>2015-08-22T10:06:06Z</time>
      </trkpt>
      <trkpt lat="45.45105" lon="6.97379">
        <ele>1826.0216</ele>
        <time>2015-08-22T10:06:11Z</time>
      </trkpt>
      <trkpt lat="45.45094" lon="6.97392">
        <ele>1827.1018</ele>
        <time>2015-08-22T10:06:21Z</time>
      </trkpt>
      <trkpt lat="45.45088" lon="6.97396">
        <ele>1827.1018</ele>
        <time>2015-08-22T10:06:26Z</time>
      </trkpt>
      <trkpt lat="45.45077" lon="6.97404">
        <ele>1828.077</ele>
        <time>2015-08-22T10:06:36Z</time>
      </trkpt>
      <trkpt lat="45.45071" lon="6.97408">
        <ele>1828.077</ele>
        <time>2015-08-22T10:06:41Z</time>
      </trkpt>
      <trkpt lat="45.4506" lon="6.97417">
        <ele>1828.9778</ele>
        <time>2015-08-22T10:06:51Z</time>
      </trkpt>
      <trkpt lat="45.45054" lon="6.97419">
        <ele>1828.9778</ele>
        <time>2015-08-22T10:06:56Z</time>
      </trkpt>
      <trkpt lat="45.45045" lon="6.97426">
        <ele>1829.8044</ele>
        <time>2015-08-22T10:07:06Z</time>
      </trkpt>
      <trkpt lat="45.4504" lon="6.97432">
        <ele>1829.8044</ele>
        <time>2015-08-22T10:07:11Z</time>
      </trkpt>
      <trkpt lat="45.45033" lon="6.9744">
        <ele>1830.5864</ele>
        <time>2015-08-22T10:07:21Z</time>
      </trkpt>
      <trkpt lat="45.45033" lon="6.97443">
        <ele>1830.5864</ele>
        <time>2015-08-22T10:07:26Z</time>
      </trkpt>
      <trkpt lat="45.45031" lon="6.97446">
        <ele>1830.5864</ele>
        <time>2015-08-22T10:07:36Z</time>
      </trkpt>
      <trkpt lat="45.45026" lon="6.9745">
        <ele>1831.3657</ele>
        <time>2015-08-22T10:07:41Z</time>
      </trkpt>
      <trkpt lat="45.45014" lon="6.97459">
        <ele>1832.1671</ele>
        <time>2015-08-22T10:07:51Z</time>
      </trkpt>
      <trkpt lat="45.45009" lon="6.97462">
        <ele>1832.1671</ele>
        <time>2015-08-22T10:07:56Z</time>
      </trkpt>
      <trkpt lat="45.44993" lon="6.97473">
        <ele>1832.7253</ele>
        <time>2015-08-22T10:08:11Z</time>
      </trkpt>
      <trkpt lat="45.44988" lon="6.97475">
        <ele>1832.7253</ele>
        <time>2015-08-22T10:08:16Z</time>
      </trkpt>
      <trkpt lat="45.44976" lon="6.97481">
        <ele>1833.1849</ele>
        <time>2015-08-22T10:08:26Z</time>
      </trkpt>
      <trkpt lat="45.44972" lon="6.97483">
        <ele>1833.1849</ele>
        <time>2015-08-22T10:08:31Z</time>
      </trkpt>
      <trkpt lat="45.44957" lon="6.97491">
        <ele>1833.68</ele>
        <time>2015-08-22T10:08:41Z</time>
      </trkpt>
      <trkpt lat="45.44953" lon="6.97495">
        <ele>1833.68</ele>
        <time>2015-08-22T10:08:46Z</time>
      </trkpt>
      <trkpt lat="45.4494" lon="6.97501">
        <ele>1834.119</ele>
        <time>2015-08-22T10:08:56Z</time>
      </trkpt>
      <trkpt lat="45.44936" lon="6.97502">
        <ele>1834.119</ele>
        <time>2015-08-22T10:09:01Z</time>
      </trkpt>
      <trkpt lat="45.44926" lon="6.97509">
        <ele>1834.5182</ele>
        <time>2015-08-22T10:09:11Z</time>
      </trkpt>
      <trkpt lat="45.4492" lon="6.97513">
        <ele>1834.5182</ele>
        <time>2015-08-22T10:09:16Z</time>
      </trkpt>
      <trkpt lat="45.44909" lon="6.97519">
        <ele>1834.8928</ele>
        <time>2015-08-22T10:09:26Z</time>
      </trkpt>
      <trkpt lat="45.44905" lon="6.97521">
        <ele>1834.8928</ele>
        <time>2015-08-22T10:09:31Z</time>
      </trkpt>
      <trkpt lat="45.44893" lon="6.97526">
        <ele>1835.1998</ele>
        <time>2015-08-22T10:09:41Z</time>
      </trkpt>
      <trkpt lat="45.44885" lon="6.97526">
        <ele>1835.1998</ele>
        <time>2015-08-22T10:09:46Z</time>
      </trkpt>
      <trkpt lat="45.44868" lon="6.9753">
        <ele>1835.5006</ele>
        <time>2015-08-22T10:10:01Z</time>
      </trkpt>
      <trkpt lat="45.44864" lon="6.97529">
        <ele>1835.5006</ele>
        <time>2015-08-22T10:10:06Z</time>
      </trkpt>
      <trkpt lat="45.44856" lon="6.97528">
        <ele>1835.924</ele>
        <time>2015-08-22T10:10:16Z</time>
      </trkpt>
      <trkpt lat="45.44855" lon="6.97527">
        <ele>1835.924</ele>
        <time>2015-08-22T10:10:21Z</time>
      </trkpt>
      <trkpt lat="45.44856" lon="6.97523">
        <ele>1835.924</ele>
        <time>2015-08-22T10:10:31Z</time>
      </trkpt>
      <trkpt lat="45.44853" lon="6.97524">
        <ele>1835.924</ele>
        <time>2015-08-22T10:10:36Z</time>
      </trkpt>
      <trkpt lat="45.44847" lon="6.97526">
        <ele>1836.1426</ele>
        <time>2015-08-22T10:10:46Z</time>
      </trkpt>
      <trkpt lat="45.44841" lon="6.97527">
        <ele>1836.1426</ele>
        <time>2015-08-22T10:10:51Z</time>
      </trkpt>
      <trkpt lat="45.44831" lon="6.97523">
        <ele>1836.3582</ele>
        <time>2015-08-22T10:11:01Z</time>
      </trkpt>
      <trkpt lat="45.44824" lon="6.97522">
        <ele>1836.3582</ele>
        <time>2015-08-22T10:11:06Z</time>
      </trkpt>
      <trkpt lat="45.4481" lon="6.97524">
        <ele>1836.8442</ele>
        <time>2015-08-22T10:11:16Z</time>
      </trkpt>
      <trkpt lat="45.44806" lon="6.97525">
        <ele>1836.8442</ele>
        <time>2015-08-22T10:11:21Z</time>
      </trkpt>
      <trkpt lat="45.44794" lon="6.97526">
        <ele>1837.479</ele>
        <time>2015-08-22T10:11:31Z</time>
      </trkpt>
      <trkpt lat="45.44788" lon="6.97528">
        <ele>1837.479</ele>
        <time>2015-08-22T10:11:36Z</time>
      </trkpt>
      <trkpt lat="45.44772" lon="6.97532">
        <ele>1838.0629</ele>
        <time>2015-08-22T10:11:51Z</time>
      </trkpt>
      <trkpt lat="45.44767" lon="6.97534">
        <ele>1838.0629</ele>
        <time>2015-08-22T10:11:56Z</time>
      </trkpt>
      <trkpt lat="45.44756" lon="6.9754">
        <ele>1838.5549</ele>
        <time>2015-08-22T10:12:06Z</time>
      </trkpt>
      <trkpt lat="45.44752" lon="6.97548">
        <ele>1838.5549</ele>
        <time>2015-08-22T10:12:11Z</time>
      </trkpt>
      <trkpt lat="45.44742" lon="6.97558">
        <ele>1839.1343</ele>
        <time>2015-08-22T10:12:21Z</time>
      </trkpt>
      <trkpt lat="45.44734" lon="6.97566">
        <ele>1839.7648</ele>
        <time>2015-08-22T10:12:26Z</time>
      </trkpt>
      <trkpt lat="45.44728" lon="6.97569">
        <ele>1839.7648</ele>
        <time>2015-08-22T10:12:36Z</time>
      </trkpt>
      <trkpt lat="45.44726" lon="6.97571">
        <ele>1840.5135</ele>
        <time>2015-08-22T10:12:41Z</time>
      </trkpt>
      <trkpt lat="45.44732" lon="6.97567">
        <ele>1840.5135</ele>
        <time>2015-08-22T10:12:51Z</time>
      </trkpt>
      <trkpt lat="45.44734" lon="6.97564">
        <ele>1841.0106</ele>
        <time>2015-08-22T10:12:56Z</time>
      </trkpt>
      <trkpt lat="45.44734" lon="6.97564">
        <ele>1841.0106</ele>
        <time>2015-08-22T10:13:06Z</time>
      </trkpt>
      <trkpt lat="45.4472" lon="6.9757">
        <ele>1841.2451</ele>
        <time>2015-08-22T10:13:51Z</time>
      </trkpt>
      <trkpt lat="45.44713" lon="6.97574">
        <ele>1841.2451</ele>
        <time>2015-08-22T10:13:56Z</time>
      </trkpt>
      <trkpt lat="45.44703" lon="6.9758">
        <ele>1841.4818</ele>
        <time>2015-08-22T10:14:06Z</time>
      </trkpt>
      <trkpt lat="45.44696" lon="6.97584">
        <ele>1841.4818</ele>
        <time>2015-08-22T10:14:11Z</time>
      </trkpt>
      <trkpt lat="45.44682" lon="6.97587">
        <ele>1841.966</ele>
        <time>2015-08-22T10:14:26Z</time>
      </trkpt>
      <trkpt lat="45.44677" lon="6.97588">
        <ele>1841.966</ele>
        <time>2015-08-22T10:14:31Z</time>
      </trkpt>
      <trkpt lat="45.44663" lon="6.97594">
        <ele>1842.4054</ele>
        <time>2015-08-22T10:14:41Z</time>
      </trkpt>
      <trkpt lat="45.44659" lon="6.97596">
        <ele>1842.4054</ele>
        <time>2015-08-22T10:14:46Z</time>
      </trkpt>
      <trkpt lat="45.44657" lon="6.97604">
        <ele>1842.5253</ele>
        <time>2015-08-22T10:14:56Z</time>
      </trkpt>
      <trkpt lat="45.44663" lon="6.97591">
        <ele>1842.6451</ele>
        <time>2015-08-22T10:15:01Z</time>
      </trkpt>
      <trkpt lat="45.44585" lon="6.97623">
        <ele>1842.716</ele>
        <time>2015-08-22T10:15:31Z</time>
      </trkpt>
      <trkpt lat="45.44585" lon="6.97623">
        <ele>1842.7867</ele>
        <time>2015-08-22T10:15:36Z</time>
      </trkpt>
      <trkpt lat="45.44581" lon="6.97622">
        <ele>1842.7867</ele>
        <time>2015-08-22T10:15:46Z</time>
      </trkpt>
      <trkpt lat="45.44581" lon="6.97622">
        <ele>1842.7867</ele>
        <time>2015-08-22T10:15:51Z</time>
      </trkpt>
      <trkpt lat="45.44582" lon="6.97616">
        <ele>1842.7867</ele>
        <time>2015-08-22T10:16:36Z</time>
      </trkpt>
      <trkpt lat="45.44578" lon="6.97613">
        <ele>1843.4293</ele>
        <time>2015-08-22T10:16:46Z</time>
      </trkpt>
      <trkpt lat="45.44577" lon="6.97615">
        <ele>1843.4293</ele>
        <time>2015-08-22T10:16:51Z</time>
      </trkpt>
      <trkpt lat="45.44577" lon="6.97615">
        <ele>1843.4293</ele>
        <time>2015-08-22T10:17:01Z</time>
      </trkpt>
      <trkpt lat="45.44565" lon="6.97617">
        <ele>1844.0891</ele>
        <time>2015-08-22T10:18:06Z</time>
      </trkpt>
      <trkpt lat="45.44557" lon="6.97617">
        <ele>1844.0891</ele>
        <time>2015-08-22T10:18:11Z</time>
      </trkpt>
      <trkpt lat="45.44545" lon="6.97619">
        <ele>1844.75</ele>
        <time>2015-08-22T10:18:21Z</time>
      </trkpt>
      <trkpt lat="45.44539" lon="6.97621">
        <ele>1844.75</ele>
        <time>2015-08-22T10:18:26Z</time>
      </trkpt>
      <trkpt lat="45.44524" lon="6.97618">
        <ele>1845.2241</ele>
        <time>2015-08-22T10:18:36Z</time>
      </trkpt>
      <trkpt lat="45.44518" lon="6.97616">
        <ele>1845.2241</ele>
        <time>2015-08-22T10:18:41Z</time>
      </trkpt>
      <trkpt lat="45.44506" lon="6.97612">
        <ele>1845.6409</ele>
        <time>2015-08-22T10:18:51Z</time>
      </trkpt>
      <trkpt lat="45.445" lon="6.97608">
        <ele>1845.6409</ele>
        <time>2015-08-22T10:18:56Z</time>
      </trkpt>
      <trkpt lat="45.44492" lon="6.97596">
        <ele>1845.8175</ele>
        <time>2015-08-22T10:19:06Z</time>
      </trkpt>
      <trkpt lat="45.44486" lon="6.97591">
        <ele>1845.8175</ele>
        <time>2015-08-22T10:19:11Z</time>
      </trkpt>
      <trkpt lat="45.44476" lon="6.97582">
        <ele>1845.8738</ele>
        <time>2015-08-22T10:19:21Z</time>
      </trkpt>
      <trkpt lat="45.44471" lon="6.97578">
        <ele>1845.8738</ele>
        <time>2015-08-22T10:19:26Z</time>
      </trkpt>
      <trkpt lat="45.44462" lon="6.97568">
        <ele>1845.9064</ele>
        <time>2015-08-22T10:19:36Z</time>
      </trkpt>
      <trkpt lat="45.44459" lon="6.97565">
        <ele>1845.9064</ele>
        <time>2015-08-22T10:19:41Z</time>
      </trkpt>
      <trkpt lat="45.44449" lon="6.97572">
        <ele>1845.9762</ele>
        <time>2015-08-22T10:19:51Z</time>
      </trkpt>
      <trkpt lat="45.44444" lon="6.97583">
        <ele>1846.0677</ele>
        <time>2015-08-22T10:19:56Z</time>
      </trkpt>
      <trkpt lat="45.44441" lon="6.97598">
        <ele>1846.2817</ele>
        <time>2015-08-22T10:20:06Z</time>
      </trkpt>
      <trkpt lat="45.44439" lon="6.97607">
        <ele>1846.2817</ele>
        <time>2015-08-22T10:20:11Z</time>
      </trkpt>
      <trkpt lat="45.44439" lon="6.97626">
        <ele>1846.7976</ele>
        <time>2015-08-22T10:20:21Z</time>
      </trkpt>
      <trkpt lat="45.44443" lon="6.97633">
        <ele>1846.7976</ele>
        <time>2015-08-22T10:20:26Z</time>
      </trkpt>
      <trkpt lat="45.44456" lon="6.97641">
        <ele>1847.5358</ele>
        <time>2015-08-22T10:20:36Z</time>
      </trkpt>
      <trkpt lat="45.44457" lon="6.97641">
        <ele>1847.5358</ele>
        <time>2015-08-22T10:20:41Z</time>
      </trkpt>
      <trkpt lat="45.44457" lon="6.97641">
        <ele>1847.5358</ele>
        <time>2015-08-22T10:20:51Z</time>
      </trkpt>
      <trkpt lat="45.44457" lon="6.97641">
        <ele>1847.5358</ele>
        <time>2015-08-22T10:21:11Z</time>
      </trkpt>
      <trkpt lat="45.44464" lon="6.97649">
        <ele>1848.4939</ele>
        <time>2015-08-22T10:21:26Z</time>
      </trkpt>
      <trkpt lat="45.44463" lon="6.97653">
        <ele>1848.4939</ele>
        <time>2015-08-22T10:21:31Z</time>
      </trkpt>
      <trkpt lat="45.44468" lon="6.97657">
        <ele>1848.4939</ele>
        <time>2015-08-22T10:21:41Z</time>
      </trkpt>
      <trkpt lat="45.44475" lon="6.97661">
        <ele>1849.2659</ele>
        <time>2015-08-22T10:21:46Z</time>
      </trkpt>
      <trkpt lat="45.4449" lon="6.97675">
        <ele>1850.0809</ele>
        <time>2015-08-22T10:21:56Z</time>
      </trkpt>
      <trkpt lat="45.44495" lon="6.9768">
        <ele>1850.0809</ele>
        <time>2015-08-22T10:22:01Z</time>
      </trkpt>
      <trkpt lat="45.44501" lon="6.97694">
        <ele>1851.1804</ele>
        <time>2015-08-22T10:22:11Z</time>
      </trkpt>
      <trkpt lat="45.44503" lon="6.97701">
        <ele>1851.1804</ele>
        <time>2015-08-22T10:22:16Z</time>
      </trkpt>
      <trkpt lat="45.44514" lon="6.97707">
        <ele>1852.3259</ele>
        <time>2015-08-22T10:22:26Z</time>
      </trkpt>
      <trkpt lat="45.4452" lon="6.97712">
        <ele>1852.3259</ele>
        <time>2015-08-22T10:22:31Z</time>
      </trkpt>
      <trkpt lat="45.44528" lon="6.9772">
        <ele>1853.4982</ele>
        <time>2015-08-22T10:22:41Z</time>
      </trkpt>
      <trkpt lat="45.44533" lon="6.97727">
        <ele>1853.4982</ele>
        <time>2015-08-22T10:22:46Z</time>
      </trkpt>
      <trkpt lat="45.44543" lon="6.97741">
        <ele>1854.8378</ele>
        <time>2015-08-22T10:22:56Z</time>
      </trkpt>
      <trkpt lat="45.44546" lon="6.97748">
        <ele>1854.8378</ele>
        <time>2015-08-22T10:23:01Z</time>
      </trkpt>
      <trkpt lat="45.44553" lon="6.97764">
        <ele>1856.0421</ele>
        <time>2015-08-22T10:23:11Z</time>
      </trkpt>
      <trkpt lat="45.44556" lon="6.97772">
        <ele>1856.0421</ele>
        <time>2015-08-22T10:23:16Z</time>
      </trkpt>
      <trkpt lat="45.44561" lon="6.97784">
        <ele>1857.2349</ele>
        <time>2015-08-22T10:23:26Z</time>
      </trkpt>
      <trkpt lat="45.44563" lon="6.97789">
        <ele>1857.2349</ele>
        <time>2015-08-22T10:23:31Z</time>
      </trkpt>
      <trkpt lat="45.44571" lon="6.97808">
        <ele>1857.9542</ele>
        <time>2015-08-22T10:23:46Z</time>
      </trkpt>
      <trkpt lat="45.44574" lon="6.97815">
        <ele>1857.9542</ele>
        <time>2015-08-22T10:23:51Z</time>
      </trkpt>
      <trkpt lat="45.4458" lon="6.97827">
        <ele>1858.4076</ele>
        <time>2015-08-22T10:24:01Z</time>
      </trkpt>
      <trkpt lat="45.44584" lon="6.97833">
        <ele>1858.4076</ele>
        <time>2015-08-22T10:24:06Z</time>
      </trkpt>
      <trkpt lat="45.44586" lon="6.9784">
        <ele>1858.572</ele>
        <time>2015-08-22T10:24:16Z</time>
      </trkpt>
      <trkpt lat="45.44586" lon="6.97841">
        <ele>1858.572</ele>
        <time>2015-08-22T10:24:21Z</time>
      </trkpt>
      <trkpt lat="45.44587" lon="6.97841">
        <ele>1858.572</ele>
        <time>2015-08-22T10:24:31Z</time>
      </trkpt>
      <trkpt lat="45.44588" lon="6.97846">
        <ele>1858.572</ele>
        <time>2015-08-22T10:24:36Z</time>
      </trkpt>
      <trkpt lat="45.44595" lon="6.97859">
        <ele>1858.3837</ele>
        <time>2015-08-22T10:24:46Z</time>
      </trkpt>
      <trkpt lat="45.44598" lon="6.97869">
        <ele>1858.3837</ele>
        <time>2015-08-22T10:24:51Z</time>
      </trkpt>
      <trkpt lat="45.44608" lon="6.97885">
        <ele>1858.2598</ele>
        <time>2015-08-22T10:25:01Z</time>
      </trkpt>
      <trkpt lat="45.44612" lon="6.97892">
        <ele>1858.2598</ele>
        <time>2015-08-22T10:25:06Z</time>
      </trkpt>
      <trkpt lat="45.44619" lon="6.97906">
        <ele>1858.2845</ele>
        <time>2015-08-22T10:25:16Z</time>
      </trkpt>
      <trkpt lat="45.44621" lon="6.9791">
        <ele>1858.2845</ele>
        <time>2015-08-22T10:25:21Z</time>
      </trkpt>
      <trkpt lat="45.44626" lon="6.97928">
        <ele>1858.4342</ele>
        <time>2015-08-22T10:25:31Z</time>
      </trkpt>
      <trkpt lat="45.44628" lon="6.97935">
        <ele>1858.4342</ele>
        <time>2015-08-22T10:25:36Z</time>
      </trkpt>
      <trkpt lat="45.44637" lon="6.97956">
        <ele>1858.5717</ele>
        <time>2015-08-22T10:25:51Z</time>
      </trkpt>
      <trkpt lat="45.44641" lon="6.97962">
        <ele>1858.5717</ele>
        <time>2015-08-22T10:25:56Z</time>
      </trkpt>
      <trkpt lat="45.44642" lon="6.9797">
        <ele>1858.2667</ele>
        <time>2015-08-22T10:26:06Z</time>
      </trkpt>
      <trkpt lat="45.4464" lon="6.97974">
        <ele>1858.2667</ele>
        <time>2015-08-22T10:26:11Z</time>
      </trkpt>
      <trkpt lat="45.4464" lon="6.97974">
        <ele>1858.2667</ele>
        <time>2015-08-22T10:26:21Z</time>
      </trkpt>
      <trkpt lat="45.44639" lon="6.97975">
        <ele>1858.2667</ele>
        <time>2015-08-22T10:26:26Z</time>
      </trkpt>
      <trkpt lat="45.44631" lon="6.97977">
        <ele>1857.7997</ele>
        <time>2015-08-22T10:26:36Z</time>
      </trkpt>
      <trkpt lat="45.44625" lon="6.97979">
        <ele>1857.7997</ele>
        <time>2015-08-22T10:26:41Z</time>
      </trkpt>
      <trkpt lat="45.44623" lon="6.9798">
        <ele>1857.7997</ele>
        <time>2015-08-22T10:26:51Z</time>
      </trkpt>
      <trkpt lat="45.44624" lon="6.97985">
        <ele>1857.2865</ele>
        <time>2015-08-22T10:27:21Z</time>
      </trkpt>
      <trkpt lat="45.44624" lon="6.97993">
        <ele>1857.2865</ele>
        <time>2015-08-22T10:27:26Z</time>
      </trkpt>
      <trkpt lat="45.44625" lon="6.97998">
        <ele>1856.7195</ele>
        <time>2015-08-22T10:27:41Z</time>
      </trkpt>
      <trkpt lat="45.44625" lon="6.98001">
        <ele>1856.7195</ele>
        <time>2015-08-22T10:27:46Z</time>
      </trkpt>
      <trkpt lat="45.44625" lon="6.98018">
        <ele>1856.5093</ele>
        <time>2015-08-22T10:27:56Z</time>
      </trkpt>
      <trkpt lat="45.44625" lon="6.98025">
        <ele>1856.5093</ele>
        <time>2015-08-22T10:28:01Z</time>
      </trkpt>
      <trkpt lat="45.44624" lon="6.98045">
        <ele>1856.0557</ele>
        <time>2015-08-22T10:28:11Z</time>
      </trkpt>
      <trkpt lat="45.44624" lon="6.98052">
        <ele>1856.0557</ele>
        <time>2015-08-22T10:28:16Z</time>
      </trkpt>
      <trkpt lat="45.44627" lon="6.98067">
        <ele>1855.6101</ele>
        <time>2015-08-22T10:28:26Z</time>
      </trkpt>
      <trkpt lat="45.44628" lon="6.98075">
        <ele>1855.6101</ele>
        <time>2015-08-22T10:28:31Z</time>
      </trkpt>
      <trkpt lat="45.44628" lon="6.98094">
        <ele>1855.0018</ele>
        <time>2015-08-22T10:28:41Z</time>
      </trkpt>
      <trkpt lat="45.44629" lon="6.98098">
        <ele>1855.0018</ele>
        <time>2015-08-22T10:28:46Z</time>
      </trkpt>
      <trkpt lat="45.4463" lon="6.98116">
        <ele>1854.1166</ele>
        <time>2015-08-22T10:28:56Z</time>
      </trkpt>
      <trkpt lat="45.4463" lon="6.98125">
        <ele>1854.1166</ele>
        <time>2015-08-22T10:29:01Z</time>
      </trkpt>
      <trkpt lat="45.44628" lon="6.98146">
        <ele>1853.0938</ele>
        <time>2015-08-22T10:29:11Z</time>
      </trkpt>
      <trkpt lat="45.44627" lon="6.98157">
        <ele>1853.0938</ele>
        <time>2015-08-22T10:29:16Z</time>
      </trkpt>
      <trkpt lat="45.44626" lon="6.98179">
        <ele>1851.9191</ele>
        <time>2015-08-22T10:29:31Z</time>
      </trkpt>
      <trkpt lat="45.44626" lon="6.98187">
        <ele>1851.9191</ele>
        <time>2015-08-22T10:29:36Z</time>
      </trkpt>
      <trkpt lat="45.44624" lon="6.98201">
        <ele>1850.7238</ele>
        <time>2015-08-22T10:29:46Z</time>
      </trkpt>
      <trkpt lat="45.44624" lon="6.9821">
        <ele>1850.7238</ele>
        <time>2015-08-22T10:29:51Z</time>
      </trkpt>
      <trkpt lat="45.44621" lon="6.98229">
        <ele>1849.8452</ele>
        <time>2015-08-22T10:30:01Z</time>
      </trkpt>
      <trkpt lat="45.4462" lon="6.9824">
        <ele>1849.8452</ele>
        <time>2015-08-22T10:30:06Z</time>
      </trkpt>
      <trkpt lat="45.44618" lon="6.98259">
        <ele>1849.1774</ele>
        <time>2015-08-22T10:30:16Z</time>
      </trkpt>
      <trkpt lat="45.44619" lon="6.98267">
        <ele>1849.1774</ele>
        <time>2015-08-22T10:30:21Z</time>
      </trkpt>
      <trkpt lat="45.44619" lon="6.98286">
        <ele>1848.6646</ele>
        <time>2015-08-22T10:30:31Z</time>
      </trkpt>
      <trkpt lat="45.4462" lon="6.9829">
        <ele>1848.6646</ele>
        <time>2015-08-22T10:30:36Z</time>
      </trkpt>
      <trkpt lat="45.44624" lon="6.98308">
        <ele>1848.197</ele>
        <time>2015-08-22T10:30:46Z</time>
      </trkpt>
      <trkpt lat="45.44625" lon="6.98313">
        <ele>1848.197</ele>
        <time>2015-08-22T10:30:51Z</time>
      </trkpt>
      <trkpt lat="45.44627" lon="6.98319">
        <ele>1848.197</ele>
        <time>2015-08-22T10:31:01Z</time>
      </trkpt>
      <trkpt lat="45.44627" lon="6.98323">
        <ele>1847.6726</ele>
        <time>2015-08-22T10:31:06Z</time>
      </trkpt>
      <trkpt lat="45.44626" lon="6.98322">
        <ele>1847.6726</ele>
        <time>2015-08-22T10:31:16Z</time>
      </trkpt>
      <trkpt lat="45.44626" lon="6.98318">
        <ele>1847.6726</ele>
        <time>2015-08-22T10:31:21Z</time>
      </trkpt>
      <trkpt lat="45.44627" lon="6.98315">
        <ele>1847.6726</ele>
        <time>2015-08-22T10:31:31Z</time>
      </trkpt>
      <trkpt lat="45.44627" lon="6.98315">
        <ele>1847.6726</ele>
        <time>2015-08-22T10:31:36Z</time>
      </trkpt>
      <trkpt lat="45.44628" lon="6.9832">
        <ele>1847.2852</ele>
        <time>2015-08-22T10:32:36Z</time>
      </trkpt>
      <trkpt lat="45.44628" lon="6.98331">
        <ele>1847.2852</ele>
        <time>2015-08-22T10:32:41Z</time>
      </trkpt>
      <trkpt lat="45.44626" lon="6.98349">
        <ele>1846.9255</ele>
        <time>2015-08-22T10:32:51Z</time>
      </trkpt>
      <trkpt lat="45.44626" lon="6.98359">
        <ele>1846.9255</ele>
        <time>2015-08-22T10:32:56Z</time>
      </trkpt>
      <trkpt lat="45.44623" lon="6.98384">
        <ele>1846.6078</ele>
        <time>2015-08-22T10:33:11Z</time>
      </trkpt>
      <trkpt lat="45.44624" lon="6.98393">
        <ele>1846.6078</ele>
        <time>2015-08-22T10:33:16Z</time>
      </trkpt>
      <trkpt lat="45.44624" lon="6.98413">
        <ele>1846.4454</ele>
        <time>2015-08-22T10:33:26Z</time>
      </trkpt>
      <trkpt lat="45.44625" lon="6.98425">
        <ele>1846.4454</ele>
        <time>2015-08-22T10:33:31Z</time>
      </trkpt>
      <trkpt lat="45.44633" lon="6.98438">
        <ele>1846.7019</ele>
        <time>2015-08-22T10:33:41Z</time>
      </trkpt>
      <trkpt lat="45.44634" lon="6.98445">
        <ele>1846.7019</ele>
        <time>2015-08-22T10:33:46Z</time>
      </trkpt>
      <trkpt lat="45.44631" lon="6.98454">
        <ele>1847.144</ele>
        <time>2015-08-22T10:33:56Z</time>
      </trkpt>
      <trkpt lat="45.4463" lon="6.98464">
        <ele>1847.144</ele>
        <time>2015-08-22T10:34:01Z</time>
      </trkpt>
      <trkpt lat="45.44629" lon="6.98478">
        <ele>1847.599</ele>
        <time>2015-08-22T10:34:11Z</time>
      </trkpt>
      <trkpt lat="45.44629" lon="6.98479">
        <ele>1847.599</ele>
        <time>2015-08-22T10:34:16Z</time>
      </trkpt>
      <trkpt lat="45.44627" lon="6.9849">
        <ele>1847.599</ele>
        <time>2015-08-22T10:34:26Z</time>
      </trkpt>
      <trkpt lat="45.44624" lon="6.98495">
        <ele>1847.834</ele>
        <time>2015-08-22T10:34:31Z</time>
      </trkpt>
      <trkpt lat="45.4462" lon="6.98511">
        <ele>1847.7205</ele>
        <time>2015-08-22T10:34:41Z</time>
      </trkpt>
      <trkpt lat="45.44617" lon="6.98521">
        <ele>1847.7205</ele>
        <time>2015-08-22T10:34:46Z</time>
      </trkpt>
      <trkpt lat="45.44609" lon="6.98543">
        <ele>1847.4288</ele>
        <time>2015-08-22T10:35:01Z</time>
      </trkpt>
      <trkpt lat="45.44604" lon="6.98549">
        <ele>1847.4288</ele>
        <time>2015-08-22T10:35:06Z</time>
      </trkpt>
      <trkpt lat="45.44601" lon="6.98565">
        <ele>1847.0448</ele>
        <time>2015-08-22T10:35:16Z</time>
      </trkpt>
      <trkpt lat="45.44601" lon="6.98571">
        <ele>1847.0448</ele>
        <time>2015-08-22T10:35:21Z</time>
      </trkpt>
      <trkpt lat="45.44601" lon="6.98586">
        <ele>1846.6771</ele>
        <time>2015-08-22T10:35:31Z</time>
      </trkpt>
      <trkpt lat="45.44601" lon="6.98594">
        <ele>1846.6771</ele>
        <time>2015-08-22T10:35:36Z</time>
      </trkpt>
      <trkpt lat="45.44599" lon="6.98607">
        <ele>1846.3689</ele>
        <time>2015-08-22T10:35:46Z</time>
      </trkpt>
      <trkpt lat="45.44597" lon="6.98615">
        <ele>1846.3689</ele>
        <time>2015-08-22T10:35:51Z</time>
      </trkpt>
      <trkpt lat="45.44594" lon="6.98631">
        <ele>1846.1597</ele>
        <time>2015-08-22T10:36:01Z</time>
      </trkpt>
      <trkpt lat="45.44593" lon="6.98638">
        <ele>1846.1597</ele>
        <time>2015-08-22T10:36:06Z</time>
      </trkpt>
      <trkpt lat="45.4459" lon="6.98655">
        <ele>1846.0282</ele>
        <time>2015-08-22T10:36:16Z</time>
      </trkpt>
      <trkpt lat="45.4459" lon="6.98661">
        <ele>1846.0282</ele>
        <time>2015-08-22T10:36:21Z</time>
      </trkpt>
      <trkpt lat="45.44587" lon="6.98669">
        <ele>1845.9545</ele>
        <time>2015-08-22T10:36:31Z</time>
      </trkpt>
      <trkpt lat="45.44582" lon="6.98668">
        <ele>1845.9545</ele>
        <time>2015-08-22T10:36:36Z</time>
      </trkpt>
      <trkpt lat="45.44572" lon="6.98667">
        <ele>1845.963</ele>
        <time>2015-08-22T10:36:46Z</time>
      </trkpt>
      <trkpt lat="45.44566" lon="6.98669">
        <ele>1845.963</ele>
        <time>2015-08-22T10:36:51Z</time>
      </trkpt>
      <trkpt lat="45.4456" lon="6.98677">
        <ele>1846.0619</ele>
        <time>2015-08-22T10:37:01Z</time>
      </trkpt>
      <trkpt lat="45.44558" lon="6.98683">
        <ele>1846.0619</ele>
        <time>2015-08-22T10:37:06Z</time>
      </trkpt>
      <trkpt lat="45.44558" lon="6.98702">
        <ele>1846.8636</ele>
        <time>2015-08-22T10:37:21Z</time>
      </trkpt>
      <trkpt lat="45.44558" lon="6.98714">
        <ele>1846.8636</ele>
        <time>2015-08-22T10:37:26Z</time>
      </trkpt>
      <trkpt lat="45.44558" lon="6.98726">
        <ele>1847.9824</ele>
        <time>2015-08-22T10:37:36Z</time>
      </trkpt>
      <trkpt lat="45.44557" lon="6.98731">
        <ele>1847.9824</ele>
        <time>2015-08-22T10:37:41Z</time>
      </trkpt>
      <trkpt lat="45.44561" lon="6.98733">
        <ele>1847.9824</ele>
        <time>2015-08-22T10:37:51Z</time>
      </trkpt>
      <trkpt lat="45.44562" lon="6.98738">
        <ele>1849.3625</ele>
        <time>2015-08-22T10:37:56Z</time>
      </trkpt>
      <trkpt lat="45.44564" lon="6.98752">
        <ele>1850.7935</ele>
        <time>2015-08-22T10:38:06Z</time>
      </trkpt>
      <trkpt lat="45.44564" lon="6.9876">
        <ele>1850.7935</ele>
        <time>2015-08-22T10:38:11Z</time>
      </trkpt>
      <trkpt lat="45.44564" lon="6.98769">
        <ele>1852.3678</ele>
        <time>2015-08-22T10:38:21Z</time>
      </trkpt>
      <trkpt lat="45.44563" lon="6.98775">
        <ele>1852.3678</ele>
        <time>2015-08-22T10:38:26Z</time>
      </trkpt>
      <trkpt lat="45.44561" lon="6.98785">
        <ele>1853.7677</ele>
        <time>2015-08-22T10:38:36Z</time>
      </trkpt>
      <trkpt lat="45.44559" lon="6.98792">
        <ele>1853.7677</ele>
        <time>2015-08-22T10:38:41Z</time>
      </trkpt>
      <trkpt lat="45.44559" lon="6.98808">
        <ele>1854.9438</ele>
        <time>2015-08-22T10:38:51Z</time>
      </trkpt>
      <trkpt lat="45.44562" lon="6.98814">
        <ele>1854.9438</ele>
        <time>2015-08-22T10:38:56Z</time>
      </trkpt>
      <trkpt lat="45.44573" lon="6.98824">
        <ele>1856.1544</ele>
        <time>2015-08-22T10:39:06Z</time>
      </trkpt>
      <trkpt lat="45.44578" lon="6.98834">
        <ele>1856.1544</ele>
        <time>2015-08-22T10:39:11Z</time>
      </trkpt>
      <trkpt lat="45.44581" lon="6.98847">
        <ele>1857.3497</ele>
        <time>2015-08-22T10:39:21Z</time>
      </trkpt>
      <trkpt lat="45.44582" lon="6.98853">
        <ele>1857.3497</ele>
        <time>2015-08-22T10:39:26Z</time>
      </trkpt>
      <trkpt lat="45.44582" lon="6.98869">
        <ele>1858.3546</ele>
        <time>2015-08-22T10:39:41Z</time>
      </trkpt>
      <trkpt lat="45.44586" lon="6.98879">
        <ele>1858.3546</ele>
        <time>2015-08-22T10:39:46Z</time>
      </trkpt>
      <trkpt lat="45.44593" lon="6.98892">
        <ele>1859.2233</ele>
        <time>2015-08-22T10:39:56Z</time>
      </trkpt>
      <trkpt lat="45.44593" lon="6.98899">
        <ele>1859.2233</ele>
        <time>2015-08-22T10:40:01Z</time>
      </trkpt>
      <trkpt lat="45.4459" lon="6.98913">
        <ele>1859.8623</ele>
        <time>2015-08-22T10:40:11Z</time>
      </trkpt>
      <trkpt lat="45.44589" lon="6.98921">
        <ele>1859.8623</ele>
        <time>2015-08-22T10:40:16Z</time>
      </trkpt>
      <trkpt lat="45.44587" lon="6.98936">
        <ele>1860.7338</ele>
        <time>2015-08-22T10:40:26Z</time>
      </trkpt>
      <trkpt lat="45.44589" lon="6.9894">
        <ele>1860.7338</ele>
        <time>2015-08-22T10:40:31Z</time>
      </trkpt>
      <trkpt lat="45.4459" lon="6.9895">
        <ele>1861.5298</ele>
        <time>2015-08-22T10:40:41Z</time>
      </trkpt>
      <trkpt lat="45.44589" lon="6.98955">
        <ele>1861.5298</ele>
        <time>2015-08-22T10:40:46Z</time>
      </trkpt>
      <trkpt lat="45.44591" lon="6.98969">
        <ele>1862.398</ele>
        <time>2015-08-22T10:40:56Z</time>
      </trkpt>
      <trkpt lat="45.44592" lon="6.98977">
        <ele>1862.398</ele>
        <time>2015-08-22T10:41:01Z</time>
      </trkpt>
      <trkpt lat="45.44593" lon="6.98993">
        <ele>1863.158</ele>
        <time>2015-08-22T10:41:11Z</time>
      </trkpt>
      <trkpt lat="45.44592" lon="6.99001">
        <ele>1863.158</ele>
        <time>2015-08-22T10:41:16Z</time>
      </trkpt>
      <trkpt lat="45.44595" lon="6.99019">
        <ele>1863.931</ele>
        <time>2015-08-22T10:41:26Z</time>
      </trkpt>
      <trkpt lat="45.44595" lon="6.99027">
        <ele>1863.931</ele>
        <time>2015-08-22T10:41:31Z</time>
      </trkpt>
      <trkpt lat="45.44594" lon="6.99043">
        <ele>1864.7146</ele>
        <time>2015-08-22T10:41:46Z</time>
      </trkpt>
      <trkpt lat="45.44595" lon="6.99052">
        <ele>1864.7146</ele>
        <time>2015-08-22T10:41:51Z</time>
      </trkpt>
      <trkpt lat="45.44595" lon="6.99066">
        <ele>1865.1458</ele>
        <time>2015-08-22T10:42:01Z</time>
      </trkpt>
      <trkpt lat="45.44596" lon="6.99076">
        <ele>1865.1458</ele>
        <time>2015-08-22T10:42:06Z</time>
      </trkpt>
      <trkpt lat="45.44597" lon="6.99092">
        <ele>1865.5812</ele>
        <time>2015-08-22T10:42:16Z</time>
      </trkpt>
      <trkpt lat="45.44598" lon="6.99096">
        <ele>1865.5812</ele>
        <time>2015-08-22T10:42:21Z</time>
      </trkpt>
      <trkpt lat="45.44601" lon="6.9911">
        <ele>1866.2074</ele>
        <time>2015-08-22T10:42:31Z</time>
      </trkpt>
      <trkpt lat="45.44603" lon="6.99118">
        <ele>1866.2074</ele>
        <time>2015-08-22T10:42:36Z</time>
      </trkpt>
      <trkpt lat="45.44604" lon="6.99133">
        <ele>1866.8506</ele>
        <time>2015-08-22T10:42:46Z</time>
      </trkpt>
      <trkpt lat="45.44605" lon="6.99141">
        <ele>1866.8506</ele>
        <time>2015-08-22T10:42:51Z</time>
      </trkpt>
      <trkpt lat="45.44606" lon="6.99155">
        <ele>1867.3499</ele>
        <time>2015-08-22T10:43:01Z</time>
      </trkpt>
      <trkpt lat="45.44605" lon="6.99166">
        <ele>1867.3499</ele>
        <time>2015-08-22T10:43:06Z</time>
      </trkpt>
      <trkpt lat="45.44605" lon="6.99176">
        <ele>1867.9893</ele>
        <time>2015-08-22T10:43:16Z</time>
      </trkpt>
      <trkpt lat="45.44606" lon="6.99174">
        <ele>1867.9893</ele>
        <time>2015-08-22T10:43:21Z</time>
      </trkpt>
      <trkpt lat="45.44608" lon="6.99171">
        <ele>1867.9893</ele>
        <time>2015-08-22T10:43:36Z</time>
      </trkpt>
      <trkpt lat="45.44608" lon="6.99176">
        <ele>1867.9893</ele>
        <time>2015-08-22T10:43:41Z</time>
      </trkpt>
      <trkpt lat="45.44606" lon="6.99184">
        <ele>1868.9014</ele>
        <time>2015-08-22T10:43:51Z</time>
      </trkpt>
      <trkpt lat="45.44606" lon="6.99184">
        <ele>1868.9014</ele>
        <time>2015-08-22T10:43:56Z</time>
      </trkpt>
      <trkpt lat="45.44606" lon="6.99184">
        <ele>1868.9014</ele>
        <time>2015-08-22T10:44:26Z</time>
      </trkpt>
      <trkpt lat="45.44605" lon="6.99201">
        <ele>1869.9205</ele>
        <time>2015-08-22T10:44:36Z</time>
      </trkpt>
      <trkpt lat="45.44604" lon="6.99208">
        <ele>1869.9205</ele>
        <time>2015-08-22T10:44:41Z</time>
      </trkpt>
      <trkpt lat="45.44603" lon="6.99223">
        <ele>1870.9072</ele>
        <time>2015-08-22T10:44:51Z</time>
      </trkpt>
      <trkpt lat="45.44604" lon="6.99231">
        <ele>1870.9072</ele>
        <time>2015-08-22T10:44:56Z</time>
      </trkpt>
      <trkpt lat="45.44604" lon="6.99244">
        <ele>1871.7181</ele>
        <time>2015-08-22T10:45:06Z</time>
      </trkpt>
      <trkpt lat="45.44605" lon="6.99252">
        <ele>1871.7181</ele>
        <time>2015-08-22T10:45:11Z</time>
      </trkpt>
      <trkpt lat="45.44606" lon="6.99269">
        <ele>1872.3792</ele>
        <time>2015-08-22T10:45:21Z</time>
      </trkpt>
      <trkpt lat="45.44606" lon="6.99277">
        <ele>1872.3792</ele>
        <time>2015-08-22T10:45:26Z</time>
      </trkpt>
      <trkpt lat="45.44607" lon="6.99292">
        <ele>1873.0449</ele>
        <time>2015-08-22T10:45:36Z</time>
      </trkpt>
      <trkpt lat="45.44608" lon="6.99298">
        <ele>1873.0449</ele>
        <time>2015-08-22T10:45:41Z</time>
      </trkpt>
      <trkpt lat="45.44607" lon="6.99312">
        <ele>1873.599</ele>
        <time>2015-08-22T10:45:51Z</time>
      </trkpt>
      <trkpt lat="45.44607" lon="6.99322">
        <ele>1873.599</ele>
        <time>2015-08-22T10:45:56Z</time>
      </trkpt>
      <trkpt lat="45.44607" lon="6.99345">
        <ele>1874.323</ele>
        <time>2015-08-22T10:46:11Z</time>
      </trkpt>
      <trkpt lat="45.44607" lon="6.9935">
        <ele>1874.323</ele>
        <time>2015-08-22T10:46:16Z</time>
      </trkpt>
      <trkpt lat="45.44609" lon="6.99365">
        <ele>1875.0455</ele>
        <time>2015-08-22T10:46:26Z</time>
      </trkpt>
      <trkpt lat="45.44609" lon="6.99366">
        <ele>1875.0455</ele>
        <time>2015-08-22T10:46:31Z</time>
      </trkpt>
      <trkpt lat="45.44609" lon="6.99366">
        <ele>1875.0455</ele>
        <time>2015-08-22T10:46:41Z</time>
      </trkpt>
      <trkpt lat="45.44609" lon="6.99366">
        <ele>1875.0455</ele>
        <time>2015-08-22T10:46:56Z</time>
      </trkpt>
      <trkpt lat="45.44609" lon="6.99367">
        <ele>1875.0455</ele>
        <time>2015-08-22T10:47:01Z</time>
      </trkpt>
      <trkpt lat="45.44607" lon="6.99373">
        <ele>1875.0455</ele>
        <time>2015-08-22T10:47:11Z</time>
      </trkpt>
      <trkpt lat="45.44606" lon="6.99376">
        <ele>1875.0455</ele>
        <time>2015-08-22T10:47:16Z</time>
      </trkpt>
      <trkpt lat="45.44606" lon="6.99378">
        <ele>1875.5784</ele>
        <time>2015-08-22T10:47:26Z</time>
      </trkpt>
      <trkpt lat="45.44609" lon="6.99384">
        <ele>1875.5784</ele>
        <time>2015-08-22T10:47:41Z</time>
      </trkpt>
      <trkpt lat="45.44611" lon="6.99385">
        <ele>1875.5784</ele>
        <time>2015-08-22T10:47:46Z</time>
      </trkpt>
      <trkpt lat="45.44608" lon="6.99398">
        <ele>1875.8922</ele>
        <time>2015-08-22T10:47:56Z</time>
      </trkpt>
      <trkpt lat="45.4461" lon="6.99405">
        <ele>1875.8922</ele>
        <time>2015-08-22T10:48:01Z</time>
      </trkpt>
      <trkpt lat="45.4461" lon="6.99417">
        <ele>1876.1334</ele>
        <time>2015-08-22T10:48:11Z</time>
      </trkpt>
      <trkpt lat="45.4461" lon="6.99421">
        <ele>1876.1334</ele>
        <time>2015-08-22T10:48:16Z</time>
      </trkpt>
      <trkpt lat="45.44608" lon="6.99438">
        <ele>1876.6108</ele>
        <time>2015-08-22T10:48:31Z</time>
      </trkpt>
      <trkpt lat="45.44606" lon="6.99444">
        <ele>1876.6108</ele>
        <time>2015-08-22T10:48:36Z</time>
      </trkpt>
      <trkpt lat="45.44606" lon="6.99455">
        <ele>1877.0767</ele>
        <time>2015-08-22T10:48:46Z</time>
      </trkpt>
      <trkpt lat="45.44606" lon="6.9946">
        <ele>1877.0767</ele>
        <time>2015-08-22T10:48:51Z</time>
      </trkpt>
      <trkpt lat="45.44605" lon="6.99469">
        <ele>1877.6184</ele>
        <time>2015-08-22T10:49:01Z</time>
      </trkpt>
      <trkpt lat="45.44604" lon="6.99473">
        <ele>1877.6184</ele>
        <time>2015-08-22T10:49:06Z</time>
      </trkpt>
      <trkpt lat="45.44603" lon="6.99481">
        <ele>1877.6184</ele>
        <time>2015-08-22T10:49:16Z</time>
      </trkpt>
      <trkpt lat="45.44604" lon="6.99486">
        <ele>1878.173</ele>
        <time>2015-08-22T10:49:21Z</time>
      </trkpt>
      <trkpt lat="45.44602" lon="6.99495">
        <ele>1878.173</ele>
        <time>2015-08-22T10:49:31Z</time>
      </trkpt>
      <trkpt lat="45.44599" lon="6.995">
        <ele>1878.7395</ele>
        <time>2015-08-22T10:49:36Z</time>
      </trkpt>
      <trkpt lat="45.44595" lon="6.99507">
        <ele>1878.7395</ele>
        <time>2015-08-22T10:49:46Z</time>
      </trkpt>
      <trkpt lat="45.44592" lon="6.99512">
        <ele>1879.5476</ele>
        <time>2015-08-22T10:49:51Z</time>
      </trkpt>
      <trkpt lat="45.4459" lon="6.99522">
        <ele>1879.5476</ele>
        <time>2015-08-22T10:50:01Z</time>
      </trkpt>
      <trkpt lat="45.44589" lon="6.99524">
        <ele>1879.5476</ele>
        <time>2015-08-22T10:50:06Z</time>
      </trkpt>
      <trkpt lat="45.44585" lon="6.99534">
        <ele>1880.6223</ele>
        <time>2015-08-22T10:50:16Z</time>
      </trkpt>
      <trkpt lat="45.44584" lon="6.99537">
        <ele>1880.6223</ele>
        <time>2015-08-22T10:50:21Z</time>
      </trkpt>
      <trkpt lat="45.44581" lon="6.99544">
        <ele>1880.6223</ele>
        <time>2015-08-22T10:50:31Z</time>
      </trkpt>
      <trkpt lat="45.4458" lon="6.99547">
        <ele>1881.8274</ele>
        <time>2015-08-22T10:50:36Z</time>
      </trkpt>
      <trkpt lat="45.44575" lon="6.9956">
        <ele>1883.1514</ele>
        <time>2015-08-22T10:50:51Z</time>
      </trkpt>
      <trkpt lat="45.44573" lon="6.99561">
        <ele>1883.1514</ele>
        <time>2015-08-22T10:50:56Z</time>
      </trkpt>
      <trkpt lat="45.44572" lon="6.99567">
        <ele>1883.1514</ele>
        <time>2015-08-22T10:51:06Z</time>
      </trkpt>
      <trkpt lat="45.44571" lon="6.99572">
        <ele>1884.6703</ele>
        <time>2015-08-22T10:51:11Z</time>
      </trkpt>
      <trkpt lat="45.44567" lon="6.9958">
        <ele>1884.6703</ele>
        <time>2015-08-22T10:51:21Z</time>
      </trkpt>
      <trkpt lat="45.44567" lon="6.99583">
        <ele>1886.1942</ele>
        <time>2015-08-22T10:51:26Z</time>
      </trkpt>
      <trkpt lat="45.44565" lon="6.99589">
        <ele>1886.1942</ele>
        <time>2015-08-22T10:51:36Z</time>
      </trkpt>
      <trkpt lat="45.44562" lon="6.99592">
        <ele>1886.1942</ele>
        <time>2015-08-22T10:51:41Z</time>
      </trkpt>
      <trkpt lat="45.44557" lon="6.99599">
        <ele>1888.0087</ele>
        <time>2015-08-22T10:51:51Z</time>
      </trkpt>
      <trkpt lat="45.44555" lon="6.996">
        <ele>1888.0087</ele>
        <time>2015-08-22T10:51:56Z</time>
      </trkpt>
      <trkpt lat="45.44553" lon="6.99607">
        <ele>1888.0087</ele>
        <time>2015-08-22T10:52:06Z</time>
      </trkpt>
      <trkpt lat="45.4455" lon="6.9961">
        <ele>1890.0312</ele>
        <time>2015-08-22T10:52:11Z</time>
      </trkpt>
      <trkpt lat="45.44548" lon="6.99614">
        <ele>1890.0312</ele>
        <time>2015-08-22T10:52:21Z</time>
      </trkpt>
      <trkpt lat="45.44547" lon="6.99615">
        <ele>1890.0312</ele>
        <time>2015-08-22T10:52:26Z</time>
      </trkpt>
      <trkpt lat="45.44545" lon="6.9962">
        <ele>1890.0312</ele>
        <time>2015-08-22T10:52:36Z</time>
      </trkpt>
      <trkpt lat="45.44544" lon="6.99621">
        <ele>1892.3295</ele>
        <time>2015-08-22T10:52:41Z</time>
      </trkpt>
      <trkpt lat="45.44539" lon="6.99634">
        <ele>1894.6335</ele>
        <time>2015-08-22T10:52:56Z</time>
      </trkpt>
      <trkpt lat="45.44537" lon="6.99642">
        <ele>1894.6335</ele>
        <time>2015-08-22T10:53:01Z</time>
      </trkpt>
      <trkpt lat="45.44534" lon="6.9965">
        <ele>1897.0828</ele>
        <time>2015-08-22T10:53:11Z</time>
      </trkpt>
      <trkpt lat="45.44533" lon="6.9965">
        <ele>1897.0828</ele>
        <time>2015-08-22T10:53:16Z</time>
      </trkpt>
      <trkpt lat="45.44531" lon="6.9965">
        <ele>1897.0828</ele>
        <time>2015-08-22T10:53:26Z</time>
      </trkpt>
      <trkpt lat="45.4453" lon="6.99652">
        <ele>1897.0828</ele>
        <time>2015-08-22T10:53:31Z</time>
      </trkpt>
      <trkpt lat="45.44529" lon="6.99653">
        <ele>1897.0828</ele>
        <time>2015-08-22T10:53:41Z</time>
      </trkpt>
      <trkpt lat="45.44529" lon="6.99653">
        <ele>1897.0828</ele>
        <time>2015-08-22T10:53:46Z</time>
      </trkpt>
      <trkpt lat="45.44526" lon="6.99653">
        <ele>1900.8289</ele>
        <time>2015-08-22T10:53:56Z</time>
      </trkpt>
      <trkpt lat="45.44525" lon="6.99652">
        <ele>1900.8289</ele>
        <time>2015-08-22T10:54:01Z</time>
      </trkpt>
      <trkpt lat="45.44525" lon="6.99652">
        <ele>1900.8289</ele>
        <time>2015-08-22T10:54:11Z</time>
      </trkpt>
      <trkpt lat="45.44523" lon="6.99657">
        <ele>1900.8289</ele>
        <time>2015-08-22T10:54:26Z</time>
      </trkpt>
      <trkpt lat="45.44522" lon="6.99657">
        <ele>1900.8289</ele>
        <time>2015-08-22T10:54:31Z</time>
      </trkpt>
      <trkpt lat="45.4452" lon="6.99661">
        <ele>1900.8289</ele>
        <time>2015-08-22T10:54:41Z</time>
      </trkpt>
      <trkpt lat="45.4452" lon="6.99661">
        <ele>1900.8289</ele>
        <time>2015-08-22T10:54:46Z</time>
      </trkpt>
      <trkpt lat="45.44514" lon="6.99664">
        <ele>1904.7451</ele>
        <time>2015-08-22T10:54:56Z</time>
      </trkpt>
      <trkpt lat="45.44514" lon="6.99665">
        <ele>1904.7451</ele>
        <time>2015-08-22T10:55:01Z</time>
      </trkpt>
      <trkpt lat="45.44505" lon="6.99679">
        <ele>1908.4501</ele>
        <time>2015-08-22T10:55:16Z</time>
      </trkpt>
      <trkpt lat="45.44502" lon="6.99685">
        <ele>1908.4501</ele>
        <time>2015-08-22T10:55:21Z</time>
      </trkpt>
      <trkpt lat="45.44493" lon="6.997">
        <ele>1912.0955</ele>
        <time>2015-08-22T10:55:31Z</time>
      </trkpt>
      <trkpt lat="45.44492" lon="6.99701">
        <ele>1912.0955</ele>
        <time>2015-08-22T10:55:36Z</time>
      </trkpt>
      <trkpt lat="45.44488" lon="6.99708">
        <ele>1912.0955</ele>
        <time>2015-08-22T10:55:46Z</time>
      </trkpt>
      <trkpt lat="45.44486" lon="6.99713">
        <ele>1915.4327</ele>
        <time>2015-08-22T10:55:51Z</time>
      </trkpt>
      <trkpt lat="45.44486" lon="6.99719">
        <ele>1915.4327</ele>
        <time>2015-08-22T10:56:01Z</time>
      </trkpt>
      <trkpt lat="45.44487" lon="6.99721">
        <ele>1915.4327</ele>
        <time>2015-08-22T10:56:06Z</time>
      </trkpt>
      <trkpt lat="45.44489" lon="6.99731">
        <ele>1919.2706</ele>
        <time>2015-08-22T10:56:16Z</time>
      </trkpt>
      <trkpt lat="45.4449" lon="6.99734">
        <ele>1919.2706</ele>
        <time>2015-08-22T10:56:21Z</time>
      </trkpt>
      <trkpt lat="45.44486" lon="6.99743">
        <ele>1922.9303</ele>
        <time>2015-08-22T10:56:31Z</time>
      </trkpt>
      <trkpt lat="45.44483" lon="6.99751">
        <ele>1922.9303</ele>
        <time>2015-08-22T10:56:36Z</time>
      </trkpt>
      <trkpt lat="45.44479" lon="6.99758">
        <ele>1926.4895</ele>
        <time>2015-08-22T10:56:46Z</time>
      </trkpt>
      <trkpt lat="45.44476" lon="6.99764">
        <ele>1926.4895</ele>
        <time>2015-08-22T10:56:51Z</time>
      </trkpt>
      <trkpt lat="45.44474" lon="6.99769">
        <ele>1926.4895</ele>
        <time>2015-08-22T10:57:01Z</time>
      </trkpt>
      <trkpt lat="45.44473" lon="6.99776">
        <ele>1929.9059</ele>
        <time>2015-08-22T10:57:06Z</time>
      </trkpt>
      <trkpt lat="45.44469" lon="6.99782">
        <ele>1929.9059</ele>
        <time>2015-08-22T10:57:16Z</time>
      </trkpt>
      <trkpt lat="45.44469" lon="6.99783">
        <ele>1929.9059</ele>
        <time>2015-08-22T10:57:21Z</time>
      </trkpt>
      <trkpt lat="45.44466" lon="6.9979">
        <ele>1933.0969</ele>
        <time>2015-08-22T10:57:31Z</time>
      </trkpt>
      <trkpt lat="45.44464" lon="6.99792">
        <ele>1933.0969</ele>
        <time>2015-08-22T10:57:36Z</time>
      </trkpt>
      <trkpt lat="45.4446" lon="6.99799">
        <ele>1933.0969</ele>
        <time>2015-08-22T10:57:51Z</time>
      </trkpt>
      <trkpt lat="45.44457" lon="6.99802">
        <ele>1936.2325</ele>
        <time>2015-08-22T10:57:56Z</time>
      </trkpt>
      <trkpt lat="45.44456" lon="6.99805">
        <ele>1936.2325</ele>
        <time>2015-08-22T10:58:06Z</time>
      </trkpt>
      <trkpt lat="45.44453" lon="6.9981">
        <ele>1936.2325</ele>
        <time>2015-08-22T10:58:11Z</time>
      </trkpt>
      <trkpt lat="45.4445" lon="6.99814">
        <ele>1939.0378</ele>
        <time>2015-08-22T10:58:21Z</time>
      </trkpt>
      <trkpt lat="45.4445" lon="6.99816">
        <ele>1939.0378</ele>
        <time>2015-08-22T10:58:26Z</time>
      </trkpt>
      <trkpt lat="45.44446" lon="6.99818">
        <ele>1939.0378</ele>
        <time>2015-08-22T10:58:36Z</time>
      </trkpt>
      <trkpt lat="45.44445" lon="6.99819">
        <ele>1939.0378</ele>
        <time>2015-08-22T10:58:41Z</time>
      </trkpt>
      <trkpt lat="45.44437" lon="6.9982">
        <ele>1941.5619</ele>
        <time>2015-08-22T10:58:51Z</time>
      </trkpt>
      <trkpt lat="45.44434" lon="6.99821">
        <ele>1941.5619</ele>
        <time>2015-08-22T10:58:56Z</time>
      </trkpt>
      <trkpt lat="45.4443" lon="6.99824">
        <ele>1941.5619</ele>
        <time>2015-08-22T10:59:06Z</time>
      </trkpt>
      <trkpt lat="45.44429" lon="6.99827">
        <ele>1943.7073</ele>
        <time>2015-08-22T10:59:11Z</time>
      </trkpt>
      <trkpt lat="45.44425" lon="6.9983">
        <ele>1943.7073</ele>
        <time>2015-08-22T10:59:26Z</time>
      </trkpt>
      <trkpt lat="45.44425" lon="6.9983">
        <ele>1943.7073</ele>
        <time>2015-08-22T10:59:31Z</time>
      </trkpt>
      <trkpt lat="45.44422" lon="6.99833">
        <ele>1943.7073</ele>
        <time>2015-08-22T10:59:41Z</time>
      </trkpt>
      <trkpt lat="45.44419" lon="6.99836">
        <ele>1945.961</ele>
        <time>2015-08-22T10:59:46Z</time>
      </trkpt>
      <trkpt lat="45.44416" lon="6.9984">
        <ele>1945.961</ele>
        <time>2015-08-22T10:59:56Z</time>
      </trkpt>
      <trkpt lat="45.44413" lon="6.99841">
        <ele>1945.961</ele>
        <time>2015-08-22T11:00:01Z</time>
      </trkpt>
      <trkpt lat="45.44411" lon="6.99841">
        <ele>1948.2992</ele>
        <time>2015-08-22T11:00:11Z</time>
      </trkpt>
      <trkpt lat="45.4441" lon="6.99841">
        <ele>1948.2992</ele>
        <time>2015-08-22T11:00:16Z</time>
      </trkpt>
      <trkpt lat="45.44406" lon="6.99846">
        <ele>1948.2992</ele>
        <time>2015-08-22T11:00:26Z</time>
      </trkpt>
      <trkpt lat="45.44404" lon="6.99848">
        <ele>1948.2992</ele>
        <time>2015-08-22T11:00:31Z</time>
      </trkpt>
      <trkpt lat="45.44401" lon="6.99853">
        <ele>1950.6125</ele>
        <time>2015-08-22T11:00:41Z</time>
      </trkpt>
      <trkpt lat="45.444" lon="6.99857">
        <ele>1950.6125</ele>
        <time>2015-08-22T11:00:46Z</time>
      </trkpt>
      <trkpt lat="45.44397" lon="6.99858">
        <ele>1950.6125</ele>
        <time>2015-08-22T11:00:56Z</time>
      </trkpt>
      <trkpt lat="45.44397" lon="6.99858">
        <ele>1950.6125</ele>
        <time>2015-08-22T11:01:01Z</time>
      </trkpt>
      <trkpt lat="45.44396" lon="6.99859">
        <ele>1950.6125</ele>
        <time>2015-08-22T11:01:11Z</time>
      </trkpt>
      <trkpt lat="45.44395" lon="6.99861">
        <ele>1953.6218</ele>
        <time>2015-08-22T11:01:16Z</time>
      </trkpt>
      <trkpt lat="45.44394" lon="6.99862">
        <ele>1953.6218</ele>
        <time>2015-08-22T11:01:26Z</time>
      </trkpt>
      <trkpt lat="45.44394" lon="6.99862">
        <ele>1953.6218</ele>
        <time>2015-08-22T11:01:31Z</time>
      </trkpt>
      <trkpt lat="45.4439" lon="6.99862">
        <ele>1953.6218</ele>
        <time>2015-08-22T11:01:41Z</time>
      </trkpt>
      <trkpt lat="45.44387" lon="6.99865">
        <ele>1953.6218</ele>
        <time>2015-08-22T11:01:46Z</time>
      </trkpt>
      <trkpt lat="45.44376" lon="6.99874">
        <ele>1956.9124</ele>
        <time>2015-08-22T11:02:01Z</time>
      </trkpt>
      <trkpt lat="45.44372" lon="6.99876">
        <ele>1956.9124</ele>
        <time>2015-08-22T11:02:06Z</time>
      </trkpt>
      <trkpt lat="45.44365" lon="6.99886">
        <ele>1960.07</ele>
        <time>2015-08-22T11:02:16Z</time>
      </trkpt>
      <trkpt lat="45.44365" lon="6.99886">
        <ele>1960.07</ele>
        <time>2015-08-22T11:02:21Z</time>
      </trkpt>
      <trkpt lat="45.4436" lon="6.99889">
        <ele>1960.07</ele>
        <time>2015-08-22T11:02:31Z</time>
      </trkpt>
      <trkpt lat="45.44359" lon="6.99892">
        <ele>1960.07</ele>
        <time>2015-08-22T11:02:36Z</time>
      </trkpt>
      <trkpt lat="45.44355" lon="6.99897">
        <ele>1963.4325</ele>
        <time>2015-08-22T11:02:46Z</time>
      </trkpt>
      <trkpt lat="45.44355" lon="6.99898">
        <ele>1963.4325</ele>
        <time>2015-08-22T11:02:51Z</time>
      </trkpt>
      <trkpt lat="45.44352" lon="6.99907">
        <ele>1963.4325</ele>
        <time>2015-08-22T11:03:01Z</time>
      </trkpt>
      <trkpt lat="45.44355" lon="6.99912">
        <ele>1967.1537</ele>
        <time>2015-08-22T11:03:06Z</time>
      </trkpt>
      <trkpt lat="45.44355" lon="6.99913">
        <ele>1967.1537</ele>
        <time>2015-08-22T11:03:16Z</time>
      </trkpt>
      <trkpt lat="45.44354" lon="6.9991">
        <ele>1967.1537</ele>
        <time>2015-08-22T11:04:06Z</time>
      </trkpt>
      <trkpt lat="45.44354" lon="6.9991">
        <ele>1967.1537</ele>
        <time>2015-08-22T11:04:11Z</time>
      </trkpt>
      <trkpt lat="45.44353" lon="6.99912">
        <ele>1967.1537</ele>
        <time>2015-08-22T11:04:21Z</time>
      </trkpt>
      <trkpt lat="45.44353" lon="6.99912">
        <ele>1967.1537</ele>
        <time>2015-08-22T11:04:26Z</time>
      </trkpt>
      <trkpt lat="45.44353" lon="6.99911">
        <ele>1967.1537</ele>
        <time>2015-08-22T11:04:51Z</time>
      </trkpt>
      <trkpt lat="45.44353" lon="6.99911">
        <ele>1967.1537</ele>
        <time>2015-08-22T11:04:56Z</time>
      </trkpt>
      <trkpt lat="45.44353" lon="6.99912">
        <ele>1967.1537</ele>
        <time>2015-08-22T11:05:06Z</time>
      </trkpt>
      <trkpt lat="45.44352" lon="6.99911">
        <ele>1967.1537</ele>
        <time>2015-08-22T11:05:11Z</time>
      </trkpt>
      <trkpt lat="45.44351" lon="6.99912">
        <ele>1967.1537</ele>
        <time>2015-08-22T11:05:21Z</time>
      </trkpt>
      <trkpt lat="45.44351" lon="6.99912">
        <ele>1967.1537</ele>
        <time>2015-08-22T11:05:26Z</time>
      </trkpt>
      <trkpt lat="45.44351" lon="6.99911">
        <ele>1967.1537</ele>
        <time>2015-08-22T11:05:41Z</time>
      </trkpt>
      <trkpt lat="45.44351" lon="6.99911">
        <ele>1973.638</ele>
        <time>2015-08-22T11:05:56Z</time>
      </trkpt>
      <trkpt lat="45.44351" lon="6.99911">
        <ele>1973.638</ele>
        <time>2015-08-22T11:06:01Z</time>
      </trkpt>
      <trkpt lat="45.44355" lon="6.99921">
        <ele>1973.638</ele>
        <time>2015-08-22T11:06:11Z</time>
      </trkpt>
      <trkpt lat="45.44352" lon="6.99924">
        <ele>1979.4849</ele>
        <time>2015-08-22T11:06:16Z</time>
      </trkpt>
      <trkpt lat="45.44351" lon="6.99931">
        <ele>1979.4849</ele>
        <time>2015-08-22T11:06:26Z</time>
      </trkpt>
      <trkpt lat="45.44351" lon="6.99932">
        <ele>1979.4849</ele>
        <time>2015-08-22T11:06:31Z</time>
      </trkpt>
      <trkpt lat="45.4435" lon="6.99932">
        <ele>1979.4849</ele>
        <time>2015-08-22T11:06:41Z</time>
      </trkpt>
      <trkpt lat="45.44349" lon="6.99933">
        <ele>1979.4849</ele>
        <time>2015-08-22T11:06:46Z</time>
      </trkpt>
      <trkpt lat="45.44344" lon="6.99936">
        <ele>1983.9958</ele>
        <time>2015-08-22T11:06:56Z</time>
      </trkpt>
      <trkpt lat="45.44339" lon="6.99936">
        <ele>1983.9958</ele>
        <time>2015-08-22T11:07:01Z</time>
      </trkpt>
      <trkpt lat="45.44334" lon="6.99939">
        <ele>1987.9255</ele>
        <time>2015-08-22T11:07:16Z</time>
      </trkpt>
      <trkpt lat="45.44334" lon="6.99939">
        <ele>1987.9255</ele>
        <time>2015-08-22T11:07:21Z</time>
      </trkpt>
      <trkpt lat="45.44333" lon="6.99941">
        <ele>1987.9255</ele>
        <time>2015-08-22T11:07:31Z</time>
      </trkpt>
      <trkpt lat="45.44333" lon="6.99943">
        <ele>1987.9255</ele>
        <time>2015-08-22T11:07:36Z</time>
      </trkpt>
      <trkpt lat="45.44336" lon="6.99948">
        <ele>1987.9255</ele>
        <time>2015-08-22T11:07:46Z</time>
      </trkpt>
      <trkpt lat="45.44335" lon="6.99949">
        <ele>1987.9255</ele>
        <time>2015-08-22T11:07:51Z</time>
      </trkpt>
      <trkpt lat="45.44333" lon="6.99957">
        <ele>1992.3062</ele>
        <time>2015-08-22T11:08:01Z</time>
      </trkpt>
      <trkpt lat="45.44333" lon="6.9996">
        <ele>1992.3062</ele>
        <time>2015-08-22T11:08:06Z</time>
      </trkpt>
      <trkpt lat="45.44332" lon="6.99964">
        <ele>1992.3062</ele>
        <time>2015-08-22T11:08:16Z</time>
      </trkpt>
      <trkpt lat="45.44332" lon="6.99964">
        <ele>1992.3062</ele>
        <time>2015-08-22T11:08:21Z</time>
      </trkpt>
      <trkpt lat="45.44331" lon="6.99964">
        <ele>1992.3062</ele>
        <time>2015-08-22T11:08:31Z</time>
      </trkpt>
      <trkpt lat="45.44331" lon="6.99966">
        <ele>1992.3062</ele>
        <time>2015-08-22T11:08:36Z</time>
      </trkpt>
      <trkpt lat="45.44332" lon="6.99969">
        <ele>1996.6377</ele>
        <time>2015-08-22T11:08:46Z</time>
      </trkpt>
      <trkpt lat="45.44332" lon="6.99973">
        <ele>1996.6377</ele>
        <time>2015-08-22T11:08:51Z</time>
      </trkpt>
      <trkpt lat="45.44334" lon="6.99979">
        <ele>1996.6377</ele>
        <time>2015-08-22T11:09:01Z</time>
      </trkpt>
      <trkpt lat="45.44333" lon="6.99981">
        <ele>2000.5581</ele>
        <time>2015-08-22T11:09:06Z</time>
      </trkpt>
      <trkpt lat="45.44333" lon="6.9999">
        <ele>2000.5581</ele>
        <time>2015-08-22T11:09:21Z</time>
      </trkpt>
      <trkpt lat="45.44334" lon="6.99994">
        <ele>2004.3673</ele>
        <time>2015-08-22T11:09:26Z</time>
      </trkpt>
      <trkpt lat="45.44335" lon="6.99995">
        <ele>2004.3673</ele>
        <time>2015-08-22T11:09:36Z</time>
      </trkpt>
      <trkpt lat="45.44335" lon="6.99994">
        <ele>2004.3673</ele>
        <time>2015-08-22T11:11:11Z</time>
      </trkpt>
      <trkpt lat="45.44336" lon="6.99994">
        <ele>2004.3673</ele>
        <time>2015-08-22T11:11:21Z</time>
      </trkpt>
      <trkpt lat="45.44336" lon="6.99994">
        <ele>2004.3673</ele>
        <time>2015-08-22T11:11:26Z</time>
      </trkpt>
      <trkpt lat="45.44337" lon="6.99993">
        <ele>2004.3673</ele>
        <time>2015-08-22T11:13:01Z</time>
      </trkpt>
      <trkpt lat="45.44337" lon="6.99993">
        <ele>2004.3673</ele>
        <time>2015-08-22T11:13:06Z</time>
      </trkpt>
      <trkpt lat="45.44341" lon="6.99998">
        <ele>2008.5166</ele>
        <time>2015-08-22T11:13:16Z</time>
      </trkpt>
      <trkpt lat="45.44343" lon="7.00001">
        <ele>2008.5166</ele>
        <time>2015-08-22T11:13:21Z</time>
      </trkpt>
      <trkpt lat="45.44346" lon="7.00004">
        <ele>2008.5166</ele>
        <time>2015-08-22T11:13:36Z</time>
      </trkpt>
      <trkpt lat="45.44347" lon="7.00006">
        <ele>2008.5166</ele>
        <time>2015-08-22T11:13:41Z</time>
      </trkpt>
      <trkpt lat="45.44348" lon="7.00008">
        <ele>2012.6597</ele>
        <time>2015-08-22T11:13:51Z</time>
      </trkpt>
      <trkpt lat="45.44351" lon="7.0001">
        <ele>2012.6597</ele>
        <time>2015-08-22T11:13:56Z</time>
      </trkpt>
      <trkpt lat="45.44353" lon="7.00013">
        <ele>2012.6597</ele>
        <time>2015-08-22T11:14:06Z</time>
      </trkpt>
      <trkpt lat="45.44354" lon="7.00014">
        <ele>2012.6597</ele>
        <time>2015-08-22T11:14:11Z</time>
      </trkpt>
      <trkpt lat="45.44358" lon="7.00014">
        <ele>2016.4902</ele>
        <time>2015-08-22T11:14:21Z</time>
      </trkpt>
      <trkpt lat="45.4436" lon="7.00015">
        <ele>2016.4902</ele>
        <time>2015-08-22T11:14:26Z</time>
      </trkpt>
      <trkpt lat="45.44369" lon="7.00021">
        <ele>2020.0282</ele>
        <time>2015-08-22T11:14:36Z</time>
      </trkpt>
      <trkpt lat="45.44369" lon="7.0002">
        <ele>2020.0282</ele>
        <time>2015-08-22T11:14:41Z</time>
      </trkpt>
      <trkpt lat="45.44373" lon="7.00023">
        <ele>2020.0282</ele>
        <time>2015-08-22T11:14:51Z</time>
      </trkpt>
      <trkpt lat="45.44376" lon="7.00025">
        <ele>2020.0282</ele>
        <time>2015-08-22T11:14:56Z</time>
      </trkpt>
      <trkpt lat="45.44378" lon="7.00026">
        <ele>2024.1002</ele>
        <time>2015-08-22T11:15:06Z</time>
      </trkpt>
      <trkpt lat="45.44381" lon="7.00028">
        <ele>2024.1002</ele>
        <time>2015-08-22T11:15:11Z</time>
      </trkpt>
      <trkpt lat="45.44385" lon="7.0003">
        <ele>2024.1002</ele>
        <time>2015-08-22T11:15:26Z</time>
      </trkpt>
      <trkpt lat="45.44387" lon="7.00031">
        <ele>2027.77</ele>
        <time>2015-08-22T11:15:31Z</time>
      </trkpt>
      <trkpt lat="45.44394" lon="7.00032">
        <ele>2027.77</ele>
        <time>2015-08-22T11:15:41Z</time>
      </trkpt>
      <trkpt lat="45.44399" lon="7.00035">
        <ele>2030.9211</ele>
        <time>2015-08-22T11:15:46Z</time>
      </trkpt>
      <trkpt lat="45.44403" lon="7.00036">
        <ele>2030.9211</ele>
        <time>2015-08-22T11:15:56Z</time>
      </trkpt>
      <trkpt lat="45.44405" lon="7.00036">
        <ele>2030.9211</ele>
        <time>2015-08-22T11:16:01Z</time>
      </trkpt>
      <trkpt lat="45.4441" lon="7.0004">
        <ele>2033.8217</ele>
        <time>2015-08-22T11:16:11Z</time>
      </trkpt>
      <trkpt lat="45.44412" lon="7.0004">
        <ele>2033.8217</ele>
        <time>2015-08-22T11:16:16Z</time>
      </trkpt>
      <trkpt lat="45.44417" lon="7.00045">
        <ele>2033.8217</ele>
        <time>2015-08-22T11:16:26Z</time>
      </trkpt>
      <trkpt lat="45.44418" lon="7.00046">
        <ele>2036.3754</ele>
        <time>2015-08-22T11:16:31Z</time>
      </trkpt>
      <trkpt lat="45.4442" lon="7.0005">
        <ele>2036.3754</ele>
        <time>2015-08-22T11:16:41Z</time>
      </trkpt>
      <trkpt lat="45.4442" lon="7.0005">
        <ele>2036.3754</ele>
        <time>2015-08-22T11:16:46Z</time>
      </trkpt>
      <trkpt lat="45.4442" lon="7.00054">
        <ele>2036.3754</ele>
        <time>2015-08-22T11:16:56Z</time>
      </trkpt>
      <trkpt lat="45.44422" lon="7.00054">
        <ele>2036.3754</ele>
        <time>2015-08-22T11:17:01Z</time>
      </trkpt>
      <trkpt lat="45.44428" lon="7.00066">
        <ele>2039.3441</ele>
        <time>2015-08-22T11:17:16Z</time>
      </trkpt>
      <trkpt lat="45.44429" lon="7.00068">
        <ele>2039.3441</ele>
        <time>2015-08-22T11:17:21Z</time>
      </trkpt>
      <trkpt lat="45.44433" lon="7.00075">
        <ele>2039.3441</ele>
        <time>2015-08-22T11:17:31Z</time>
      </trkpt>
      <trkpt lat="45.44434" lon="7.00078">
        <ele>2042.4386</ele>
        <time>2015-08-22T11:17:36Z</time>
      </trkpt>
      <trkpt lat="45.44435" lon="7.00084">
        <ele>2042.4386</ele>
        <time>2015-08-22T11:17:46Z</time>
      </trkpt>
      <trkpt lat="45.44436" lon="7.00086">
        <ele>2042.4386</ele>
        <time>2015-08-22T11:17:51Z</time>
      </trkpt>
      <trkpt lat="45.44437" lon="7.00098">
        <ele>2045.376</ele>
        <time>2015-08-22T11:18:01Z</time>
      </trkpt>
      <trkpt lat="45.44438" lon="7.00101">
        <ele>2045.376</ele>
        <time>2015-08-22T11:18:06Z</time>
      </trkpt>
      <trkpt lat="45.44443" lon="7.00111">
        <ele>2047.967</ele>
        <time>2015-08-22T11:18:16Z</time>
      </trkpt>
      <trkpt lat="45.44443" lon="7.00112">
        <ele>2047.967</ele>
        <time>2015-08-22T11:18:21Z</time>
      </trkpt>
      <trkpt lat="45.44441" lon="7.00117">
        <ele>2047.967</ele>
        <time>2015-08-22T11:18:31Z</time>
      </trkpt>
      <trkpt lat="45.44443" lon="7.00119">
        <ele>2047.967</ele>
        <time>2015-08-22T11:18:36Z</time>
      </trkpt>
      <trkpt lat="45.44446" lon="7.00122">
        <ele>2050.4119</ele>
        <time>2015-08-22T11:18:46Z</time>
      </trkpt>
      <trkpt lat="45.44447" lon="7.00124">
        <ele>2050.4119</ele>
        <time>2015-08-22T11:18:51Z</time>
      </trkpt>
      <trkpt lat="45.44446" lon="7.0013">
        <ele>2050.4119</ele>
        <time>2015-08-22T11:19:01Z</time>
      </trkpt>
      <trkpt lat="45.44443" lon="7.00134">
        <ele>2052.594</ele>
        <time>2015-08-22T11:19:06Z</time>
      </trkpt>
      <trkpt lat="45.44442" lon="7.00138">
        <ele>2052.594</ele>
        <time>2015-08-22T11:19:16Z</time>
      </trkpt>
      <trkpt lat="45.44442" lon="7.00138">
        <ele>2052.594</ele>
        <time>2015-08-22T11:19:21Z</time>
      </trkpt>
      <trkpt lat="45.44443" lon="7.00141">
        <ele>2052.594</ele>
        <time>2015-08-22T11:19:31Z</time>
      </trkpt>
      <trkpt lat="45.44442" lon="7.00143">
        <ele>2052.594</ele>
        <time>2015-08-22T11:19:36Z</time>
      </trkpt>
      <trkpt lat="45.44442" lon="7.00143">
        <ele>2052.594</ele>
        <time>2015-08-22T11:19:46Z</time>
      </trkpt>
      <trkpt lat="45.44444" lon="7.00144">
        <ele>2052.594</ele>
        <time>2015-08-22T11:20:01Z</time>
      </trkpt>
      <trkpt lat="45.44444" lon="7.00144">
        <ele>2052.594</ele>
        <time>2015-08-22T11:20:06Z</time>
      </trkpt>
      <trkpt lat="45.44448" lon="7.00152">
        <ele>2055.8904</ele>
        <time>2015-08-22T11:20:21Z</time>
      </trkpt>
      <trkpt lat="45.44448" lon="7.00152">
        <ele>2055.8904</ele>
        <time>2015-08-22T11:20:26Z</time>
      </trkpt>
      <trkpt lat="45.44448" lon="7.00154">
        <ele>2055.8904</ele>
        <time>2015-08-22T11:20:36Z</time>
      </trkpt>
      <trkpt lat="45.44448" lon="7.00156">
        <ele>2055.8904</ele>
        <time>2015-08-22T11:21:21Z</time>
      </trkpt>
      <trkpt lat="45.44449" lon="7.00159">
        <ele>2055.8904</ele>
        <time>2015-08-22T11:21:26Z</time>
      </trkpt>
      <trkpt lat="45.44453" lon="7.00174">
        <ele>2059.715</ele>
        <time>2015-08-22T11:21:36Z</time>
      </trkpt>
      <trkpt lat="45.44455" lon="7.00177">
        <ele>2059.715</ele>
        <time>2015-08-22T11:21:41Z</time>
      </trkpt>
      <trkpt lat="45.44456" lon="7.00177">
        <ele>2059.715</ele>
        <time>2015-08-22T11:21:51Z</time>
      </trkpt>
      <trkpt lat="45.44458" lon="7.00178">
        <ele>2059.715</ele>
        <time>2015-08-22T11:21:56Z</time>
      </trkpt>
      <trkpt lat="45.44458" lon="7.00189">
        <ele>2063.221</ele>
        <time>2015-08-22T11:22:06Z</time>
      </trkpt>
      <trkpt lat="45.44458" lon="7.00189">
        <ele>2063.221</ele>
        <time>2015-08-22T11:22:11Z</time>
      </trkpt>
      <trkpt lat="45.4446" lon="7.00196">
        <ele>2063.221</ele>
        <time>2015-08-22T11:22:21Z</time>
      </trkpt>
      <trkpt lat="45.4446" lon="7.002">
        <ele>2063.221</ele>
        <time>2015-08-22T11:22:26Z</time>
      </trkpt>
      <trkpt lat="45.44459" lon="7.00202">
        <ele>2066.6475</ele>
        <time>2015-08-22T11:22:36Z</time>
      </trkpt>
      <trkpt lat="45.44458" lon="7.00203">
        <ele>2066.6475</ele>
        <time>2015-08-22T11:22:41Z</time>
      </trkpt>
      <trkpt lat="45.44456" lon="7.00204">
        <ele>2066.6475</ele>
        <time>2015-08-22T11:22:51Z</time>
      </trkpt>
      <trkpt lat="45.4445" lon="7.00203">
        <ele>2069.798</ele>
        <time>2015-08-22T11:22:56Z</time>
      </trkpt>
      <trkpt lat="45.44449" lon="7.00206">
        <ele>2069.798</ele>
        <time>2015-08-22T11:23:11Z</time>
      </trkpt>
      <trkpt lat="45.44447" lon="7.00208">
        <ele>2069.798</ele>
        <time>2015-08-22T11:23:16Z</time>
      </trkpt>
      <trkpt lat="45.44447" lon="7.00208">
        <ele>2069.798</ele>
        <time>2015-08-22T11:23:26Z</time>
      </trkpt>
      <trkpt lat="45.44446" lon="7.00209">
        <ele>2069.798</ele>
        <time>2015-08-22T11:23:31Z</time>
      </trkpt>
      <trkpt lat="45.44444" lon="7.00213">
        <ele>2073.0833</ele>
        <time>2015-08-22T11:23:41Z</time>
      </trkpt>
      <trkpt lat="45.44444" lon="7.00214">
        <ele>2073.0833</ele>
        <time>2015-08-22T11:23:46Z</time>
      </trkpt>
      <trkpt lat="45.44442" lon="7.00218">
        <ele>2073.0833</ele>
        <time>2015-08-22T11:23:56Z</time>
      </trkpt>
      <trkpt lat="45.44439" lon="7.00218">
        <ele>2073.0833</ele>
        <time>2015-08-22T11:24:01Z</time>
      </trkpt>
      <trkpt lat="45.4444" lon="7.00219">
        <ele>2073.0833</ele>
        <time>2015-08-22T11:24:11Z</time>
      </trkpt>
      <trkpt lat="45.44441" lon="7.00221">
        <ele>2076.5366</ele>
        <time>2015-08-22T11:24:16Z</time>
      </trkpt>
      <trkpt lat="45.4444" lon="7.00228">
        <ele>2076.5366</ele>
        <time>2015-08-22T11:24:26Z</time>
      </trkpt>
      <trkpt lat="45.44439" lon="7.00231">
        <ele>2076.5366</ele>
        <time>2015-08-22T11:24:31Z</time>
      </trkpt>
      <trkpt lat="45.44438" lon="7.00236">
        <ele>2079.6272</ele>
        <time>2015-08-22T11:24:41Z</time>
      </trkpt>
      <trkpt lat="45.44436" lon="7.00242">
        <ele>2079.6272</ele>
        <time>2015-08-22T11:24:46Z</time>
      </trkpt>
      <trkpt lat="45.44437" lon="7.00245">
        <ele>2079.6272</ele>
        <time>2015-08-22T11:24:56Z</time>
      </trkpt>
      <trkpt lat="45.44437" lon="7.00248">
        <ele>2079.6272</ele>
        <time>2015-08-22T11:25:01Z</time>
      </trkpt>
      <trkpt lat="45.44438" lon="7.00254">
        <ele>2082.44</ele>
        <time>2015-08-22T11:25:11Z</time>
      </trkpt>
      <trkpt lat="45.44438" lon="7.00256">
        <ele>2082.44</ele>
        <time>2015-08-22T11:25:16Z</time>
      </trkpt>
      <trkpt lat="45.44437" lon="7.00261">
        <ele>2082.44</ele>
        <time>2015-08-22T11:25:26Z</time>
      </trkpt>
      <trkpt lat="45.44432" lon="7.00262">
        <ele>2085.1846</ele>
        <time>2015-08-22T11:25:31Z</time>
      </trkpt>
      <trkpt lat="45.4443" lon="7.00256">
        <ele>2085.1846</ele>
        <time>2015-08-22T11:25:41Z</time>
      </trkpt>
      <trkpt lat="45.44431" lon="7.00249">
        <ele>2087.609</ele>
        <time>2015-08-22T11:25:46Z</time>
      </trkpt>
      <trkpt lat="45.44428" lon="7.0025">
        <ele>2087.609</ele>
        <time>2015-08-22T11:26:01Z</time>
      </trkpt>
      <trkpt lat="45.44428" lon="7.00251">
        <ele>2087.609</ele>
        <time>2015-08-22T11:26:06Z</time>
      </trkpt>
      <trkpt lat="45.44427" lon="7.00258">
        <ele>2087.609</ele>
        <time>2015-08-22T11:26:16Z</time>
      </trkpt>
      <trkpt lat="45.44425" lon="7.0026">
        <ele>2090.5603</ele>
        <time>2015-08-22T11:26:21Z</time>
      </trkpt>
      <trkpt lat="45.44423" lon="7.00268">
        <ele>2090.5603</ele>
        <time>2015-08-22T11:26:31Z</time>
      </trkpt>
      <trkpt lat="45.44422" lon="7.00272">
        <ele>2093.2239</ele>
        <time>2015-08-22T11:26:36Z</time>
      </trkpt>
      <trkpt lat="45.44417" lon="7.00279">
        <ele>2093.2239</ele>
        <time>2015-08-22T11:26:46Z</time>
      </trkpt>
      <trkpt lat="45.44415" lon="7.00279">
        <ele>2093.2239</ele>
        <time>2015-08-22T11:26:51Z</time>
      </trkpt>
      <trkpt lat="45.4441" lon="7.0028">
        <ele>2095.5361</ele>
        <time>2015-08-22T11:27:01Z</time>
      </trkpt>
      <trkpt lat="45.4441" lon="7.00279">
        <ele>2095.5361</ele>
        <time>2015-08-22T11:27:06Z</time>
      </trkpt>
      <trkpt lat="45.44408" lon="7.00276">
        <ele>2095.5361</ele>
        <time>2015-08-22T11:28:51Z</time>
      </trkpt>
      <trkpt lat="45.44407" lon="7.00276">
        <ele>2095.5361</ele>
        <time>2015-08-22T11:28:56Z</time>
      </trkpt>
      <trkpt lat="45.44407" lon="7.00276">
        <ele>2095.5361</ele>
        <time>2015-08-22T11:29:06Z</time>
      </trkpt>
      <trkpt lat="45.44405" lon="7.00276">
        <ele>2095.5361</ele>
        <time>2015-08-22T11:29:11Z</time>
      </trkpt>
      <trkpt lat="45.44399" lon="7.00276">
        <ele>2098.809</ele>
        <time>2015-08-22T11:29:21Z</time>
      </trkpt>
      <trkpt lat="45.44398" lon="7.00274">
        <ele>2098.809</ele>
        <time>2015-08-22T11:29:26Z</time>
      </trkpt>
      <trkpt lat="45.44393" lon="7.00271">
        <ele>2098.809</ele>
        <time>2015-08-22T11:29:36Z</time>
      </trkpt>
      <trkpt lat="45.44392" lon="7.00271">
        <ele>2098.809</ele>
        <time>2015-08-22T11:29:41Z</time>
      </trkpt>
      <trkpt lat="45.44391" lon="7.00272">
        <ele>2101.8916</ele>
        <time>2015-08-22T11:29:51Z</time>
      </trkpt>
      <trkpt lat="45.4439" lon="7.00273">
        <ele>2101.8916</ele>
        <time>2015-08-22T11:29:56Z</time>
      </trkpt>
      <trkpt lat="45.44387" lon="7.00272">
        <ele>2101.8916</ele>
        <time>2015-08-22T11:30:06Z</time>
      </trkpt>
      <trkpt lat="45.44387" lon="7.00273">
        <ele>2101.8916</ele>
        <time>2015-08-22T11:30:11Z</time>
      </trkpt>
      <trkpt lat="45.44386" lon="7.00275">
        <ele>2101.8916</ele>
        <time>2015-08-22T11:30:21Z</time>
      </trkpt>
      <trkpt lat="45.44386" lon="7.00277">
        <ele>2101.8916</ele>
        <time>2015-08-22T11:30:26Z</time>
      </trkpt>
      <trkpt lat="45.44387" lon="7.00278">
        <ele>2101.8916</ele>
        <time>2015-08-22T11:30:36Z</time>
      </trkpt>
      <trkpt lat="45.44387" lon="7.00281">
        <ele>2105.3606</ele>
        <time>2015-08-22T11:30:41Z</time>
      </trkpt>
      <trkpt lat="45.44385" lon="7.00285">
        <ele>2105.3606</ele>
        <time>2015-08-22T11:30:51Z</time>
      </trkpt>
      <trkpt lat="45.44382" lon="7.0029">
        <ele>2105.3606</ele>
        <time>2015-08-22T11:30:56Z</time>
      </trkpt>
      <trkpt lat="45.44379" lon="7.00299">
        <ele>2108.9429</ele>
        <time>2015-08-22T11:31:06Z</time>
      </trkpt>
      <trkpt lat="45.44377" lon="7.00304">
        <ele>2108.9429</ele>
        <time>2015-08-22T11:31:11Z</time>
      </trkpt>
      <trkpt lat="45.44374" lon="7.00306">
        <ele>2108.9429</ele>
        <time>2015-08-22T11:31:21Z</time>
      </trkpt>
      <trkpt lat="45.44373" lon="7.00311">
        <ele>2112.4136</ele>
        <time>2015-08-22T11:31:26Z</time>
      </trkpt>
      <trkpt lat="45.44371" lon="7.00314">
        <ele>2112.4136</ele>
        <time>2015-08-22T11:31:41Z</time>
      </trkpt>
      <trkpt lat="45.4437" lon="7.00315">
        <ele>2112.4136</ele>
        <time>2015-08-22T11:31:46Z</time>
      </trkpt>
      <trkpt lat="45.44368" lon="7.00324">
        <ele>2115.824</ele>
        <time>2015-08-22T11:31:56Z</time>
      </trkpt>
      <trkpt lat="45.44367" lon="7.00335">
        <ele>2115.824</ele>
        <time>2015-08-22T11:32:01Z</time>
      </trkpt>
      <trkpt lat="45.4437" lon="7.00339">
        <ele>2118.919</ele>
        <time>2015-08-22T11:32:11Z</time>
      </trkpt>
      <trkpt lat="45.44369" lon="7.00341">
        <ele>2118.919</ele>
        <time>2015-08-22T11:32:16Z</time>
      </trkpt>
      <trkpt lat="45.44372" lon="7.00344">
        <ele>2118.919</ele>
        <time>2015-08-22T11:32:26Z</time>
      </trkpt>
      <trkpt lat="45.44372" lon="7.00348">
        <ele>2118.919</ele>
        <time>2015-08-22T11:32:31Z</time>
      </trkpt>
      <trkpt lat="45.44374" lon="7.00351">
        <ele>2122.3281</ele>
        <time>2015-08-22T11:32:41Z</time>
      </trkpt>
      <trkpt lat="45.44372" lon="7.00354">
        <ele>2122.3281</ele>
        <time>2015-08-22T11:32:46Z</time>
      </trkpt>
      <trkpt lat="45.44369" lon="7.00366">
        <ele>2125.4663</ele>
        <time>2015-08-22T11:33:01Z</time>
      </trkpt>
      <trkpt lat="45.44368" lon="7.00367">
        <ele>2125.4663</ele>
        <time>2015-08-22T11:33:06Z</time>
      </trkpt>
      <trkpt lat="45.44366" lon="7.00363">
        <ele>2125.4663</ele>
        <time>2015-08-22T11:33:16Z</time>
      </trkpt>
      <trkpt lat="45.44366" lon="7.00363">
        <ele>2125.4663</ele>
        <time>2015-08-22T11:33:21Z</time>
      </trkpt>
      <trkpt lat="45.44363" lon="7.00363">
        <ele>2125.4663</ele>
        <time>2015-08-22T11:33:31Z</time>
      </trkpt>
      <trkpt lat="45.44361" lon="7.00363">
        <ele>2128.426</ele>
        <time>2015-08-22T11:33:36Z</time>
      </trkpt>
      <trkpt lat="45.44361" lon="7.00363">
        <ele>2128.426</ele>
        <time>2015-08-22T11:33:46Z</time>
      </trkpt>
      <trkpt lat="45.44358" lon="7.00363">
        <ele>2128.426</ele>
        <time>2015-08-22T11:34:21Z</time>
      </trkpt>
      <trkpt lat="45.44355" lon="7.00364">
        <ele>2128.426</ele>
        <time>2015-08-22T11:34:26Z</time>
      </trkpt>
      <trkpt lat="45.44353" lon="7.00365">
        <ele>2128.426</ele>
        <time>2015-08-22T11:34:36Z</time>
      </trkpt>
      <trkpt lat="45.44353" lon="7.00366">
        <ele>2131.64</ele>
        <time>2015-08-22T11:34:41Z</time>
      </trkpt>
      <trkpt lat="45.44356" lon="7.00376">
        <ele>2131.64</ele>
        <time>2015-08-22T11:34:51Z</time>
      </trkpt>
      <trkpt lat="45.44357" lon="7.0038">
        <ele>2134.9312</ele>
        <time>2015-08-22T11:34:56Z</time>
      </trkpt>
      <trkpt lat="45.44359" lon="7.00384">
        <ele>2134.9312</ele>
        <time>2015-08-22T11:35:06Z</time>
      </trkpt>
      <trkpt lat="45.44359" lon="7.00388">
        <ele>2134.9312</ele>
        <time>2015-08-22T11:35:11Z</time>
      </trkpt>
      <trkpt lat="45.44365" lon="7.00396">
        <ele>2137.9773</ele>
        <time>2015-08-22T11:35:21Z</time>
      </trkpt>
      <trkpt lat="45.44365" lon="7.00397">
        <ele>2137.9773</ele>
        <time>2015-08-22T11:35:26Z</time>
      </trkpt>
      <trkpt lat="45.44365" lon="7.00397">
        <ele>2137.9773</ele>
        <time>2015-08-22T11:35:36Z</time>
      </trkpt>
      <trkpt lat="45.44365" lon="7.00401">
        <ele>2137.9773</ele>
        <time>2015-08-22T11:35:41Z</time>
      </trkpt>
      <trkpt lat="45.44366" lon="7.00411">
        <ele>2141.0278</ele>
        <time>2015-08-22T11:35:51Z</time>
      </trkpt>
      <trkpt lat="45.44365" lon="7.00416">
        <ele>2141.0278</ele>
        <time>2015-08-22T11:35:56Z</time>
      </trkpt>
      <trkpt lat="45.44363" lon="7.00423">
        <ele>2141.0278</ele>
        <time>2015-08-22T11:36:06Z</time>
      </trkpt>
      <trkpt lat="45.44364" lon="7.00423">
        <ele>2143.6655</ele>
        <time>2015-08-22T11:36:11Z</time>
      </trkpt>
      <trkpt lat="45.44356" lon="7.00424">
        <ele>2143.6655</ele>
        <time>2015-08-22T11:36:26Z</time>
      </trkpt>
      <trkpt lat="45.44354" lon="7.00425">
        <ele>2145.6921</ele>
        <time>2015-08-22T11:36:31Z</time>
      </trkpt>
      <trkpt lat="45.44354" lon="7.00425">
        <ele>2145.6921</ele>
        <time>2015-08-22T11:36:41Z</time>
      </trkpt>
      <trkpt lat="45.44353" lon="7.0042">
        <ele>2145.6921</ele>
        <time>2015-08-22T11:37:16Z</time>
      </trkpt>
      <trkpt lat="45.44353" lon="7.0042">
        <ele>2145.6921</ele>
        <time>2015-08-22T11:37:26Z</time>
      </trkpt>
      <trkpt lat="45.44353" lon="7.00419">
        <ele>2145.6921</ele>
        <time>2015-08-22T11:37:41Z</time>
      </trkpt>
      <trkpt lat="45.44353" lon="7.00419">
        <ele>2145.6921</ele>
        <time>2015-08-22T11:37:46Z</time>
      </trkpt>
      <trkpt lat="45.44354" lon="7.00422">
        <ele>2145.6921</ele>
        <time>2015-08-22T11:37:56Z</time>
      </trkpt>
      <trkpt lat="45.44353" lon="7.00424">
        <ele>2145.6921</ele>
        <time>2015-08-22T11:38:01Z</time>
      </trkpt>
      <trkpt lat="45.44356" lon="7.00432">
        <ele>2148.1794</ele>
        <time>2015-08-22T11:38:11Z</time>
      </trkpt>
      <trkpt lat="45.44357" lon="7.0044">
        <ele>2148.1794</ele>
        <time>2015-08-22T11:38:16Z</time>
      </trkpt>
      <trkpt lat="45.44359" lon="7.00445">
        <ele>2150.6638</ele>
        <time>2015-08-22T11:38:26Z</time>
      </trkpt>
      <trkpt lat="45.44359" lon="7.00446">
        <ele>2150.6638</ele>
        <time>2015-08-22T11:38:31Z</time>
      </trkpt>
      <trkpt lat="45.44356" lon="7.00453">
        <ele>2150.6638</ele>
        <time>2015-08-22T11:38:41Z</time>
      </trkpt>
      <trkpt lat="45.44354" lon="7.00454">
        <ele>2150.6638</ele>
        <time>2015-08-22T11:38:46Z</time>
      </trkpt>
      <trkpt lat="45.44355" lon="7.00461">
        <ele>2152.9746</ele>
        <time>2015-08-22T11:38:56Z</time>
      </trkpt>
      <trkpt lat="45.44356" lon="7.00463">
        <ele>2152.9746</ele>
        <time>2015-08-22T11:39:01Z</time>
      </trkpt>
      <trkpt lat="45.44359" lon="7.00469">
        <ele>2152.9746</ele>
        <time>2015-08-22T11:39:16Z</time>
      </trkpt>
      <trkpt lat="45.44358" lon="7.00469">
        <ele>2152.9746</ele>
        <time>2015-08-22T11:39:21Z</time>
      </trkpt>
      <trkpt lat="45.44358" lon="7.00472">
        <ele>2155.546</ele>
        <time>2015-08-22T11:39:31Z</time>
      </trkpt>
      <trkpt lat="45.44356" lon="7.00488">
        <ele>2157.9277</ele>
        <time>2015-08-22T11:39:36Z</time>
      </trkpt>
      <trkpt lat="45.44353" lon="7.00496">
        <ele>2157.9277</ele>
        <time>2015-08-22T11:39:46Z</time>
      </trkpt>
      <trkpt lat="45.44353" lon="7.00496">
        <ele>2157.9277</ele>
        <time>2015-08-22T11:39:51Z</time>
      </trkpt>
      <trkpt lat="45.44352" lon="7.00494">
        <ele>2157.9277</ele>
        <time>2015-08-22T11:40:01Z</time>
      </trkpt>
      <trkpt lat="45.44351" lon="7.00493">
        <ele>2160.3674</ele>
        <time>2015-08-22T11:40:06Z</time>
      </trkpt>
      <trkpt lat="45.44352" lon="7.00492">
        <ele>2160.3674</ele>
        <time>2015-08-22T11:40:16Z</time>
      </trkpt>
      <trkpt lat="45.44352" lon="7.00492">
        <ele>2160.3674</ele>
        <time>2015-08-22T11:40:21Z</time>
      </trkpt>
      <trkpt lat="45.44351" lon="7.00493">
        <ele>2160.3674</ele>
        <time>2015-08-22T11:40:31Z</time>
      </trkpt>
      <trkpt lat="45.44349" lon="7.00496">
        <ele>2160.3674</ele>
        <time>2015-08-22T11:40:36Z</time>
      </trkpt>
      <trkpt lat="45.4435" lon="7.00496">
        <ele>2160.3674</ele>
        <time>2015-08-22T11:40:46Z</time>
      </trkpt>
      <trkpt lat="45.44349" lon="7.00499">
        <ele>2160.3674</ele>
        <time>2015-08-22T11:40:51Z</time>
      </trkpt>
      <trkpt lat="45.44347" lon="7.00508">
        <ele>2163.3674</ele>
        <time>2015-08-22T11:41:06Z</time>
      </trkpt>
      <trkpt lat="45.44347" lon="7.00508">
        <ele>2163.3674</ele>
        <time>2015-08-22T11:41:11Z</time>
      </trkpt>
      <trkpt lat="45.44347" lon="7.00508">
        <ele>2163.3674</ele>
        <time>2015-08-22T11:41:21Z</time>
      </trkpt>
      <trkpt lat="45.44346" lon="7.00509">
        <ele>2163.3674</ele>
        <time>2015-08-22T11:41:41Z</time>
      </trkpt>
      <trkpt lat="45.44344" lon="7.00518">
        <ele>2163.3674</ele>
        <time>2015-08-22T11:41:51Z</time>
      </trkpt>
      <trkpt lat="45.44344" lon="7.00518">
        <ele>2163.3674</ele>
        <time>2015-08-22T11:41:56Z</time>
      </trkpt>
      <trkpt lat="45.44343" lon="7.00525">
        <ele>2166.4114</ele>
        <time>2015-08-22T11:42:06Z</time>
      </trkpt>
      <trkpt lat="45.44343" lon="7.0053">
        <ele>2166.4114</ele>
        <time>2015-08-22T11:42:11Z</time>
      </trkpt>
      <trkpt lat="45.44343" lon="7.00535">
        <ele>2166.4114</ele>
        <time>2015-08-22T11:42:21Z</time>
      </trkpt>
      <trkpt lat="45.44343" lon="7.00535">
        <ele>2166.4114</ele>
        <time>2015-08-22T11:42:26Z</time>
      </trkpt>
      <trkpt lat="45.44341" lon="7.00541">
        <ele>2169.6267</ele>
        <time>2015-08-22T11:42:36Z</time>
      </trkpt>
      <trkpt lat="45.4434" lon="7.00542">
        <ele>2169.6267</ele>
        <time>2015-08-22T11:42:41Z</time>
      </trkpt>
      <trkpt lat="45.44339" lon="7.00539">
        <ele>2169.6267</ele>
        <time>2015-08-22T11:42:51Z</time>
      </trkpt>
      <trkpt lat="45.44339" lon="7.00538">
        <ele>2169.6267</ele>
        <time>2015-08-22T11:42:56Z</time>
      </trkpt>
      <trkpt lat="45.44335" lon="7.00536">
        <ele>2169.6267</ele>
        <time>2015-08-22T11:43:11Z</time>
      </trkpt>
      <trkpt lat="45.44334" lon="7.00539">
        <ele>2172.6404</ele>
        <time>2015-08-22T11:43:16Z</time>
      </trkpt>
      <trkpt lat="45.44333" lon="7.00546">
        <ele>2172.6404</ele>
        <time>2015-08-22T11:43:26Z</time>
      </trkpt>
      <trkpt lat="45.44333" lon="7.00546">
        <ele>2172.6404</ele>
        <time>2015-08-22T11:43:31Z</time>
      </trkpt>
      <trkpt lat="45.44331" lon="7.00553">
        <ele>2175.698</ele>
        <time>2015-08-22T11:44:11Z</time>
      </trkpt>
      <trkpt lat="45.44331" lon="7.00557">
        <ele>2175.698</ele>
        <time>2015-08-22T11:44:16Z</time>
      </trkpt>
      <trkpt lat="45.4433" lon="7.00561">
        <ele>2175.698</ele>
        <time>2015-08-22T11:44:26Z</time>
      </trkpt>
      <trkpt lat="45.44329" lon="7.0056">
        <ele>2175.698</ele>
        <time>2015-08-22T11:44:31Z</time>
      </trkpt>
      <trkpt lat="45.44328" lon="7.0056">
        <ele>2175.698</ele>
        <time>2015-08-22T11:44:41Z</time>
      </trkpt>
      <trkpt lat="45.44321" lon="7.00559">
        <ele>2178.7683</ele>
        <time>2015-08-22T11:44:46Z</time>
      </trkpt>
      <trkpt lat="45.44318" lon="7.00556">
        <ele>2178.7683</ele>
        <time>2015-08-22T11:44:56Z</time>
      </trkpt>
      <trkpt lat="45.44317" lon="7.00555">
        <ele>2178.7683</ele>
        <time>2015-08-22T11:45:01Z</time>
      </trkpt>
      <trkpt lat="45.44316" lon="7.00557">
        <ele>2178.7683</ele>
        <time>2015-08-22T11:45:11Z</time>
      </trkpt>
      <trkpt lat="45.44316" lon="7.00557">
        <ele>2178.7683</ele>
        <time>2015-08-22T11:45:16Z</time>
      </trkpt>
      <trkpt lat="45.44312" lon="7.00561">
        <ele>2182.0376</ele>
        <time>2015-08-22T11:45:31Z</time>
      </trkpt>
      <trkpt lat="45.44307" lon="7.00566">
        <ele>2182.0376</ele>
        <time>2015-08-22T11:47:06Z</time>
      </trkpt>
      <trkpt lat="45.44307" lon="7.00566">
        <ele>2182.0376</ele>
        <time>2015-08-22T11:47:21Z</time>
      </trkpt>
      <trkpt lat="45.443" lon="7.00574">
        <ele>2185.5632</ele>
        <time>2015-08-22T11:47:26Z</time>
      </trkpt>
      <trkpt lat="45.44295" lon="7.00582">
        <ele>2185.5632</ele>
        <time>2015-08-22T11:47:36Z</time>
      </trkpt>
      <trkpt lat="45.44294" lon="7.00585">
        <ele>2188.8352</ele>
        <time>2015-08-22T11:47:41Z</time>
      </trkpt>
      <trkpt lat="45.44294" lon="7.0059">
        <ele>2188.8352</ele>
        <time>2015-08-22T11:47:51Z</time>
      </trkpt>
      <trkpt lat="45.44296" lon="7.00599">
        <ele>2191.9146</ele>
        <time>2015-08-22T11:47:56Z</time>
      </trkpt>
      <trkpt lat="45.44298" lon="7.00609">
        <ele>2191.9146</ele>
        <time>2015-08-22T11:48:06Z</time>
      </trkpt>
      <trkpt lat="45.44299" lon="7.00615">
        <ele>2194.7153</ele>
        <time>2015-08-22T11:48:11Z</time>
      </trkpt>
      <trkpt lat="45.44299" lon="7.00621">
        <ele>2194.7153</ele>
        <time>2015-08-22T11:48:21Z</time>
      </trkpt>
      <trkpt lat="45.44299" lon="7.00626">
        <ele>2194.7153</ele>
        <time>2015-08-22T11:48:26Z</time>
      </trkpt>
      <trkpt lat="45.44299" lon="7.00636">
        <ele>2197.3303</ele>
        <time>2015-08-22T11:48:36Z</time>
      </trkpt>
      <trkpt lat="45.44299" lon="7.00637">
        <ele>2197.3303</ele>
        <time>2015-08-22T11:48:41Z</time>
      </trkpt>
      <trkpt lat="45.44301" lon="7.00641">
        <ele>2197.3303</ele>
        <time>2015-08-22T11:48:51Z</time>
      </trkpt>
      <trkpt lat="45.44302" lon="7.00648">
        <ele>2199.9912</ele>
        <time>2015-08-22T11:48:56Z</time>
      </trkpt>
      <trkpt lat="45.44302" lon="7.00654">
        <ele>2199.9912</ele>
        <time>2015-08-22T11:49:06Z</time>
      </trkpt>
      <trkpt lat="45.44301" lon="7.00655">
        <ele>2199.9912</ele>
        <time>2015-08-22T11:49:11Z</time>
      </trkpt>
      <trkpt lat="45.44298" lon="7.00664">
        <ele>2202.4214</ele>
        <time>2015-08-22T11:49:26Z</time>
      </trkpt>
      <trkpt lat="45.44297" lon="7.00665">
        <ele>2202.4214</ele>
        <time>2015-08-22T11:49:31Z</time>
      </trkpt>
      <trkpt lat="45.44296" lon="7.00666">
        <ele>2202.4214</ele>
        <time>2015-08-22T11:49:41Z</time>
      </trkpt>
      <trkpt lat="45.44293" lon="7.00667">
        <ele>2202.4214</ele>
        <time>2015-08-22T11:49:46Z</time>
      </trkpt>
      <trkpt lat="45.44291" lon="7.00668">
        <ele>2202.4214</ele>
        <time>2015-08-22T11:49:56Z</time>
      </trkpt>
      <trkpt lat="45.4429" lon="7.00668">
        <ele>2202.4214</ele>
        <time>2015-08-22T11:50:01Z</time>
      </trkpt>
      <trkpt lat="45.44288" lon="7.00674">
        <ele>2205.1443</ele>
        <time>2015-08-22T11:50:11Z</time>
      </trkpt>
      <trkpt lat="45.44285" lon="7.00681">
        <ele>2205.1443</ele>
        <time>2015-08-22T11:50:16Z</time>
      </trkpt>
      <trkpt lat="45.44285" lon="7.00685">
        <ele>2205.1443</ele>
        <time>2015-08-22T11:50:26Z</time>
      </trkpt>
      <trkpt lat="45.44287" lon="7.00686">
        <ele>2207.9233</ele>
        <time>2015-08-22T11:50:31Z</time>
      </trkpt>
      <trkpt lat="45.44293" lon="7.0069">
        <ele>2207.9233</ele>
        <time>2015-08-22T11:50:41Z</time>
      </trkpt>
      <trkpt lat="45.44294" lon="7.00693">
        <ele>2210.5386</ele>
        <time>2015-08-22T11:50:46Z</time>
      </trkpt>
      <trkpt lat="45.44296" lon="7.00698">
        <ele>2210.5386</ele>
        <time>2015-08-22T11:50:56Z</time>
      </trkpt>
      <trkpt lat="45.44296" lon="7.007">
        <ele>2210.5386</ele>
        <time>2015-08-22T11:51:01Z</time>
      </trkpt>
      <trkpt lat="45.44302" lon="7.00701">
        <ele>2213.162</ele>
        <time>2015-08-22T11:51:11Z</time>
      </trkpt>
      <trkpt lat="45.44301" lon="7.00701">
        <ele>2213.162</ele>
        <time>2015-08-22T11:51:16Z</time>
      </trkpt>
      <trkpt lat="45.44296" lon="7.00697">
        <ele>2213.162</ele>
        <time>2015-08-22T11:51:26Z</time>
      </trkpt>
      <trkpt lat="45.44295" lon="7.00695">
        <ele>2213.162</ele>
        <time>2015-08-22T11:51:31Z</time>
      </trkpt>
      <trkpt lat="45.44296" lon="7.00685">
        <ele>2215.3909</ele>
        <time>2015-08-22T11:51:46Z</time>
      </trkpt>
      <trkpt lat="45.44297" lon="7.00686">
        <ele>2215.3909</ele>
        <time>2015-08-22T11:51:51Z</time>
      </trkpt>
      <trkpt lat="45.44297" lon="7.00686">
        <ele>2215.3909</ele>
        <time>2015-08-22T11:52:01Z</time>
      </trkpt>
      <trkpt lat="45.44297" lon="7.00686">
        <ele>2215.3909</ele>
        <time>2015-08-22T11:52:06Z</time>
      </trkpt>
      <trkpt lat="45.44297" lon="7.00692">
        <ele>2215.3909</ele>
        <time>2015-08-22T11:52:16Z</time>
      </trkpt>
      <trkpt lat="45.44297" lon="7.00692">
        <ele>2215.3909</ele>
        <time>2015-08-22T11:52:21Z</time>
      </trkpt>
      <trkpt lat="45.443" lon="7.00702">
        <ele>2217.8901</ele>
        <time>2015-08-22T11:52:31Z</time>
      </trkpt>
      <trkpt lat="45.44302" lon="7.00714">
        <ele>2217.8901</ele>
        <time>2015-08-22T11:52:36Z</time>
      </trkpt>
      <trkpt lat="45.44307" lon="7.0072">
        <ele>2220.0935</ele>
        <time>2015-08-22T11:52:46Z</time>
      </trkpt>
      <trkpt lat="45.4431" lon="7.00722">
        <ele>2220.0935</ele>
        <time>2015-08-22T11:52:51Z</time>
      </trkpt>
      <trkpt lat="45.44312" lon="7.00727">
        <ele>2220.0935</ele>
        <time>2015-08-22T11:53:01Z</time>
      </trkpt>
      <trkpt lat="45.44312" lon="7.00739">
        <ele>2222.2847</ele>
        <time>2015-08-22T11:53:06Z</time>
      </trkpt>
      <trkpt lat="45.44313" lon="7.00746">
        <ele>2222.2847</ele>
        <time>2015-08-22T11:53:16Z</time>
      </trkpt>
      <trkpt lat="45.44314" lon="7.00748">
        <ele>2222.2847</ele>
        <time>2015-08-22T11:53:21Z</time>
      </trkpt>
      <trkpt lat="45.44316" lon="7.00753">
        <ele>2224.4377</ele>
        <time>2015-08-22T11:53:31Z</time>
      </trkpt>
      <trkpt lat="45.44316" lon="7.00757">
        <ele>2224.4377</ele>
        <time>2015-08-22T11:53:36Z</time>
      </trkpt>
      <trkpt lat="45.4432" lon="7.0077">
        <ele>2226.4856</ele>
        <time>2015-08-22T11:53:46Z</time>
      </trkpt>
      <trkpt lat="45.44324" lon="7.00776">
        <ele>2226.4856</ele>
        <time>2015-08-22T11:53:51Z</time>
      </trkpt>
      <trkpt lat="45.44329" lon="7.00789">
        <ele>2228.3953</ele>
        <time>2015-08-22T11:54:06Z</time>
      </trkpt>
      <trkpt lat="45.4433" lon="7.00794">
        <ele>2228.3953</ele>
        <time>2015-08-22T11:54:11Z</time>
      </trkpt>
      <trkpt lat="45.44334" lon="7.00802">
        <ele>2230.1943</ele>
        <time>2015-08-22T11:54:21Z</time>
      </trkpt>
      <trkpt lat="45.44336" lon="7.00806">
        <ele>2230.1943</ele>
        <time>2015-08-22T11:54:26Z</time>
      </trkpt>
      <trkpt lat="45.44338" lon="7.00815">
        <ele>2231.8215</ele>
        <time>2015-08-22T11:54:36Z</time>
      </trkpt>
      <trkpt lat="45.44338" lon="7.00818">
        <ele>2231.8215</ele>
        <time>2015-08-22T11:54:41Z</time>
      </trkpt>
      <trkpt lat="45.44338" lon="7.0082">
        <ele>2231.8215</ele>
        <time>2015-08-22T11:54:51Z</time>
      </trkpt>
      <trkpt lat="45.44337" lon="7.00824">
        <ele>2231.8215</ele>
        <time>2015-08-22T11:54:56Z</time>
      </trkpt>
      <trkpt lat="45.44338" lon="7.00831">
        <ele>2233.0771</ele>
        <time>2015-08-22T11:55:06Z</time>
      </trkpt>
      <trkpt lat="45.44339" lon="7.00834">
        <ele>2233.0771</ele>
        <time>2015-08-22T11:55:11Z</time>
      </trkpt>
      <trkpt lat="45.4434" lon="7.00841">
        <ele>2233.0771</ele>
        <time>2015-08-22T11:55:21Z</time>
      </trkpt>
      <trkpt lat="45.4434" lon="7.00841">
        <ele>2233.0771</ele>
        <time>2015-08-22T11:55:26Z</time>
      </trkpt>
      <trkpt lat="45.4434" lon="7.00851">
        <ele>2234.3677</ele>
        <time>2015-08-22T11:55:36Z</time>
      </trkpt>
      <trkpt lat="45.44341" lon="7.00854">
        <ele>2234.3677</ele>
        <time>2015-08-22T11:55:41Z</time>
      </trkpt>
      <trkpt lat="45.44338" lon="7.00863">
        <ele>2234.3677</ele>
        <time>2015-08-22T11:55:56Z</time>
      </trkpt>
      <trkpt lat="45.44337" lon="7.00865">
        <ele>2236.2708</ele>
        <time>2015-08-22T11:56:01Z</time>
      </trkpt>
      <trkpt lat="45.44334" lon="7.00865">
        <ele>2236.2708</ele>
        <time>2015-08-22T11:56:11Z</time>
      </trkpt>
      <trkpt lat="45.44332" lon="7.00863">
        <ele>2236.2708</ele>
        <time>2015-08-22T11:56:16Z</time>
      </trkpt>
      <trkpt lat="45.44332" lon="7.00861">
        <ele>2236.2708</ele>
        <time>2015-08-22T11:56:26Z</time>
      </trkpt>
      <trkpt lat="45.44332" lon="7.00862">
        <ele>2236.2708</ele>
        <time>2015-08-22T11:57:16Z</time>
      </trkpt>
      <trkpt lat="45.44332" lon="7.00862">
        <ele>2236.2708</ele>
        <time>2015-08-22T11:57:26Z</time>
      </trkpt>
      <trkpt lat="45.44332" lon="7.00864">
        <ele>2238.312</ele>
        <time>2015-08-22T11:57:31Z</time>
      </trkpt>
      <trkpt lat="45.4433" lon="7.00878">
        <ele>2240.3823</ele>
        <time>2015-08-22T11:57:46Z</time>
      </trkpt>
      <trkpt lat="45.44329" lon="7.00884">
        <ele>2240.3823</ele>
        <time>2015-08-22T11:57:51Z</time>
      </trkpt>
      <trkpt lat="45.44328" lon="7.00889">
        <ele>2240.3823</ele>
        <time>2015-08-22T11:58:01Z</time>
      </trkpt>
      <trkpt lat="45.44327" lon="7.00895">
        <ele>2242.51</ele>
        <time>2015-08-22T11:58:06Z</time>
      </trkpt>
      <trkpt lat="45.44323" lon="7.00905">
        <ele>2242.51</ele>
        <time>2015-08-22T11:58:16Z</time>
      </trkpt>
      <trkpt lat="45.44323" lon="7.00905">
        <ele>2242.51</ele>
        <time>2015-08-22T11:58:21Z</time>
      </trkpt>
      <trkpt lat="45.44319" lon="7.00911">
        <ele>2244.7217</ele>
        <time>2015-08-22T11:58:31Z</time>
      </trkpt>
      <trkpt lat="45.44317" lon="7.00912">
        <ele>2244.7217</ele>
        <time>2015-08-22T11:58:36Z</time>
      </trkpt>
      <trkpt lat="45.44312" lon="7.00915">
        <ele>2244.7217</ele>
        <time>2015-08-22T11:58:46Z</time>
      </trkpt>
      <trkpt lat="45.44309" lon="7.00918">
        <ele>2246.796</ele>
        <time>2015-08-22T11:58:51Z</time>
      </trkpt>
      <trkpt lat="45.44307" lon="7.00921">
        <ele>2246.796</ele>
        <time>2015-08-22T11:59:01Z</time>
      </trkpt>
      <trkpt lat="45.44308" lon="7.00928">
        <ele>2246.796</ele>
        <time>2015-08-22T11:59:06Z</time>
      </trkpt>
      <trkpt lat="45.4431" lon="7.00933">
        <ele>2248.9607</ele>
        <time>2015-08-22T11:59:16Z</time>
      </trkpt>
      <trkpt lat="45.44311" lon="7.00941">
        <ele>2248.9607</ele>
        <time>2015-08-22T11:59:21Z</time>
      </trkpt>
      <trkpt lat="45.4431" lon="7.00948">
        <ele>2251.0952</ele>
        <time>2015-08-22T11:59:36Z</time>
      </trkpt>
      <trkpt lat="45.4431" lon="7.00948">
        <ele>2251.0952</ele>
        <time>2015-08-22T11:59:41Z</time>
      </trkpt>
      <trkpt lat="45.44309" lon="7.00956">
        <ele>2251.0952</ele>
        <time>2015-08-22T11:59:51Z</time>
      </trkpt>
      <trkpt lat="45.44308" lon="7.00963">
        <ele>2253.3186</ele>
        <time>2015-08-22T11:59:56Z</time>
      </trkpt>
      <trkpt lat="45.44306" lon="7.00966">
        <ele>2253.3186</ele>
        <time>2015-08-22T12:00:06Z</time>
      </trkpt>
      <trkpt lat="45.44305" lon="7.0097">
        <ele>2253.3186</ele>
        <time>2015-08-22T12:00:11Z</time>
      </trkpt>
      <trkpt lat="45.44304" lon="7.00977">
        <ele>2255.6682</ele>
        <time>2015-08-22T12:00:21Z</time>
      </trkpt>
      <trkpt lat="45.44303" lon="7.00978">
        <ele>2255.6682</ele>
        <time>2015-08-22T12:00:26Z</time>
      </trkpt>
      <trkpt lat="45.44301" lon="7.0098">
        <ele>2255.6682</ele>
        <time>2015-08-22T12:00:36Z</time>
      </trkpt>
      <trkpt lat="45.443" lon="7.00983">
        <ele>2255.6682</ele>
        <time>2015-08-22T12:00:41Z</time>
      </trkpt>
      <trkpt lat="45.44301" lon="7.00992">
        <ele>2258.2937</ele>
        <time>2015-08-22T12:00:51Z</time>
      </trkpt>
      <trkpt lat="45.44302" lon="7.00997">
        <ele>2258.2937</ele>
        <time>2015-08-22T12:00:56Z</time>
      </trkpt>
      <trkpt lat="45.44305" lon="7.01004">
        <ele>2260.5696</ele>
        <time>2015-08-22T12:01:06Z</time>
      </trkpt>
      <trkpt lat="45.44304" lon="7.01007">
        <ele>2260.5696</ele>
        <time>2015-08-22T12:01:11Z</time>
      </trkpt>
      <trkpt lat="45.44303" lon="7.01011">
        <ele>2260.5696</ele>
        <time>2015-08-22T12:01:26Z</time>
      </trkpt>
      <trkpt lat="45.44302" lon="7.01013">
        <ele>2260.5696</ele>
        <time>2015-08-22T12:01:31Z</time>
      </trkpt>
      <trkpt lat="45.44302" lon="7.01017">
        <ele>2262.954</ele>
        <time>2015-08-22T12:01:41Z</time>
      </trkpt>
      <trkpt lat="45.44302" lon="7.01017">
        <ele>2262.954</ele>
        <time>2015-08-22T12:01:46Z</time>
      </trkpt>
      <trkpt lat="45.44302" lon="7.01013">
        <ele>2262.954</ele>
        <time>2015-08-22T12:01:56Z</time>
      </trkpt>
      <trkpt lat="45.44302" lon="7.01013">
        <ele>2262.954</ele>
        <time>2015-08-22T12:02:01Z</time>
      </trkpt>
      <trkpt lat="45.44302" lon="7.01013">
        <ele>2262.954</ele>
        <time>2015-08-22T12:02:11Z</time>
      </trkpt>
      <trkpt lat="45.44301" lon="7.01019">
        <ele>2262.954</ele>
        <time>2015-08-22T12:02:41Z</time>
      </trkpt>
      <trkpt lat="45.44301" lon="7.01026">
        <ele>2265.4397</ele>
        <time>2015-08-22T12:02:46Z</time>
      </trkpt>
      <trkpt lat="45.443" lon="7.01028">
        <ele>2265.4397</ele>
        <time>2015-08-22T12:02:56Z</time>
      </trkpt>
      <trkpt lat="45.443" lon="7.01028">
        <ele>2265.4397</ele>
        <time>2015-08-22T12:03:01Z</time>
      </trkpt>
      <trkpt lat="45.44298" lon="7.01042">
        <ele>2268.0332</ele>
        <time>2015-08-22T12:03:16Z</time>
      </trkpt>
      <trkpt lat="45.44299" lon="7.01046">
        <ele>2268.0332</ele>
        <time>2015-08-22T12:03:21Z</time>
      </trkpt>
      <trkpt lat="45.44298" lon="7.01055">
        <ele>2270.5103</ele>
        <time>2015-08-22T12:03:31Z</time>
      </trkpt>
      <trkpt lat="45.44298" lon="7.01057">
        <ele>2270.5103</ele>
        <time>2015-08-22T12:03:36Z</time>
      </trkpt>
      <trkpt lat="45.44298" lon="7.01061">
        <ele>2270.5103</ele>
        <time>2015-08-22T12:03:46Z</time>
      </trkpt>
      <trkpt lat="45.44298" lon="7.01064">
        <ele>2270.5103</ele>
        <time>2015-08-22T12:03:51Z</time>
      </trkpt>
      <trkpt lat="45.44297" lon="7.01069">
        <ele>2272.879</ele>
        <time>2015-08-22T12:04:01Z</time>
      </trkpt>
      <trkpt lat="45.44297" lon="7.01074">
        <ele>2272.879</ele>
        <time>2015-08-22T12:04:06Z</time>
      </trkpt>
      <trkpt lat="45.44294" lon="7.01081">
        <ele>2272.879</ele>
        <time>2015-08-22T12:04:16Z</time>
      </trkpt>
      <trkpt lat="45.44295" lon="7.01082">
        <ele>2275.3203</ele>
        <time>2015-08-22T12:04:21Z</time>
      </trkpt>
      <trkpt lat="45.44296" lon="7.01091">
        <ele>2275.3203</ele>
        <time>2015-08-22T12:04:31Z</time>
      </trkpt>
      <trkpt lat="45.44295" lon="7.01094">
        <ele>2275.3203</ele>
        <time>2015-08-22T12:04:36Z</time>
      </trkpt>
      <trkpt lat="45.44296" lon="7.01097">
        <ele>2277.872</ele>
        <time>2015-08-22T12:04:46Z</time>
      </trkpt>
      <trkpt lat="45.44296" lon="7.01101">
        <ele>2277.872</ele>
        <time>2015-08-22T12:04:51Z</time>
      </trkpt>
      <trkpt lat="45.44296" lon="7.01109">
        <ele>2277.872</ele>
        <time>2015-08-22T12:05:01Z</time>
      </trkpt>
      <trkpt lat="45.44295" lon="7.01111">
        <ele>2280.3096</ele>
        <time>2015-08-22T12:05:06Z</time>
      </trkpt>
      <trkpt lat="45.44295" lon="7.01109">
        <ele>2280.3096</ele>
        <time>2015-08-22T12:05:16Z</time>
      </trkpt>
      <trkpt lat="45.44296" lon="7.01106">
        <ele>2280.3096</ele>
        <time>2015-08-22T12:05:21Z</time>
      </trkpt>
      <trkpt lat="45.44298" lon="7.01114">
        <ele>2282.5112</ele>
        <time>2015-08-22T12:05:31Z</time>
      </trkpt>
      <trkpt lat="45.44295" lon="7.01116">
        <ele>2282.5112</ele>
        <time>2015-08-22T12:05:36Z</time>
      </trkpt>
      <trkpt lat="45.44299" lon="7.01117">
        <ele>2282.5112</ele>
        <time>2015-08-22T12:05:51Z</time>
      </trkpt>
      <trkpt lat="45.44297" lon="7.01115">
        <ele>2282.5112</ele>
        <time>2015-08-22T12:05:56Z</time>
      </trkpt>
      <trkpt lat="45.44297" lon="7.01114">
        <ele>2284.4082</ele>
        <time>2015-08-22T12:06:06Z</time>
      </trkpt>
      <trkpt lat="45.44297" lon="7.01114">
        <ele>2284.4082</ele>
        <time>2015-08-22T12:06:11Z</time>
      </trkpt>
      <trkpt lat="45.44293" lon="7.01113">
        <ele>2284.4082</ele>
        <time>2015-08-22T12:07:36Z</time>
      </trkpt>
      <trkpt lat="45.44287" lon="7.01114">
        <ele>2286.4856</ele>
        <time>2015-08-22T12:07:41Z</time>
      </trkpt>
      <trkpt lat="45.44288" lon="7.01116">
        <ele>2286.4856</ele>
        <time>2015-08-22T12:07:51Z</time>
      </trkpt>
      <trkpt lat="45.44289" lon="7.01119">
        <ele>2286.4856</ele>
        <time>2015-08-22T12:07:56Z</time>
      </trkpt>
      <trkpt lat="45.44289" lon="7.0112">
        <ele>2286.4856</ele>
        <time>2015-08-22T12:08:06Z</time>
      </trkpt>
      <trkpt lat="45.44289" lon="7.01128">
        <ele>2289.0764</ele>
        <time>2015-08-22T12:08:11Z</time>
      </trkpt>
      <trkpt lat="45.44288" lon="7.01138">
        <ele>2289.0764</ele>
        <time>2015-08-22T12:08:21Z</time>
      </trkpt>
      <trkpt lat="45.44288" lon="7.01141">
        <ele>2291.5227</ele>
        <time>2015-08-22T12:08:26Z</time>
      </trkpt>
      <trkpt lat="45.44287" lon="7.01149">
        <ele>2291.5227</ele>
        <time>2015-08-22T12:08:36Z</time>
      </trkpt>
      <trkpt lat="45.44287" lon="7.01151">
        <ele>2291.5227</ele>
        <time>2015-08-22T12:08:41Z</time>
      </trkpt>
      <trkpt lat="45.44286" lon="7.01155">
        <ele>2293.9353</ele>
        <time>2015-08-22T12:08:51Z</time>
      </trkpt>
      <trkpt lat="45.44285" lon="7.01157">
        <ele>2293.9353</ele>
        <time>2015-08-22T12:08:56Z</time>
      </trkpt>
      <trkpt lat="45.4428" lon="7.01165">
        <ele>2296.1438</ele>
        <time>2015-08-22T12:09:11Z</time>
      </trkpt>
      <trkpt lat="45.44278" lon="7.01165">
        <ele>2296.1438</ele>
        <time>2015-08-22T12:09:16Z</time>
      </trkpt>
      <trkpt lat="45.44275" lon="7.01161">
        <ele>2296.1438</ele>
        <time>2015-08-22T12:09:26Z</time>
      </trkpt>
      <trkpt lat="45.44273" lon="7.01162">
        <ele>2296.1438</ele>
        <time>2015-08-22T12:09:31Z</time>
      </trkpt>
      <trkpt lat="45.44272" lon="7.01168">
        <ele>2298.5957</ele>
        <time>2015-08-22T12:09:41Z</time>
      </trkpt>
      <trkpt lat="45.44271" lon="7.01167">
        <ele>2298.5957</ele>
        <time>2015-08-22T12:09:46Z</time>
      </trkpt>
      <trkpt lat="45.44269" lon="7.01175">
        <ele>2298.5957</ele>
        <time>2015-08-22T12:09:56Z</time>
      </trkpt>
      <trkpt lat="45.44266" lon="7.01176">
        <ele>2301.042</ele>
        <time>2015-08-22T12:10:01Z</time>
      </trkpt>
      <trkpt lat="45.44263" lon="7.01184">
        <ele>2301.042</ele>
        <time>2015-08-22T12:10:11Z</time>
      </trkpt>
      <trkpt lat="45.44263" lon="7.01183">
        <ele>2301.042</ele>
        <time>2015-08-22T12:10:16Z</time>
      </trkpt>
      <trkpt lat="45.4426" lon="7.01173">
        <ele>2303.396</ele>
        <time>2015-08-22T12:10:26Z</time>
      </trkpt>
      <trkpt lat="45.44257" lon="7.0117">
        <ele>2303.396</ele>
        <time>2015-08-22T12:10:31Z</time>
      </trkpt>
      <trkpt lat="45.44256" lon="7.01178">
        <ele>2305.4053</ele>
        <time>2015-08-22T12:10:41Z</time>
      </trkpt>
      <trkpt lat="45.44255" lon="7.01181">
        <ele>2305.4053</ele>
        <time>2015-08-22T12:10:46Z</time>
      </trkpt>
      <trkpt lat="45.44251" lon="7.01185">
        <ele>2305.4053</ele>
        <time>2015-08-22T12:10:56Z</time>
      </trkpt>
      <trkpt lat="45.44248" lon="7.01187">
        <ele>2307.2253</ele>
        <time>2015-08-22T12:11:01Z</time>
      </trkpt>
      <trkpt lat="45.44243" lon="7.01187">
        <ele>2307.2253</ele>
        <time>2015-08-22T12:11:16Z</time>
      </trkpt>
      <trkpt lat="45.44241" lon="7.01185">
        <ele>2307.2253</ele>
        <time>2015-08-22T12:11:21Z</time>
      </trkpt>
      <trkpt lat="45.44241" lon="7.01184">
        <ele>2307.2253</ele>
        <time>2015-08-22T12:11:31Z</time>
      </trkpt>
      <trkpt lat="45.44241" lon="7.01185">
        <ele>2307.2253</ele>
        <time>2015-08-22T12:11:36Z</time>
      </trkpt>
      <trkpt lat="45.44241" lon="7.01185">
        <ele>2307.2253</ele>
        <time>2015-08-22T12:11:46Z</time>
      </trkpt>
      <trkpt lat="45.44241" lon="7.01186">
        <ele>2307.2253</ele>
        <time>2015-08-22T12:12:06Z</time>
      </trkpt>
      <trkpt lat="45.44241" lon="7.01186">
        <ele>2308.598</ele>
        <time>2015-08-22T12:12:16Z</time>
      </trkpt>
      <trkpt lat="45.44241" lon="7.01189">
        <ele>2308.598</ele>
        <time>2015-08-22T12:12:21Z</time>
      </trkpt>
      <trkpt lat="45.44237" lon="7.01199">
        <ele>2310.163</ele>
        <time>2015-08-22T12:12:31Z</time>
      </trkpt>
      <trkpt lat="45.44237" lon="7.01199">
        <ele>2310.163</ele>
        <time>2015-08-22T12:12:36Z</time>
      </trkpt>
      <trkpt lat="45.44236" lon="7.012">
        <ele>2310.163</ele>
        <time>2015-08-22T12:12:46Z</time>
      </trkpt>
      <trkpt lat="45.44235" lon="7.01201">
        <ele>2310.163</ele>
        <time>2015-08-22T12:12:51Z</time>
      </trkpt>
      <trkpt lat="45.44233" lon="7.01203">
        <ele>2310.163</ele>
        <time>2015-08-22T12:13:01Z</time>
      </trkpt>
      <trkpt lat="45.44232" lon="7.01202">
        <ele>2310.163</ele>
        <time>2015-08-22T12:13:06Z</time>
      </trkpt>
      <trkpt lat="45.44231" lon="7.01202">
        <ele>2310.163</ele>
        <time>2015-08-22T12:13:51Z</time>
      </trkpt>
      <trkpt lat="45.44223" lon="7.01197">
        <ele>2312.9897</ele>
        <time>2015-08-22T12:14:06Z</time>
      </trkpt>
      <trkpt lat="45.44222" lon="7.01196">
        <ele>2312.9897</ele>
        <time>2015-08-22T12:14:11Z</time>
      </trkpt>
      <trkpt lat="45.44221" lon="7.01196">
        <ele>2312.9897</ele>
        <time>2015-08-22T12:14:21Z</time>
      </trkpt>
      <trkpt lat="45.4422" lon="7.01195">
        <ele>2312.9897</ele>
        <time>2015-08-22T12:14:26Z</time>
      </trkpt>
      <trkpt lat="45.44216" lon="7.01197">
        <ele>2312.9897</ele>
        <time>2015-08-22T12:14:36Z</time>
      </trkpt>
      <trkpt lat="45.44215" lon="7.01198">
        <ele>2312.9897</ele>
        <time>2015-08-22T12:14:41Z</time>
      </trkpt>
      <trkpt lat="45.44208" lon="7.01199">
        <ele>2316.364</ele>
        <time>2015-08-22T12:14:51Z</time>
      </trkpt>
      <trkpt lat="45.44202" lon="7.01202">
        <ele>2316.364</ele>
        <time>2015-08-22T12:14:56Z</time>
      </trkpt>
      <trkpt lat="45.44195" lon="7.01209">
        <ele>2319.3057</ele>
        <time>2015-08-22T12:15:06Z</time>
      </trkpt>
      <trkpt lat="45.44194" lon="7.01213">
        <ele>2319.3057</ele>
        <time>2015-08-22T12:15:11Z</time>
      </trkpt>
      <trkpt lat="45.44195" lon="7.01222">
        <ele>2322.0466</ele>
        <time>2015-08-22T12:15:21Z</time>
      </trkpt>
      <trkpt lat="45.44197" lon="7.01227">
        <ele>2322.0466</ele>
        <time>2015-08-22T12:15:26Z</time>
      </trkpt>
      <trkpt lat="45.442" lon="7.01237">
        <ele>2324.8015</ele>
        <time>2015-08-22T12:15:36Z</time>
      </trkpt>
      <trkpt lat="45.44198" lon="7.01244">
        <ele>2324.8015</ele>
        <time>2015-08-22T12:15:41Z</time>
      </trkpt>
      <trkpt lat="45.44198" lon="7.0126">
        <ele>2327.539</ele>
        <time>2015-08-22T12:15:51Z</time>
      </trkpt>
      <trkpt lat="45.44198" lon="7.01266">
        <ele>2327.539</ele>
        <time>2015-08-22T12:15:56Z</time>
      </trkpt>
      <trkpt lat="45.44196" lon="7.01277">
        <ele>2330.1875</ele>
        <time>2015-08-22T12:16:06Z</time>
      </trkpt>
      <trkpt lat="45.44197" lon="7.01285">
        <ele>2330.1875</ele>
        <time>2015-08-22T12:16:11Z</time>
      </trkpt>
      <trkpt lat="45.44196" lon="7.01297">
        <ele>2332.5356</ele>
        <time>2015-08-22T12:16:26Z</time>
      </trkpt>
      <trkpt lat="45.44196" lon="7.013">
        <ele>2332.5356</ele>
        <time>2015-08-22T12:16:31Z</time>
      </trkpt>
      <trkpt lat="45.44197" lon="7.01306">
        <ele>2332.5356</ele>
        <time>2015-08-22T12:16:41Z</time>
      </trkpt>
      <trkpt lat="45.44198" lon="7.01307">
        <ele>2332.5356</ele>
        <time>2015-08-22T12:16:46Z</time>
      </trkpt>
      <trkpt lat="45.44197" lon="7.01311">
        <ele>2334.476</ele>
        <time>2015-08-22T12:16:56Z</time>
      </trkpt>
      <trkpt lat="45.44198" lon="7.01314">
        <ele>2334.476</ele>
        <time>2015-08-22T12:17:01Z</time>
      </trkpt>
      <trkpt lat="45.44202" lon="7.01324">
        <ele>2336.068</ele>
        <time>2015-08-22T12:17:11Z</time>
      </trkpt>
      <trkpt lat="45.44202" lon="7.0133">
        <ele>2336.068</ele>
        <time>2015-08-22T12:17:16Z</time>
      </trkpt>
      <trkpt lat="45.442" lon="7.01336">
        <ele>2336.068</ele>
        <time>2015-08-22T12:17:26Z</time>
      </trkpt>
      <trkpt lat="45.44199" lon="7.01339">
        <ele>2337.0654</ele>
        <time>2015-08-22T12:17:31Z</time>
      </trkpt>
      <trkpt lat="45.44196" lon="7.01341">
        <ele>2337.0654</ele>
        <time>2015-08-22T12:17:41Z</time>
      </trkpt>
      <trkpt lat="45.44195" lon="7.01344">
        <ele>2337.0654</ele>
        <time>2015-08-22T12:17:46Z</time>
      </trkpt>
      <trkpt lat="45.44193" lon="7.01349">
        <ele>2338.034</ele>
        <time>2015-08-22T12:17:56Z</time>
      </trkpt>
      <trkpt lat="45.44192" lon="7.01354">
        <ele>2338.034</ele>
        <time>2015-08-22T12:18:01Z</time>
      </trkpt>
      <trkpt lat="45.44192" lon="7.01372">
        <ele>2339.2249</ele>
        <time>2015-08-22T12:18:16Z</time>
      </trkpt>
      <trkpt lat="45.4419" lon="7.01376">
        <ele>2339.2249</ele>
        <time>2015-08-22T12:18:21Z</time>
      </trkpt>
      <trkpt lat="45.44187" lon="7.01382">
        <ele>2339.2249</ele>
        <time>2015-08-22T12:18:31Z</time>
      </trkpt>
      <trkpt lat="45.44184" lon="7.01383">
        <ele>2340.3792</ele>
        <time>2015-08-22T12:18:36Z</time>
      </trkpt>
      <trkpt lat="45.44183" lon="7.0139">
        <ele>2340.3792</ele>
        <time>2015-08-22T12:18:46Z</time>
      </trkpt>
      <trkpt lat="45.44182" lon="7.01396">
        <ele>2341.532</ele>
        <time>2015-08-22T12:18:51Z</time>
      </trkpt>
      <trkpt lat="45.44179" lon="7.01405">
        <ele>2341.532</ele>
        <time>2015-08-22T12:19:01Z</time>
      </trkpt>
      <trkpt lat="45.44179" lon="7.01409">
        <ele>2342.5996</ele>
        <time>2015-08-22T12:19:06Z</time>
      </trkpt>
      <trkpt lat="45.44181" lon="7.01417">
        <ele>2342.5996</ele>
        <time>2015-08-22T12:19:16Z</time>
      </trkpt>
      <trkpt lat="45.44181" lon="7.01421">
        <ele>2342.5996</ele>
        <time>2015-08-22T12:19:21Z</time>
      </trkpt>
      <trkpt lat="45.4418" lon="7.01428">
        <ele>2343.534</ele>
        <time>2015-08-22T12:19:31Z</time>
      </trkpt>
      <trkpt lat="45.44179" lon="7.0143">
        <ele>2343.534</ele>
        <time>2015-08-22T12:19:36Z</time>
      </trkpt>
      <trkpt lat="45.44175" lon="7.01433">
        <ele>2343.534</ele>
        <time>2015-08-22T12:19:46Z</time>
      </trkpt>
      <trkpt lat="45.44175" lon="7.01433">
        <ele>2343.534</ele>
        <time>2015-08-22T12:19:51Z</time>
      </trkpt>
      <trkpt lat="45.44174" lon="7.01436">
        <ele>2343.534</ele>
        <time>2015-08-22T12:20:01Z</time>
      </trkpt>
      <trkpt lat="45.44173" lon="7.01437">
        <ele>2344.4495</ele>
        <time>2015-08-22T12:20:06Z</time>
      </trkpt>
      <trkpt lat="45.44164" lon="7.01447">
        <ele>2345.221</ele>
        <time>2015-08-22T12:20:16Z</time>
      </trkpt>
      <trkpt lat="45.44159" lon="7.01454">
        <ele>2345.221</ele>
        <time>2015-08-22T12:20:21Z</time>
      </trkpt>
      <trkpt lat="45.44152" lon="7.01464">
        <ele>2345.9353</ele>
        <time>2015-08-22T12:20:36Z</time>
      </trkpt>
      <trkpt lat="45.44152" lon="7.01464">
        <ele>2345.9353</ele>
        <time>2015-08-22T12:20:41Z</time>
      </trkpt>
      <trkpt lat="45.44147" lon="7.0147">
        <ele>2345.9353</ele>
        <time>2015-08-22T12:20:51Z</time>
      </trkpt>
      <trkpt lat="45.44147" lon="7.0147">
        <ele>2345.9353</ele>
        <time>2015-08-22T12:20:56Z</time>
      </trkpt>
      <trkpt lat="45.44143" lon="7.01473">
        <ele>2346.8599</ele>
        <time>2015-08-22T12:21:21Z</time>
      </trkpt>
      <trkpt lat="45.44142" lon="7.01474">
        <ele>2346.8599</ele>
        <time>2015-08-22T12:21:26Z</time>
      </trkpt>
      <trkpt lat="45.44137" lon="7.01478">
        <ele>2346.8599</ele>
        <time>2015-08-22T12:21:36Z</time>
      </trkpt>
      <trkpt lat="45.44132" lon="7.01482">
        <ele>2348.2131</ele>
        <time>2015-08-22T12:21:41Z</time>
      </trkpt>
      <trkpt lat="45.44127" lon="7.01488">
        <ele>2348.2131</ele>
        <time>2015-08-22T12:21:51Z</time>
      </trkpt>
      <trkpt lat="45.44127" lon="7.01488">
        <ele>2348.2131</ele>
        <time>2015-08-22T12:21:56Z</time>
      </trkpt>
      <trkpt lat="45.44124" lon="7.01494">
        <ele>2349.735</ele>
        <time>2015-08-22T12:22:06Z</time>
      </trkpt>
      <trkpt lat="45.44124" lon="7.01494">
        <ele>2349.735</ele>
        <time>2015-08-22T12:22:11Z</time>
      </trkpt>
      <trkpt lat="45.44116" lon="7.01499">
        <ele>2349.735</ele>
        <time>2015-08-22T12:22:26Z</time>
      </trkpt>
      <trkpt lat="45.44114" lon="7.015">
        <ele>2351.5593</ele>
        <time>2015-08-22T12:22:31Z</time>
      </trkpt>
      <trkpt lat="45.4411" lon="7.01506">
        <ele>2351.5593</ele>
        <time>2015-08-22T12:22:41Z</time>
      </trkpt>
      <trkpt lat="45.44106" lon="7.01511">
        <ele>2353.0293</ele>
        <time>2015-08-22T12:22:46Z</time>
      </trkpt>
      <trkpt lat="45.44105" lon="7.01524">
        <ele>2354.0725</ele>
        <time>2015-08-22T12:22:56Z</time>
      </trkpt>
      <trkpt lat="45.44103" lon="7.01526">
        <ele>2354.0725</ele>
        <time>2015-08-22T12:23:01Z</time>
      </trkpt>
      <trkpt lat="45.44101" lon="7.01527">
        <ele>2354.0725</ele>
        <time>2015-08-22T12:23:11Z</time>
      </trkpt>
      <trkpt lat="45.44101" lon="7.01529">
        <ele>2354.0725</ele>
        <time>2015-08-22T12:23:16Z</time>
      </trkpt>
      <trkpt lat="45.44096" lon="7.01529">
        <ele>2354.8374</ele>
        <time>2015-08-22T12:23:26Z</time>
      </trkpt>
      <trkpt lat="45.44097" lon="7.01535">
        <ele>2354.8374</ele>
        <time>2015-08-22T12:23:31Z</time>
      </trkpt>
      <trkpt lat="45.44092" lon="7.01542">
        <ele>2355.5503</ele>
        <time>2015-08-22T12:23:41Z</time>
      </trkpt>
      <trkpt lat="45.44092" lon="7.01543">
        <ele>2355.5503</ele>
        <time>2015-08-22T12:23:46Z</time>
      </trkpt>
      <trkpt lat="45.44092" lon="7.01542">
        <ele>2355.5503</ele>
        <time>2015-08-22T12:25:06Z</time>
      </trkpt>
      <trkpt lat="45.44092" lon="7.01542">
        <ele>2355.5503</ele>
        <time>2015-08-22T12:25:11Z</time>
      </trkpt>
      <trkpt lat="45.4409" lon="7.01544">
        <ele>2355.5503</ele>
        <time>2015-08-22T12:58:32Z</time>
      </trkpt>
      <trkpt lat="45.44084" lon="7.01546">
        <ele>2357.2407</ele>
        <time>2015-08-22T12:58:37Z</time>
      </trkpt>
      <trkpt lat="45.44077" lon="7.0155">
        <ele>2357.2407</ele>
        <time>2015-08-22T12:58:47Z</time>
      </trkpt>
      <trkpt lat="45.44073" lon="7.01552">
        <ele>2358.5269</ele>
        <time>2015-08-22T12:58:52Z</time>
      </trkpt>
      <trkpt lat="45.44067" lon="7.01554">
        <ele>2358.5269</ele>
        <time>2015-08-22T12:59:02Z</time>
      </trkpt>
      <trkpt lat="45.44067" lon="7.01554">
        <ele>2358.5269</ele>
        <time>2015-08-22T12:59:07Z</time>
      </trkpt>
      <trkpt lat="45.44061" lon="7.01558">
        <ele>2359.7852</ele>
        <time>2015-08-22T12:59:32Z</time>
      </trkpt>
      <trkpt lat="45.44058" lon="7.0156">
        <ele>2359.7852</ele>
        <time>2015-08-22T12:59:37Z</time>
      </trkpt>
      <trkpt lat="45.44054" lon="7.01565">
        <ele>2359.7852</ele>
        <time>2015-08-22T12:59:47Z</time>
      </trkpt>
      <trkpt lat="45.44051" lon="7.01569">
        <ele>2360.8037</ele>
        <time>2015-08-22T12:59:52Z</time>
      </trkpt>
      <trkpt lat="45.44044" lon="7.01578">
        <ele>2360.8037</ele>
        <time>2015-08-22T13:00:02Z</time>
      </trkpt>
      <trkpt lat="45.4404" lon="7.01583">
        <ele>2361.7317</ele>
        <time>2015-08-22T13:00:07Z</time>
      </trkpt>
      <trkpt lat="45.44034" lon="7.01588">
        <ele>2361.7317</ele>
        <time>2015-08-22T13:00:17Z</time>
      </trkpt>
      <trkpt lat="45.4403" lon="7.01592">
        <ele>2362.405</ele>
        <time>2015-08-22T13:00:22Z</time>
      </trkpt>
      <trkpt lat="45.44025" lon="7.01604">
        <ele>2362.9756</ele>
        <time>2015-08-22T13:00:37Z</time>
      </trkpt>
      <trkpt lat="45.4402" lon="7.01606">
        <ele>2362.9756</ele>
        <time>2015-08-22T13:00:42Z</time>
      </trkpt>
      <trkpt lat="45.44015" lon="7.01618">
        <ele>2363.2234</ele>
        <time>2015-08-22T13:00:52Z</time>
      </trkpt>
      <trkpt lat="45.44014" lon="7.01625">
        <ele>2363.2234</ele>
        <time>2015-08-22T13:00:57Z</time>
      </trkpt>
      <trkpt lat="45.44011" lon="7.01633">
        <ele>2363.5364</ele>
        <time>2015-08-22T13:01:07Z</time>
      </trkpt>
      <trkpt lat="45.44009" lon="7.01638">
        <ele>2363.5364</ele>
        <time>2015-08-22T13:01:12Z</time>
      </trkpt>
      <trkpt lat="45.44005" lon="7.01644">
        <ele>2363.9136</ele>
        <time>2015-08-22T13:01:22Z</time>
      </trkpt>
      <trkpt lat="45.44003" lon="7.01647">
        <ele>2363.9136</ele>
        <time>2015-08-22T13:01:27Z</time>
      </trkpt>
      <trkpt lat="45.43997" lon="7.01651">
        <ele>2364.3394</ele>
        <time>2015-08-22T13:01:37Z</time>
      </trkpt>
      <trkpt lat="45.43994" lon="7.01654">
        <ele>2364.3394</ele>
        <time>2015-08-22T13:01:42Z</time>
      </trkpt>
      <trkpt lat="45.43987" lon="7.01655">
        <ele>2364.9146</ele>
        <time>2015-08-22T13:01:52Z</time>
      </trkpt>
      <trkpt lat="45.43985" lon="7.01656">
        <ele>2364.9146</ele>
        <time>2015-08-22T13:01:57Z</time>
      </trkpt>
      <trkpt lat="45.43977" lon="7.01656">
        <ele>2365.3423</ele>
        <time>2015-08-22T13:02:07Z</time>
      </trkpt>
      <trkpt lat="45.43974" lon="7.01659">
        <ele>2365.3423</ele>
        <time>2015-08-22T13:02:12Z</time>
      </trkpt>
      <trkpt lat="45.43972" lon="7.01662">
        <ele>2365.3423</ele>
        <time>2015-08-22T13:02:22Z</time>
      </trkpt>
      <trkpt lat="45.43971" lon="7.01663">
        <ele>2365.3423</ele>
        <time>2015-08-22T13:02:27Z</time>
      </trkpt>
      <trkpt lat="45.43968" lon="7.01667">
        <ele>2366.0688</ele>
        <time>2015-08-22T13:02:37Z</time>
      </trkpt>
      <trkpt lat="45.43966" lon="7.01669">
        <ele>2366.0688</ele>
        <time>2015-08-22T13:02:42Z</time>
      </trkpt>
      <trkpt lat="45.43961" lon="7.01669">
        <ele>2366.0688</ele>
        <time>2015-08-22T13:02:52Z</time>
      </trkpt>
      <trkpt lat="45.43957" lon="7.0167">
        <ele>2366.8584</ele>
        <time>2015-08-22T13:02:57Z</time>
      </trkpt>
      <trkpt lat="45.43952" lon="7.01669">
        <ele>2366.8584</ele>
        <time>2015-08-22T13:03:07Z</time>
      </trkpt>
      <trkpt lat="45.43951" lon="7.0167">
        <ele>2366.8584</ele>
        <time>2015-08-22T13:03:12Z</time>
      </trkpt>
      <trkpt lat="45.43948" lon="7.01665">
        <ele>2367.78</ele>
        <time>2015-08-22T13:03:22Z</time>
      </trkpt>
      <trkpt lat="45.43944" lon="7.01663">
        <ele>2367.78</ele>
        <time>2015-08-22T13:03:27Z</time>
      </trkpt>
      <trkpt lat="45.43941" lon="7.01663">
        <ele>2367.78</ele>
        <time>2015-08-22T13:03:37Z</time>
      </trkpt>
      <trkpt lat="45.43941" lon="7.01664">
        <ele>2367.78</ele>
        <time>2015-08-22T13:03:42Z</time>
      </trkpt>
      <trkpt lat="45.43939" lon="7.01664">
        <ele>2369.2725</ele>
        <time>2015-08-22T13:03:57Z</time>
      </trkpt>
      <trkpt lat="45.43934" lon="7.01666">
        <ele>2369.2725</ele>
        <time>2015-08-22T13:04:02Z</time>
      </trkpt>
      <trkpt lat="45.43922" lon="7.01677">
        <ele>2370.8176</ele>
        <time>2015-08-22T13:04:12Z</time>
      </trkpt>
      <trkpt lat="45.43922" lon="7.01677">
        <ele>2370.8176</ele>
        <time>2015-08-22T13:04:17Z</time>
      </trkpt>
      <trkpt lat="45.43916" lon="7.01686">
        <ele>2372.656</ele>
        <time>2015-08-22T13:04:27Z</time>
      </trkpt>
      <trkpt lat="45.43916" lon="7.01689">
        <ele>2372.656</ele>
        <time>2015-08-22T13:04:32Z</time>
      </trkpt>
      <trkpt lat="45.43915" lon="7.01694">
        <ele>2372.656</ele>
        <time>2015-08-22T13:04:42Z</time>
      </trkpt>
      <trkpt lat="45.43912" lon="7.01694">
        <ele>2374.6929</ele>
        <time>2015-08-22T13:04:47Z</time>
      </trkpt>
      <trkpt lat="45.43906" lon="7.01695">
        <ele>2374.6929</ele>
        <time>2015-08-22T13:04:57Z</time>
      </trkpt>
      <trkpt lat="45.43904" lon="7.01699">
        <ele>2376.522</ele>
        <time>2015-08-22T13:05:02Z</time>
      </trkpt>
      <trkpt lat="45.43903" lon="7.01705">
        <ele>2376.522</ele>
        <time>2015-08-22T13:05:12Z</time>
      </trkpt>
      <trkpt lat="45.43903" lon="7.01706">
        <ele>2376.522</ele>
        <time>2015-08-22T13:05:17Z</time>
      </trkpt>
      <trkpt lat="45.43898" lon="7.01706">
        <ele>2378.849</ele>
        <time>2015-08-22T13:05:27Z</time>
      </trkpt>
      <trkpt lat="45.43896" lon="7.01707">
        <ele>2378.849</ele>
        <time>2015-08-22T13:05:32Z</time>
      </trkpt>
      <trkpt lat="45.43892" lon="7.01709">
        <ele>2378.849</ele>
        <time>2015-08-22T13:05:42Z</time>
      </trkpt>
      <trkpt lat="45.43889" lon="7.01709">
        <ele>2381.1448</ele>
        <time>2015-08-22T13:05:47Z</time>
      </trkpt>
      <trkpt lat="45.43886" lon="7.0171">
        <ele>2381.1448</ele>
        <time>2015-08-22T13:05:57Z</time>
      </trkpt>
      <trkpt lat="45.43886" lon="7.0171">
        <ele>2381.1448</ele>
        <time>2015-08-22T13:06:02Z</time>
      </trkpt>
      <trkpt lat="45.43885" lon="7.01711">
        <ele>2381.1448</ele>
        <time>2015-08-22T13:06:12Z</time>
      </trkpt>
      <trkpt lat="45.43884" lon="7.0171">
        <ele>2381.1448</ele>
        <time>2015-08-22T13:06:17Z</time>
      </trkpt>
      <trkpt lat="45.43881" lon="7.0171">
        <ele>2381.1448</ele>
        <time>2015-08-22T13:06:27Z</time>
      </trkpt>
      <trkpt lat="45.43872" lon="7.0171">
        <ele>2383.9124</ele>
        <time>2015-08-22T13:06:47Z</time>
      </trkpt>
      <trkpt lat="45.4387" lon="7.01709">
        <ele>2383.9124</ele>
        <time>2015-08-22T13:06:52Z</time>
      </trkpt>
      <trkpt lat="45.43869" lon="7.01709">
        <ele>2383.9124</ele>
        <time>2015-08-22T13:07:02Z</time>
      </trkpt>
      <trkpt lat="45.43866" lon="7.0171">
        <ele>2383.9124</ele>
        <time>2015-08-22T13:07:07Z</time>
      </trkpt>
      <trkpt lat="45.43862" lon="7.01712">
        <ele>2386.7097</ele>
        <time>2015-08-22T13:07:17Z</time>
      </trkpt>
      <trkpt lat="45.43861" lon="7.01713">
        <ele>2386.7097</ele>
        <time>2015-08-22T13:07:22Z</time>
      </trkpt>
      <trkpt lat="45.43848" lon="7.01714">
        <ele>2389.487</ele>
        <time>2015-08-22T13:07:32Z</time>
      </trkpt>
      <trkpt lat="45.43847" lon="7.01714">
        <ele>2389.487</ele>
        <time>2015-08-22T13:07:37Z</time>
      </trkpt>
      <trkpt lat="45.4384" lon="7.01715">
        <ele>2389.487</ele>
        <time>2015-08-22T13:07:47Z</time>
      </trkpt>
      <trkpt lat="45.43835" lon="7.01716">
        <ele>2392.068</ele>
        <time>2015-08-22T13:07:52Z</time>
      </trkpt>
      <trkpt lat="45.43829" lon="7.01718">
        <ele>2392.068</ele>
        <time>2015-08-22T13:08:02Z</time>
      </trkpt>
      <trkpt lat="45.43825" lon="7.01718">
        <ele>2394.3345</ele>
        <time>2015-08-22T13:08:07Z</time>
      </trkpt>
      <trkpt lat="45.43815" lon="7.01726">
        <ele>2396.1907</ele>
        <time>2015-08-22T13:08:22Z</time>
      </trkpt>
      <trkpt lat="45.43813" lon="7.01727">
        <ele>2396.1907</ele>
        <time>2015-08-22T13:08:27Z</time>
      </trkpt>
      <trkpt lat="45.43808" lon="7.01732">
        <ele>2396.1907</ele>
        <time>2015-08-22T13:08:37Z</time>
      </trkpt>
      <trkpt lat="45.43808" lon="7.01733">
        <ele>2396.1907</ele>
        <time>2015-08-22T13:08:42Z</time>
      </trkpt>
      <trkpt lat="45.43804" lon="7.01738">
        <ele>2398.1985</ele>
        <time>2015-08-22T13:08:52Z</time>
      </trkpt>
      <trkpt lat="45.43802" lon="7.0174">
        <ele>2398.1985</ele>
        <time>2015-08-22T13:08:57Z</time>
      </trkpt>
      <trkpt lat="45.43795" lon="7.01744">
        <ele>2400.1143</ele>
        <time>2015-08-22T13:09:07Z</time>
      </trkpt>
      <trkpt lat="45.43791" lon="7.01745">
        <ele>2400.1143</ele>
        <time>2015-08-22T13:09:12Z</time>
      </trkpt>
      <trkpt lat="45.43786" lon="7.01748">
        <ele>2402.1301</ele>
        <time>2015-08-22T13:09:22Z</time>
      </trkpt>
      <trkpt lat="45.43784" lon="7.01754">
        <ele>2402.1301</ele>
        <time>2015-08-22T13:09:27Z</time>
      </trkpt>
      <trkpt lat="45.43783" lon="7.01759">
        <ele>2402.1301</ele>
        <time>2015-08-22T13:09:37Z</time>
      </trkpt>
      <trkpt lat="45.43783" lon="7.01761">
        <ele>2404.2227</ele>
        <time>2015-08-22T13:09:42Z</time>
      </trkpt>
      <trkpt lat="45.43782" lon="7.01766">
        <ele>2404.2227</ele>
        <time>2015-08-22T13:09:57Z</time>
      </trkpt>
      <trkpt lat="45.43779" lon="7.01764">
        <ele>2404.2227</ele>
        <time>2015-08-22T13:10:02Z</time>
      </trkpt>
      <trkpt lat="45.43774" lon="7.01765">
        <ele>2406.6143</ele>
        <time>2015-08-22T13:10:12Z</time>
      </trkpt>
      <trkpt lat="45.43773" lon="7.01762">
        <ele>2406.6143</ele>
        <time>2015-08-22T13:10:17Z</time>
      </trkpt>
      <trkpt lat="45.43769" lon="7.01758">
        <ele>2406.6143</ele>
        <time>2015-08-22T13:10:27Z</time>
      </trkpt>
      <trkpt lat="45.43769" lon="7.01758">
        <ele>2406.6143</ele>
        <time>2015-08-22T13:10:32Z</time>
      </trkpt>
      <trkpt lat="45.43767" lon="7.01757">
        <ele>2409.0208</ele>
        <time>2015-08-22T13:10:42Z</time>
      </trkpt>
      <trkpt lat="45.43765" lon="7.01756">
        <ele>2409.0208</ele>
        <time>2015-08-22T13:10:47Z</time>
      </trkpt>
      <trkpt lat="45.43765" lon="7.01756">
        <ele>2409.0208</ele>
        <time>2015-08-22T13:10:57Z</time>
      </trkpt>
      <trkpt lat="45.43765" lon="7.01756">
        <ele>2409.0208</ele>
        <time>2015-08-22T13:11:17Z</time>
      </trkpt>
      <trkpt lat="45.43765" lon="7.01756">
        <ele>2409.0208</ele>
        <time>2015-08-22T13:11:27Z</time>
      </trkpt>
      <trkpt lat="45.43764" lon="7.01755">
        <ele>2409.0208</ele>
        <time>2015-08-22T13:12:17Z</time>
      </trkpt>
      <trkpt lat="45.4376" lon="7.01754">
        <ele>2409.0208</ele>
        <time>2015-08-22T13:12:22Z</time>
      </trkpt>
      <trkpt lat="45.43759" lon="7.01754">
        <ele>2409.0208</ele>
        <time>2015-08-22T13:12:32Z</time>
      </trkpt>
      <trkpt lat="45.43754" lon="7.01754">
        <ele>2411.9568</ele>
        <time>2015-08-22T13:12:37Z</time>
      </trkpt>
      <trkpt lat="45.43748" lon="7.01752">
        <ele>2411.9568</ele>
        <time>2015-08-22T13:12:47Z</time>
      </trkpt>
      <trkpt lat="45.43748" lon="7.01751">
        <ele>2411.9568</ele>
        <time>2015-08-22T13:12:52Z</time>
      </trkpt>
      <trkpt lat="45.43744" lon="7.01745">
        <ele>2414.9902</ele>
        <time>2015-08-22T13:13:02Z</time>
      </trkpt>
      <trkpt lat="45.43743" lon="7.01744">
        <ele>2414.9902</ele>
        <time>2015-08-22T13:13:07Z</time>
      </trkpt>
      <trkpt lat="45.43737" lon="7.0174">
        <ele>2414.9902</ele>
        <time>2015-08-22T13:13:17Z</time>
      </trkpt>
      <trkpt lat="45.43737" lon="7.0174">
        <ele>2414.9902</ele>
        <time>2015-08-22T13:13:22Z</time>
      </trkpt>
      <trkpt lat="45.43731" lon="7.01741">
        <ele>2418.3542</ele>
        <time>2015-08-22T13:13:57Z</time>
      </trkpt>
      <trkpt lat="45.43726" lon="7.01744">
        <ele>2418.3542</ele>
        <time>2015-08-22T13:14:07Z</time>
      </trkpt>
      <trkpt lat="45.43726" lon="7.01744">
        <ele>2418.3542</ele>
        <time>2015-08-22T13:14:12Z</time>
      </trkpt>
      <trkpt lat="45.43724" lon="7.01743">
        <ele>2418.3542</ele>
        <time>2015-08-22T13:14:42Z</time>
      </trkpt>
      <trkpt lat="45.43724" lon="7.01743">
        <ele>2418.3542</ele>
        <time>2015-08-22T13:14:52Z</time>
      </trkpt>
      <trkpt lat="45.43719" lon="7.01742">
        <ele>2422.0625</ele>
        <time>2015-08-22T13:14:57Z</time>
      </trkpt>
      <trkpt lat="45.43714" lon="7.01743">
        <ele>2422.0625</ele>
        <time>2015-08-22T13:15:07Z</time>
      </trkpt>
      <trkpt lat="45.43714" lon="7.01743">
        <ele>2422.0625</ele>
        <time>2015-08-22T13:15:12Z</time>
      </trkpt>
      <trkpt lat="45.4371" lon="7.01745">
        <ele>2422.0625</ele>
        <time>2015-08-22T13:15:22Z</time>
      </trkpt>
      <trkpt lat="45.43709" lon="7.01745">
        <ele>2425.9531</ele>
        <time>2015-08-22T13:15:27Z</time>
      </trkpt>
      <trkpt lat="45.43707" lon="7.01746">
        <ele>2425.9531</ele>
        <time>2015-08-22T13:15:42Z</time>
      </trkpt>
      <trkpt lat="45.43706" lon="7.01747">
        <ele>2425.9531</ele>
        <time>2015-08-22T13:15:57Z</time>
      </trkpt>
      <trkpt lat="45.43704" lon="7.01752">
        <ele>2425.9531</ele>
        <time>2015-08-22T13:16:02Z</time>
      </trkpt>
      <trkpt lat="45.43704" lon="7.01752">
        <ele>2425.9531</ele>
        <time>2015-08-22T13:16:12Z</time>
      </trkpt>
      <trkpt lat="45.43692" lon="7.01759">
        <ele>2430.756</ele>
        <time>2015-08-22T13:17:42Z</time>
      </trkpt>
      <trkpt lat="45.43688" lon="7.01758">
        <ele>2430.756</ele>
        <time>2015-08-22T13:17:47Z</time>
      </trkpt>
      <trkpt lat="45.43683" lon="7.01761">
        <ele>2435.4006</ele>
        <time>2015-08-22T13:17:57Z</time>
      </trkpt>
      <trkpt lat="45.4368" lon="7.01763">
        <ele>2435.4006</ele>
        <time>2015-08-22T13:18:02Z</time>
      </trkpt>
      <trkpt lat="45.43678" lon="7.01764">
        <ele>2435.4006</ele>
        <time>2015-08-22T13:18:12Z</time>
      </trkpt>
      <trkpt lat="45.43677" lon="7.01765">
        <ele>2435.4006</ele>
        <time>2015-08-22T13:18:17Z</time>
      </trkpt>
      <trkpt lat="45.43675" lon="7.01765">
        <ele>2435.4006</ele>
        <time>2015-08-22T13:18:32Z</time>
      </trkpt>
      <trkpt lat="45.43674" lon="7.01766">
        <ele>2440.2354</ele>
        <time>2015-08-22T13:18:37Z</time>
      </trkpt>
      <trkpt lat="45.43673" lon="7.01767">
        <ele>2440.2354</ele>
        <time>2015-08-22T13:18:47Z</time>
      </trkpt>
      <trkpt lat="45.43674" lon="7.01769">
        <ele>2440.2354</ele>
        <time>2015-08-22T13:18:52Z</time>
      </trkpt>
      <trkpt lat="45.43674" lon="7.01769">
        <ele>2440.2354</ele>
        <time>2015-08-22T13:19:02Z</time>
      </trkpt>
      <trkpt lat="45.43672" lon="7.01769">
        <ele>2440.2354</ele>
        <time>2015-08-22T13:19:37Z</time>
      </trkpt>
      <trkpt lat="45.4367" lon="7.01769">
        <ele>2440.2354</ele>
        <time>2015-08-22T13:19:47Z</time>
      </trkpt>
      <trkpt lat="45.43669" lon="7.01771">
        <ele>2445.497</ele>
        <time>2015-08-22T13:19:52Z</time>
      </trkpt>
      <trkpt lat="45.43665" lon="7.01775">
        <ele>2445.497</ele>
        <time>2015-08-22T13:20:02Z</time>
      </trkpt>
      <trkpt lat="45.43664" lon="7.01777">
        <ele>2445.497</ele>
        <time>2015-08-22T13:20:07Z</time>
      </trkpt>
      <trkpt lat="45.43662" lon="7.01778">
        <ele>2445.497</ele>
        <time>2015-08-22T13:20:17Z</time>
      </trkpt>
      <trkpt lat="45.4366" lon="7.01779">
        <ele>2450.6975</ele>
        <time>2015-08-22T13:20:22Z</time>
      </trkpt>
      <trkpt lat="45.4366" lon="7.01779">
        <ele>2450.6975</ele>
        <time>2015-08-22T13:20:32Z</time>
      </trkpt>
      <trkpt lat="45.43659" lon="7.01781">
        <ele>2450.6975</ele>
        <time>2015-08-22T13:20:52Z</time>
      </trkpt>
      <trkpt lat="45.43657" lon="7.01786">
        <ele>2450.6975</ele>
        <time>2015-08-22T13:21:02Z</time>
      </trkpt>
      <trkpt lat="45.43656" lon="7.01788">
        <ele>2450.6975</ele>
        <time>2015-08-22T13:21:17Z</time>
      </trkpt>
      <trkpt lat="45.43655" lon="7.01791">
        <ele>2455.803</ele>
        <time>2015-08-22T13:22:07Z</time>
      </trkpt>
      <trkpt lat="45.43655" lon="7.01791">
        <ele>2455.803</ele>
        <time>2015-08-22T13:22:12Z</time>
      </trkpt>
      <trkpt lat="45.43641" lon="7.01811">
        <ele>2460.6812</ele>
        <time>2015-08-22T13:22:22Z</time>
      </trkpt>
      <trkpt lat="45.43641" lon="7.01811">
        <ele>2460.6812</ele>
        <time>2015-08-22T13:22:27Z</time>
      </trkpt>
      <trkpt lat="45.43638" lon="7.01815">
        <ele>2460.6812</ele>
        <time>2015-08-22T13:22:37Z</time>
      </trkpt>
      <trkpt lat="45.43634" lon="7.01818">
        <ele>2460.6812</ele>
        <time>2015-08-22T13:22:42Z</time>
      </trkpt>
      <trkpt lat="45.43625" lon="7.01826">
        <ele>2465.5134</ele>
        <time>2015-08-22T13:22:52Z</time>
      </trkpt>
      <trkpt lat="45.43623" lon="7.0183">
        <ele>2465.5134</ele>
        <time>2015-08-22T13:22:57Z</time>
      </trkpt>
      <trkpt lat="45.43619" lon="7.01835">
        <ele>2470.007</ele>
        <time>2015-08-22T13:23:07Z</time>
      </trkpt>
      <trkpt lat="45.43616" lon="7.01837">
        <ele>2470.007</ele>
        <time>2015-08-22T13:23:12Z</time>
      </trkpt>
      <trkpt lat="45.43613" lon="7.01844">
        <ele>2470.007</ele>
        <time>2015-08-22T13:23:22Z</time>
      </trkpt>
      <trkpt lat="45.43613" lon="7.01846">
        <ele>2474.3242</ele>
        <time>2015-08-22T13:23:27Z</time>
      </trkpt>
      <trkpt lat="45.43613" lon="7.01848">
        <ele>2474.3242</ele>
        <time>2015-08-22T13:23:37Z</time>
      </trkpt>
      <trkpt lat="45.43611" lon="7.01852">
        <ele>2474.3242</ele>
        <time>2015-08-22T13:23:42Z</time>
      </trkpt>
      <trkpt lat="45.43608" lon="7.0185">
        <ele>2474.3242</ele>
        <time>2015-08-22T13:23:52Z</time>
      </trkpt>
      <trkpt lat="45.43606" lon="7.01848">
        <ele>2478.4</ele>
        <time>2015-08-22T13:23:57Z</time>
      </trkpt>
      <trkpt lat="45.43603" lon="7.01853">
        <ele>2478.4</ele>
        <time>2015-08-22T13:24:07Z</time>
      </trkpt>
      <trkpt lat="45.43604" lon="7.01857">
        <ele>2478.4</ele>
        <time>2015-08-22T13:24:12Z</time>
      </trkpt>
      <trkpt lat="45.43602" lon="7.01862">
        <ele>2482.2317</ele>
        <time>2015-08-22T13:24:22Z</time>
      </trkpt>
      <trkpt lat="45.43601" lon="7.01864">
        <ele>2482.2317</ele>
        <time>2015-08-22T13:24:27Z</time>
      </trkpt>
      <trkpt lat="45.43597" lon="7.01868">
        <ele>2482.2317</ele>
        <time>2015-08-22T13:24:42Z</time>
      </trkpt>
      <trkpt lat="45.43594" lon="7.01868">
        <ele>2485.8047</ele>
        <time>2015-08-22T13:24:47Z</time>
      </trkpt>
      <trkpt lat="45.4359" lon="7.01869">
        <ele>2485.8047</ele>
        <time>2015-08-22T13:24:57Z</time>
      </trkpt>
      <trkpt lat="45.43588" lon="7.0187">
        <ele>2485.8047</ele>
        <time>2015-08-22T13:25:02Z</time>
      </trkpt>
      <trkpt lat="45.43585" lon="7.0187">
        <ele>2489.3655</ele>
        <time>2015-08-22T13:25:12Z</time>
      </trkpt>
      <trkpt lat="45.43583" lon="7.01871">
        <ele>2489.3655</ele>
        <time>2015-08-22T13:25:17Z</time>
      </trkpt>
      <trkpt lat="45.43579" lon="7.01873">
        <ele>2489.3655</ele>
        <time>2015-08-22T13:25:27Z</time>
      </trkpt>
      <trkpt lat="45.43576" lon="7.01875">
        <ele>2492.8682</ele>
        <time>2015-08-22T13:25:32Z</time>
      </trkpt>
      <trkpt lat="45.43571" lon="7.01879">
        <ele>2492.8682</ele>
        <time>2015-08-22T13:25:42Z</time>
      </trkpt>
      <trkpt lat="45.43569" lon="7.01881">
        <ele>2492.8682</ele>
        <time>2015-08-22T13:25:47Z</time>
      </trkpt>
      <trkpt lat="45.43568" lon="7.01885">
        <ele>2496.3574</ele>
        <time>2015-08-22T13:26:02Z</time>
      </trkpt>
      <trkpt lat="45.43566" lon="7.01886">
        <ele>2496.3574</ele>
        <time>2015-08-22T13:26:07Z</time>
      </trkpt>
      <trkpt lat="45.43564" lon="7.01886">
        <ele>2496.3574</ele>
        <time>2015-08-22T13:26:17Z</time>
      </trkpt>
      <trkpt lat="45.43563" lon="7.01885">
        <ele>2496.3574</ele>
        <time>2015-08-22T13:26:22Z</time>
      </trkpt>
      <trkpt lat="45.4356" lon="7.01886">
        <ele>2496.3574</ele>
        <time>2015-08-22T13:26:32Z</time>
      </trkpt>
      <trkpt lat="45.43559" lon="7.01887">
        <ele>2500.0486</ele>
        <time>2015-08-22T13:26:37Z</time>
      </trkpt>
      <trkpt lat="45.43555" lon="7.01888">
        <ele>2500.0486</ele>
        <time>2015-08-22T13:26:47Z</time>
      </trkpt>
      <trkpt lat="45.43555" lon="7.01887">
        <ele>2500.0486</ele>
        <time>2015-08-22T13:26:52Z</time>
      </trkpt>
      <trkpt lat="45.43555" lon="7.01892">
        <ele>2500.0486</ele>
        <time>2015-08-22T13:27:02Z</time>
      </trkpt>
      <trkpt lat="45.43554" lon="7.01894">
        <ele>2503.275</ele>
        <time>2015-08-22T13:27:07Z</time>
      </trkpt>
      <trkpt lat="45.43547" lon="7.01895">
        <ele>2503.275</ele>
        <time>2015-08-22T13:27:17Z</time>
      </trkpt>
      <trkpt lat="45.43546" lon="7.01893">
        <ele>2506.2998</ele>
        <time>2015-08-22T13:27:22Z</time>
      </trkpt>
      <trkpt lat="45.43542" lon="7.01895">
        <ele>2506.2998</ele>
        <time>2015-08-22T13:27:32Z</time>
      </trkpt>
      <trkpt lat="45.43538" lon="7.01898">
        <ele>2506.2998</ele>
        <time>2015-08-22T13:27:37Z</time>
      </trkpt>
      <trkpt lat="45.43531" lon="7.01905">
        <ele>2509.2388</ele>
        <time>2015-08-22T13:27:52Z</time>
      </trkpt>
      <trkpt lat="45.43529" lon="7.01907">
        <ele>2509.2388</ele>
        <time>2015-08-22T13:27:57Z</time>
      </trkpt>
      <trkpt lat="45.43526" lon="7.01908">
        <ele>2509.2388</ele>
        <time>2015-08-22T13:28:07Z</time>
      </trkpt>
      <trkpt lat="45.43528" lon="7.01905">
        <ele>2509.2388</ele>
        <time>2015-08-22T13:28:12Z</time>
      </trkpt>
      <trkpt lat="45.43529" lon="7.01908">
        <ele>2511.7947</ele>
        <time>2015-08-22T13:28:22Z</time>
      </trkpt>
      <trkpt lat="45.43526" lon="7.01908">
        <ele>2511.7947</ele>
        <time>2015-08-22T13:28:27Z</time>
      </trkpt>
      <trkpt lat="45.43531" lon="7.01903">
        <ele>2511.7947</ele>
        <time>2015-08-22T13:28:37Z</time>
      </trkpt>
      <trkpt lat="45.43529" lon="7.01905">
        <ele>2513.8962</ele>
        <time>2015-08-22T13:28:42Z</time>
      </trkpt>
      <trkpt lat="45.43523" lon="7.01907">
        <ele>2513.8962</ele>
        <time>2015-08-22T13:28:52Z</time>
      </trkpt>
      <trkpt lat="45.43516" lon="7.0191">
        <ele>2515.824</ele>
        <time>2015-08-22T13:28:57Z</time>
      </trkpt>
      <trkpt lat="45.43508" lon="7.01915">
        <ele>2515.824</ele>
        <time>2015-08-22T13:29:07Z</time>
      </trkpt>
      <trkpt lat="45.43505" lon="7.01916">
        <ele>2517.464</ele>
        <time>2015-08-22T13:29:12Z</time>
      </trkpt>
      <trkpt lat="45.43499" lon="7.01921">
        <ele>2517.464</ele>
        <time>2015-08-22T13:29:22Z</time>
      </trkpt>
      <trkpt lat="45.43497" lon="7.01922">
        <ele>2519.0725</ele>
        <time>2015-08-22T13:29:27Z</time>
      </trkpt>
      <trkpt lat="45.43495" lon="7.01923">
        <ele>2519.0725</ele>
        <time>2015-08-22T13:29:37Z</time>
      </trkpt>
      <trkpt lat="45.43492" lon="7.01925">
        <ele>2519.0725</ele>
        <time>2015-08-22T13:29:42Z</time>
      </trkpt>
      <trkpt lat="45.43488" lon="7.01927">
        <ele>2520.6982</ele>
        <time>2015-08-22T13:29:57Z</time>
      </trkpt>
      <trkpt lat="45.43488" lon="7.01927">
        <ele>2520.6982</ele>
        <time>2015-08-22T13:30:02Z</time>
      </trkpt>
      <trkpt lat="45.43485" lon="7.01926">
        <ele>2520.6982</ele>
        <time>2015-08-22T13:30:12Z</time>
      </trkpt>
      <trkpt lat="45.43484" lon="7.01925">
        <ele>2520.6982</ele>
        <time>2015-08-22T13:30:17Z</time>
      </trkpt>
      <trkpt lat="45.43483" lon="7.01924">
        <ele>2520.6982</ele>
        <time>2015-08-22T13:30:27Z</time>
      </trkpt>
      <trkpt lat="45.43481" lon="7.01928">
        <ele>2522.2295</ele>
        <time>2015-08-22T13:30:32Z</time>
      </trkpt>
      <trkpt lat="45.43479" lon="7.01933">
        <ele>2522.2295</ele>
        <time>2015-08-22T13:30:42Z</time>
      </trkpt>
      <trkpt lat="45.43478" lon="7.01934">
        <ele>2522.2295</ele>
        <time>2015-08-22T13:30:47Z</time>
      </trkpt>
      <trkpt lat="45.43474" lon="7.01933">
        <ele>2523.6487</ele>
        <time>2015-08-22T13:30:57Z</time>
      </trkpt>
      <trkpt lat="45.4347" lon="7.01935">
        <ele>2523.6487</ele>
        <time>2015-08-22T13:31:02Z</time>
      </trkpt>
      <trkpt lat="45.43468" lon="7.01937">
        <ele>2523.6487</ele>
        <time>2015-08-22T13:31:12Z</time>
      </trkpt>
      <trkpt lat="45.43469" lon="7.01936">
        <ele>2523.6487</ele>
        <time>2015-08-22T13:31:17Z</time>
      </trkpt>
      <trkpt lat="45.43468" lon="7.01937">
        <ele>2523.6487</ele>
        <time>2015-08-22T13:31:27Z</time>
      </trkpt>
      <trkpt lat="45.43468" lon="7.01937">
        <ele>2524.9688</ele>
        <time>2015-08-22T13:31:32Z</time>
      </trkpt>
      <trkpt lat="45.43464" lon="7.01941">
        <ele>2524.9688</ele>
        <time>2015-08-22T13:31:42Z</time>
      </trkpt>
      <trkpt lat="45.43462" lon="7.01941">
        <ele>2524.9688</ele>
        <time>2015-08-22T13:31:47Z</time>
      </trkpt>
      <trkpt lat="45.43453" lon="7.01949">
        <ele>2526.2595</ele>
        <time>2015-08-22T13:32:02Z</time>
      </trkpt>
      <trkpt lat="45.43449" lon="7.01952">
        <ele>2526.2595</ele>
        <time>2015-08-22T13:32:07Z</time>
      </trkpt>
      <trkpt lat="45.43445" lon="7.01955">
        <ele>2526.2595</ele>
        <time>2015-08-22T13:32:17Z</time>
      </trkpt>
      <trkpt lat="45.43442" lon="7.01958">
        <ele>2527.7158</ele>
        <time>2015-08-22T13:32:22Z</time>
      </trkpt>
      <trkpt lat="45.43437" lon="7.01962">
        <ele>2527.7158</ele>
        <time>2015-08-22T13:32:32Z</time>
      </trkpt>
      <trkpt lat="45.43434" lon="7.01963">
        <ele>2527.7158</ele>
        <time>2015-08-22T13:32:37Z</time>
      </trkpt>
      <trkpt lat="45.43432" lon="7.01967">
        <ele>2529.143</ele>
        <time>2015-08-22T13:32:47Z</time>
      </trkpt>
      <trkpt lat="45.43431" lon="7.01968">
        <ele>2529.143</ele>
        <time>2015-08-22T13:32:52Z</time>
      </trkpt>
      <trkpt lat="45.43428" lon="7.01971">
        <ele>2529.143</ele>
        <time>2015-08-22T13:33:02Z</time>
      </trkpt>
      <trkpt lat="45.43423" lon="7.01974">
        <ele>2530.7493</ele>
        <time>2015-08-22T13:33:17Z</time>
      </trkpt>
      <trkpt lat="45.43423" lon="7.01974">
        <ele>2530.7493</ele>
        <time>2015-08-22T13:33:22Z</time>
      </trkpt>
      <trkpt lat="45.43421" lon="7.01977">
        <ele>2530.7493</ele>
        <time>2015-08-22T13:33:42Z</time>
      </trkpt>
      <trkpt lat="45.43419" lon="7.01978">
        <ele>2530.7493</ele>
        <time>2015-08-22T13:33:52Z</time>
      </trkpt>
      <trkpt lat="45.43419" lon="7.01978">
        <ele>2530.7493</ele>
        <time>2015-08-22T13:33:57Z</time>
      </trkpt>
      <trkpt lat="45.43415" lon="7.01983">
        <ele>2532.6702</ele>
        <time>2015-08-22T13:34:07Z</time>
      </trkpt>
      <trkpt lat="45.43404" lon="7.01996">
        <ele>2534.367</ele>
        <time>2015-08-22T13:34:12Z</time>
      </trkpt>
      <trkpt lat="45.43394" lon="7.02002">
        <ele>2535.9604</ele>
        <time>2015-08-22T13:34:22Z</time>
      </trkpt>
      <trkpt lat="45.43389" lon="7.02006">
        <ele>2535.9604</ele>
        <time>2015-08-22T13:34:27Z</time>
      </trkpt>
      <trkpt lat="45.43388" lon="7.0201">
        <ele>2535.9604</ele>
        <time>2015-08-22T13:34:37Z</time>
      </trkpt>
      <trkpt lat="45.43388" lon="7.02009">
        <ele>2535.9604</ele>
        <time>2015-08-22T13:34:42Z</time>
      </trkpt>
      <trkpt lat="45.43388" lon="7.02009">
        <ele>2535.9604</ele>
        <time>2015-08-22T13:34:52Z</time>
      </trkpt>
      <trkpt lat="45.43385" lon="7.0201">
        <ele>2537.6357</ele>
        <time>2015-08-22T13:35:22Z</time>
      </trkpt>
      <trkpt lat="45.43379" lon="7.02013">
        <ele>2537.6357</ele>
        <time>2015-08-22T13:35:27Z</time>
      </trkpt>
      <trkpt lat="45.43369" lon="7.02022">
        <ele>2539.246</ele>
        <time>2015-08-22T13:35:42Z</time>
      </trkpt>
      <trkpt lat="45.43366" lon="7.02023">
        <ele>2539.246</ele>
        <time>2015-08-22T13:35:47Z</time>
      </trkpt>
      <trkpt lat="45.43359" lon="7.02027">
        <ele>2540.6416</ele>
        <time>2015-08-22T13:35:57Z</time>
      </trkpt>
      <trkpt lat="45.43356" lon="7.02029">
        <ele>2540.6416</ele>
        <time>2015-08-22T13:36:02Z</time>
      </trkpt>
      <trkpt lat="45.43351" lon="7.02036">
        <ele>2541.8281</ele>
        <time>2015-08-22T13:36:12Z</time>
      </trkpt>
      <trkpt lat="45.43349" lon="7.02038">
        <ele>2541.8281</ele>
        <time>2015-08-22T13:36:17Z</time>
      </trkpt>
      <trkpt lat="45.4334" lon="7.02045">
        <ele>2542.898</ele>
        <time>2015-08-22T13:36:27Z</time>
      </trkpt>
      <trkpt lat="45.43339" lon="7.02046">
        <ele>2542.898</ele>
        <time>2015-08-22T13:36:32Z</time>
      </trkpt>
      <trkpt lat="45.43333" lon="7.02049">
        <ele>2542.898</ele>
        <time>2015-08-22T13:36:42Z</time>
      </trkpt>
      <trkpt lat="45.4333" lon="7.02052">
        <ele>2543.836</ele>
        <time>2015-08-22T13:36:47Z</time>
      </trkpt>
      <trkpt lat="45.43323" lon="7.02055">
        <ele>2543.836</ele>
        <time>2015-08-22T13:36:57Z</time>
      </trkpt>
      <trkpt lat="45.43318" lon="7.02059">
        <ele>2544.4119</ele>
        <time>2015-08-22T13:37:02Z</time>
      </trkpt>
      <trkpt lat="45.43307" lon="7.02066">
        <ele>2544.8606</ele>
        <time>2015-08-22T13:37:12Z</time>
      </trkpt>
      <trkpt lat="45.43305" lon="7.02068">
        <ele>2544.8606</ele>
        <time>2015-08-22T13:37:17Z</time>
      </trkpt>
      <trkpt lat="45.43297" lon="7.02073">
        <ele>2545.2698</ele>
        <time>2015-08-22T13:37:27Z</time>
      </trkpt>
      <trkpt lat="45.43294" lon="7.02074">
        <ele>2545.2698</ele>
        <time>2015-08-22T13:37:32Z</time>
      </trkpt>
      <trkpt lat="45.43289" lon="7.02076">
        <ele>2545.2698</ele>
        <time>2015-08-22T13:37:42Z</time>
      </trkpt>
      <trkpt lat="45.43286" lon="7.02078">
        <ele>2545.7068</ele>
        <time>2015-08-22T13:37:47Z</time>
      </trkpt>
      <trkpt lat="45.43273" lon="7.02086">
        <ele>2546.262</ele>
        <time>2015-08-22T13:38:02Z</time>
      </trkpt>
      <trkpt lat="45.43271" lon="7.02088">
        <ele>2546.262</ele>
        <time>2015-08-22T13:38:07Z</time>
      </trkpt>
      <trkpt lat="45.43265" lon="7.02093">
        <ele>2546.8604</ele>
        <time>2015-08-22T13:38:17Z</time>
      </trkpt>
      <trkpt lat="45.43263" lon="7.02095">
        <ele>2546.8604</ele>
        <time>2015-08-22T13:38:22Z</time>
      </trkpt>
      <trkpt lat="45.43257" lon="7.021">
        <ele>2547.6052</ele>
        <time>2015-08-22T13:38:32Z</time>
      </trkpt>
      <trkpt lat="45.43253" lon="7.02102">
        <ele>2547.6052</ele>
        <time>2015-08-22T13:38:37Z</time>
      </trkpt>
      <trkpt lat="45.43247" lon="7.02106">
        <ele>2548.3608</ele>
        <time>2015-08-22T13:38:47Z</time>
      </trkpt>
      <trkpt lat="45.43244" lon="7.02108">
        <ele>2548.3608</ele>
        <time>2015-08-22T13:38:52Z</time>
      </trkpt>
      <trkpt lat="45.43237" lon="7.02111">
        <ele>2549.1025</ele>
        <time>2015-08-22T13:39:02Z</time>
      </trkpt>
      <trkpt lat="45.43235" lon="7.02113">
        <ele>2549.1025</ele>
        <time>2015-08-22T13:39:07Z</time>
      </trkpt>
      <trkpt lat="45.43227" lon="7.02117">
        <ele>2549.8215</ele>
        <time>2015-08-22T13:39:17Z</time>
      </trkpt>
      <trkpt lat="45.43222" lon="7.02121">
        <ele>2549.8215</ele>
        <time>2015-08-22T13:39:22Z</time>
      </trkpt>
      <trkpt lat="45.43216" lon="7.02127">
        <ele>2550.6245</ele>
        <time>2015-08-22T13:39:32Z</time>
      </trkpt>
      <trkpt lat="45.43213" lon="7.02129">
        <ele>2550.6245</ele>
        <time>2015-08-22T13:39:37Z</time>
      </trkpt>
      <trkpt lat="45.43208" lon="7.02127">
        <ele>2550.6245</ele>
        <time>2015-08-22T13:39:47Z</time>
      </trkpt>
      <trkpt lat="45.43206" lon="7.02128">
        <ele>2551.5818</ele>
        <time>2015-08-22T13:39:52Z</time>
      </trkpt>
      <trkpt lat="45.43196" lon="7.02135">
        <ele>2552.4692</ele>
        <time>2015-08-22T13:40:07Z</time>
      </trkpt>
      <trkpt lat="45.43189" lon="7.02139">
        <ele>2552.4692</ele>
        <time>2015-08-22T13:40:12Z</time>
      </trkpt>
      <trkpt lat="45.43182" lon="7.02143">
        <ele>2553.4683</ele>
        <time>2015-08-22T13:40:22Z</time>
      </trkpt>
      <trkpt lat="45.43178" lon="7.02147">
        <ele>2553.4683</ele>
        <time>2015-08-22T13:40:27Z</time>
      </trkpt>
      <trkpt lat="45.43172" lon="7.02152">
        <ele>2554.4873</ele>
        <time>2015-08-22T13:40:37Z</time>
      </trkpt>
      <trkpt lat="45.43168" lon="7.02156">
        <ele>2554.4873</ele>
        <time>2015-08-22T13:40:42Z</time>
      </trkpt>
      <trkpt lat="45.43163" lon="7.02163">
        <ele>2555.5278</ele>
        <time>2015-08-22T13:40:52Z</time>
      </trkpt>
      <trkpt lat="45.43162" lon="7.02168">
        <ele>2555.5278</ele>
        <time>2015-08-22T13:40:57Z</time>
      </trkpt>
      <trkpt lat="45.43158" lon="7.02173">
        <ele>2556.3745</ele>
        <time>2015-08-22T13:41:07Z</time>
      </trkpt>
      <trkpt lat="45.43151" lon="7.02179">
        <ele>2556.3745</ele>
        <time>2015-08-22T13:41:12Z</time>
      </trkpt>
      <trkpt lat="45.43146" lon="7.02188">
        <ele>2557.232</ele>
        <time>2015-08-22T13:41:22Z</time>
      </trkpt>
      <trkpt lat="45.43144" lon="7.02192">
        <ele>2557.232</ele>
        <time>2015-08-22T13:41:27Z</time>
      </trkpt>
      <trkpt lat="45.43141" lon="7.02193">
        <ele>2557.232</ele>
        <time>2015-08-22T13:41:37Z</time>
      </trkpt>
      <trkpt lat="45.43141" lon="7.02193">
        <ele>2557.232</ele>
        <time>2015-08-22T13:41:42Z</time>
      </trkpt>
      <trkpt lat="45.43136" lon="7.02199">
        <ele>2558.0303</ele>
        <time>2015-08-22T13:43:42Z</time>
      </trkpt>
      <trkpt lat="45.43133" lon="7.02202">
        <ele>2558.0303</ele>
        <time>2015-08-22T13:43:47Z</time>
      </trkpt>
      <trkpt lat="45.43129" lon="7.02205">
        <ele>2558.0303</ele>
        <time>2015-08-22T13:43:57Z</time>
      </trkpt>
      <trkpt lat="45.43122" lon="7.02207">
        <ele>2558.5315</ele>
        <time>2015-08-22T13:44:02Z</time>
      </trkpt>
      <trkpt lat="45.43113" lon="7.02217">
        <ele>2558.8186</ele>
        <time>2015-08-22T13:44:12Z</time>
      </trkpt>
      <trkpt lat="45.43108" lon="7.02224">
        <ele>2558.8186</ele>
        <time>2015-08-22T13:44:17Z</time>
      </trkpt>
      <trkpt lat="45.43101" lon="7.02237">
        <ele>2559.0266</ele>
        <time>2015-08-22T13:44:27Z</time>
      </trkpt>
      <trkpt lat="45.43099" lon="7.0224">
        <ele>2559.0266</ele>
        <time>2015-08-22T13:44:32Z</time>
      </trkpt>
      <trkpt lat="45.43084" lon="7.02253">
        <ele>2559.2517</ele>
        <time>2015-08-22T13:44:47Z</time>
      </trkpt>
      <trkpt lat="45.43082" lon="7.02259">
        <ele>2559.2517</ele>
        <time>2015-08-22T13:44:52Z</time>
      </trkpt>
      <trkpt lat="45.43078" lon="7.02268">
        <ele>2559.468</ele>
        <time>2015-08-22T13:45:02Z</time>
      </trkpt>
      <trkpt lat="45.43073" lon="7.02273">
        <ele>2559.468</ele>
        <time>2015-08-22T13:45:07Z</time>
      </trkpt>
      <trkpt lat="45.43069" lon="7.02286">
        <ele>2559.6362</ele>
        <time>2015-08-22T13:45:17Z</time>
      </trkpt>
      <trkpt lat="45.43066" lon="7.0229">
        <ele>2559.6362</ele>
        <time>2015-08-22T13:45:22Z</time>
      </trkpt>
      <trkpt lat="45.43058" lon="7.02298">
        <ele>2559.7783</ele>
        <time>2015-08-22T13:45:32Z</time>
      </trkpt>
      <trkpt lat="45.43054" lon="7.02303">
        <ele>2559.7783</ele>
        <time>2015-08-22T13:45:37Z</time>
      </trkpt>
      <trkpt lat="45.43047" lon="7.02308">
        <ele>2560.0151</ele>
        <time>2015-08-22T13:45:47Z</time>
      </trkpt>
      <trkpt lat="45.43041" lon="7.02311">
        <ele>2560.0151</ele>
        <time>2015-08-22T13:45:52Z</time>
      </trkpt>
      <trkpt lat="45.43033" lon="7.02318">
        <ele>2560.4292</ele>
        <time>2015-08-22T13:46:02Z</time>
      </trkpt>
      <trkpt lat="45.43029" lon="7.02322">
        <ele>2560.4292</ele>
        <time>2015-08-22T13:46:07Z</time>
      </trkpt>
      <trkpt lat="45.4302" lon="7.02328">
        <ele>2560.9526</ele>
        <time>2015-08-22T13:46:17Z</time>
      </trkpt>
      <trkpt lat="45.43016" lon="7.0233">
        <ele>2560.9526</ele>
        <time>2015-08-22T13:46:22Z</time>
      </trkpt>
      <trkpt lat="45.43013" lon="7.02333">
        <ele>2560.9526</ele>
        <time>2015-08-22T13:46:32Z</time>
      </trkpt>
      <trkpt lat="45.43012" lon="7.02336">
        <ele>2561.565</ele>
        <time>2015-08-22T13:46:37Z</time>
      </trkpt>
      <trkpt lat="45.43004" lon="7.0235">
        <ele>2561.9878</ele>
        <time>2015-08-22T13:46:52Z</time>
      </trkpt>
      <trkpt lat="45.43" lon="7.02353">
        <ele>2561.9878</ele>
        <time>2015-08-22T13:46:57Z</time>
      </trkpt>
      <trkpt lat="45.42995" lon="7.02361">
        <ele>2562.4246</ele>
        <time>2015-08-22T13:47:07Z</time>
      </trkpt>
      <trkpt lat="45.42993" lon="7.02364">
        <ele>2562.4246</ele>
        <time>2015-08-22T13:47:12Z</time>
      </trkpt>
      <trkpt lat="45.42986" lon="7.0237">
        <ele>2562.9336</ele>
        <time>2015-08-22T13:47:22Z</time>
      </trkpt>
      <trkpt lat="45.42981" lon="7.02373">
        <ele>2562.9336</ele>
        <time>2015-08-22T13:47:27Z</time>
      </trkpt>
      <trkpt lat="45.4297" lon="7.02378">
        <ele>2563.814</ele>
        <time>2015-08-22T13:47:37Z</time>
      </trkpt>
      <trkpt lat="45.42968" lon="7.02379">
        <ele>2563.814</ele>
        <time>2015-08-22T13:47:42Z</time>
      </trkpt>
      <trkpt lat="45.42965" lon="7.0238">
        <ele>2563.814</ele>
        <time>2015-08-22T13:47:52Z</time>
      </trkpt>
      <trkpt lat="45.42959" lon="7.02382">
        <ele>2565.0535</ele>
        <time>2015-08-22T13:47:57Z</time>
      </trkpt>
      <trkpt lat="45.42947" lon="7.02384">
        <ele>2566.409</ele>
        <time>2015-08-22T13:48:07Z</time>
      </trkpt>
      <trkpt lat="45.42941" lon="7.02386">
        <ele>2566.409</ele>
        <time>2015-08-22T13:48:12Z</time>
      </trkpt>
      <trkpt lat="45.42934" lon="7.02387">
        <ele>2567.9282</ele>
        <time>2015-08-22T13:48:22Z</time>
      </trkpt>
      <trkpt lat="45.42932" lon="7.02387">
        <ele>2567.9282</ele>
        <time>2015-08-22T13:48:27Z</time>
      </trkpt>
      <trkpt lat="45.42924" lon="7.0239">
        <ele>2569.3816</ele>
        <time>2015-08-22T13:48:37Z</time>
      </trkpt>
      <trkpt lat="45.42921" lon="7.02391">
        <ele>2569.3816</ele>
        <time>2015-08-22T13:48:42Z</time>
      </trkpt>
      <trkpt lat="45.42912" lon="7.02402">
        <ele>2570.7007</ele>
        <time>2015-08-22T13:48:57Z</time>
      </trkpt>
      <trkpt lat="45.4291" lon="7.02403">
        <ele>2570.7007</ele>
        <time>2015-08-22T13:49:02Z</time>
      </trkpt>
      <trkpt lat="45.42902" lon="7.02406">
        <ele>2571.9226</ele>
        <time>2015-08-22T13:49:12Z</time>
      </trkpt>
      <trkpt lat="45.429" lon="7.02407">
        <ele>2571.9226</ele>
        <time>2015-08-22T13:49:17Z</time>
      </trkpt>
      <trkpt lat="45.42893" lon="7.02412">
        <ele>2573.1257</ele>
        <time>2015-08-22T13:49:27Z</time>
      </trkpt>
      <trkpt lat="45.42889" lon="7.02416">
        <ele>2573.1257</ele>
        <time>2015-08-22T13:49:32Z</time>
      </trkpt>
      <trkpt lat="45.42884" lon="7.0242">
        <ele>2574.368</ele>
        <time>2015-08-22T13:49:42Z</time>
      </trkpt>
      <trkpt lat="45.42879" lon="7.02421">
        <ele>2574.368</ele>
        <time>2015-08-22T13:49:47Z</time>
      </trkpt>
      <trkpt lat="45.42872" lon="7.02419">
        <ele>2575.6887</ele>
        <time>2015-08-22T13:49:57Z</time>
      </trkpt>
      <trkpt lat="45.42869" lon="7.02417">
        <ele>2575.6887</ele>
        <time>2015-08-22T13:50:02Z</time>
      </trkpt>
      <trkpt lat="45.42863" lon="7.02413">
        <ele>2576.9368</ele>
        <time>2015-08-22T13:50:12Z</time>
      </trkpt>
      <trkpt lat="45.42862" lon="7.02409">
        <ele>2576.9368</ele>
        <time>2015-08-22T13:50:17Z</time>
      </trkpt>
      <trkpt lat="45.42863" lon="7.02408">
        <ele>2576.9368</ele>
        <time>2015-08-22T13:50:32Z</time>
      </trkpt>
      <trkpt lat="45.42863" lon="7.02409">
        <ele>2576.9368</ele>
        <time>2015-08-22T13:50:37Z</time>
      </trkpt>
      <trkpt lat="45.42863" lon="7.02408">
        <ele>2576.9368</ele>
        <time>2015-08-22T13:50:47Z</time>
      </trkpt>
      <trkpt lat="45.42864" lon="7.02407">
        <ele>2576.9368</ele>
        <time>2015-08-22T13:50:52Z</time>
      </trkpt>
      <trkpt lat="45.42866" lon="7.02407">
        <ele>2578.0007</ele>
        <time>2015-08-22T13:51:02Z</time>
      </trkpt>
      <trkpt lat="45.42866" lon="7.02407">
        <ele>2578.0007</ele>
        <time>2015-08-22T13:51:07Z</time>
      </trkpt>
      <trkpt lat="45.42866" lon="7.02407">
        <ele>2578.0007</ele>
        <time>2015-08-22T13:51:17Z</time>
      </trkpt>
      <trkpt lat="45.42859" lon="7.02404">
        <ele>2578.0007</ele>
        <time>2015-08-22T13:51:32Z</time>
      </trkpt>
      <trkpt lat="45.42855" lon="7.02402">
        <ele>2579.124</ele>
        <time>2015-08-22T13:51:37Z</time>
      </trkpt>
      <trkpt lat="45.42854" lon="7.02401">
        <ele>2579.124</ele>
        <time>2015-08-22T13:51:47Z</time>
      </trkpt>
      <trkpt lat="45.42854" lon="7.02401">
        <ele>2579.124</ele>
        <time>2015-08-22T13:51:52Z</time>
      </trkpt>
      <trkpt lat="45.42853" lon="7.02402">
        <ele>2579.124</ele>
        <time>2015-08-22T13:52:07Z</time>
      </trkpt>
      <trkpt lat="45.42851" lon="7.02403">
        <ele>2579.124</ele>
        <time>2015-08-22T13:52:17Z</time>
      </trkpt>
      <trkpt lat="45.42849" lon="7.02404">
        <ele>2579.124</ele>
        <time>2015-08-22T13:52:22Z</time>
      </trkpt>
      <trkpt lat="45.42848" lon="7.02404">
        <ele>2579.124</ele>
        <time>2015-08-22T13:52:32Z</time>
      </trkpt>
      <trkpt lat="45.42848" lon="7.02404">
        <ele>2579.124</ele>
        <time>2015-08-22T13:52:37Z</time>
      </trkpt>
      <trkpt lat="45.42827" lon="7.02409">
        <ele>2581.1663</ele>
        <time>2015-08-22T13:53:17Z</time>
      </trkpt>
      <trkpt lat="45.4282" lon="7.02412">
        <ele>2581.1663</ele>
        <time>2015-08-22T13:53:22Z</time>
      </trkpt>
      <trkpt lat="45.42815" lon="7.02412">
        <ele>2583.2202</ele>
        <time>2015-08-22T13:53:32Z</time>
      </trkpt>
      <trkpt lat="45.42815" lon="7.02414">
        <ele>2583.2202</ele>
        <time>2015-08-22T13:53:37Z</time>
      </trkpt>
      <trkpt lat="45.4281" lon="7.0242">
        <ele>2583.2202</ele>
        <time>2015-08-22T13:53:47Z</time>
      </trkpt>
      <trkpt lat="45.42806" lon="7.02422">
        <ele>2585.2532</ele>
        <time>2015-08-22T13:53:52Z</time>
      </trkpt>
      <trkpt lat="45.42803" lon="7.02427">
        <ele>2585.2532</ele>
        <time>2015-08-22T13:54:02Z</time>
      </trkpt>
      <trkpt lat="45.42801" lon="7.02428">
        <ele>2585.2532</ele>
        <time>2015-08-22T13:54:07Z</time>
      </trkpt>
      <trkpt lat="45.42797" lon="7.0243">
        <ele>2587.3635</ele>
        <time>2015-08-22T13:54:17Z</time>
      </trkpt>
      <trkpt lat="45.42795" lon="7.02431">
        <ele>2587.3635</ele>
        <time>2015-08-22T13:54:22Z</time>
      </trkpt>
      <trkpt lat="45.42789" lon="7.0243">
        <ele>2587.3635</ele>
        <time>2015-08-22T13:54:32Z</time>
      </trkpt>
      <trkpt lat="45.42786" lon="7.02429">
        <ele>2589.672</ele>
        <time>2015-08-22T13:54:37Z</time>
      </trkpt>
      <trkpt lat="45.42781" lon="7.02424">
        <ele>2589.672</ele>
        <time>2015-08-22T13:54:52Z</time>
      </trkpt>
      <trkpt lat="45.42778" lon="7.02422">
        <ele>2591.886</ele>
        <time>2015-08-22T13:54:57Z</time>
      </trkpt>
      <trkpt lat="45.42771" lon="7.02418">
        <ele>2591.886</ele>
        <time>2015-08-22T13:55:07Z</time>
      </trkpt>
      <trkpt lat="45.42769" lon="7.02418">
        <ele>2594.2246</ele>
        <time>2015-08-22T13:55:12Z</time>
      </trkpt>
      <trkpt lat="45.42765" lon="7.02418">
        <ele>2594.2246</ele>
        <time>2015-08-22T13:55:22Z</time>
      </trkpt>
      <trkpt lat="45.42759" lon="7.02418">
        <ele>2596.6023</ele>
        <time>2015-08-22T13:55:27Z</time>
      </trkpt>
      <trkpt lat="45.42759" lon="7.02418">
        <ele>2596.6023</ele>
        <time>2015-08-22T13:55:37Z</time>
      </trkpt>
      <trkpt lat="45.42754" lon="7.0242">
        <ele>2596.6023</ele>
        <time>2015-08-22T13:55:42Z</time>
      </trkpt>
      <trkpt lat="45.42752" lon="7.02421">
        <ele>2596.6023</ele>
        <time>2015-08-22T13:55:52Z</time>
      </trkpt>
      <trkpt lat="45.42746" lon="7.02426">
        <ele>2599.9634</ele>
        <time>2015-08-22T13:57:47Z</time>
      </trkpt>
      <trkpt lat="45.42726" lon="7.02439">
        <ele>2603.3494</ele>
        <time>2015-08-22T13:57:57Z</time>
      </trkpt>
      <trkpt lat="45.42723" lon="7.02441">
        <ele>2603.3494</ele>
        <time>2015-08-22T13:58:02Z</time>
      </trkpt>
      <trkpt lat="45.42721" lon="7.02442">
        <ele>2603.3494</ele>
        <time>2015-08-22T13:58:12Z</time>
      </trkpt>
      <trkpt lat="45.42717" lon="7.02445">
        <ele>2606.7947</ele>
        <time>2015-08-22T13:58:17Z</time>
      </trkpt>
      <trkpt lat="45.42713" lon="7.02448">
        <ele>2606.7947</ele>
        <time>2015-08-22T13:58:27Z</time>
      </trkpt>
      <trkpt lat="45.42711" lon="7.02449">
        <ele>2606.7947</ele>
        <time>2015-08-22T13:58:32Z</time>
      </trkpt>
      <trkpt lat="45.42706" lon="7.02447">
        <ele>2610.2449</ele>
        <time>2015-08-22T13:58:42Z</time>
      </trkpt>
      <trkpt lat="45.42704" lon="7.02448">
        <ele>2610.2449</ele>
        <time>2015-08-22T13:58:47Z</time>
      </trkpt>
      <trkpt lat="45.42699" lon="7.02451">
        <ele>2610.2449</ele>
        <time>2015-08-22T13:58:57Z</time>
      </trkpt>
      <trkpt lat="45.42697" lon="7.02455">
        <ele>2613.6926</ele>
        <time>2015-08-22T13:59:02Z</time>
      </trkpt>
      <trkpt lat="45.42696" lon="7.0246">
        <ele>2613.6926</ele>
        <time>2015-08-22T13:59:12Z</time>
      </trkpt>
      <trkpt lat="45.42696" lon="7.02463">
        <ele>2613.6926</ele>
        <time>2015-08-22T13:59:17Z</time>
      </trkpt>
      <trkpt lat="45.42692" lon="7.02464">
        <ele>2616.9438</ele>
        <time>2015-08-22T13:59:27Z</time>
      </trkpt>
      <trkpt lat="45.42692" lon="7.02464">
        <ele>2616.9438</ele>
        <time>2015-08-22T13:59:32Z</time>
      </trkpt>
      <trkpt lat="45.42688" lon="7.02467">
        <ele>2616.9438</ele>
        <time>2015-08-22T13:59:42Z</time>
      </trkpt>
      <trkpt lat="45.42685" lon="7.02468">
        <ele>2616.9438</ele>
        <time>2015-08-22T14:00:02Z</time>
      </trkpt>
      <trkpt lat="45.4268" lon="7.02469">
        <ele>2620.425</ele>
        <time>2015-08-22T14:00:07Z</time>
      </trkpt>
      <trkpt lat="45.42671" lon="7.02472">
        <ele>2623.8098</ele>
        <time>2015-08-22T14:00:17Z</time>
      </trkpt>
      <trkpt lat="45.42669" lon="7.02472">
        <ele>2623.8098</ele>
        <time>2015-08-22T14:00:22Z</time>
      </trkpt>
      <trkpt lat="45.42663" lon="7.02473">
        <ele>2623.8098</ele>
        <time>2015-08-22T14:00:32Z</time>
      </trkpt>
      <trkpt lat="45.42662" lon="7.02473">
        <ele>2627.128</ele>
        <time>2015-08-22T14:00:37Z</time>
      </trkpt>
      <trkpt lat="45.42654" lon="7.02474">
        <ele>2627.128</ele>
        <time>2015-08-22T14:00:47Z</time>
      </trkpt>
      <trkpt lat="45.42651" lon="7.02475">
        <ele>2630.292</ele>
        <time>2015-08-22T14:00:52Z</time>
      </trkpt>
      <trkpt lat="45.42646" lon="7.02478">
        <ele>2630.292</ele>
        <time>2015-08-22T14:01:02Z</time>
      </trkpt>
      <trkpt lat="45.42645" lon="7.02478">
        <ele>2630.292</ele>
        <time>2015-08-22T14:01:07Z</time>
      </trkpt>
      <trkpt lat="45.42639" lon="7.02481">
        <ele>2633.51</ele>
        <time>2015-08-22T14:01:17Z</time>
      </trkpt>
      <trkpt lat="45.42634" lon="7.02481">
        <ele>2633.51</ele>
        <time>2015-08-22T14:01:22Z</time>
      </trkpt>
      <trkpt lat="45.42627" lon="7.02485">
        <ele>2636.542</ele>
        <time>2015-08-22T14:01:32Z</time>
      </trkpt>
      <trkpt lat="45.42624" lon="7.02486">
        <ele>2636.542</ele>
        <time>2015-08-22T14:01:37Z</time>
      </trkpt>
      <trkpt lat="45.42618" lon="7.02493">
        <ele>2639.3538</ele>
        <time>2015-08-22T14:01:47Z</time>
      </trkpt>
      <trkpt lat="45.42615" lon="7.02493">
        <ele>2639.3538</ele>
        <time>2015-08-22T14:01:52Z</time>
      </trkpt>
      <trkpt lat="45.4261" lon="7.02494">
        <ele>2639.3538</ele>
        <time>2015-08-22T14:02:02Z</time>
      </trkpt>
      <trkpt lat="45.42605" lon="7.02494">
        <ele>2642.03</ele>
        <time>2015-08-22T14:02:07Z</time>
      </trkpt>
      <trkpt lat="45.42598" lon="7.02503">
        <ele>2644.5195</ele>
        <time>2015-08-22T14:02:22Z</time>
      </trkpt>
      <trkpt lat="45.42597" lon="7.02506">
        <ele>2644.5195</ele>
        <time>2015-08-22T14:02:27Z</time>
      </trkpt>
      <trkpt lat="45.42594" lon="7.02514">
        <ele>2646.7332</ele>
        <time>2015-08-22T14:02:37Z</time>
      </trkpt>
      <trkpt lat="45.42591" lon="7.02516">
        <ele>2646.7332</ele>
        <time>2015-08-22T14:02:42Z</time>
      </trkpt>
      <trkpt lat="45.42586" lon="7.02521">
        <ele>2646.7332</ele>
        <time>2015-08-22T14:02:52Z</time>
      </trkpt>
      <trkpt lat="45.42584" lon="7.02523">
        <ele>2648.7034</ele>
        <time>2015-08-22T14:02:57Z</time>
      </trkpt>
      <trkpt lat="45.4258" lon="7.02529">
        <ele>2648.7034</ele>
        <time>2015-08-22T14:03:07Z</time>
      </trkpt>
      <trkpt lat="45.42577" lon="7.02532">
        <ele>2650.4475</ele>
        <time>2015-08-22T14:03:12Z</time>
      </trkpt>
      <trkpt lat="45.4257" lon="7.0254">
        <ele>2650.4475</ele>
        <time>2015-08-22T14:03:22Z</time>
      </trkpt>
      <trkpt lat="45.42568" lon="7.02541">
        <ele>2652.0256</ele>
        <time>2015-08-22T14:03:27Z</time>
      </trkpt>
      <trkpt lat="45.4256" lon="7.02546">
        <ele>2652.0256</ele>
        <time>2015-08-22T14:03:37Z</time>
      </trkpt>
      <trkpt lat="45.42557" lon="7.02548">
        <ele>2653.508</ele>
        <time>2015-08-22T14:03:42Z</time>
      </trkpt>
      <trkpt lat="45.42547" lon="7.02553">
        <ele>2654.9893</ele>
        <time>2015-08-22T14:03:57Z</time>
      </trkpt>
      <trkpt lat="45.42545" lon="7.02555">
        <ele>2654.9893</ele>
        <time>2015-08-22T14:04:02Z</time>
      </trkpt>
      <trkpt lat="45.42539" lon="7.02561">
        <ele>2656.4126</ele>
        <time>2015-08-22T14:04:12Z</time>
      </trkpt>
      <trkpt lat="45.42539" lon="7.02561">
        <ele>2656.4126</ele>
        <time>2015-08-22T14:04:17Z</time>
      </trkpt>
      <trkpt lat="45.42534" lon="7.02563">
        <ele>2656.4126</ele>
        <time>2015-08-22T14:04:27Z</time>
      </trkpt>
      <trkpt lat="45.42526" lon="7.02567">
        <ele>2657.8274</ele>
        <time>2015-08-22T14:04:32Z</time>
      </trkpt>
      <trkpt lat="45.42519" lon="7.0257">
        <ele>2657.8274</ele>
        <time>2015-08-22T14:04:42Z</time>
      </trkpt>
      <trkpt lat="45.42515" lon="7.02572">
        <ele>2659.1057</ele>
        <time>2015-08-22T14:04:47Z</time>
      </trkpt>
      <trkpt lat="45.4251" lon="7.02573">
        <ele>2659.1057</ele>
        <time>2015-08-22T14:04:57Z</time>
      </trkpt>
      <trkpt lat="45.42506" lon="7.02574">
        <ele>2659.1057</ele>
        <time>2015-08-22T14:05:02Z</time>
      </trkpt>
      <trkpt lat="45.425" lon="7.02578">
        <ele>2660.4614</ele>
        <time>2015-08-22T14:05:12Z</time>
      </trkpt>
      <trkpt lat="45.42496" lon="7.02579">
        <ele>2660.4614</ele>
        <time>2015-08-22T14:05:17Z</time>
      </trkpt>
      <trkpt lat="45.42491" lon="7.02582">
        <ele>2661.8618</ele>
        <time>2015-08-22T14:05:27Z</time>
      </trkpt>
      <trkpt lat="45.42488" lon="7.02583">
        <ele>2661.8618</ele>
        <time>2015-08-22T14:05:32Z</time>
      </trkpt>
      <trkpt lat="45.42484" lon="7.02587">
        <ele>2661.8618</ele>
        <time>2015-08-22T14:05:47Z</time>
      </trkpt>
      <trkpt lat="45.4248" lon="7.02591">
        <ele>2663.161</ele>
        <time>2015-08-22T14:05:52Z</time>
      </trkpt>
      <trkpt lat="45.42476" lon="7.02597">
        <ele>2663.161</ele>
        <time>2015-08-22T14:06:02Z</time>
      </trkpt>
      <trkpt lat="45.42473" lon="7.026">
        <ele>2664.3398</ele>
        <time>2015-08-22T14:06:07Z</time>
      </trkpt>
      <trkpt lat="45.42472" lon="7.02602">
        <ele>2664.3398</ele>
        <time>2015-08-22T14:06:17Z</time>
      </trkpt>
      <trkpt lat="45.42464" lon="7.02605">
        <ele>2665.568</ele>
        <time>2015-08-22T14:06:32Z</time>
      </trkpt>
      <trkpt lat="45.42462" lon="7.02607">
        <ele>2665.568</ele>
        <time>2015-08-22T14:06:37Z</time>
      </trkpt>
      <trkpt lat="45.42458" lon="7.02611">
        <ele>2665.568</ele>
        <time>2015-08-22T14:06:47Z</time>
      </trkpt>
      <trkpt lat="45.42455" lon="7.02613">
        <ele>2666.8877</ele>
        <time>2015-08-22T14:06:52Z</time>
      </trkpt>
      <trkpt lat="45.42451" lon="7.02616">
        <ele>2666.8877</ele>
        <time>2015-08-22T14:07:02Z</time>
      </trkpt>
      <trkpt lat="45.42446" lon="7.02618">
        <ele>2668.0632</ele>
        <time>2015-08-22T14:07:07Z</time>
      </trkpt>
      <trkpt lat="45.42441" lon="7.02624">
        <ele>2668.0632</ele>
        <time>2015-08-22T14:07:17Z</time>
      </trkpt>
      <trkpt lat="45.42438" lon="7.02628">
        <ele>2669.0215</ele>
        <time>2015-08-22T14:07:22Z</time>
      </trkpt>
      <trkpt lat="45.42435" lon="7.02631">
        <ele>2669.0215</ele>
        <time>2015-08-22T14:07:32Z</time>
      </trkpt>
      <trkpt lat="45.42436" lon="7.02633">
        <ele>2669.0215</ele>
        <time>2015-08-22T14:07:37Z</time>
      </trkpt>
      <trkpt lat="45.42428" lon="7.02639">
        <ele>2670.329</ele>
        <time>2015-08-22T14:07:47Z</time>
      </trkpt>
      <trkpt lat="45.42425" lon="7.02642">
        <ele>2670.329</ele>
        <time>2015-08-22T14:07:52Z</time>
      </trkpt>
      <trkpt lat="45.42424" lon="7.02646">
        <ele>2670.329</ele>
        <time>2015-08-22T14:08:02Z</time>
      </trkpt>
      <trkpt lat="45.42423" lon="7.02645">
        <ele>2670.329</ele>
        <time>2015-08-22T14:08:07Z</time>
      </trkpt>
      <trkpt lat="45.42421" lon="7.02646">
        <ele>2671.5732</ele>
        <time>2015-08-22T14:08:17Z</time>
      </trkpt>
      <trkpt lat="45.42418" lon="7.02648">
        <ele>2671.5732</ele>
        <time>2015-08-22T14:08:22Z</time>
      </trkpt>
      <trkpt lat="45.42415" lon="7.02643">
        <ele>2671.5732</ele>
        <time>2015-08-22T14:08:32Z</time>
      </trkpt>
      <trkpt lat="45.42413" lon="7.02647">
        <ele>2673.4673</ele>
        <time>2015-08-22T14:09:07Z</time>
      </trkpt>
      <trkpt lat="45.42412" lon="7.0265">
        <ele>2673.4673</ele>
        <time>2015-08-22T14:09:12Z</time>
      </trkpt>
      <trkpt lat="45.4241" lon="7.02659">
        <ele>2675.0413</ele>
        <time>2015-08-22T14:09:22Z</time>
      </trkpt>
      <trkpt lat="45.42408" lon="7.02662">
        <ele>2675.0413</ele>
        <time>2015-08-22T14:09:27Z</time>
      </trkpt>
      <trkpt lat="45.42404" lon="7.02667">
        <ele>2675.0413</ele>
        <time>2015-08-22T14:09:37Z</time>
      </trkpt>
      <trkpt lat="45.42403" lon="7.02669">
        <ele>2676.32</ele>
        <time>2015-08-22T14:09:42Z</time>
      </trkpt>
      <trkpt lat="45.42392" lon="7.02674">
        <ele>2677.342</ele>
        <time>2015-08-22T14:09:52Z</time>
      </trkpt>
      <trkpt lat="45.42389" lon="7.02679">
        <ele>2677.342</ele>
        <time>2015-08-22T14:09:57Z</time>
      </trkpt>
      <trkpt lat="45.42387" lon="7.02686">
        <ele>2678.2874</ele>
        <time>2015-08-22T14:10:07Z</time>
      </trkpt>
      <trkpt lat="45.42385" lon="7.0269">
        <ele>2678.2874</ele>
        <time>2015-08-22T14:10:12Z</time>
      </trkpt>
      <trkpt lat="45.42376" lon="7.02698">
        <ele>2679.0923</ele>
        <time>2015-08-22T14:10:27Z</time>
      </trkpt>
      <trkpt lat="45.42374" lon="7.02701">
        <ele>2679.0923</ele>
        <time>2015-08-22T14:10:32Z</time>
      </trkpt>
      <trkpt lat="45.42371" lon="7.02706">
        <ele>2679.0923</ele>
        <time>2015-08-22T14:10:42Z</time>
      </trkpt>
      <trkpt lat="45.42369" lon="7.02709">
        <ele>2679.9438</ele>
        <time>2015-08-22T14:10:47Z</time>
      </trkpt>
      <trkpt lat="45.42366" lon="7.02717">
        <ele>2679.9438</ele>
        <time>2015-08-22T14:10:57Z</time>
      </trkpt>
      <trkpt lat="45.42363" lon="7.02719">
        <ele>2680.6538</ele>
        <time>2015-08-22T14:11:02Z</time>
      </trkpt>
      <trkpt lat="45.4236" lon="7.02724">
        <ele>2680.6538</ele>
        <time>2015-08-22T14:11:12Z</time>
      </trkpt>
      <trkpt lat="45.42356" lon="7.02728">
        <ele>2681.3374</ele>
        <time>2015-08-22T14:11:17Z</time>
      </trkpt>
      <trkpt lat="45.42352" lon="7.02734">
        <ele>2681.3374</ele>
        <time>2015-08-22T14:11:27Z</time>
      </trkpt>
      <trkpt lat="45.4235" lon="7.02738">
        <ele>2682.0288</ele>
        <time>2015-08-22T14:11:32Z</time>
      </trkpt>
      <trkpt lat="45.42346" lon="7.02744">
        <ele>2682.0288</ele>
        <time>2015-08-22T14:11:42Z</time>
      </trkpt>
      <trkpt lat="45.42344" lon="7.0275">
        <ele>2682.7021</ele>
        <time>2015-08-22T14:11:47Z</time>
      </trkpt>
      <trkpt lat="45.42339" lon="7.02755">
        <ele>2682.7021</ele>
        <time>2015-08-22T14:11:57Z</time>
      </trkpt>
      <trkpt lat="45.42339" lon="7.02759">
        <ele>2683.2031</ele>
        <time>2015-08-22T14:12:02Z</time>
      </trkpt>
      <trkpt lat="45.42337" lon="7.02772">
        <ele>2683.7073</ele>
        <time>2015-08-22T14:12:17Z</time>
      </trkpt>
      <trkpt lat="45.42336" lon="7.02775">
        <ele>2683.7073</ele>
        <time>2015-08-22T14:12:22Z</time>
      </trkpt>
      <trkpt lat="45.42333" lon="7.02781">
        <ele>2683.7073</ele>
        <time>2015-08-22T14:12:32Z</time>
      </trkpt>
      <trkpt lat="45.42332" lon="7.02784">
        <ele>2684.218</ele>
        <time>2015-08-22T14:12:37Z</time>
      </trkpt>
      <trkpt lat="45.42329" lon="7.02792">
        <ele>2684.218</ele>
        <time>2015-08-22T14:12:47Z</time>
      </trkpt>
      <trkpt lat="45.42325" lon="7.02796">
        <ele>2684.8389</ele>
        <time>2015-08-22T14:12:52Z</time>
      </trkpt>
      <trkpt lat="45.42321" lon="7.02802">
        <ele>2684.8389</ele>
        <time>2015-08-22T14:13:02Z</time>
      </trkpt>
      <trkpt lat="45.42318" lon="7.02806">
        <ele>2685.3782</ele>
        <time>2015-08-22T14:13:07Z</time>
      </trkpt>
      <trkpt lat="45.42315" lon="7.02812">
        <ele>2685.3782</ele>
        <time>2015-08-22T14:13:17Z</time>
      </trkpt>
      <trkpt lat="45.42313" lon="7.02817">
        <ele>2685.9314</ele>
        <time>2015-08-22T14:13:22Z</time>
      </trkpt>
      <trkpt lat="45.42309" lon="7.02825">
        <ele>2685.9314</ele>
        <time>2015-08-22T14:13:32Z</time>
      </trkpt>
      <trkpt lat="45.42306" lon="7.02828">
        <ele>2686.5442</ele>
        <time>2015-08-22T14:13:37Z</time>
      </trkpt>
      <trkpt lat="45.423" lon="7.02835">
        <ele>2686.5442</ele>
        <time>2015-08-22T14:13:47Z</time>
      </trkpt>
      <trkpt lat="45.42298" lon="7.02842">
        <ele>2686.9841</ele>
        <time>2015-08-22T14:13:52Z</time>
      </trkpt>
      <trkpt lat="45.42293" lon="7.02851">
        <ele>2686.9841</ele>
        <time>2015-08-22T14:14:02Z</time>
      </trkpt>
      <trkpt lat="45.42291" lon="7.02855">
        <ele>2687.383</ele>
        <time>2015-08-22T14:14:07Z</time>
      </trkpt>
      <trkpt lat="45.42288" lon="7.02863">
        <ele>2687.383</ele>
        <time>2015-08-22T14:14:17Z</time>
      </trkpt>
      <trkpt lat="45.42287" lon="7.02864">
        <ele>2687.383</ele>
        <time>2015-08-22T14:14:22Z</time>
      </trkpt>
      <trkpt lat="45.42282" lon="7.02871">
        <ele>2688.0784</ele>
        <time>2015-08-22T14:14:32Z</time>
      </trkpt>
      <trkpt lat="45.42279" lon="7.02874">
        <ele>2688.0784</ele>
        <time>2015-08-22T14:14:37Z</time>
      </trkpt>
      <trkpt lat="45.42274" lon="7.02881">
        <ele>2688.9214</ele>
        <time>2015-08-22T14:14:47Z</time>
      </trkpt>
      <trkpt lat="45.42272" lon="7.02885">
        <ele>2688.9214</ele>
        <time>2015-08-22T14:14:52Z</time>
      </trkpt>
      <trkpt lat="45.42264" lon="7.02894">
        <ele>2689.9026</ele>
        <time>2015-08-22T14:15:07Z</time>
      </trkpt>
      <trkpt lat="45.42261" lon="7.02897">
        <ele>2689.9026</ele>
        <time>2015-08-22T14:15:12Z</time>
      </trkpt>
      <trkpt lat="45.42256" lon="7.02904">
        <ele>2690.956</ele>
        <time>2015-08-22T14:15:22Z</time>
      </trkpt>
      <trkpt lat="45.42253" lon="7.02906">
        <ele>2690.956</ele>
        <time>2015-08-22T14:15:27Z</time>
      </trkpt>
      <trkpt lat="45.42245" lon="7.02905">
        <ele>2692.1208</ele>
        <time>2015-08-22T14:15:37Z</time>
      </trkpt>
      <trkpt lat="45.42241" lon="7.02904">
        <ele>2692.1208</ele>
        <time>2015-08-22T14:15:42Z</time>
      </trkpt>
      <trkpt lat="45.42233" lon="7.02901">
        <ele>2693.317</ele>
        <time>2015-08-22T14:15:52Z</time>
      </trkpt>
      <trkpt lat="45.42226" lon="7.029">
        <ele>2693.317</ele>
        <time>2015-08-22T14:15:57Z</time>
      </trkpt>
      <trkpt lat="45.42219" lon="7.02898">
        <ele>2694.4998</ele>
        <time>2015-08-22T14:16:07Z</time>
      </trkpt>
      <trkpt lat="45.42216" lon="7.02897">
        <ele>2694.4998</ele>
        <time>2015-08-22T14:16:12Z</time>
      </trkpt>
      <trkpt lat="45.42209" lon="7.02894">
        <ele>2695.584</ele>
        <time>2015-08-22T14:16:22Z</time>
      </trkpt>
      <trkpt lat="45.42207" lon="7.02894">
        <ele>2695.584</ele>
        <time>2015-08-22T14:16:27Z</time>
      </trkpt>
      <trkpt lat="45.42199" lon="7.02888">
        <ele>2696.5923</ele>
        <time>2015-08-22T14:16:37Z</time>
      </trkpt>
      <trkpt lat="45.42194" lon="7.02887">
        <ele>2696.5923</ele>
        <time>2015-08-22T14:16:42Z</time>
      </trkpt>
      <trkpt lat="45.4219" lon="7.02885">
        <ele>2697.718</ele>
        <time>2015-08-22T14:16:52Z</time>
      </trkpt>
      <trkpt lat="45.42187" lon="7.02884">
        <ele>2697.718</ele>
        <time>2015-08-22T14:16:57Z</time>
      </trkpt>
      <trkpt lat="45.42181" lon="7.02881">
        <ele>2697.718</ele>
        <time>2015-08-22T14:17:07Z</time>
      </trkpt>
      <trkpt lat="45.42175" lon="7.0288">
        <ele>2698.7227</ele>
        <time>2015-08-22T14:17:12Z</time>
      </trkpt>
      <trkpt lat="45.42169" lon="7.0288">
        <ele>2698.7227</ele>
        <time>2015-08-22T14:17:22Z</time>
      </trkpt>
      <trkpt lat="45.42166" lon="7.02881">
        <ele>2699.8027</ele>
        <time>2015-08-22T14:17:27Z</time>
      </trkpt>
      <trkpt lat="45.42156" lon="7.02882">
        <ele>2700.8528</ele>
        <time>2015-08-22T14:17:42Z</time>
      </trkpt>
      <trkpt lat="45.42152" lon="7.02883">
        <ele>2700.8528</ele>
        <time>2015-08-22T14:17:47Z</time>
      </trkpt>
      <trkpt lat="45.42143" lon="7.02877">
        <ele>2701.9614</ele>
        <time>2015-08-22T14:17:57Z</time>
      </trkpt>
      <trkpt lat="45.4214" lon="7.02876">
        <ele>2701.9614</ele>
        <time>2015-08-22T14:18:02Z</time>
      </trkpt>
      <trkpt lat="45.42135" lon="7.02876">
        <ele>2701.9614</ele>
        <time>2015-08-22T14:18:12Z</time>
      </trkpt>
      <trkpt lat="45.42132" lon="7.02876">
        <ele>2703.1248</ele>
        <time>2015-08-22T14:18:17Z</time>
      </trkpt>
      <trkpt lat="45.42126" lon="7.02876">
        <ele>2703.1248</ele>
        <time>2015-08-22T14:18:27Z</time>
      </trkpt>
      <trkpt lat="45.42121" lon="7.02877">
        <ele>2704.3245</ele>
        <time>2015-08-22T14:18:32Z</time>
      </trkpt>
      <trkpt lat="45.42118" lon="7.02876">
        <ele>2704.3245</ele>
        <time>2015-08-22T14:18:42Z</time>
      </trkpt>
      <trkpt lat="45.42112" lon="7.02874">
        <ele>2705.3125</ele>
        <time>2015-08-22T14:18:47Z</time>
      </trkpt>
      <trkpt lat="45.42107" lon="7.02872">
        <ele>2705.3125</ele>
        <time>2015-08-22T14:18:57Z</time>
      </trkpt>
      <trkpt lat="45.42103" lon="7.02873">
        <ele>2706.2776</ele>
        <time>2015-08-22T14:19:02Z</time>
      </trkpt>
      <trkpt lat="45.42097" lon="7.02875">
        <ele>2706.2776</ele>
        <time>2015-08-22T14:19:12Z</time>
      </trkpt>
      <trkpt lat="45.42092" lon="7.02875">
        <ele>2707.3953</ele>
        <time>2015-08-22T14:19:17Z</time>
      </trkpt>
      <trkpt lat="45.42086" lon="7.02876">
        <ele>2707.3953</ele>
        <time>2015-08-22T14:19:27Z</time>
      </trkpt>
      <trkpt lat="45.42085" lon="7.02876">
        <ele>2707.3953</ele>
        <time>2015-08-22T14:19:32Z</time>
      </trkpt>
      <trkpt lat="45.42081" lon="7.02876">
        <ele>2708.4233</ele>
        <time>2015-08-22T14:19:42Z</time>
      </trkpt>
      <trkpt lat="45.4208" lon="7.02877">
        <ele>2708.4233</ele>
        <time>2015-08-22T14:19:47Z</time>
      </trkpt>
      <trkpt lat="45.42075" lon="7.02879">
        <ele>2708.4233</ele>
        <time>2015-08-22T14:20:02Z</time>
      </trkpt>
      <trkpt lat="45.4207" lon="7.0288">
        <ele>2709.7</ele>
        <time>2015-08-22T14:20:07Z</time>
      </trkpt>
      <trkpt lat="45.42063" lon="7.02876">
        <ele>2709.7</ele>
        <time>2015-08-22T14:20:17Z</time>
      </trkpt>
      <trkpt lat="45.42059" lon="7.02873">
        <ele>2711.0625</ele>
        <time>2015-08-22T14:20:22Z</time>
      </trkpt>
      <trkpt lat="45.42052" lon="7.02873">
        <ele>2711.0625</ele>
        <time>2015-08-22T14:20:32Z</time>
      </trkpt>
      <trkpt lat="45.42049" lon="7.02871">
        <ele>2712.4602</ele>
        <time>2015-08-22T14:20:37Z</time>
      </trkpt>
      <trkpt lat="45.42045" lon="7.02867">
        <ele>2712.4602</ele>
        <time>2015-08-22T14:20:47Z</time>
      </trkpt>
      <trkpt lat="45.4204" lon="7.0287">
        <ele>2713.7168</ele>
        <time>2015-08-22T14:20:52Z</time>
      </trkpt>
      <trkpt lat="45.42035" lon="7.02879">
        <ele>2713.7168</ele>
        <time>2015-08-22T14:21:02Z</time>
      </trkpt>
      <trkpt lat="45.42035" lon="7.02878">
        <ele>2715.0293</ele>
        <time>2015-08-22T14:21:07Z</time>
      </trkpt>
      <trkpt lat="45.42031" lon="7.0288">
        <ele>2715.0293</ele>
        <time>2015-08-22T14:21:17Z</time>
      </trkpt>
      <trkpt lat="45.42028" lon="7.02881">
        <ele>2715.0293</ele>
        <time>2015-08-22T14:21:22Z</time>
      </trkpt>
      <trkpt lat="45.42028" lon="7.0288">
        <ele>2715.0293</ele>
        <time>2015-08-22T14:21:32Z</time>
      </trkpt>
      <trkpt lat="45.42029" lon="7.02879">
        <ele>2716.3352</ele>
        <time>2015-08-22T14:21:37Z</time>
      </trkpt>
      <trkpt lat="45.42033" lon="7.02877">
        <ele>2716.3352</ele>
        <time>2015-08-22T14:21:47Z</time>
      </trkpt>
      <trkpt lat="45.42034" lon="7.02879">
        <ele>2716.3352</ele>
        <time>2015-08-22T14:21:52Z</time>
      </trkpt>
      <trkpt lat="45.42036" lon="7.0288">
        <ele>2716.3352</ele>
        <time>2015-08-22T14:22:07Z</time>
      </trkpt>
      <trkpt lat="45.42036" lon="7.0288">
        <ele>2716.3352</ele>
        <time>2015-08-22T14:22:12Z</time>
      </trkpt>
      <trkpt lat="45.42036" lon="7.0288">
        <ele>2716.3352</ele>
        <time>2015-08-22T14:22:52Z</time>
      </trkpt>
      <trkpt lat="45.42032" lon="7.02883">
        <ele>2717.836</ele>
        <time>2015-08-22T14:22:57Z</time>
      </trkpt>
      <trkpt lat="45.42024" lon="7.02891">
        <ele>2719.3145</ele>
        <time>2015-08-22T14:23:07Z</time>
      </trkpt>
      <trkpt lat="45.42022" lon="7.02895">
        <ele>2719.3145</ele>
        <time>2015-08-22T14:23:12Z</time>
      </trkpt>
      <trkpt lat="45.42016" lon="7.02905">
        <ele>2720.684</ele>
        <time>2015-08-22T14:23:22Z</time>
      </trkpt>
      <trkpt lat="45.42013" lon="7.02913">
        <ele>2720.684</ele>
        <time>2015-08-22T14:23:27Z</time>
      </trkpt>
      <trkpt lat="45.4201" lon="7.0292">
        <ele>2722.154</ele>
        <time>2015-08-22T14:23:37Z</time>
      </trkpt>
      <trkpt lat="45.42009" lon="7.02921">
        <ele>2722.154</ele>
        <time>2015-08-22T14:23:42Z</time>
      </trkpt>
      <trkpt lat="45.42003" lon="7.02928">
        <ele>2722.154</ele>
        <time>2015-08-22T14:23:52Z</time>
      </trkpt>
      <trkpt lat="45.42" lon="7.02931">
        <ele>2723.557</ele>
        <time>2015-08-22T14:23:57Z</time>
      </trkpt>
      <trkpt lat="45.41995" lon="7.02932">
        <ele>2723.557</ele>
        <time>2015-08-22T14:24:07Z</time>
      </trkpt>
      <trkpt lat="45.41993" lon="7.02934">
        <ele>2723.557</ele>
        <time>2015-08-22T14:24:12Z</time>
      </trkpt>
      <trkpt lat="45.41986" lon="7.02936">
        <ele>2724.7239</ele>
        <time>2015-08-22T14:24:27Z</time>
      </trkpt>
      <trkpt lat="45.41982" lon="7.02939">
        <ele>2724.7239</ele>
        <time>2015-08-22T14:24:32Z</time>
      </trkpt>
      <trkpt lat="45.41979" lon="7.0294">
        <ele>2724.7239</ele>
        <time>2015-08-22T14:24:42Z</time>
      </trkpt>
      <trkpt lat="45.41978" lon="7.02939">
        <ele>2724.7239</ele>
        <time>2015-08-22T14:24:47Z</time>
      </trkpt>
      <trkpt lat="45.41975" lon="7.0294">
        <ele>2725.8594</ele>
        <time>2015-08-22T14:24:57Z</time>
      </trkpt>
      <trkpt lat="45.41973" lon="7.02943">
        <ele>2725.8594</ele>
        <time>2015-08-22T14:25:02Z</time>
      </trkpt>
      <trkpt lat="45.41968" lon="7.02949">
        <ele>2725.8594</ele>
        <time>2015-08-22T14:25:12Z</time>
      </trkpt>
      <trkpt lat="45.41968" lon="7.02951">
        <ele>2727.0513</ele>
        <time>2015-08-22T14:25:17Z</time>
      </trkpt>
      <trkpt lat="45.41963" lon="7.02951">
        <ele>2727.0513</ele>
        <time>2015-08-22T14:25:27Z</time>
      </trkpt>
      <trkpt lat="45.41959" lon="7.02955">
        <ele>2728.4253</ele>
        <time>2015-08-22T14:25:32Z</time>
      </trkpt>
      <trkpt lat="45.41957" lon="7.02962">
        <ele>2728.4253</ele>
        <time>2015-08-22T14:25:42Z</time>
      </trkpt>
      <trkpt lat="45.41955" lon="7.02966">
        <ele>2728.4253</ele>
        <time>2015-08-22T14:25:47Z</time>
      </trkpt>
      <trkpt lat="45.41955" lon="7.02972">
        <ele>2730.0247</ele>
        <time>2015-08-22T14:25:57Z</time>
      </trkpt>
      <trkpt lat="45.41954" lon="7.02974">
        <ele>2730.0247</ele>
        <time>2015-08-22T14:26:02Z</time>
      </trkpt>
      <trkpt lat="45.41953" lon="7.02974">
        <ele>2730.0247</ele>
        <time>2015-08-22T14:26:12Z</time>
      </trkpt>
      <trkpt lat="45.41953" lon="7.02974">
        <ele>2730.0247</ele>
        <time>2015-08-22T14:26:17Z</time>
      </trkpt>
      <trkpt lat="45.41953" lon="7.02971">
        <ele>2730.0247</ele>
        <time>2015-08-22T14:26:27Z</time>
      </trkpt>
      <trkpt lat="45.41952" lon="7.02971">
        <ele>2730.0247</ele>
        <time>2015-08-22T14:26:32Z</time>
      </trkpt>
      <trkpt lat="45.41955" lon="7.02972">
        <ele>2731.975</ele>
        <time>2015-08-22T14:26:47Z</time>
      </trkpt>
      <trkpt lat="45.41954" lon="7.02974">
        <ele>2731.975</ele>
        <time>2015-08-22T14:26:52Z</time>
      </trkpt>
      <trkpt lat="45.41949" lon="7.02973">
        <ele>2731.975</ele>
        <time>2015-08-22T14:27:02Z</time>
      </trkpt>
      <trkpt lat="45.41948" lon="7.02973">
        <ele>2731.975</ele>
        <time>2015-08-22T14:27:07Z</time>
      </trkpt>
      <trkpt lat="45.41943" lon="7.02977">
        <ele>2734.0757</ele>
        <time>2015-08-22T14:27:17Z</time>
      </trkpt>
      <trkpt lat="45.4194" lon="7.02977">
        <ele>2734.0757</ele>
        <time>2015-08-22T14:27:22Z</time>
      </trkpt>
      <trkpt lat="45.41938" lon="7.02976">
        <ele>2734.0757</ele>
        <time>2015-08-22T14:27:32Z</time>
      </trkpt>
      <trkpt lat="45.41938" lon="7.02976">
        <ele>2734.0757</ele>
        <time>2015-08-22T14:27:37Z</time>
      </trkpt>
      <trkpt lat="45.41936" lon="7.0298">
        <ele>2734.0757</ele>
        <time>2015-08-22T14:27:47Z</time>
      </trkpt>
      <trkpt lat="45.41934" lon="7.02987">
        <ele>2736.442</ele>
        <time>2015-08-22T14:27:52Z</time>
      </trkpt>
      <trkpt lat="45.41934" lon="7.02991">
        <ele>2736.442</ele>
        <time>2015-08-22T14:28:02Z</time>
      </trkpt>
      <trkpt lat="45.41935" lon="7.02989">
        <ele>2736.442</ele>
        <time>2015-08-22T14:28:07Z</time>
      </trkpt>
      <trkpt lat="45.41933" lon="7.02993">
        <ele>2736.442</ele>
        <time>2015-08-22T14:28:22Z</time>
      </trkpt>
      <trkpt lat="45.41932" lon="7.02996">
        <ele>2738.7048</ele>
        <time>2015-08-22T14:28:27Z</time>
      </trkpt>
      <trkpt lat="45.4193" lon="7.03003">
        <ele>2738.7048</ele>
        <time>2015-08-22T14:28:37Z</time>
      </trkpt>
      <trkpt lat="45.41929" lon="7.03003">
        <ele>2738.7048</ele>
        <time>2015-08-22T14:28:42Z</time>
      </trkpt>
      <trkpt lat="45.41924" lon="7.03012">
        <ele>2740.6672</ele>
        <time>2015-08-22T14:28:52Z</time>
      </trkpt>
      <trkpt lat="45.4192" lon="7.0301">
        <ele>2740.6672</ele>
        <time>2015-08-22T14:28:57Z</time>
      </trkpt>
      <trkpt lat="45.41916" lon="7.03014">
        <ele>2742.5647</ele>
        <time>2015-08-22T14:29:07Z</time>
      </trkpt>
      <trkpt lat="45.41914" lon="7.03015">
        <ele>2742.5647</ele>
        <time>2015-08-22T14:29:12Z</time>
      </trkpt>
      <trkpt lat="45.41911" lon="7.03014">
        <ele>2742.5647</ele>
        <time>2015-08-22T14:29:22Z</time>
      </trkpt>
      <trkpt lat="45.41909" lon="7.03013">
        <ele>2742.5647</ele>
        <time>2015-08-22T14:29:27Z</time>
      </trkpt>
      <trkpt lat="45.41905" lon="7.03006">
        <ele>2744.8608</ele>
        <time>2015-08-22T14:29:37Z</time>
      </trkpt>
      <trkpt lat="45.41903" lon="7.03004">
        <ele>2744.8608</ele>
        <time>2015-08-22T14:29:42Z</time>
      </trkpt>
      <trkpt lat="45.419" lon="7.03008">
        <ele>2744.8608</ele>
        <time>2015-08-22T14:29:52Z</time>
      </trkpt>
      <trkpt lat="45.41898" lon="7.0301">
        <ele>2744.8608</ele>
        <time>2015-08-22T14:29:57Z</time>
      </trkpt>
      <trkpt lat="45.4189" lon="7.03007">
        <ele>2747.1199</ele>
        <time>2015-08-22T14:30:07Z</time>
      </trkpt>
      <trkpt lat="45.41889" lon="7.0301">
        <ele>2747.1199</ele>
        <time>2015-08-22T14:30:12Z</time>
      </trkpt>
      <trkpt lat="45.41883" lon="7.03011">
        <ele>2747.1199</ele>
        <time>2015-08-22T14:30:22Z</time>
      </trkpt>
      <trkpt lat="45.41881" lon="7.03014">
        <ele>2749.5286</ele>
        <time>2015-08-22T14:30:27Z</time>
      </trkpt>
      <trkpt lat="45.41879" lon="7.03017">
        <ele>2749.5286</ele>
        <time>2015-08-22T14:30:42Z</time>
      </trkpt>
      <trkpt lat="45.41876" lon="7.03019">
        <ele>2749.5286</ele>
        <time>2015-08-22T14:30:47Z</time>
      </trkpt>
      <trkpt lat="45.41869" lon="7.03023">
        <ele>2752.3464</ele>
        <time>2015-08-22T14:30:57Z</time>
      </trkpt>
      <trkpt lat="45.41869" lon="7.03026">
        <ele>2752.3464</ele>
        <time>2015-08-22T14:31:02Z</time>
      </trkpt>
      <trkpt lat="45.41867" lon="7.03027">
        <ele>2752.3464</ele>
        <time>2015-08-22T14:31:12Z</time>
      </trkpt>
      <trkpt lat="45.41867" lon="7.03028">
        <ele>2752.3464</ele>
        <time>2015-08-22T14:31:17Z</time>
      </trkpt>
      <trkpt lat="45.41863" lon="7.03028">
        <ele>2752.3464</ele>
        <time>2015-08-22T14:31:27Z</time>
      </trkpt>
      <trkpt lat="45.41859" lon="7.0303">
        <ele>2754.9912</ele>
        <time>2015-08-22T14:31:32Z</time>
      </trkpt>
      <trkpt lat="45.41855" lon="7.03034">
        <ele>2754.9912</ele>
        <time>2015-08-22T14:31:42Z</time>
      </trkpt>
      <trkpt lat="45.41855" lon="7.03032">
        <ele>2754.9912</ele>
        <time>2015-08-22T14:31:47Z</time>
      </trkpt>
      <trkpt lat="45.41855" lon="7.03034">
        <ele>2754.9912</ele>
        <time>2015-08-22T14:31:57Z</time>
      </trkpt>
      <trkpt lat="45.41852" lon="7.03038">
        <ele>2757.8176</ele>
        <time>2015-08-22T14:32:02Z</time>
      </trkpt>
      <trkpt lat="45.41848" lon="7.0304">
        <ele>2757.8176</ele>
        <time>2015-08-22T14:32:12Z</time>
      </trkpt>
      <trkpt lat="45.41844" lon="7.03043">
        <ele>2760.7356</ele>
        <time>2015-08-22T14:32:17Z</time>
      </trkpt>
      <trkpt lat="45.41849" lon="7.03038">
        <ele>2760.7356</ele>
        <time>2015-08-22T14:32:32Z</time>
      </trkpt>
      <trkpt lat="45.41851" lon="7.03039">
        <ele>2760.7356</ele>
        <time>2015-08-22T14:32:37Z</time>
      </trkpt>
      <trkpt lat="45.41853" lon="7.0304">
        <ele>2763.619</ele>
        <time>2015-08-22T14:32:47Z</time>
      </trkpt>
      <trkpt lat="45.41854" lon="7.03039">
        <ele>2763.619</ele>
        <time>2015-08-22T14:32:52Z</time>
      </trkpt>
      <trkpt lat="45.41854" lon="7.03039">
        <ele>2763.619</ele>
        <time>2015-08-22T14:33:02Z</time>
      </trkpt>
      <trkpt lat="45.41854" lon="7.03039">
        <ele>2763.619</ele>
        <time>2015-08-22T14:33:07Z</time>
      </trkpt>
      <trkpt lat="45.41856" lon="7.03036">
        <ele>2763.619</ele>
        <time>2015-08-22T14:33:17Z</time>
      </trkpt>
      <trkpt lat="45.41853" lon="7.03035">
        <ele>2763.619</ele>
        <time>2015-08-22T14:33:22Z</time>
      </trkpt>
      <trkpt lat="45.4185" lon="7.03036">
        <ele>2766.4512</ele>
        <time>2015-08-22T14:33:32Z</time>
      </trkpt>
      <trkpt lat="45.41851" lon="7.03037">
        <ele>2766.4512</ele>
        <time>2015-08-22T14:33:37Z</time>
      </trkpt>
      <trkpt lat="45.4185" lon="7.03039">
        <ele>2766.4512</ele>
        <time>2015-08-22T14:33:47Z</time>
      </trkpt>
      <trkpt lat="45.41849" lon="7.03042">
        <ele>2766.4512</ele>
        <time>2015-08-22T14:33:52Z</time>
      </trkpt>
      <trkpt lat="45.41851" lon="7.03047">
        <ele>2766.4512</ele>
        <time>2015-08-22T14:34:02Z</time>
      </trkpt>
      <trkpt lat="45.41848" lon="7.03054">
        <ele>2768.9868</ele>
        <time>2015-08-22T14:34:07Z</time>
      </trkpt>
      <trkpt lat="45.41839" lon="7.03063">
        <ele>2771.2014</ele>
        <time>2015-08-22T14:34:17Z</time>
      </trkpt>
      <trkpt lat="45.41838" lon="7.03069">
        <ele>2771.2014</ele>
        <time>2015-08-22T14:34:22Z</time>
      </trkpt>
      <trkpt lat="45.41826" lon="7.03083">
        <ele>2773.1165</ele>
        <time>2015-08-22T14:34:37Z</time>
      </trkpt>
      <trkpt lat="45.41824" lon="7.03086">
        <ele>2773.1165</ele>
        <time>2015-08-22T14:34:42Z</time>
      </trkpt>
      <trkpt lat="45.41825" lon="7.03096">
        <ele>2774.7527</ele>
        <time>2015-08-22T14:34:52Z</time>
      </trkpt>
      <trkpt lat="45.41824" lon="7.03103">
        <ele>2774.7527</ele>
        <time>2015-08-22T14:34:57Z</time>
      </trkpt>
      <trkpt lat="45.41815" lon="7.03112">
        <ele>2776.3606</ele>
        <time>2015-08-22T14:35:07Z</time>
      </trkpt>
      <trkpt lat="45.41811" lon="7.03117">
        <ele>2776.3606</ele>
        <time>2015-08-22T14:35:12Z</time>
      </trkpt>
      <trkpt lat="45.41801" lon="7.03118">
        <ele>2778.072</ele>
        <time>2015-08-22T14:35:22Z</time>
      </trkpt>
      <trkpt lat="45.41798" lon="7.0312">
        <ele>2778.072</ele>
        <time>2015-08-22T14:35:27Z</time>
      </trkpt>
      <trkpt lat="45.4179" lon="7.03129">
        <ele>2779.6484</ele>
        <time>2015-08-22T14:35:37Z</time>
      </trkpt>
      <trkpt lat="45.41786" lon="7.0313">
        <ele>2779.6484</ele>
        <time>2015-08-22T14:35:42Z</time>
      </trkpt>
      <trkpt lat="45.41777" lon="7.03122">
        <ele>2780.9988</ele>
        <time>2015-08-22T14:35:52Z</time>
      </trkpt>
      <trkpt lat="45.41773" lon="7.03117">
        <ele>2780.9988</ele>
        <time>2015-08-22T14:35:57Z</time>
      </trkpt>
      <trkpt lat="45.41765" lon="7.03109">
        <ele>2782.2415</ele>
        <time>2015-08-22T14:36:07Z</time>
      </trkpt>
      <trkpt lat="45.41761" lon="7.03105">
        <ele>2782.2415</ele>
        <time>2015-08-22T14:36:12Z</time>
      </trkpt>
      <trkpt lat="45.41752" lon="7.03108">
        <ele>2783.5007</ele>
        <time>2015-08-22T14:36:22Z</time>
      </trkpt>
      <trkpt lat="45.41746" lon="7.03109">
        <ele>2783.5007</ele>
        <time>2015-08-22T14:36:27Z</time>
      </trkpt>
      <trkpt lat="45.41737" lon="7.03108">
        <ele>2784.9783</ele>
        <time>2015-08-22T14:36:37Z</time>
      </trkpt>
      <trkpt lat="45.41733" lon="7.03105">
        <ele>2784.9783</ele>
        <time>2015-08-22T14:36:42Z</time>
      </trkpt>
      <trkpt lat="45.41728" lon="7.03101">
        <ele>2786.3853</ele>
        <time>2015-08-22T14:36:52Z</time>
      </trkpt>
      <trkpt lat="45.41724" lon="7.03096">
        <ele>2786.3853</ele>
        <time>2015-08-22T14:36:57Z</time>
      </trkpt>
      <trkpt lat="45.41709" lon="7.03083">
        <ele>2787.5686</ele>
        <time>2015-08-22T14:37:12Z</time>
      </trkpt>
      <trkpt lat="45.41706" lon="7.03081">
        <ele>2787.5686</ele>
        <time>2015-08-22T14:37:17Z</time>
      </trkpt>
      <trkpt lat="45.41706" lon="7.03085">
        <ele>2787.5686</ele>
        <time>2015-08-22T14:37:27Z</time>
      </trkpt>
      <trkpt lat="45.41709" lon="7.03085">
        <ele>2788.2874</ele>
        <time>2015-08-22T14:37:32Z</time>
      </trkpt>
      <trkpt lat="45.41709" lon="7.03084">
        <ele>2788.2874</ele>
        <time>2015-08-22T14:37:42Z</time>
      </trkpt>
      <trkpt lat="45.41708" lon="7.03085">
        <ele>2788.2874</ele>
        <time>2015-08-22T14:37:47Z</time>
      </trkpt>
      <trkpt lat="45.41709" lon="7.03089">
        <ele>2788.2874</ele>
        <time>2015-08-22T14:37:57Z</time>
      </trkpt>
      <trkpt lat="45.41706" lon="7.03088">
        <ele>2788.2874</ele>
        <time>2015-08-22T14:38:02Z</time>
      </trkpt>
      <trkpt lat="45.4171" lon="7.03083">
        <ele>2788.78</ele>
        <time>2015-08-22T14:38:12Z</time>
      </trkpt>
      <trkpt lat="45.41707" lon="7.03085">
        <ele>2788.78</ele>
        <time>2015-08-22T14:38:17Z</time>
      </trkpt>
      <trkpt lat="45.41707" lon="7.03081">
        <ele>2788.78</ele>
        <time>2015-08-22T14:38:27Z</time>
      </trkpt>
      <trkpt lat="45.41711" lon="7.03075">
        <ele>2788.966</ele>
        <time>2015-08-22T14:38:32Z</time>
      </trkpt>
      <trkpt lat="45.4172" lon="7.03064">
        <ele>2788.6992</ele>
        <time>2015-08-22T14:38:42Z</time>
      </trkpt>
      <trkpt lat="45.41719" lon="7.03053">
        <ele>2788.6992</ele>
        <time>2015-08-22T14:38:47Z</time>
      </trkpt>
      <trkpt lat="45.4172" lon="7.03046">
        <ele>2787.7878</ele>
        <time>2015-08-22T14:39:02Z</time>
      </trkpt>
      <trkpt lat="45.41718" lon="7.03045">
        <ele>2787.7878</ele>
        <time>2015-08-22T14:39:07Z</time>
      </trkpt>
      <trkpt lat="45.41717" lon="7.03044">
        <ele>2787.7878</ele>
        <time>2015-08-22T14:39:17Z</time>
      </trkpt>
      <trkpt lat="45.41718" lon="7.03043">
        <ele>2787.7878</ele>
        <time>2015-08-22T14:39:22Z</time>
      </trkpt>
      <trkpt lat="45.41721" lon="7.03043">
        <ele>2787.7878</ele>
        <time>2015-08-22T14:39:32Z</time>
      </trkpt>
      <trkpt lat="45.4172" lon="7.03042">
        <ele>2787.7878</ele>
        <time>2015-08-22T14:39:37Z</time>
      </trkpt>
      <trkpt lat="45.4172" lon="7.03039">
        <ele>2787.065</ele>
        <time>2015-08-22T14:39:47Z</time>
      </trkpt>
      <trkpt lat="45.41719" lon="7.03037">
        <ele>2787.065</ele>
        <time>2015-08-22T14:39:52Z</time>
      </trkpt>
      <trkpt lat="45.4172" lon="7.03037">
        <ele>2787.065</ele>
        <time>2015-08-22T14:39:57Z</time>
      </trkpt>
      <trkpt lat="45.41721" lon="7.03039">
        <ele>2787.065</ele>
        <time>2015-08-22T14:40:02Z</time>
      </trkpt>
      <trkpt lat="45.41723" lon="7.03041">
        <ele>2787.065</ele>
        <time>2015-08-22T14:54:56Z</time>
      </trkpt>
      <trkpt lat="45.41725" lon="7.03042">
        <ele>2787.065</ele>
        <time>2015-08-22T14:55:01Z</time>
      </trkpt>
      <trkpt lat="45.41725" lon="7.03042">
        <ele>2787.065</ele>
        <time>2015-08-22T14:55:06Z</time>
      </trkpt>
      <trkpt lat="45.41726" lon="7.03042">
        <ele>2786.3364</ele>
        <time>2015-08-22T14:55:16Z</time>
      </trkpt>
      <trkpt lat="45.4172" lon="7.03043">
        <ele>2786.3364</ele>
        <time>2015-08-22T14:57:06Z</time>
      </trkpt>
      <trkpt lat="45.41713" lon="7.0305">
        <ele>2785.7964</ele>
        <time>2015-08-22T14:57:11Z</time>
      </trkpt>
      <trkpt lat="45.41708" lon="7.03061">
        <ele>2785.2214</ele>
        <time>2015-08-22T14:57:21Z</time>
      </trkpt>
      <trkpt lat="45.41708" lon="7.03067">
        <ele>2785.2214</ele>
        <time>2015-08-22T14:57:26Z</time>
      </trkpt>
      <trkpt lat="45.41705" lon="7.03081">
        <ele>2784.678</ele>
        <time>2015-08-22T14:57:36Z</time>
      </trkpt>
      <trkpt lat="45.41702" lon="7.03088">
        <ele>2784.678</ele>
        <time>2015-08-22T14:57:41Z</time>
      </trkpt>
      <trkpt lat="45.41695" lon="7.031">
        <ele>2784.1838</ele>
        <time>2015-08-22T14:57:51Z</time>
      </trkpt>
      <trkpt lat="45.41691" lon="7.03104">
        <ele>2784.1838</ele>
        <time>2015-08-22T14:57:56Z</time>
      </trkpt>
      <trkpt lat="45.41681" lon="7.03109">
        <ele>2783.6262</ele>
        <time>2015-08-22T14:58:06Z</time>
      </trkpt>
      <trkpt lat="45.41675" lon="7.03113">
        <ele>2783.6262</ele>
        <time>2015-08-22T14:58:11Z</time>
      </trkpt>
      <trkpt lat="45.41663" lon="7.03117">
        <ele>2783.1594</ele>
        <time>2015-08-22T14:58:21Z</time>
      </trkpt>
      <trkpt lat="45.41657" lon="7.03118">
        <ele>2783.1594</ele>
        <time>2015-08-22T14:58:26Z</time>
      </trkpt>
      <trkpt lat="45.41645" lon="7.03117">
        <ele>2782.696</ele>
        <time>2015-08-22T14:58:41Z</time>
      </trkpt>
      <trkpt lat="45.41643" lon="7.03121">
        <ele>2782.696</ele>
        <time>2015-08-22T14:58:46Z</time>
      </trkpt>
      <trkpt lat="45.41645" lon="7.03127">
        <ele>2782.696</ele>
        <time>2015-08-22T14:58:56Z</time>
      </trkpt>
      <trkpt lat="45.41644" lon="7.03125">
        <ele>2782.1113</ele>
        <time>2015-08-22T14:59:01Z</time>
      </trkpt>
      <trkpt lat="45.41642" lon="7.0312">
        <ele>2782.1113</ele>
        <time>2015-08-22T14:59:11Z</time>
      </trkpt>
      <trkpt lat="45.41643" lon="7.03123">
        <ele>2782.1113</ele>
        <time>2015-08-22T14:59:16Z</time>
      </trkpt>
      <trkpt lat="45.41648" lon="7.03131">
        <ele>2781.0164</ele>
        <time>2015-08-22T14:59:26Z</time>
      </trkpt>
      <trkpt lat="45.41648" lon="7.03131">
        <ele>2781.0164</ele>
        <time>2015-08-22T14:59:31Z</time>
      </trkpt>
      <trkpt lat="45.41646" lon="7.03134">
        <ele>2781.0164</ele>
        <time>2015-08-22T14:59:41Z</time>
      </trkpt>
      <trkpt lat="45.41645" lon="7.03136">
        <ele>2781.0164</ele>
        <time>2015-08-22T14:59:46Z</time>
      </trkpt>
      <trkpt lat="45.41644" lon="7.03135">
        <ele>2781.0164</ele>
        <time>2015-08-22T14:59:56Z</time>
      </trkpt>
      <trkpt lat="45.41644" lon="7.03136">
        <ele>2781.0164</ele>
        <time>2015-08-22T15:00:01Z</time>
      </trkpt>
      <trkpt lat="45.41641" lon="7.03139">
        <ele>2778.5762</ele>
        <time>2015-08-22T15:00:11Z</time>
      </trkpt>
      <trkpt lat="45.41638" lon="7.03136">
        <ele>2778.5762</ele>
        <time>2015-08-22T15:00:16Z</time>
      </trkpt>
      <trkpt lat="45.41634" lon="7.03145">
        <ele>2776.514</ele>
        <time>2015-08-22T15:00:26Z</time>
      </trkpt>
      <trkpt lat="45.4163" lon="7.03156">
        <ele>2776.514</ele>
        <time>2015-08-22T15:00:31Z</time>
      </trkpt>
      <trkpt lat="45.41618" lon="7.03147">
        <ele>2774.3499</ele>
        <time>2015-08-22T15:00:46Z</time>
      </trkpt>
      <trkpt lat="45.41614" lon="7.03147">
        <ele>2774.3499</ele>
        <time>2015-08-22T15:00:51Z</time>
      </trkpt>
      <trkpt lat="45.41607" lon="7.03145">
        <ele>2772.5044</ele>
        <time>2015-08-22T15:01:01Z</time>
      </trkpt>
      <trkpt lat="45.41604" lon="7.03144">
        <ele>2772.5044</ele>
        <time>2015-08-22T15:01:06Z</time>
      </trkpt>
      <trkpt lat="45.41595" lon="7.03143">
        <ele>2770.6743</ele>
        <time>2015-08-22T15:01:16Z</time>
      </trkpt>
      <trkpt lat="45.41592" lon="7.03142">
        <ele>2770.6743</ele>
        <time>2015-08-22T15:01:21Z</time>
      </trkpt>
      <trkpt lat="45.41588" lon="7.03137">
        <ele>2770.6743</ele>
        <time>2015-08-22T15:01:31Z</time>
      </trkpt>
      <trkpt lat="45.41585" lon="7.03137">
        <ele>2768.6208</ele>
        <time>2015-08-22T15:01:36Z</time>
      </trkpt>
      <trkpt lat="45.41579" lon="7.03135">
        <ele>2768.6208</ele>
        <time>2015-08-22T15:01:46Z</time>
      </trkpt>
      <trkpt lat="45.41576" lon="7.03135">
        <ele>2766.369</ele>
        <time>2015-08-22T15:01:51Z</time>
      </trkpt>
      <trkpt lat="45.4157" lon="7.03139">
        <ele>2766.369</ele>
        <time>2015-08-22T15:02:01Z</time>
      </trkpt>
      <trkpt lat="45.41568" lon="7.03138">
        <ele>2766.369</ele>
        <time>2015-08-22T15:02:06Z</time>
      </trkpt>
      <trkpt lat="45.41564" lon="7.03139">
        <ele>2763.5818</ele>
        <time>2015-08-22T15:02:16Z</time>
      </trkpt>
      <trkpt lat="45.41559" lon="7.03136">
        <ele>2763.5818</ele>
        <time>2015-08-22T15:02:21Z</time>
      </trkpt>
      <trkpt lat="45.41555" lon="7.03136">
        <ele>2760.654</ele>
        <time>2015-08-22T15:02:31Z</time>
      </trkpt>
      <trkpt lat="45.41556" lon="7.03136">
        <ele>2760.654</ele>
        <time>2015-08-22T15:02:36Z</time>
      </trkpt>
      <trkpt lat="45.41549" lon="7.03128">
        <ele>2757.693</ele>
        <time>2015-08-22T15:02:46Z</time>
      </trkpt>
      <trkpt lat="45.41545" lon="7.03124">
        <ele>2757.693</ele>
        <time>2015-08-22T15:02:51Z</time>
      </trkpt>
      <trkpt lat="45.41537" lon="7.03117">
        <ele>2754.653</ele>
        <time>2015-08-22T15:03:01Z</time>
      </trkpt>
      <trkpt lat="45.41529" lon="7.03112">
        <ele>2754.653</ele>
        <time>2015-08-22T15:03:06Z</time>
      </trkpt>
      <trkpt lat="45.4152" lon="7.03102">
        <ele>2751.2185</ele>
        <time>2015-08-22T15:03:16Z</time>
      </trkpt>
      <trkpt lat="45.41518" lon="7.03097">
        <ele>2751.2185</ele>
        <time>2015-08-22T15:03:21Z</time>
      </trkpt>
      <trkpt lat="45.41505" lon="7.03086">
        <ele>2747.4722</ele>
        <time>2015-08-22T15:03:36Z</time>
      </trkpt>
      <trkpt lat="45.41502" lon="7.03085">
        <ele>2747.4722</ele>
        <time>2015-08-22T15:03:41Z</time>
      </trkpt>
      <trkpt lat="45.41497" lon="7.03087">
        <ele>2747.4722</ele>
        <time>2015-08-22T15:03:51Z</time>
      </trkpt>
      <trkpt lat="45.41496" lon="7.03089">
        <ele>2743.1743</ele>
        <time>2015-08-22T15:03:56Z</time>
      </trkpt>
      <trkpt lat="45.41492" lon="7.03078">
        <ele>2738.796</ele>
        <time>2015-08-22T15:04:06Z</time>
      </trkpt>
      <trkpt lat="45.41489" lon="7.03075">
        <ele>2738.796</ele>
        <time>2015-08-22T15:04:11Z</time>
      </trkpt>
      <trkpt lat="45.41485" lon="7.0307">
        <ele>2738.796</ele>
        <time>2015-08-22T15:04:21Z</time>
      </trkpt>
      <trkpt lat="45.41482" lon="7.03071">
        <ele>2734.4849</ele>
        <time>2015-08-22T15:04:26Z</time>
      </trkpt>
      <trkpt lat="45.41474" lon="7.0307">
        <ele>2734.4849</ele>
        <time>2015-08-22T15:04:36Z</time>
      </trkpt>
      <trkpt lat="45.41473" lon="7.03066">
        <ele>2730.1187</ele>
        <time>2015-08-22T15:04:41Z</time>
      </trkpt>
      <trkpt lat="45.41466" lon="7.03062">
        <ele>2730.1187</ele>
        <time>2015-08-22T15:04:51Z</time>
      </trkpt>
      <trkpt lat="45.41464" lon="7.0306">
        <ele>2725.9722</ele>
        <time>2015-08-22T15:04:56Z</time>
      </trkpt>
      <trkpt lat="45.41454" lon="7.03056">
        <ele>2722.1987</ele>
        <time>2015-08-22T15:05:06Z</time>
      </trkpt>
      <trkpt lat="45.4145" lon="7.03058">
        <ele>2722.1987</ele>
        <time>2015-08-22T15:05:11Z</time>
      </trkpt>
      <trkpt lat="45.41447" lon="7.03066">
        <ele>2718.3188</ele>
        <time>2015-08-22T15:05:21Z</time>
      </trkpt>
      <trkpt lat="45.41445" lon="7.03069">
        <ele>2718.3188</ele>
        <time>2015-08-22T15:05:26Z</time>
      </trkpt>
      <trkpt lat="45.41441" lon="7.03064">
        <ele>2718.3188</ele>
        <time>2015-08-22T15:05:41Z</time>
      </trkpt>
      <trkpt lat="45.41444" lon="7.03066">
        <ele>2713.8167</ele>
        <time>2015-08-22T15:05:46Z</time>
      </trkpt>
      <trkpt lat="45.41438" lon="7.03064">
        <ele>2713.8167</ele>
        <time>2015-08-22T15:05:56Z</time>
      </trkpt>
      <trkpt lat="45.41439" lon="7.03065">
        <ele>2713.8167</ele>
        <time>2015-08-22T15:06:01Z</time>
      </trkpt>
      <trkpt lat="45.41437" lon="7.03065">
        <ele>2713.8167</ele>
        <time>2015-08-22T15:06:11Z</time>
      </trkpt>
      <trkpt lat="45.41435" lon="7.03063">
        <ele>2708.9646</ele>
        <time>2015-08-22T15:06:16Z</time>
      </trkpt>
      <trkpt lat="45.41428" lon="7.03063">
        <ele>2708.9646</ele>
        <time>2015-08-22T15:06:26Z</time>
      </trkpt>
      <trkpt lat="45.41425" lon="7.03061">
        <ele>2704.0588</ele>
        <time>2015-08-22T15:06:31Z</time>
      </trkpt>
      <trkpt lat="45.4142" lon="7.03055">
        <ele>2704.0588</ele>
        <time>2015-08-22T15:06:41Z</time>
      </trkpt>
      <trkpt lat="45.41417" lon="7.03055">
        <ele>2699.1433</ele>
        <time>2015-08-22T15:06:46Z</time>
      </trkpt>
      <trkpt lat="45.41413" lon="7.03053">
        <ele>2699.1433</ele>
        <time>2015-08-22T15:06:56Z</time>
      </trkpt>
      <trkpt lat="45.41409" lon="7.0305">
        <ele>2699.1433</ele>
        <time>2015-08-22T15:07:01Z</time>
      </trkpt>
      <trkpt lat="45.41404" lon="7.03044">
        <ele>2693.6099</ele>
        <time>2015-08-22T15:07:11Z</time>
      </trkpt>
      <trkpt lat="45.41403" lon="7.03042">
        <ele>2693.6099</ele>
        <time>2015-08-22T15:07:16Z</time>
      </trkpt>
      <trkpt lat="45.41395" lon="7.03038">
        <ele>2688.2795</ele>
        <time>2015-08-22T15:07:26Z</time>
      </trkpt>
      <trkpt lat="45.41391" lon="7.03033">
        <ele>2688.2795</ele>
        <time>2015-08-22T15:07:31Z</time>
      </trkpt>
      <trkpt lat="45.4139" lon="7.03027">
        <ele>2682.9756</ele>
        <time>2015-08-22T15:07:41Z</time>
      </trkpt>
      <trkpt lat="45.41388" lon="7.03029">
        <ele>2682.9756</ele>
        <time>2015-08-22T15:07:46Z</time>
      </trkpt>
      <trkpt lat="45.41379" lon="7.03026">
        <ele>2677.361</ele>
        <time>2015-08-22T15:08:01Z</time>
      </trkpt>
      <trkpt lat="45.41375" lon="7.03024">
        <ele>2677.361</ele>
        <time>2015-08-22T15:08:06Z</time>
      </trkpt>
      <trkpt lat="45.41371" lon="7.03018">
        <ele>2672.0173</ele>
        <time>2015-08-22T15:08:16Z</time>
      </trkpt>
      <trkpt lat="45.41369" lon="7.03016">
        <ele>2672.0173</ele>
        <time>2015-08-22T15:08:21Z</time>
      </trkpt>
      <trkpt lat="45.41364" lon="7.03011">
        <ele>2672.0173</ele>
        <time>2015-08-22T15:08:31Z</time>
      </trkpt>
      <trkpt lat="45.41364" lon="7.03012">
        <ele>2666.8337</ele>
        <time>2015-08-22T15:08:36Z</time>
      </trkpt>
      <trkpt lat="45.4136" lon="7.03006">
        <ele>2666.8337</ele>
        <time>2015-08-22T15:08:46Z</time>
      </trkpt>
      <trkpt lat="45.41359" lon="7.03005">
        <ele>2666.8337</ele>
        <time>2015-08-22T15:08:51Z</time>
      </trkpt>
      <trkpt lat="45.41354" lon="7.02994">
        <ele>2661.274</ele>
        <time>2015-08-22T15:09:01Z</time>
      </trkpt>
      <trkpt lat="45.41352" lon="7.02992">
        <ele>2661.274</ele>
        <time>2015-08-22T15:09:06Z</time>
      </trkpt>
      <trkpt lat="45.41347" lon="7.02988">
        <ele>2661.274</ele>
        <time>2015-08-22T15:09:16Z</time>
      </trkpt>
      <trkpt lat="45.41346" lon="7.02986">
        <ele>2655.5488</ele>
        <time>2015-08-22T15:09:21Z</time>
      </trkpt>
      <trkpt lat="45.41343" lon="7.02978">
        <ele>2655.5488</ele>
        <time>2015-08-22T15:09:31Z</time>
      </trkpt>
      <trkpt lat="45.41337" lon="7.02975">
        <ele>2649.9397</ele>
        <time>2015-08-22T15:09:36Z</time>
      </trkpt>
      <trkpt lat="45.41333" lon="7.02973">
        <ele>2649.9397</ele>
        <time>2015-08-22T15:09:46Z</time>
      </trkpt>
      <trkpt lat="45.41331" lon="7.02972">
        <ele>2649.9397</ele>
        <time>2015-08-22T15:09:51Z</time>
      </trkpt>
      <trkpt lat="45.41322" lon="7.02973">
        <ele>2644.0867</ele>
        <time>2015-08-22T15:10:01Z</time>
      </trkpt>
      <trkpt lat="45.4132" lon="7.02972">
        <ele>2644.0867</ele>
        <time>2015-08-22T15:10:06Z</time>
      </trkpt>
      <trkpt lat="45.41314" lon="7.02972">
        <ele>2644.0867</ele>
        <time>2015-08-22T15:10:16Z</time>
      </trkpt>
      <trkpt lat="45.41311" lon="7.02971">
        <ele>2638.2476</ele>
        <time>2015-08-22T15:10:21Z</time>
      </trkpt>
      <trkpt lat="45.41307" lon="7.02973">
        <ele>2638.2476</ele>
        <time>2015-08-22T15:10:31Z</time>
      </trkpt>
      <trkpt lat="45.41305" lon="7.02975">
        <ele>2638.2476</ele>
        <time>2015-08-22T15:10:36Z</time>
      </trkpt>
      <trkpt lat="45.41298" lon="7.02979">
        <ele>2632.4307</ele>
        <time>2015-08-22T15:10:46Z</time>
      </trkpt>
      <trkpt lat="45.41298" lon="7.02978">
        <ele>2632.4307</ele>
        <time>2015-08-22T15:10:51Z</time>
      </trkpt>
      <trkpt lat="45.41292" lon="7.02966">
        <ele>2627.0317</ele>
        <time>2015-08-22T15:11:06Z</time>
      </trkpt>
      <trkpt lat="45.41289" lon="7.02963">
        <ele>2627.0317</ele>
        <time>2015-08-22T15:11:11Z</time>
      </trkpt>
      <trkpt lat="45.41287" lon="7.02956">
        <ele>2622.0994</ele>
        <time>2015-08-22T15:11:21Z</time>
      </trkpt>
      <trkpt lat="45.41287" lon="7.02951">
        <ele>2622.0994</ele>
        <time>2015-08-22T15:11:26Z</time>
      </trkpt>
      <trkpt lat="45.4128" lon="7.02947">
        <ele>2617.8062</ele>
        <time>2015-08-22T15:11:36Z</time>
      </trkpt>
      <trkpt lat="45.41277" lon="7.02944">
        <ele>2617.8062</ele>
        <time>2015-08-22T15:11:41Z</time>
      </trkpt>
      <trkpt lat="45.41268" lon="7.02937">
        <ele>2614.0364</ele>
        <time>2015-08-22T15:11:51Z</time>
      </trkpt>
      <trkpt lat="45.41265" lon="7.02934">
        <ele>2614.0364</ele>
        <time>2015-08-22T15:11:56Z</time>
      </trkpt>
      <trkpt lat="45.41259" lon="7.02925">
        <ele>2610.6807</ele>
        <time>2015-08-22T15:12:06Z</time>
      </trkpt>
      <trkpt lat="45.41256" lon="7.02923">
        <ele>2610.6807</ele>
        <time>2015-08-22T15:12:11Z</time>
      </trkpt>
      <trkpt lat="45.41248" lon="7.02919">
        <ele>2607.6797</ele>
        <time>2015-08-22T15:12:26Z</time>
      </trkpt>
      <trkpt lat="45.41247" lon="7.02921">
        <ele>2607.6797</ele>
        <time>2015-08-22T15:12:31Z</time>
      </trkpt>
      <trkpt lat="45.41244" lon="7.02926">
        <ele>2607.6797</ele>
        <time>2015-08-22T15:12:41Z</time>
      </trkpt>
      <trkpt lat="45.41245" lon="7.02927">
        <ele>2607.6797</ele>
        <time>2015-08-22T15:12:46Z</time>
      </trkpt>
      <trkpt lat="45.41242" lon="7.0292">
        <ele>2604.934</ele>
        <time>2015-08-22T15:12:56Z</time>
      </trkpt>
      <trkpt lat="45.41238" lon="7.02918">
        <ele>2604.934</ele>
        <time>2015-08-22T15:13:01Z</time>
      </trkpt>
      <trkpt lat="45.41229" lon="7.02915">
        <ele>2602.437</ele>
        <time>2015-08-22T15:13:11Z</time>
      </trkpt>
      <trkpt lat="45.41224" lon="7.02913">
        <ele>2602.437</ele>
        <time>2015-08-22T15:13:16Z</time>
      </trkpt>
      <trkpt lat="45.41218" lon="7.02909">
        <ele>2600.4263</ele>
        <time>2015-08-22T15:13:26Z</time>
      </trkpt>
      <trkpt lat="45.41212" lon="7.02911">
        <ele>2600.4263</ele>
        <time>2015-08-22T15:13:31Z</time>
      </trkpt>
      <trkpt lat="45.41214" lon="7.02915">
        <ele>2598.746</ele>
        <time>2015-08-22T15:13:41Z</time>
      </trkpt>
      <trkpt lat="45.41214" lon="7.02911">
        <ele>2598.746</ele>
        <time>2015-08-22T15:13:46Z</time>
      </trkpt>
      <trkpt lat="45.41207" lon="7.02903">
        <ele>2597.3657</ele>
        <time>2015-08-22T15:13:56Z</time>
      </trkpt>
      <trkpt lat="45.41202" lon="7.02902">
        <ele>2597.3657</ele>
        <time>2015-08-22T15:14:01Z</time>
      </trkpt>
      <trkpt lat="45.41196" lon="7.02896">
        <ele>2596.2998</ele>
        <time>2015-08-22T15:14:11Z</time>
      </trkpt>
      <trkpt lat="45.41192" lon="7.02893">
        <ele>2596.2998</ele>
        <time>2015-08-22T15:14:16Z</time>
      </trkpt>
      <trkpt lat="45.41185" lon="7.02884">
        <ele>2595.214</ele>
        <time>2015-08-22T15:14:26Z</time>
      </trkpt>
      <trkpt lat="45.41182" lon="7.02881">
        <ele>2595.214</ele>
        <time>2015-08-22T15:14:31Z</time>
      </trkpt>
      <trkpt lat="45.41173" lon="7.02876">
        <ele>2594.1458</ele>
        <time>2015-08-22T15:14:41Z</time>
      </trkpt>
      <trkpt lat="45.41169" lon="7.02867">
        <ele>2594.1458</ele>
        <time>2015-08-22T15:14:46Z</time>
      </trkpt>
      <trkpt lat="45.41165" lon="7.02861">
        <ele>2593.3735</ele>
        <time>2015-08-22T15:14:56Z</time>
      </trkpt>
      <trkpt lat="45.4116" lon="7.02859">
        <ele>2593.3735</ele>
        <time>2015-08-22T15:15:01Z</time>
      </trkpt>
      <trkpt lat="45.41152" lon="7.02853">
        <ele>2592.621</ele>
        <time>2015-08-22T15:15:11Z</time>
      </trkpt>
      <trkpt lat="45.41148" lon="7.02851">
        <ele>2592.621</ele>
        <time>2015-08-22T15:15:16Z</time>
      </trkpt>
      <trkpt lat="45.41143" lon="7.02841">
        <ele>2591.821</ele>
        <time>2015-08-22T15:15:31Z</time>
      </trkpt>
      <trkpt lat="45.41135" lon="7.02843">
        <ele>2591.821</ele>
        <time>2015-08-22T15:15:36Z</time>
      </trkpt>
      <trkpt lat="45.41127" lon="7.0284">
        <ele>2591.0396</ele>
        <time>2015-08-22T15:15:46Z</time>
      </trkpt>
      <trkpt lat="45.41119" lon="7.02839">
        <ele>2591.0396</ele>
        <time>2015-08-22T15:15:51Z</time>
      </trkpt>
      <trkpt lat="45.41111" lon="7.02835">
        <ele>2590.3096</ele>
        <time>2015-08-22T15:16:01Z</time>
      </trkpt>
      <trkpt lat="45.41108" lon="7.02832">
        <ele>2590.3096</ele>
        <time>2015-08-22T15:16:06Z</time>
      </trkpt>
      <trkpt lat="45.41102" lon="7.02821">
        <ele>2589.3882</ele>
        <time>2015-08-22T15:16:16Z</time>
      </trkpt>
      <trkpt lat="45.411" lon="7.02821">
        <ele>2589.3882</ele>
        <time>2015-08-22T15:16:21Z</time>
      </trkpt>
      <trkpt lat="45.41094" lon="7.02815">
        <ele>2588.2808</ele>
        <time>2015-08-22T15:16:31Z</time>
      </trkpt>
      <trkpt lat="45.41092" lon="7.02809">
        <ele>2588.2808</ele>
        <time>2015-08-22T15:16:36Z</time>
      </trkpt>
      <trkpt lat="45.41082" lon="7.02804">
        <ele>2587.2527</ele>
        <time>2015-08-22T15:16:46Z</time>
      </trkpt>
      <trkpt lat="45.41077" lon="7.02801">
        <ele>2587.2527</ele>
        <time>2015-08-22T15:16:51Z</time>
      </trkpt>
      <trkpt lat="45.41075" lon="7.02789">
        <ele>2586.06</ele>
        <time>2015-08-22T15:17:06Z</time>
      </trkpt>
      <trkpt lat="45.41072" lon="7.02784">
        <ele>2586.06</ele>
        <time>2015-08-22T15:17:11Z</time>
      </trkpt>
      <trkpt lat="45.41065" lon="7.02775">
        <ele>2585.0103</ele>
        <time>2015-08-22T15:17:21Z</time>
      </trkpt>
      <trkpt lat="45.41064" lon="7.02771">
        <ele>2585.0103</ele>
        <time>2015-08-22T15:17:26Z</time>
      </trkpt>
      <trkpt lat="45.41058" lon="7.02761">
        <ele>2584.1428</ele>
        <time>2015-08-22T15:17:36Z</time>
      </trkpt>
      <trkpt lat="45.41056" lon="7.02759">
        <ele>2584.1428</ele>
        <time>2015-08-22T15:17:41Z</time>
      </trkpt>
      <trkpt lat="45.41049" lon="7.02754">
        <ele>2583.2783</ele>
        <time>2015-08-22T15:17:51Z</time>
      </trkpt>
      <trkpt lat="45.41043" lon="7.02748">
        <ele>2583.2783</ele>
        <time>2015-08-22T15:17:56Z</time>
      </trkpt>
      <trkpt lat="45.41035" lon="7.02739">
        <ele>2582.798</ele>
        <time>2015-08-22T15:18:06Z</time>
      </trkpt>
      <trkpt lat="45.41034" lon="7.02737">
        <ele>2582.798</ele>
        <time>2015-08-22T15:18:11Z</time>
      </trkpt>
      <trkpt lat="45.41023" lon="7.02734">
        <ele>2582.478</ele>
        <time>2015-08-22T15:18:21Z</time>
      </trkpt>
      <trkpt lat="45.41019" lon="7.02734">
        <ele>2582.478</ele>
        <time>2015-08-22T15:18:26Z</time>
      </trkpt>
      <trkpt lat="45.41016" lon="7.02731">
        <ele>2582.478</ele>
        <time>2015-08-22T15:18:36Z</time>
      </trkpt>
      <trkpt lat="45.41015" lon="7.0273">
        <ele>2582.478</ele>
        <time>2015-08-22T15:18:41Z</time>
      </trkpt>
      <trkpt lat="45.41003" lon="7.02735">
        <ele>2581.6345</ele>
        <time>2015-08-22T15:18:56Z</time>
      </trkpt>
      <trkpt lat="45.41001" lon="7.02738">
        <ele>2581.6345</ele>
        <time>2015-08-22T15:19:01Z</time>
      </trkpt>
      <trkpt lat="45.40999" lon="7.02739">
        <ele>2581.6345</ele>
        <time>2015-08-22T15:19:11Z</time>
      </trkpt>
      <trkpt lat="45.40998" lon="7.02739">
        <ele>2581.6345</ele>
        <time>2015-08-22T15:19:16Z</time>
      </trkpt>
      <trkpt lat="45.4099" lon="7.02742">
        <ele>2580.328</ele>
        <time>2015-08-22T15:19:26Z</time>
      </trkpt>
      <trkpt lat="45.40984" lon="7.02743">
        <ele>2580.328</ele>
        <time>2015-08-22T15:19:31Z</time>
      </trkpt>
      <trkpt lat="45.40974" lon="7.0274">
        <ele>2578.918</ele>
        <time>2015-08-22T15:19:41Z</time>
      </trkpt>
      <trkpt lat="45.40973" lon="7.02738">
        <ele>2578.918</ele>
        <time>2015-08-22T15:19:46Z</time>
      </trkpt>
      <trkpt lat="45.40959" lon="7.02734">
        <ele>2577.595</ele>
        <time>2015-08-22T15:19:56Z</time>
      </trkpt>
      <trkpt lat="45.40953" lon="7.0273">
        <ele>2577.595</ele>
        <time>2015-08-22T15:20:01Z</time>
      </trkpt>
      <trkpt lat="45.40945" lon="7.02727">
        <ele>2576.2031</ele>
        <time>2015-08-22T15:20:11Z</time>
      </trkpt>
      <trkpt lat="45.4094" lon="7.02727">
        <ele>2576.2031</ele>
        <time>2015-08-22T15:20:16Z</time>
      </trkpt>
      <trkpt lat="45.40934" lon="7.02731">
        <ele>2574.7427</ele>
        <time>2015-08-22T15:20:26Z</time>
      </trkpt>
      <trkpt lat="45.40928" lon="7.02734">
        <ele>2574.7427</ele>
        <time>2015-08-22T15:20:31Z</time>
      </trkpt>
      <trkpt lat="45.40914" lon="7.02739">
        <ele>2573.2002</ele>
        <time>2015-08-22T15:20:41Z</time>
      </trkpt>
      <trkpt lat="45.40907" lon="7.02742">
        <ele>2573.2002</ele>
        <time>2015-08-22T15:20:46Z</time>
      </trkpt>
      <trkpt lat="45.40902" lon="7.02745">
        <ele>2571.65</ele>
        <time>2015-08-22T15:20:56Z</time>
      </trkpt>
      <trkpt lat="45.40896" lon="7.02748">
        <ele>2571.65</ele>
        <time>2015-08-22T15:21:01Z</time>
      </trkpt>
      <trkpt lat="45.40885" lon="7.02751">
        <ele>2570.031</ele>
        <time>2015-08-22T15:21:11Z</time>
      </trkpt>
      <trkpt lat="45.4088" lon="7.02751">
        <ele>2570.031</ele>
        <time>2015-08-22T15:21:16Z</time>
      </trkpt>
      <trkpt lat="45.40869" lon="7.02751">
        <ele>2568.5903</ele>
        <time>2015-08-22T15:21:26Z</time>
      </trkpt>
      <trkpt lat="45.40869" lon="7.02747">
        <ele>2568.5903</ele>
        <time>2015-08-22T15:21:31Z</time>
      </trkpt>
      <trkpt lat="45.40859" lon="7.02741">
        <ele>2567.4988</ele>
        <time>2015-08-22T15:21:46Z</time>
      </trkpt>
      <trkpt lat="45.40853" lon="7.02744">
        <ele>2567.4988</ele>
        <time>2015-08-22T15:21:51Z</time>
      </trkpt>
      <trkpt lat="45.40845" lon="7.0275">
        <ele>2566.3804</ele>
        <time>2015-08-22T15:22:01Z</time>
      </trkpt>
      <trkpt lat="45.40842" lon="7.02748">
        <ele>2566.3804</ele>
        <time>2015-08-22T15:22:06Z</time>
      </trkpt>
      <trkpt lat="45.40833" lon="7.02744">
        <ele>2565.06</ele>
        <time>2015-08-22T15:22:16Z</time>
      </trkpt>
      <trkpt lat="45.40827" lon="7.02746">
        <ele>2565.06</ele>
        <time>2015-08-22T15:22:21Z</time>
      </trkpt>
      <trkpt lat="45.40817" lon="7.02743">
        <ele>2563.7944</ele>
        <time>2015-08-22T15:22:31Z</time>
      </trkpt>
      <trkpt lat="45.40815" lon="7.02743">
        <ele>2563.7944</ele>
        <time>2015-08-22T15:22:36Z</time>
      </trkpt>
      <trkpt lat="45.40805" lon="7.02744">
        <ele>2562.5908</ele>
        <time>2015-08-22T15:22:46Z</time>
      </trkpt>
      <trkpt lat="45.40801" lon="7.02744">
        <ele>2562.5908</ele>
        <time>2015-08-22T15:22:51Z</time>
      </trkpt>
      <trkpt lat="45.40794" lon="7.02746">
        <ele>2561.542</ele>
        <time>2015-08-22T15:23:01Z</time>
      </trkpt>
      <trkpt lat="45.40793" lon="7.02742">
        <ele>2561.542</ele>
        <time>2015-08-22T15:23:06Z</time>
      </trkpt>
      <trkpt lat="45.40787" lon="7.02742">
        <ele>2560.4458</ele>
        <time>2015-08-22T15:23:16Z</time>
      </trkpt>
      <trkpt lat="45.40781" lon="7.02745">
        <ele>2560.4458</ele>
        <time>2015-08-22T15:23:21Z</time>
      </trkpt>
      <trkpt lat="45.40761" lon="7.02752">
        <ele>2559.274</ele>
        <time>2015-08-22T15:23:36Z</time>
      </trkpt>
      <trkpt lat="45.40761" lon="7.02749">
        <ele>2559.274</ele>
        <time>2015-08-22T15:23:41Z</time>
      </trkpt>
      <trkpt lat="45.40763" lon="7.02754">
        <ele>2559.274</ele>
        <time>2015-08-22T15:23:51Z</time>
      </trkpt>
      <trkpt lat="45.40764" lon="7.02754">
        <ele>2559.274</ele>
        <time>2015-08-22T15:23:56Z</time>
      </trkpt>
      <trkpt lat="45.4075" lon="7.02748">
        <ele>2558.1873</ele>
        <time>2015-08-22T15:24:06Z</time>
      </trkpt>
      <trkpt lat="45.40745" lon="7.02746">
        <ele>2558.1873</ele>
        <time>2015-08-22T15:24:11Z</time>
      </trkpt>
      <trkpt lat="45.40741" lon="7.02744">
        <ele>2557.148</ele>
        <time>2015-08-22T15:24:21Z</time>
      </trkpt>
      <trkpt lat="45.40737" lon="7.02741">
        <ele>2557.148</ele>
        <time>2015-08-22T15:24:26Z</time>
      </trkpt>
      <trkpt lat="45.40733" lon="7.02739">
        <ele>2557.148</ele>
        <time>2015-08-22T15:24:36Z</time>
      </trkpt>
      <trkpt lat="45.40725" lon="7.02743">
        <ele>2556.0488</ele>
        <time>2015-08-22T15:24:41Z</time>
      </trkpt>
      <trkpt lat="45.4072" lon="7.02746">
        <ele>2556.0488</ele>
        <time>2015-08-22T15:24:51Z</time>
      </trkpt>
      <trkpt lat="45.40716" lon="7.02745">
        <ele>2554.8196</ele>
        <time>2015-08-22T15:24:56Z</time>
      </trkpt>
      <trkpt lat="45.40707" lon="7.02745">
        <ele>2553.511</ele>
        <time>2015-08-22T15:25:06Z</time>
      </trkpt>
      <trkpt lat="45.40703" lon="7.02744">
        <ele>2553.511</ele>
        <time>2015-08-22T15:25:11Z</time>
      </trkpt>
      <trkpt lat="45.40694" lon="7.02745">
        <ele>2551.9397</ele>
        <time>2015-08-22T15:25:26Z</time>
      </trkpt>
      <trkpt lat="45.40689" lon="7.02747">
        <ele>2551.9397</ele>
        <time>2015-08-22T15:25:31Z</time>
      </trkpt>
      <trkpt lat="45.40677" lon="7.02748">
        <ele>2550.3264</ele>
        <time>2015-08-22T15:25:41Z</time>
      </trkpt>
      <trkpt lat="45.40673" lon="7.02746">
        <ele>2550.3264</ele>
        <time>2015-08-22T15:25:46Z</time>
      </trkpt>
      <trkpt lat="45.40664" lon="7.02746">
        <ele>2548.6587</ele>
        <time>2015-08-22T15:25:56Z</time>
      </trkpt>
      <trkpt lat="45.40661" lon="7.0275">
        <ele>2548.6587</ele>
        <time>2015-08-22T15:26:01Z</time>
      </trkpt>
      <trkpt lat="45.40649" lon="7.02747">
        <ele>2546.8542</ele>
        <time>2015-08-22T15:26:11Z</time>
      </trkpt>
      <trkpt lat="45.40644" lon="7.02745">
        <ele>2546.8542</ele>
        <time>2015-08-22T15:26:16Z</time>
      </trkpt>
      <trkpt lat="45.40635" lon="7.02742">
        <ele>2545.3555</ele>
        <time>2015-08-22T15:26:26Z</time>
      </trkpt>
      <trkpt lat="45.40632" lon="7.02738">
        <ele>2545.3555</ele>
        <time>2015-08-22T15:26:31Z</time>
      </trkpt>
      <trkpt lat="45.4063" lon="7.02738">
        <ele>2545.3555</ele>
        <time>2015-08-22T15:26:41Z</time>
      </trkpt>
      <trkpt lat="45.4063" lon="7.0274">
        <ele>2545.3555</ele>
        <time>2015-08-22T15:26:46Z</time>
      </trkpt>
      <trkpt lat="45.40633" lon="7.02746">
        <ele>2543.779</ele>
        <time>2015-08-22T15:26:56Z</time>
      </trkpt>
      <trkpt lat="45.40635" lon="7.02745">
        <ele>2543.779</ele>
        <time>2015-08-22T15:27:01Z</time>
      </trkpt>
      <trkpt lat="45.40635" lon="7.02736">
        <ele>2543.779</ele>
        <time>2015-08-22T15:27:16Z</time>
      </trkpt>
      <trkpt lat="45.40631" lon="7.02734">
        <ele>2542.3325</ele>
        <time>2015-08-22T15:27:21Z</time>
      </trkpt>
      <trkpt lat="45.40629" lon="7.02729">
        <ele>2542.3325</ele>
        <time>2015-08-22T15:27:31Z</time>
      </trkpt>
      <trkpt lat="45.40629" lon="7.02729">
        <ele>2542.3325</ele>
        <time>2015-08-22T15:27:36Z</time>
      </trkpt>
      <trkpt lat="45.40629" lon="7.02729">
        <ele>2542.3325</ele>
        <time>2015-08-22T15:27:46Z</time>
      </trkpt>
      <trkpt lat="45.40628" lon="7.02731">
        <ele>2542.3325</ele>
        <time>2015-08-22T15:31:26Z</time>
      </trkpt>
      <trkpt lat="45.40629" lon="7.02732">
        <ele>2542.3325</ele>
        <time>2015-08-22T15:31:31Z</time>
      </trkpt>
      <trkpt lat="45.40629" lon="7.02732">
        <ele>2542.3325</ele>
        <time>2015-08-22T15:31:41Z</time>
      </trkpt>
      <trkpt lat="45.40628" lon="7.02732">
        <ele>2542.3325</ele>
        <time>2015-08-22T15:31:56Z</time>
      </trkpt>
      <trkpt lat="45.40628" lon="7.02729">
        <ele>2540.9192</ele>
        <time>2015-08-22T15:32:01Z</time>
      </trkpt>
      <trkpt lat="45.40621" lon="7.02727">
        <ele>2540.9192</ele>
        <time>2015-08-22T15:32:11Z</time>
      </trkpt>
      <trkpt lat="45.40618" lon="7.02727">
        <ele>2539.853</ele>
        <time>2015-08-22T15:32:16Z</time>
      </trkpt>
      <trkpt lat="45.40604" lon="7.02724">
        <ele>2539.021</ele>
        <time>2015-08-22T15:32:26Z</time>
      </trkpt>
      <trkpt lat="45.40598" lon="7.02721">
        <ele>2539.021</ele>
        <time>2015-08-22T15:32:31Z</time>
      </trkpt>
      <trkpt lat="45.40592" lon="7.02718">
        <ele>2538.303</ele>
        <time>2015-08-22T15:32:41Z</time>
      </trkpt>
      <trkpt lat="45.4059" lon="7.02716">
        <ele>2538.303</ele>
        <time>2015-08-22T15:32:46Z</time>
      </trkpt>
      <trkpt lat="45.40585" lon="7.02717">
        <ele>2538.303</ele>
        <time>2015-08-22T15:33:01Z</time>
      </trkpt>
      <trkpt lat="45.40582" lon="7.02715">
        <ele>2537.9045</ele>
        <time>2015-08-22T15:33:16Z</time>
      </trkpt>
      <trkpt lat="45.4058" lon="7.02716">
        <ele>2537.9045</ele>
        <time>2015-08-22T15:33:21Z</time>
      </trkpt>
      <trkpt lat="45.40578" lon="7.02721">
        <ele>2537.9045</ele>
        <time>2015-08-22T15:33:31Z</time>
      </trkpt>
      <trkpt lat="45.40578" lon="7.02726">
        <ele>2537.41</ele>
        <time>2015-08-22T15:33:36Z</time>
      </trkpt>
      <trkpt lat="45.40583" lon="7.02736">
        <ele>2536.6223</ele>
        <time>2015-08-22T15:33:46Z</time>
      </trkpt>
      <trkpt lat="45.40583" lon="7.02739">
        <ele>2536.6223</ele>
        <time>2015-08-22T15:33:51Z</time>
      </trkpt>
      <trkpt lat="45.40584" lon="7.02749">
        <ele>2535.532</ele>
        <time>2015-08-22T15:34:01Z</time>
      </trkpt>
      <trkpt lat="45.40584" lon="7.0275">
        <ele>2535.532</ele>
        <time>2015-08-22T15:34:06Z</time>
      </trkpt>
      <trkpt lat="45.40584" lon="7.0275">
        <ele>2535.532</ele>
        <time>2015-08-22T15:34:16Z</time>
      </trkpt>
      <trkpt lat="45.40584" lon="7.02762">
        <ele>2535.532</ele>
        <time>2015-08-22T15:34:31Z</time>
      </trkpt>
      <trkpt lat="45.40581" lon="7.02768">
        <ele>2534.4924</ele>
        <time>2015-08-22T15:34:36Z</time>
      </trkpt>
      <trkpt lat="45.40574" lon="7.02776">
        <ele>2534.4924</ele>
        <time>2015-08-22T15:34:46Z</time>
      </trkpt>
      <trkpt lat="45.40572" lon="7.02781">
        <ele>2532.85</ele>
        <time>2015-08-22T15:34:51Z</time>
      </trkpt>
      <trkpt lat="45.4057" lon="7.02795">
        <ele>2531.0251</ele>
        <time>2015-08-22T15:35:01Z</time>
      </trkpt>
      <trkpt lat="45.4057" lon="7.02802">
        <ele>2531.0251</ele>
        <time>2015-08-22T15:35:06Z</time>
      </trkpt>
      <trkpt lat="45.40561" lon="7.02817">
        <ele>2529.0322</ele>
        <time>2015-08-22T15:35:21Z</time>
      </trkpt>
      <trkpt lat="45.40558" lon="7.02821">
        <ele>2529.0322</ele>
        <time>2015-08-22T15:35:26Z</time>
      </trkpt>
      <trkpt lat="45.40548" lon="7.02824">
        <ele>2527.217</ele>
        <time>2015-08-22T15:35:36Z</time>
      </trkpt>
      <trkpt lat="45.40545" lon="7.02827">
        <ele>2527.217</ele>
        <time>2015-08-22T15:35:41Z</time>
      </trkpt>
      <trkpt lat="45.40537" lon="7.02828">
        <ele>2525.381</ele>
        <time>2015-08-22T15:35:51Z</time>
      </trkpt>
      <trkpt lat="45.40532" lon="7.02824">
        <ele>2525.381</ele>
        <time>2015-08-22T15:35:56Z</time>
      </trkpt>
      <trkpt lat="45.40527" lon="7.02828">
        <ele>2523.5562</ele>
        <time>2015-08-22T15:36:06Z</time>
      </trkpt>
      <trkpt lat="45.40526" lon="7.02835">
        <ele>2523.5562</ele>
        <time>2015-08-22T15:36:11Z</time>
      </trkpt>
      <trkpt lat="45.40526" lon="7.02837">
        <ele>2523.5562</ele>
        <time>2015-08-22T15:36:21Z</time>
      </trkpt>
      <trkpt lat="45.40524" lon="7.02845">
        <ele>2521.6567</ele>
        <time>2015-08-22T15:36:26Z</time>
      </trkpt>
      <trkpt lat="45.40522" lon="7.02847">
        <ele>2521.6567</ele>
        <time>2015-08-22T15:36:36Z</time>
      </trkpt>
      <trkpt lat="45.40514" lon="7.02848">
        <ele>2519.7908</ele>
        <time>2015-08-22T15:37:11Z</time>
      </trkpt>
      <trkpt lat="45.40511" lon="7.02851">
        <ele>2519.7908</ele>
        <time>2015-08-22T15:37:16Z</time>
      </trkpt>
      <trkpt lat="45.40504" lon="7.0285">
        <ele>2518.3757</ele>
        <time>2015-08-22T15:37:26Z</time>
      </trkpt>
      <trkpt lat="45.40505" lon="7.02852">
        <ele>2518.3757</ele>
        <time>2015-08-22T15:37:31Z</time>
      </trkpt>
      <trkpt lat="45.40517" lon="7.02867">
        <ele>2516.918</ele>
        <time>2015-08-22T15:37:41Z</time>
      </trkpt>
      <trkpt lat="45.40518" lon="7.02875">
        <ele>2516.918</ele>
        <time>2015-08-22T15:37:46Z</time>
      </trkpt>
      <trkpt lat="45.40511" lon="7.02883">
        <ele>2515.7092</ele>
        <time>2015-08-22T15:37:56Z</time>
      </trkpt>
      <trkpt lat="45.40507" lon="7.02888">
        <ele>2515.7092</ele>
        <time>2015-08-22T15:38:01Z</time>
      </trkpt>
      <trkpt lat="45.40505" lon="7.02899">
        <ele>2514.7458</ele>
        <time>2015-08-22T15:38:11Z</time>
      </trkpt>
      <trkpt lat="45.40505" lon="7.02899">
        <ele>2514.7458</ele>
        <time>2015-08-22T15:38:16Z</time>
      </trkpt>
      <trkpt lat="45.40503" lon="7.02901">
        <ele>2514.7458</ele>
        <time>2015-08-22T15:38:31Z</time>
      </trkpt>
      <trkpt lat="45.40509" lon="7.0292">
        <ele>2514.3838</ele>
        <time>2015-08-22T15:38:41Z</time>
      </trkpt>
      <trkpt lat="45.40517" lon="7.0293">
        <ele>2514.4033</ele>
        <time>2015-08-22T15:38:46Z</time>
      </trkpt>
      <trkpt lat="45.40519" lon="7.02944">
        <ele>2515.1047</ele>
        <time>2015-08-22T15:38:56Z</time>
      </trkpt>
      <trkpt lat="45.40517" lon="7.02949">
        <ele>2515.1047</ele>
        <time>2015-08-22T15:39:01Z</time>
      </trkpt>
      <trkpt lat="45.40517" lon="7.02955">
        <ele>2515.1047</ele>
        <time>2015-08-22T15:39:11Z</time>
      </trkpt>
      <trkpt lat="45.40516" lon="7.02958">
        <ele>2516.3604</ele>
        <time>2015-08-22T15:39:16Z</time>
      </trkpt>
      <trkpt lat="45.4051" lon="7.0296">
        <ele>2516.3604</ele>
        <time>2015-08-22T15:39:26Z</time>
      </trkpt>
      <trkpt lat="45.40509" lon="7.02962">
        <ele>2516.3604</ele>
        <time>2015-08-22T15:39:31Z</time>
      </trkpt>
      <trkpt lat="45.40496" lon="7.02965">
        <ele>2517.0564</ele>
        <time>2015-08-22T15:39:41Z</time>
      </trkpt>
      <trkpt lat="45.40491" lon="7.02965">
        <ele>2517.0564</ele>
        <time>2015-08-22T15:39:46Z</time>
      </trkpt>
      <trkpt lat="45.40484" lon="7.02964">
        <ele>2517.5168</ele>
        <time>2015-08-22T15:39:56Z</time>
      </trkpt>
      <trkpt lat="45.40482" lon="7.02968">
        <ele>2517.5168</ele>
        <time>2015-08-22T15:40:01Z</time>
      </trkpt>
      <trkpt lat="45.40469" lon="7.02979">
        <ele>2517.697</ele>
        <time>2015-08-22T15:40:16Z</time>
      </trkpt>
      <trkpt lat="45.40465" lon="7.02981">
        <ele>2517.697</ele>
        <time>2015-08-22T15:40:21Z</time>
      </trkpt>
      <trkpt lat="45.40461" lon="7.02986">
        <ele>2517.7434</ele>
        <time>2015-08-22T15:40:31Z</time>
      </trkpt>
      <trkpt lat="45.40458" lon="7.02989">
        <ele>2517.7434</ele>
        <time>2015-08-22T15:40:36Z</time>
      </trkpt>
      <trkpt lat="45.40454" lon="7.03006">
        <ele>2517.7346</ele>
        <time>2015-08-22T15:40:46Z</time>
      </trkpt>
      <trkpt lat="45.40457" lon="7.0302">
        <ele>2517.6287</ele>
        <time>2015-08-22T15:40:51Z</time>
      </trkpt>
      <trkpt lat="45.40457" lon="7.03038">
        <ele>2517.344</ele>
        <time>2015-08-22T15:41:01Z</time>
      </trkpt>
      <trkpt lat="45.40465" lon="7.03049">
        <ele>2517.1648</ele>
        <time>2015-08-22T15:41:06Z</time>
      </trkpt>
      <trkpt lat="45.40467" lon="7.03067">
        <ele>2517.1106</ele>
        <time>2015-08-22T15:41:16Z</time>
      </trkpt>
      <trkpt lat="45.40464" lon="7.03073">
        <ele>2517.1106</ele>
        <time>2015-08-22T15:41:21Z</time>
      </trkpt>
      <trkpt lat="45.40459" lon="7.03085">
        <ele>2516.8958</ele>
        <time>2015-08-22T15:41:31Z</time>
      </trkpt>
      <trkpt lat="45.40459" lon="7.03091">
        <ele>2516.8958</ele>
        <time>2015-08-22T15:41:36Z</time>
      </trkpt>
      <trkpt lat="45.40459" lon="7.03101">
        <ele>2516.3281</ele>
        <time>2015-08-22T15:41:46Z</time>
      </trkpt>
      <trkpt lat="45.40462" lon="7.03107">
        <ele>2516.3281</ele>
        <time>2015-08-22T15:41:51Z</time>
      </trkpt>
      <trkpt lat="45.40462" lon="7.03113">
        <ele>2514.5542</ele>
        <time>2015-08-22T15:42:01Z</time>
      </trkpt>
      <trkpt lat="45.40455" lon="7.0312">
        <ele>2514.5542</ele>
        <time>2015-08-22T15:42:06Z</time>
      </trkpt>
      <trkpt lat="45.40443" lon="7.03131">
        <ele>2512.414</ele>
        <time>2015-08-22T15:42:16Z</time>
      </trkpt>
      <trkpt lat="45.40442" lon="7.03135">
        <ele>2512.414</ele>
        <time>2015-08-22T15:42:21Z</time>
      </trkpt>
      <trkpt lat="45.40437" lon="7.03136">
        <ele>2512.414</ele>
        <time>2015-08-22T15:42:31Z</time>
      </trkpt>
      <trkpt lat="45.40435" lon="7.03137">
        <ele>2510.0825</ele>
        <time>2015-08-22T15:42:36Z</time>
      </trkpt>
      <trkpt lat="45.40427" lon="7.03141">
        <ele>2510.0825</ele>
        <time>2015-08-22T15:42:46Z</time>
      </trkpt>
      <trkpt lat="45.40424" lon="7.03142">
        <ele>2507.6646</ele>
        <time>2015-08-22T15:42:51Z</time>
      </trkpt>
      <trkpt lat="45.40419" lon="7.03143">
        <ele>2507.6646</ele>
        <time>2015-08-22T15:43:01Z</time>
      </trkpt>
      <trkpt lat="45.40417" lon="7.03141">
        <ele>2507.6646</ele>
        <time>2015-08-22T15:43:06Z</time>
      </trkpt>
      <trkpt lat="45.40412" lon="7.0314">
        <ele>2505.344</ele>
        <time>2015-08-22T15:43:21Z</time>
      </trkpt>
      <trkpt lat="45.40409" lon="7.03142">
        <ele>2505.344</ele>
        <time>2015-08-22T15:43:26Z</time>
      </trkpt>
      <trkpt lat="45.40404" lon="7.03144">
        <ele>2505.344</ele>
        <time>2015-08-22T15:43:36Z</time>
      </trkpt>
      <trkpt lat="45.404" lon="7.03144">
        <ele>2502.9307</ele>
        <time>2015-08-22T15:43:41Z</time>
      </trkpt>
      <trkpt lat="45.40392" lon="7.03139">
        <ele>2502.9307</ele>
        <time>2015-08-22T15:43:51Z</time>
      </trkpt>
      <trkpt lat="45.40385" lon="7.0314">
        <ele>2500.609</ele>
        <time>2015-08-22T15:43:56Z</time>
      </trkpt>
      <trkpt lat="45.40375" lon="7.03147">
        <ele>2498.2175</ele>
        <time>2015-08-22T15:44:06Z</time>
      </trkpt>
      <trkpt lat="45.40372" lon="7.03148">
        <ele>2498.2175</ele>
        <time>2015-08-22T15:44:11Z</time>
      </trkpt>
      <trkpt lat="45.40364" lon="7.0315">
        <ele>2495.06</ele>
        <time>2015-08-22T15:44:21Z</time>
      </trkpt>
      <trkpt lat="45.40362" lon="7.03154">
        <ele>2495.06</ele>
        <time>2015-08-22T15:44:26Z</time>
      </trkpt>
      <trkpt lat="45.40356" lon="7.03153">
        <ele>2491.4446</ele>
        <time>2015-08-22T15:44:36Z</time>
      </trkpt>
      <trkpt lat="45.40352" lon="7.03156">
        <ele>2491.4446</ele>
        <time>2015-08-22T15:44:41Z</time>
      </trkpt>
      <trkpt lat="45.40347" lon="7.03159">
        <ele>2487.7583</ele>
        <time>2015-08-22T15:44:51Z</time>
      </trkpt>
      <trkpt lat="45.40346" lon="7.03162">
        <ele>2487.7583</ele>
        <time>2015-08-22T15:44:56Z</time>
      </trkpt>
      <trkpt lat="45.40336" lon="7.03163">
        <ele>2484.216</ele>
        <time>2015-08-22T15:45:06Z</time>
      </trkpt>
      <trkpt lat="45.40333" lon="7.03162">
        <ele>2484.216</ele>
        <time>2015-08-22T15:45:11Z</time>
      </trkpt>
      <trkpt lat="45.40328" lon="7.03164">
        <ele>2484.216</ele>
        <time>2015-08-22T15:45:21Z</time>
      </trkpt>
      <trkpt lat="45.40324" lon="7.03169">
        <ele>2479.8923</ele>
        <time>2015-08-22T15:45:26Z</time>
      </trkpt>
      <trkpt lat="45.40313" lon="7.03174">
        <ele>2475.6758</ele>
        <time>2015-08-22T15:45:36Z</time>
      </trkpt>
      <trkpt lat="45.4031" lon="7.03172">
        <ele>2475.6758</ele>
        <time>2015-08-22T15:45:41Z</time>
      </trkpt>
      <trkpt lat="45.403" lon="7.03187">
        <ele>2471.0344</ele>
        <time>2015-08-22T15:45:56Z</time>
      </trkpt>
      <trkpt lat="45.40294" lon="7.03186">
        <ele>2471.0344</ele>
        <time>2015-08-22T15:46:01Z</time>
      </trkpt>
      <trkpt lat="45.40289" lon="7.03195">
        <ele>2466.6145</ele>
        <time>2015-08-22T15:46:11Z</time>
      </trkpt>
      <trkpt lat="45.40286" lon="7.03196">
        <ele>2466.6145</ele>
        <time>2015-08-22T15:46:16Z</time>
      </trkpt>
      <trkpt lat="45.40283" lon="7.03198">
        <ele>2466.6145</ele>
        <time>2015-08-22T15:46:26Z</time>
      </trkpt>
      <trkpt lat="45.4028" lon="7.03201">
        <ele>2462.2654</ele>
        <time>2015-08-22T15:46:31Z</time>
      </trkpt>
      <trkpt lat="45.40275" lon="7.03205">
        <ele>2462.2654</ele>
        <time>2015-08-22T15:46:41Z</time>
      </trkpt>
      <trkpt lat="45.40272" lon="7.03208">
        <ele>2458.7114</ele>
        <time>2015-08-22T15:46:46Z</time>
      </trkpt>
      <trkpt lat="45.40265" lon="7.0321">
        <ele>2458.7114</ele>
        <time>2015-08-22T15:46:56Z</time>
      </trkpt>
      <trkpt lat="45.40265" lon="7.03214">
        <ele>2455.1511</ele>
        <time>2015-08-22T15:47:01Z</time>
      </trkpt>
      <trkpt lat="45.40263" lon="7.03218">
        <ele>2455.1511</ele>
        <time>2015-08-22T15:47:11Z</time>
      </trkpt>
      <trkpt lat="45.40262" lon="7.03221">
        <ele>2455.1511</ele>
        <time>2015-08-22T15:47:16Z</time>
      </trkpt>
      <trkpt lat="45.40258" lon="7.0323">
        <ele>2452.024</ele>
        <time>2015-08-22T15:47:31Z</time>
      </trkpt>
      <trkpt lat="45.40258" lon="7.03231">
        <ele>2452.024</ele>
        <time>2015-08-22T15:47:36Z</time>
      </trkpt>
      <trkpt lat="45.40254" lon="7.03238">
        <ele>2452.024</ele>
        <time>2015-08-22T15:47:46Z</time>
      </trkpt>
      <trkpt lat="45.40251" lon="7.03242">
        <ele>2449.8796</ele>
        <time>2015-08-22T15:47:51Z</time>
      </trkpt>
      <trkpt lat="45.40246" lon="7.03248">
        <ele>2449.8796</ele>
        <time>2015-08-22T15:48:01Z</time>
      </trkpt>
      <trkpt lat="45.40243" lon="7.0325">
        <ele>2448.1863</ele>
        <time>2015-08-22T15:48:06Z</time>
      </trkpt>
      <trkpt lat="45.40236" lon="7.03257">
        <ele>2448.1863</ele>
        <time>2015-08-22T15:48:16Z</time>
      </trkpt>
      <trkpt lat="45.40232" lon="7.03261">
        <ele>2446.8977</ele>
        <time>2015-08-22T15:48:21Z</time>
      </trkpt>
      <trkpt lat="45.40225" lon="7.03273">
        <ele>2445.709</ele>
        <time>2015-08-22T15:48:31Z</time>
      </trkpt>
      <trkpt lat="45.40223" lon="7.03278">
        <ele>2445.709</ele>
        <time>2015-08-22T15:48:36Z</time>
      </trkpt>
      <trkpt lat="45.40215" lon="7.03291">
        <ele>2444.8281</ele>
        <time>2015-08-22T15:48:46Z</time>
      </trkpt>
      <trkpt lat="45.40212" lon="7.03297">
        <ele>2444.8281</ele>
        <time>2015-08-22T15:48:51Z</time>
      </trkpt>
      <trkpt lat="45.40207" lon="7.03305">
        <ele>2444.5183</ele>
        <time>2015-08-22T15:49:01Z</time>
      </trkpt>
      <trkpt lat="45.40204" lon="7.03313">
        <ele>2444.5183</ele>
        <time>2015-08-22T15:49:06Z</time>
      </trkpt>
      <trkpt lat="45.40198" lon="7.03326">
        <ele>2444.633</ele>
        <time>2015-08-22T15:49:16Z</time>
      </trkpt>
      <trkpt lat="45.40197" lon="7.03333">
        <ele>2444.633</ele>
        <time>2015-08-22T15:49:21Z</time>
      </trkpt>
      <trkpt lat="45.40192" lon="7.03345">
        <ele>2444.8044</ele>
        <time>2015-08-22T15:49:31Z</time>
      </trkpt>
      <trkpt lat="45.4019" lon="7.0335">
        <ele>2444.8044</ele>
        <time>2015-08-22T15:49:36Z</time>
      </trkpt>
      <trkpt lat="45.40183" lon="7.03362">
        <ele>2445.1235</ele>
        <time>2015-08-22T15:49:46Z</time>
      </trkpt>
      <trkpt lat="45.40181" lon="7.03365">
        <ele>2445.1235</ele>
        <time>2015-08-22T15:49:51Z</time>
      </trkpt>
      <trkpt lat="45.40174" lon="7.03385">
        <ele>2445.6316</ele>
        <time>2015-08-22T15:50:06Z</time>
      </trkpt>
      <trkpt lat="45.40173" lon="7.03387">
        <ele>2445.6316</ele>
        <time>2015-08-22T15:50:11Z</time>
      </trkpt>
      <trkpt lat="45.40162" lon="7.03402">
        <ele>2446.2935</ele>
        <time>2015-08-22T15:50:21Z</time>
      </trkpt>
      <trkpt lat="45.40161" lon="7.03403">
        <ele>2446.2935</ele>
        <time>2015-08-22T15:50:26Z</time>
      </trkpt>
      <trkpt lat="45.40168" lon="7.03399">
        <ele>2446.2935</ele>
        <time>2015-08-22T15:50:36Z</time>
      </trkpt>
      <trkpt lat="45.40171" lon="7.034">
        <ele>2447.2783</ele>
        <time>2015-08-22T15:50:41Z</time>
      </trkpt>
      <trkpt lat="45.40175" lon="7.03404">
        <ele>2447.2783</ele>
        <time>2015-08-22T15:50:51Z</time>
      </trkpt>
      <trkpt lat="45.40175" lon="7.03406">
        <ele>2447.2783</ele>
        <time>2015-08-22T15:50:56Z</time>
      </trkpt>
      <trkpt lat="45.40175" lon="7.03406">
        <ele>2447.2783</ele>
        <time>2015-08-22T15:51:06Z</time>
      </trkpt>
      <trkpt lat="45.40174" lon="7.03407">
        <ele>2447.2783</ele>
        <time>2015-08-22T15:51:46Z</time>
      </trkpt>
      <trkpt lat="45.40159" lon="7.03414">
        <ele>2447.8628</ele>
        <time>2015-08-22T15:51:56Z</time>
      </trkpt>
      <trkpt lat="45.40154" lon="7.03416">
        <ele>2447.8628</ele>
        <time>2015-08-22T15:52:01Z</time>
      </trkpt>
      <trkpt lat="45.40148" lon="7.03423">
        <ele>2448.5454</ele>
        <time>2015-08-22T15:52:11Z</time>
      </trkpt>
      <trkpt lat="45.40148" lon="7.03423">
        <ele>2448.5454</ele>
        <time>2015-08-22T15:52:16Z</time>
      </trkpt>
      <trkpt lat="45.40148" lon="7.03426">
        <ele>2448.5454</ele>
        <time>2015-08-22T15:52:31Z</time>
      </trkpt>
      <trkpt lat="45.40148" lon="7.03426">
        <ele>2448.5454</ele>
        <time>2015-08-22T15:52:41Z</time>
      </trkpt>
      <trkpt lat="45.40145" lon="7.03432">
        <ele>2448.5454</ele>
        <time>2015-08-22T15:52:46Z</time>
      </trkpt>
      <trkpt lat="45.40148" lon="7.03435">
        <ele>2448.9082</ele>
        <time>2015-08-22T15:52:56Z</time>
      </trkpt>
      <trkpt lat="45.4015" lon="7.03437">
        <ele>2448.9082</ele>
        <time>2015-08-22T15:53:01Z</time>
      </trkpt>
      <trkpt lat="45.40157" lon="7.03442">
        <ele>2449.5745</ele>
        <time>2015-08-22T15:53:11Z</time>
      </trkpt>
      <trkpt lat="45.40158" lon="7.03446">
        <ele>2449.5745</ele>
        <time>2015-08-22T15:53:16Z</time>
      </trkpt>
      <trkpt lat="45.40157" lon="7.03446">
        <ele>2449.5745</ele>
        <time>2015-08-22T15:53:26Z</time>
      </trkpt>
      <trkpt lat="45.40153" lon="7.03444">
        <ele>2449.5745</ele>
        <time>2015-08-22T15:53:31Z</time>
      </trkpt>
      <trkpt lat="45.40139" lon="7.03457">
        <ele>2448.9727</ele>
        <time>2015-08-22T15:53:46Z</time>
      </trkpt>
      <trkpt lat="45.40139" lon="7.0346">
        <ele>2448.9727</ele>
        <time>2015-08-22T15:53:51Z</time>
      </trkpt>
      <trkpt lat="45.40143" lon="7.03467">
        <ele>2448.9727</ele>
        <time>2015-08-22T15:54:01Z</time>
      </trkpt>
      <trkpt lat="45.40143" lon="7.03469">
        <ele>2448.288</ele>
        <time>2015-08-22T15:54:06Z</time>
      </trkpt>
      <trkpt lat="45.40142" lon="7.03473">
        <ele>2448.288</ele>
        <time>2015-08-22T15:54:16Z</time>
      </trkpt>
      <trkpt lat="45.40138" lon="7.03471">
        <ele>2448.288</ele>
        <time>2015-08-22T15:54:21Z</time>
      </trkpt>
      <trkpt lat="45.40132" lon="7.03465">
        <ele>2446.4868</ele>
        <time>2015-08-22T15:54:31Z</time>
      </trkpt>
      <trkpt lat="45.40128" lon="7.0346">
        <ele>2446.4868</ele>
        <time>2015-08-22T15:54:36Z</time>
      </trkpt>
      <trkpt lat="45.40125" lon="7.03455">
        <ele>2444.17</ele>
        <time>2015-08-22T15:54:46Z</time>
      </trkpt>
      <trkpt lat="45.4012" lon="7.03452">
        <ele>2444.17</ele>
        <time>2015-08-22T15:54:51Z</time>
      </trkpt>
      <trkpt lat="45.40117" lon="7.03449">
        <ele>2441.8386</ele>
        <time>2015-08-22T15:55:01Z</time>
      </trkpt>
      <trkpt lat="45.40115" lon="7.03449">
        <ele>2441.8386</ele>
        <time>2015-08-22T15:55:06Z</time>
      </trkpt>
      <trkpt lat="45.40114" lon="7.03448">
        <ele>2441.8386</ele>
        <time>2015-08-22T15:55:16Z</time>
      </trkpt>
      <trkpt lat="45.40113" lon="7.03448">
        <ele>2441.8386</ele>
        <time>2015-08-22T15:55:21Z</time>
      </trkpt>
      <trkpt lat="45.40107" lon="7.03447">
        <ele>2439.5535</ele>
        <time>2015-08-22T15:55:31Z</time>
      </trkpt>
      <trkpt lat="45.40106" lon="7.03448">
        <ele>2439.5535</ele>
        <time>2015-08-22T15:55:36Z</time>
      </trkpt>
      <trkpt lat="45.401" lon="7.03446">
        <ele>2439.5535</ele>
        <time>2015-08-22T15:55:46Z</time>
      </trkpt>
      <trkpt lat="45.40098" lon="7.03441">
        <ele>2437.0823</ele>
        <time>2015-08-22T15:55:51Z</time>
      </trkpt>
      <trkpt lat="45.40086" lon="7.03427">
        <ele>2434.1826</ele>
        <time>2015-08-22T15:56:06Z</time>
      </trkpt>
      <trkpt lat="45.40084" lon="7.0342">
        <ele>2434.1826</ele>
        <time>2015-08-22T15:56:11Z</time>
      </trkpt>
      <trkpt lat="45.40081" lon="7.03425">
        <ele>2431.1628</ele>
        <time>2015-08-22T15:56:21Z</time>
      </trkpt>
      <trkpt lat="45.40085" lon="7.03435">
        <ele>2431.1628</ele>
        <time>2015-08-22T15:56:26Z</time>
      </trkpt>
      <trkpt lat="45.40089" lon="7.03451">
        <ele>2428.2815</ele>
        <time>2015-08-22T15:56:36Z</time>
      </trkpt>
      <trkpt lat="45.40086" lon="7.03454">
        <ele>2428.2815</ele>
        <time>2015-08-22T15:56:41Z</time>
      </trkpt>
      <trkpt lat="45.40084" lon="7.03461">
        <ele>2425.2583</ele>
        <time>2015-08-22T15:56:51Z</time>
      </trkpt>
      <trkpt lat="45.40087" lon="7.03466">
        <ele>2425.2583</ele>
        <time>2015-08-22T15:56:56Z</time>
      </trkpt>
      <trkpt lat="45.40094" lon="7.03479">
        <ele>2422.108</ele>
        <time>2015-08-22T15:57:06Z</time>
      </trkpt>
      <trkpt lat="45.40092" lon="7.03483">
        <ele>2422.108</ele>
        <time>2015-08-22T15:57:11Z</time>
      </trkpt>
      <trkpt lat="45.40096" lon="7.03496">
        <ele>2418.6567</ele>
        <time>2015-08-22T15:57:21Z</time>
      </trkpt>
      <trkpt lat="45.40089" lon="7.03499">
        <ele>2418.6567</ele>
        <time>2015-08-22T15:57:26Z</time>
      </trkpt>
      <trkpt lat="45.40083" lon="7.03502">
        <ele>2415.3215</ele>
        <time>2015-08-22T15:57:36Z</time>
      </trkpt>
      <trkpt lat="45.40082" lon="7.03502">
        <ele>2415.3215</ele>
        <time>2015-08-22T15:57:41Z</time>
      </trkpt>
      <trkpt lat="45.40076" lon="7.03517">
        <ele>2411.8823</ele>
        <time>2015-08-22T15:57:51Z</time>
      </trkpt>
      <trkpt lat="45.40075" lon="7.03523">
        <ele>2411.8823</ele>
        <time>2015-08-22T15:57:56Z</time>
      </trkpt>
      <trkpt lat="45.40071" lon="7.03536">
        <ele>2408.4966</ele>
        <time>2015-08-22T15:58:06Z</time>
      </trkpt>
      <trkpt lat="45.40068" lon="7.0354">
        <ele>2408.4966</ele>
        <time>2015-08-22T15:58:11Z</time>
      </trkpt>
      <trkpt lat="45.40066" lon="7.03561">
        <ele>2405.3955</ele>
        <time>2015-08-22T15:58:26Z</time>
      </trkpt>
      <trkpt lat="45.40063" lon="7.03566">
        <ele>2405.3955</ele>
        <time>2015-08-22T15:58:31Z</time>
      </trkpt>
      <trkpt lat="45.40063" lon="7.03576">
        <ele>2402.3032</ele>
        <time>2015-08-22T15:58:41Z</time>
      </trkpt>
      <trkpt lat="45.40065" lon="7.03584">
        <ele>2402.3032</ele>
        <time>2015-08-22T15:58:46Z</time>
      </trkpt>
      <trkpt lat="45.40063" lon="7.03595">
        <ele>2399.569</ele>
        <time>2015-08-22T15:58:56Z</time>
      </trkpt>
      <trkpt lat="45.40059" lon="7.036">
        <ele>2399.569</ele>
        <time>2015-08-22T15:59:01Z</time>
      </trkpt>
      <trkpt lat="45.40056" lon="7.03605">
        <ele>2397.3713</ele>
        <time>2015-08-22T15:59:11Z</time>
      </trkpt>
      <trkpt lat="45.40052" lon="7.03611">
        <ele>2397.3713</ele>
        <time>2015-08-22T15:59:16Z</time>
      </trkpt>
      <trkpt lat="45.4005" lon="7.0362">
        <ele>2395.3694</ele>
        <time>2015-08-22T15:59:26Z</time>
      </trkpt>
      <trkpt lat="45.4005" lon="7.03624">
        <ele>2395.3694</ele>
        <time>2015-08-22T15:59:31Z</time>
      </trkpt>
      <trkpt lat="45.40047" lon="7.03632">
        <ele>2395.3694</ele>
        <time>2015-08-22T15:59:41Z</time>
      </trkpt>
      <trkpt lat="45.40045" lon="7.03635">
        <ele>2393.3765</ele>
        <time>2015-08-22T15:59:46Z</time>
      </trkpt>
      <trkpt lat="45.40039" lon="7.03642">
        <ele>2393.3765</ele>
        <time>2015-08-22T15:59:56Z</time>
      </trkpt>
      <trkpt lat="45.40038" lon="7.03646">
        <ele>2391.4072</ele>
        <time>2015-08-22T16:00:01Z</time>
      </trkpt>
      <trkpt lat="45.40034" lon="7.03653">
        <ele>2391.4072</ele>
        <time>2015-08-22T16:00:11Z</time>
      </trkpt>
      <trkpt lat="45.40031" lon="7.03657">
        <ele>2389.4316</ele>
        <time>2015-08-22T16:00:16Z</time>
      </trkpt>
      <trkpt lat="45.40022" lon="7.03663">
        <ele>2387.5369</ele>
        <time>2015-08-22T16:00:26Z</time>
      </trkpt>
      <trkpt lat="45.4002" lon="7.03663">
        <ele>2387.5369</ele>
        <time>2015-08-22T16:00:31Z</time>
      </trkpt>
      <trkpt lat="45.40012" lon="7.03665">
        <ele>2386.207</ele>
        <time>2015-08-22T16:00:46Z</time>
      </trkpt>
      <trkpt lat="45.40009" lon="7.03667">
        <ele>2386.207</ele>
        <time>2015-08-22T16:00:51Z</time>
      </trkpt>
      <trkpt lat="45.40005" lon="7.03674">
        <ele>2385.356</ele>
        <time>2015-08-22T16:01:01Z</time>
      </trkpt>
      <trkpt lat="45.40001" lon="7.03677">
        <ele>2385.356</ele>
        <time>2015-08-22T16:01:06Z</time>
      </trkpt>
      <trkpt lat="45.39995" lon="7.03681">
        <ele>2384.153</ele>
        <time>2015-08-22T16:01:16Z</time>
      </trkpt>
      <trkpt lat="45.39993" lon="7.03682">
        <ele>2384.153</ele>
        <time>2015-08-22T16:01:21Z</time>
      </trkpt>
      <trkpt lat="45.39984" lon="7.03684">
        <ele>2382.7808</ele>
        <time>2015-08-22T16:01:31Z</time>
      </trkpt>
      <trkpt lat="45.39983" lon="7.03688">
        <ele>2382.7808</ele>
        <time>2015-08-22T16:01:36Z</time>
      </trkpt>
      <trkpt lat="45.39974" lon="7.03691">
        <ele>2381.2788</ele>
        <time>2015-08-22T16:01:46Z</time>
      </trkpt>
      <trkpt lat="45.3997" lon="7.03693">
        <ele>2381.2788</ele>
        <time>2015-08-22T16:01:51Z</time>
      </trkpt>
      <trkpt lat="45.39973" lon="7.0371">
        <ele>2379.4968</ele>
        <time>2015-08-22T16:02:01Z</time>
      </trkpt>
      <trkpt lat="45.39979" lon="7.03716">
        <ele>2379.4968</ele>
        <time>2015-08-22T16:02:06Z</time>
      </trkpt>
      <trkpt lat="45.39974" lon="7.03725">
        <ele>2376.792</ele>
        <time>2015-08-22T16:02:21Z</time>
      </trkpt>
      <trkpt lat="45.39975" lon="7.03731">
        <ele>2376.792</ele>
        <time>2015-08-22T16:02:26Z</time>
      </trkpt>
      <trkpt lat="45.39968" lon="7.03741">
        <ele>2373.7678</ele>
        <time>2015-08-22T16:02:36Z</time>
      </trkpt>
      <trkpt lat="45.39967" lon="7.03743">
        <ele>2373.7678</ele>
        <time>2015-08-22T16:02:41Z</time>
      </trkpt>
      <trkpt lat="45.39958" lon="7.03746">
        <ele>2370.8684</ele>
        <time>2015-08-22T16:02:51Z</time>
      </trkpt>
      <trkpt lat="45.39957" lon="7.03756">
        <ele>2370.8684</ele>
        <time>2015-08-22T16:02:56Z</time>
      </trkpt>
      <trkpt lat="45.39955" lon="7.03764">
        <ele>2367.7847</ele>
        <time>2015-08-22T16:03:06Z</time>
      </trkpt>
      <trkpt lat="45.39954" lon="7.03769">
        <ele>2367.7847</ele>
        <time>2015-08-22T16:03:11Z</time>
      </trkpt>
      <trkpt lat="45.39948" lon="7.03776">
        <ele>2364.764</ele>
        <time>2015-08-22T16:03:21Z</time>
      </trkpt>
      <trkpt lat="45.39947" lon="7.03783">
        <ele>2364.764</ele>
        <time>2015-08-22T16:03:26Z</time>
      </trkpt>
      <trkpt lat="45.39942" lon="7.03792">
        <ele>2361.415</ele>
        <time>2015-08-22T16:03:36Z</time>
      </trkpt>
      <trkpt lat="45.39938" lon="7.03799">
        <ele>2361.415</ele>
        <time>2015-08-22T16:03:41Z</time>
      </trkpt>
      <trkpt lat="45.3993" lon="7.03814">
        <ele>2357.8958</ele>
        <time>2015-08-22T16:03:56Z</time>
      </trkpt>
      <trkpt lat="45.3993" lon="7.03819">
        <ele>2357.8958</ele>
        <time>2015-08-22T16:04:01Z</time>
      </trkpt>
      <trkpt lat="45.39923" lon="7.03831">
        <ele>2354.3096</ele>
        <time>2015-08-22T16:04:11Z</time>
      </trkpt>
      <trkpt lat="45.39917" lon="7.03832">
        <ele>2354.3096</ele>
        <time>2015-08-22T16:04:16Z</time>
      </trkpt>
      <trkpt lat="45.39906" lon="7.03837">
        <ele>2350.8958</ele>
        <time>2015-08-22T16:04:26Z</time>
      </trkpt>
      <trkpt lat="45.39902" lon="7.03841">
        <ele>2350.8958</ele>
        <time>2015-08-22T16:04:31Z</time>
      </trkpt>
      <trkpt lat="45.39897" lon="7.03849">
        <ele>2347.5735</ele>
        <time>2015-08-22T16:04:41Z</time>
      </trkpt>
      <trkpt lat="45.39893" lon="7.0385">
        <ele>2347.5735</ele>
        <time>2015-08-22T16:04:46Z</time>
      </trkpt>
      <trkpt lat="45.39889" lon="7.03843">
        <ele>2344.4263</ele>
        <time>2015-08-22T16:04:56Z</time>
      </trkpt>
      <trkpt lat="45.39889" lon="7.03842">
        <ele>2344.4263</ele>
        <time>2015-08-22T16:05:01Z</time>
      </trkpt>
      <trkpt lat="45.3989" lon="7.03844">
        <ele>2344.4263</ele>
        <time>2015-08-22T16:05:11Z</time>
      </trkpt>
      <trkpt lat="45.39887" lon="7.0384">
        <ele>2344.4263</ele>
        <time>2015-08-22T16:05:16Z</time>
      </trkpt>
      <trkpt lat="45.3988" lon="7.03837">
        <ele>2341.4292</ele>
        <time>2015-08-22T16:05:26Z</time>
      </trkpt>
      <trkpt lat="45.39879" lon="7.03833">
        <ele>2341.4292</ele>
        <time>2015-08-22T16:05:31Z</time>
      </trkpt>
      <trkpt lat="45.39879" lon="7.03821">
        <ele>2338.5737</ele>
        <time>2015-08-22T16:05:41Z</time>
      </trkpt>
      <trkpt lat="45.3988" lon="7.03815">
        <ele>2338.5737</ele>
        <time>2015-08-22T16:05:46Z</time>
      </trkpt>
      <trkpt lat="45.39879" lon="7.0381">
        <ele>2338.5737</ele>
        <time>2015-08-22T16:05:56Z</time>
      </trkpt>
      <trkpt lat="45.39877" lon="7.03803">
        <ele>2335.6787</ele>
        <time>2015-08-22T16:06:01Z</time>
      </trkpt>
      <trkpt lat="45.39871" lon="7.03789">
        <ele>2332.9358</ele>
        <time>2015-08-22T16:06:11Z</time>
      </trkpt>
      <trkpt lat="45.39871" lon="7.03785">
        <ele>2332.9358</ele>
        <time>2015-08-22T16:06:16Z</time>
      </trkpt>
      <trkpt lat="45.39861" lon="7.03776">
        <ele>2330.3357</ele>
        <time>2015-08-22T16:06:26Z</time>
      </trkpt>
      <trkpt lat="45.3986" lon="7.03774">
        <ele>2330.3357</ele>
        <time>2015-08-22T16:06:31Z</time>
      </trkpt>
      <trkpt lat="45.39845" lon="7.03755">
        <ele>2327.7964</ele>
        <time>2015-08-22T16:06:46Z</time>
      </trkpt>
      <trkpt lat="45.39844" lon="7.03751">
        <ele>2327.7964</ele>
        <time>2015-08-22T16:06:51Z</time>
      </trkpt>
      <trkpt lat="45.39833" lon="7.03745">
        <ele>2325.5735</ele>
        <time>2015-08-22T16:07:01Z</time>
      </trkpt>
      <trkpt lat="45.39831" lon="7.03747">
        <ele>2325.5735</ele>
        <time>2015-08-22T16:07:06Z</time>
      </trkpt>
      <trkpt lat="45.39818" lon="7.03748">
        <ele>2323.5137</ele>
        <time>2015-08-22T16:07:16Z</time>
      </trkpt>
      <trkpt lat="45.39814" lon="7.03741">
        <ele>2323.5137</ele>
        <time>2015-08-22T16:07:21Z</time>
      </trkpt>
      <trkpt lat="45.39806" lon="7.03735">
        <ele>2321.518</ele>
        <time>2015-08-22T16:07:31Z</time>
      </trkpt>
      <trkpt lat="45.39803" lon="7.03731">
        <ele>2321.518</ele>
        <time>2015-08-22T16:07:36Z</time>
      </trkpt>
      <trkpt lat="45.39793" lon="7.03728">
        <ele>2319.4797</ele>
        <time>2015-08-22T16:07:46Z</time>
      </trkpt>
      <trkpt lat="45.39788" lon="7.03722">
        <ele>2319.4797</ele>
        <time>2015-08-22T16:07:51Z</time>
      </trkpt>
      <trkpt lat="45.39783" lon="7.03721">
        <ele>2317.4294</ele>
        <time>2015-08-22T16:08:01Z</time>
      </trkpt>
      <trkpt lat="45.39779" lon="7.03719">
        <ele>2317.4294</ele>
        <time>2015-08-22T16:08:06Z</time>
      </trkpt>
      <trkpt lat="45.39766" lon="7.03705">
        <ele>2315.8284</ele>
        <time>2015-08-22T16:08:16Z</time>
      </trkpt>
      <trkpt lat="45.39761" lon="7.037">
        <ele>2315.8284</ele>
        <time>2015-08-22T16:08:21Z</time>
      </trkpt>
      <trkpt lat="45.39755" lon="7.03706">
        <ele>2314.6702</ele>
        <time>2015-08-22T16:08:31Z</time>
      </trkpt>
      <trkpt lat="45.39752" lon="7.03708">
        <ele>2314.6702</ele>
        <time>2015-08-22T16:08:36Z</time>
      </trkpt>
      <trkpt lat="45.3975" lon="7.03734">
        <ele>2313.7312</ele>
        <time>2015-08-22T16:08:46Z</time>
      </trkpt>
      <trkpt lat="45.39749" lon="7.03743">
        <ele>2313.7312</ele>
        <time>2015-08-22T16:08:51Z</time>
      </trkpt>
      <trkpt lat="45.39739" lon="7.03749">
        <ele>2311.9104</ele>
        <time>2015-08-22T16:09:06Z</time>
      </trkpt>
      <trkpt lat="45.3974" lon="7.03742">
        <ele>2311.9104</ele>
        <time>2015-08-22T16:09:11Z</time>
      </trkpt>
      <trkpt lat="45.39732" lon="7.03743">
        <ele>2309.8186</ele>
        <time>2015-08-22T16:09:21Z</time>
      </trkpt>
      <trkpt lat="45.39731" lon="7.03744">
        <ele>2309.8186</ele>
        <time>2015-08-22T16:09:26Z</time>
      </trkpt>
      <trkpt lat="45.39725" lon="7.03741">
        <ele>2309.8186</ele>
        <time>2015-08-22T16:09:36Z</time>
      </trkpt>
      <trkpt lat="45.39725" lon="7.03739">
        <ele>2307.7769</ele>
        <time>2015-08-22T16:09:41Z</time>
      </trkpt>
      <trkpt lat="45.39723" lon="7.03728">
        <ele>2307.7769</ele>
        <time>2015-08-22T16:09:51Z</time>
      </trkpt>
      <trkpt lat="45.39721" lon="7.0373">
        <ele>2305.7087</ele>
        <time>2015-08-22T16:09:56Z</time>
      </trkpt>
      <trkpt lat="45.39716" lon="7.03736">
        <ele>2305.7087</ele>
        <time>2015-08-22T16:10:06Z</time>
      </trkpt>
      <trkpt lat="45.39712" lon="7.03737">
        <ele>2303.4998</ele>
        <time>2015-08-22T16:10:11Z</time>
      </trkpt>
      <trkpt lat="45.39701" lon="7.03742">
        <ele>2301.491</ele>
        <time>2015-08-22T16:10:26Z</time>
      </trkpt>
      <trkpt lat="45.39702" lon="7.03746">
        <ele>2301.491</ele>
        <time>2015-08-22T16:10:31Z</time>
      </trkpt>
      <trkpt lat="45.39701" lon="7.03745">
        <ele>2301.491</ele>
        <time>2015-08-22T16:10:41Z</time>
      </trkpt>
      <trkpt lat="45.39702" lon="7.03744">
        <ele>2301.491</ele>
        <time>2015-08-22T16:10:46Z</time>
      </trkpt>
      <trkpt lat="45.39701" lon="7.03744">
        <ele>2301.491</ele>
        <time>2015-08-22T16:10:56Z</time>
      </trkpt>
      <trkpt lat="45.39702" lon="7.03745">
        <ele>2301.491</ele>
        <time>2015-08-22T16:11:01Z</time>
      </trkpt>
      <trkpt lat="45.39704" lon="7.03748">
        <ele>2299.3496</ele>
        <time>2015-08-22T16:11:11Z</time>
      </trkpt>
      <trkpt lat="45.39703" lon="7.03749">
        <ele>2299.3496</ele>
        <time>2015-08-22T16:11:16Z</time>
      </trkpt>
      <trkpt lat="45.39701" lon="7.03748">
        <ele>2299.3496</ele>
        <time>2015-08-22T16:11:26Z</time>
      </trkpt>
      <trkpt lat="45.39701" lon="7.03748">
        <ele>2299.3496</ele>
        <time>2015-08-22T16:11:31Z</time>
      </trkpt>
      <trkpt lat="45.397" lon="7.03748">
        <ele>2299.3496</ele>
        <time>2015-08-22T16:11:41Z</time>
      </trkpt>
      <trkpt lat="45.397" lon="7.03748">
        <ele>2299.3496</ele>
        <time>2015-08-22T16:11:46Z</time>
      </trkpt>
      <trkpt lat="45.39697" lon="7.03742">
        <ele>2297.2285</ele>
        <time>2015-08-22T16:11:56Z</time>
      </trkpt>
      <trkpt lat="45.39694" lon="7.03737">
        <ele>2297.2285</ele>
        <time>2015-08-22T16:12:01Z</time>
      </trkpt>
      <trkpt lat="45.39677" lon="7.03737">
        <ele>2294.895</ele>
        <time>2015-08-22T16:12:16Z</time>
      </trkpt>
      <trkpt lat="45.39672" lon="7.03735">
        <ele>2294.895</ele>
        <time>2015-08-22T16:12:21Z</time>
      </trkpt>
      <trkpt lat="45.39671" lon="7.03734">
        <ele>2294.895</ele>
        <time>2015-08-22T16:12:31Z</time>
      </trkpt>
      <trkpt lat="45.39666" lon="7.03734">
        <ele>2292.3213</ele>
        <time>2015-08-22T16:12:36Z</time>
      </trkpt>
      <trkpt lat="45.39661" lon="7.0374">
        <ele>2292.3213</ele>
        <time>2015-08-22T16:12:46Z</time>
      </trkpt>
      <trkpt lat="45.39659" lon="7.03744">
        <ele>2289.5972</ele>
        <time>2015-08-22T16:12:51Z</time>
      </trkpt>
      <trkpt lat="45.39663" lon="7.03753">
        <ele>2289.5972</ele>
        <time>2015-08-22T16:13:01Z</time>
      </trkpt>
      <trkpt lat="45.39668" lon="7.03757">
        <ele>2286.6199</ele>
        <time>2015-08-22T16:13:06Z</time>
      </trkpt>
      <trkpt lat="45.39671" lon="7.03749">
        <ele>2286.6199</ele>
        <time>2015-08-22T16:13:16Z</time>
      </trkpt>
      <trkpt lat="45.39675" lon="7.03749">
        <ele>2283.582</ele>
        <time>2015-08-22T16:13:21Z</time>
      </trkpt>
      <trkpt lat="45.39678" lon="7.03753">
        <ele>2283.582</ele>
        <time>2015-08-22T16:13:31Z</time>
      </trkpt>
      <trkpt lat="45.39678" lon="7.03758">
        <ele>2283.582</ele>
        <time>2015-08-22T16:13:36Z</time>
      </trkpt>
      <trkpt lat="45.39677" lon="7.03764">
        <ele>2280.7495</ele>
        <time>2015-08-22T16:13:46Z</time>
      </trkpt>
      <trkpt lat="45.39682" lon="7.03768">
        <ele>2280.7495</ele>
        <time>2015-08-22T16:13:51Z</time>
      </trkpt>
      <trkpt lat="45.39691" lon="7.03785">
        <ele>2278.6992</ele>
        <time>2015-08-22T16:14:06Z</time>
      </trkpt>
      <trkpt lat="45.39696" lon="7.03791">
        <ele>2278.6992</ele>
        <time>2015-08-22T16:14:11Z</time>
      </trkpt>
      <trkpt lat="45.39695" lon="7.03807">
        <ele>2277.344</ele>
        <time>2015-08-22T16:14:21Z</time>
      </trkpt>
      <trkpt lat="45.39694" lon="7.03814">
        <ele>2277.344</ele>
        <time>2015-08-22T16:14:26Z</time>
      </trkpt>
      <trkpt lat="45.39695" lon="7.03827">
        <ele>2276.039</ele>
        <time>2015-08-22T16:14:36Z</time>
      </trkpt>
      <trkpt lat="45.39693" lon="7.03832">
        <ele>2276.039</ele>
        <time>2015-08-22T16:14:41Z</time>
      </trkpt>
      <trkpt lat="45.39692" lon="7.03846">
        <ele>2274.5327</ele>
        <time>2015-08-22T16:14:51Z</time>
      </trkpt>
      <trkpt lat="45.39693" lon="7.03851">
        <ele>2274.5327</ele>
        <time>2015-08-22T16:14:56Z</time>
      </trkpt>
      <trkpt lat="45.39693" lon="7.03865">
        <ele>2272.7937</ele>
        <time>2015-08-22T16:15:06Z</time>
      </trkpt>
      <trkpt lat="45.39691" lon="7.03874">
        <ele>2272.7937</ele>
        <time>2015-08-22T16:15:11Z</time>
      </trkpt>
      <trkpt lat="45.39687" lon="7.03887">
        <ele>2271.2268</ele>
        <time>2015-08-22T16:15:21Z</time>
      </trkpt>
      <trkpt lat="45.39688" lon="7.03893">
        <ele>2271.2268</ele>
        <time>2015-08-22T16:15:26Z</time>
      </trkpt>
      <trkpt lat="45.39683" lon="7.03907">
        <ele>2269.6584</ele>
        <time>2015-08-22T16:15:36Z</time>
      </trkpt>
      <trkpt lat="45.3968" lon="7.03914">
        <ele>2269.6584</ele>
        <time>2015-08-22T16:15:41Z</time>
      </trkpt>
      <trkpt lat="45.3967" lon="7.03931">
        <ele>2268.5767</ele>
        <time>2015-08-22T16:15:51Z</time>
      </trkpt>
      <trkpt lat="45.39666" lon="7.03936">
        <ele>2268.5767</ele>
        <time>2015-08-22T16:15:56Z</time>
      </trkpt>
      <trkpt lat="45.39657" lon="7.03933">
        <ele>2268.2588</ele>
        <time>2015-08-22T16:16:06Z</time>
      </trkpt>
      <trkpt lat="45.39654" lon="7.03932">
        <ele>2268.2588</ele>
        <time>2015-08-22T16:16:11Z</time>
      </trkpt>
      <trkpt lat="45.3965" lon="7.03932">
        <ele>2268.2588</ele>
        <time>2015-08-22T16:16:21Z</time>
      </trkpt>
      <trkpt lat="45.39653" lon="7.03928">
        <ele>2268.2976</ele>
        <time>2015-08-22T16:16:26Z</time>
      </trkpt>
      <trkpt lat="45.39664" lon="7.03919">
        <ele>2268.7612</ele>
        <time>2015-08-22T16:16:41Z</time>
      </trkpt>
      <trkpt lat="45.39661" lon="7.03917">
        <ele>2268.7612</ele>
        <time>2015-08-22T16:16:46Z</time>
      </trkpt>
      <trkpt lat="45.39653" lon="7.03911">
        <ele>2268.9907</ele>
        <time>2015-08-22T16:16:56Z</time>
      </trkpt>
      <trkpt lat="45.39649" lon="7.03912">
        <ele>2268.9907</ele>
        <time>2015-08-22T16:17:01Z</time>
      </trkpt>
      <trkpt lat="45.3964" lon="7.03906">
        <ele>2269.0977</ele>
        <time>2015-08-22T16:17:11Z</time>
      </trkpt>
      <trkpt lat="45.39635" lon="7.03906">
        <ele>2269.0977</ele>
        <time>2015-08-22T16:17:16Z</time>
      </trkpt>
      <trkpt lat="45.39628" lon="7.03904">
        <ele>2269.0986</ele>
        <time>2015-08-22T16:17:26Z</time>
      </trkpt>
      <trkpt lat="45.39624" lon="7.03905">
        <ele>2269.0986</ele>
        <time>2015-08-22T16:17:31Z</time>
      </trkpt>
      <trkpt lat="45.39615" lon="7.03905">
        <ele>2268.8223</ele>
        <time>2015-08-22T16:17:41Z</time>
      </trkpt>
      <trkpt lat="45.39608" lon="7.03902">
        <ele>2268.8223</ele>
        <time>2015-08-22T16:17:46Z</time>
      </trkpt>
      <trkpt lat="45.39603" lon="7.03901">
        <ele>2268.385</ele>
        <time>2015-08-22T16:17:56Z</time>
      </trkpt>
      <trkpt lat="45.396" lon="7.03899">
        <ele>2268.385</ele>
        <time>2015-08-22T16:18:01Z</time>
      </trkpt>
      <trkpt lat="45.39594" lon="7.03893">
        <ele>2267.8083</ele>
        <time>2015-08-22T16:18:11Z</time>
      </trkpt>
      <trkpt lat="45.39595" lon="7.03894">
        <ele>2267.8083</ele>
        <time>2015-08-22T16:18:16Z</time>
      </trkpt>
      <trkpt lat="45.39595" lon="7.03898">
        <ele>2267.8083</ele>
        <time>2015-08-22T16:18:26Z</time>
      </trkpt>
      <trkpt lat="45.39595" lon="7.03902">
        <ele>2267.8083</ele>
        <time>2015-08-22T16:18:31Z</time>
      </trkpt>
      <trkpt lat="45.39593" lon="7.03893">
        <ele>2267.1707</ele>
        <time>2015-08-22T16:18:41Z</time>
      </trkpt>
      <trkpt lat="45.3959" lon="7.03889">
        <ele>2267.1707</ele>
        <time>2015-08-22T16:18:46Z</time>
      </trkpt>
      <trkpt lat="45.39583" lon="7.03881">
        <ele>2266.2559</ele>
        <time>2015-08-22T16:18:56Z</time>
      </trkpt>
      <trkpt lat="45.39581" lon="7.03879">
        <ele>2266.2559</ele>
        <time>2015-08-22T16:19:01Z</time>
      </trkpt>
      <trkpt lat="45.39571" lon="7.03872">
        <ele>2264.9812</ele>
        <time>2015-08-22T16:19:11Z</time>
      </trkpt>
      <trkpt lat="45.39562" lon="7.03871">
        <ele>2264.9812</ele>
        <time>2015-08-22T16:19:16Z</time>
      </trkpt>
      <trkpt lat="45.39561" lon="7.03867">
        <ele>2263.2705</ele>
        <time>2015-08-22T16:19:31Z</time>
      </trkpt>
      <trkpt lat="45.39561" lon="7.03867">
        <ele>2263.2705</ele>
        <time>2015-08-22T16:19:36Z</time>
      </trkpt>
      <trkpt lat="45.39562" lon="7.03869">
        <ele>2263.2705</ele>
        <time>2015-08-22T16:19:46Z</time>
      </trkpt>
      <trkpt lat="45.39562" lon="7.03869">
        <ele>2263.2705</ele>
        <time>2015-08-22T16:19:51Z</time>
      </trkpt>
      <trkpt lat="45.39562" lon="7.03867">
        <ele>2263.2705</ele>
        <time>2015-08-22T16:20:01Z</time>
      </trkpt>
      <trkpt lat="45.39558" lon="7.03864">
        <ele>2263.2705</ele>
        <time>2015-08-22T16:20:06Z</time>
      </trkpt>
      <trkpt lat="45.39547" lon="7.03855">
        <ele>2261.227</ele>
        <time>2015-08-22T16:20:16Z</time>
      </trkpt>
      <trkpt lat="45.39541" lon="7.0385">
        <ele>2261.227</ele>
        <time>2015-08-22T16:20:21Z</time>
      </trkpt>
      <trkpt lat="45.39531" lon="7.03844">
        <ele>2259.5537</ele>
        <time>2015-08-22T16:20:31Z</time>
      </trkpt>
      <trkpt lat="45.39531" lon="7.03844">
        <ele>2259.5537</ele>
        <time>2015-08-22T16:20:36Z</time>
      </trkpt>
      <trkpt lat="45.39522" lon="7.03839">
        <ele>2257.877</ele>
        <time>2015-08-22T16:20:46Z</time>
      </trkpt>
      <trkpt lat="45.39517" lon="7.03835">
        <ele>2257.877</ele>
        <time>2015-08-22T16:20:51Z</time>
      </trkpt>
      <trkpt lat="45.39505" lon="7.03827">
        <ele>2256.658</ele>
        <time>2015-08-22T16:21:01Z</time>
      </trkpt>
      <trkpt lat="45.39498" lon="7.03824">
        <ele>2256.658</ele>
        <time>2015-08-22T16:21:06Z</time>
      </trkpt>
      <trkpt lat="45.39489" lon="7.03814">
        <ele>2255.646</ele>
        <time>2015-08-22T16:21:16Z</time>
      </trkpt>
      <trkpt lat="45.39483" lon="7.0381">
        <ele>2255.646</ele>
        <time>2015-08-22T16:21:21Z</time>
      </trkpt>
      <trkpt lat="45.39476" lon="7.03808">
        <ele>2254.6365</ele>
        <time>2015-08-22T16:21:31Z</time>
      </trkpt>
      <trkpt lat="45.39475" lon="7.03807">
        <ele>2254.6365</ele>
        <time>2015-08-22T16:21:36Z</time>
      </trkpt>
      <trkpt lat="45.39459" lon="7.03794">
        <ele>2253.1665</ele>
        <time>2015-08-22T16:21:51Z</time>
      </trkpt>
      <trkpt lat="45.39454" lon="7.03789">
        <ele>2253.1665</ele>
        <time>2015-08-22T16:21:56Z</time>
      </trkpt>
      <trkpt lat="45.39448" lon="7.03778">
        <ele>2251.6873</ele>
        <time>2015-08-22T16:22:06Z</time>
      </trkpt>
      <trkpt lat="45.39444" lon="7.03775">
        <ele>2251.6873</ele>
        <time>2015-08-22T16:22:11Z</time>
      </trkpt>
      <trkpt lat="45.39432" lon="7.03766">
        <ele>2250.2715</ele>
        <time>2015-08-22T16:22:21Z</time>
      </trkpt>
      <trkpt lat="45.39427" lon="7.03762">
        <ele>2250.2715</ele>
        <time>2015-08-22T16:22:26Z</time>
      </trkpt>
      <trkpt lat="45.39422" lon="7.03761">
        <ele>2248.8564</ele>
        <time>2015-08-22T16:22:36Z</time>
      </trkpt>
      <trkpt lat="45.3942" lon="7.03761">
        <ele>2248.8564</ele>
        <time>2015-08-22T16:22:41Z</time>
      </trkpt>
      <trkpt lat="45.39417" lon="7.0376">
        <ele>2248.8564</ele>
        <time>2015-08-22T16:22:51Z</time>
      </trkpt>
      <trkpt lat="45.3942" lon="7.03757">
        <ele>2248.8564</ele>
        <time>2015-08-22T16:23:21Z</time>
      </trkpt>
      <trkpt lat="45.3942" lon="7.03757">
        <ele>2248.8564</ele>
        <time>2015-08-22T16:23:26Z</time>
      </trkpt>
      <trkpt lat="45.39417" lon="7.03755">
        <ele>2247.1536</ele>
        <time>2015-08-22T16:23:56Z</time>
      </trkpt>
      <trkpt lat="45.39409" lon="7.03757">
        <ele>2247.1536</ele>
        <time>2015-08-22T16:24:06Z</time>
      </trkpt>
      <trkpt lat="45.39404" lon="7.03754">
        <ele>2245.473</ele>
        <time>2015-08-22T16:24:11Z</time>
      </trkpt>
      <trkpt lat="45.39391" lon="7.03754">
        <ele>2243.828</ele>
        <time>2015-08-22T16:24:21Z</time>
      </trkpt>
      <trkpt lat="45.39389" lon="7.03755">
        <ele>2243.828</ele>
        <time>2015-08-22T16:24:26Z</time>
      </trkpt>
      <trkpt lat="45.3938" lon="7.03763">
        <ele>2241.9424</ele>
        <time>2015-08-22T16:24:41Z</time>
      </trkpt>
      <trkpt lat="45.3938" lon="7.03767">
        <ele>2241.9424</ele>
        <time>2015-08-22T16:24:46Z</time>
      </trkpt>
      <trkpt lat="45.3938" lon="7.0377">
        <ele>2241.9424</ele>
        <time>2015-08-22T16:24:56Z</time>
      </trkpt>
      <trkpt lat="45.39375" lon="7.03769">
        <ele>2240.1528</ele>
        <time>2015-08-22T16:25:01Z</time>
      </trkpt>
      <trkpt lat="45.39364" lon="7.03773">
        <ele>2238.655</ele>
        <time>2015-08-22T16:25:11Z</time>
      </trkpt>
      <trkpt lat="45.39362" lon="7.03775">
        <ele>2238.655</ele>
        <time>2015-08-22T16:25:16Z</time>
      </trkpt>
      <trkpt lat="45.39357" lon="7.0378">
        <ele>2238.655</ele>
        <time>2015-08-22T16:25:26Z</time>
      </trkpt>
      <trkpt lat="45.39355" lon="7.03782">
        <ele>2237.1536</ele>
        <time>2015-08-22T16:25:31Z</time>
      </trkpt>
      <trkpt lat="45.39347" lon="7.03783">
        <ele>2237.1536</ele>
        <time>2015-08-22T16:25:41Z</time>
      </trkpt>
      <trkpt lat="45.39347" lon="7.03783">
        <ele>2237.1536</ele>
        <time>2015-08-22T16:25:46Z</time>
      </trkpt>
      <trkpt lat="45.39355" lon="7.03778">
        <ele>2236.1248</ele>
        <time>2015-08-22T16:25:56Z</time>
      </trkpt>
      <trkpt lat="45.39354" lon="7.03782">
        <ele>2236.1248</ele>
        <time>2015-08-22T16:26:01Z</time>
      </trkpt>
      <trkpt lat="45.39346" lon="7.03787">
        <ele>2234.9856</ele>
        <time>2015-08-22T16:26:11Z</time>
      </trkpt>
      <trkpt lat="45.39344" lon="7.03792">
        <ele>2234.9856</ele>
        <time>2015-08-22T16:26:16Z</time>
      </trkpt>
      <trkpt lat="45.39337" lon="7.03805">
        <ele>2233.5847</ele>
        <time>2015-08-22T16:26:31Z</time>
      </trkpt>
      <trkpt lat="45.39334" lon="7.03808">
        <ele>2233.5847</ele>
        <time>2015-08-22T16:26:36Z</time>
      </trkpt>
      <trkpt lat="45.39329" lon="7.03815">
        <ele>2232.0857</ele>
        <time>2015-08-22T16:26:46Z</time>
      </trkpt>
      <trkpt lat="45.39327" lon="7.0382">
        <ele>2232.0857</ele>
        <time>2015-08-22T16:26:51Z</time>
      </trkpt>
      <trkpt lat="45.39325" lon="7.03823">
        <ele>2232.0857</ele>
        <time>2015-08-22T16:27:01Z</time>
      </trkpt>
      <trkpt lat="45.39323" lon="7.03825">
        <ele>2230.4385</ele>
        <time>2015-08-22T16:27:06Z</time>
      </trkpt>
      <trkpt lat="45.39323" lon="7.03819">
        <ele>2230.4385</ele>
        <time>2015-08-22T16:27:16Z</time>
      </trkpt>
      <trkpt lat="45.39323" lon="7.03813">
        <ele>2230.4385</ele>
        <time>2015-08-22T16:27:21Z</time>
      </trkpt>
      <trkpt lat="45.39322" lon="7.03802">
        <ele>2228.4387</ele>
        <time>2015-08-22T16:27:31Z</time>
      </trkpt>
      <trkpt lat="45.39324" lon="7.03796">
        <ele>2228.4387</ele>
        <time>2015-08-22T16:27:36Z</time>
      </trkpt>
      <trkpt lat="45.39324" lon="7.03787">
        <ele>2226.3735</ele>
        <time>2015-08-22T16:27:46Z</time>
      </trkpt>
      <trkpt lat="45.39324" lon="7.03783">
        <ele>2226.3735</ele>
        <time>2015-08-22T16:27:51Z</time>
      </trkpt>
      <trkpt lat="45.39326" lon="7.0377">
        <ele>2224.0627</ele>
        <time>2015-08-22T16:28:01Z</time>
      </trkpt>
      <trkpt lat="45.39326" lon="7.03762">
        <ele>2224.0627</ele>
        <time>2015-08-22T16:28:06Z</time>
      </trkpt>
      <trkpt lat="45.39326" lon="7.03755">
        <ele>2221.6274</ele>
        <time>2015-08-22T16:28:16Z</time>
      </trkpt>
      <trkpt lat="45.39325" lon="7.03753">
        <ele>2221.6274</ele>
        <time>2015-08-22T16:28:21Z</time>
      </trkpt>
      <trkpt lat="45.39325" lon="7.03753">
        <ele>2221.6274</ele>
        <time>2015-08-22T16:28:31Z</time>
      </trkpt>
      <trkpt lat="45.39322" lon="7.03757">
        <ele>2221.6274</ele>
        <time>2015-08-22T16:29:26Z</time>
      </trkpt>
      <trkpt lat="45.39318" lon="7.03767">
        <ele>2219.066</ele>
        <time>2015-08-22T16:29:36Z</time>
      </trkpt>
      <trkpt lat="45.39318" lon="7.03767">
        <ele>2219.066</ele>
        <time>2015-08-22T16:29:41Z</time>
      </trkpt>
      <trkpt lat="45.39311" lon="7.03776">
        <ele>2216.6072</ele>
        <time>2015-08-22T16:31:11Z</time>
      </trkpt>
      <trkpt lat="45.39306" lon="7.03779">
        <ele>2216.6072</ele>
        <time>2015-08-22T16:31:16Z</time>
      </trkpt>
      <trkpt lat="45.393" lon="7.03785">
        <ele>2214.2463</ele>
        <time>2015-08-22T16:31:26Z</time>
      </trkpt>
      <trkpt lat="45.39295" lon="7.03791">
        <ele>2214.2463</ele>
        <time>2015-08-22T16:31:31Z</time>
      </trkpt>
      <trkpt lat="45.39291" lon="7.03797">
        <ele>2212.0657</ele>
        <time>2015-08-22T16:31:41Z</time>
      </trkpt>
      <trkpt lat="45.39288" lon="7.03797">
        <ele>2212.0657</ele>
        <time>2015-08-22T16:31:46Z</time>
      </trkpt>
      <trkpt lat="45.39277" lon="7.038">
        <ele>2209.651</ele>
        <time>2015-08-22T16:31:56Z</time>
      </trkpt>
      <trkpt lat="45.39272" lon="7.03803">
        <ele>2209.651</ele>
        <time>2015-08-22T16:32:01Z</time>
      </trkpt>
      <trkpt lat="45.3926" lon="7.0381">
        <ele>2207.238</ele>
        <time>2015-08-22T16:32:11Z</time>
      </trkpt>
      <trkpt lat="45.39256" lon="7.03812">
        <ele>2207.238</ele>
        <time>2015-08-22T16:32:16Z</time>
      </trkpt>
      <trkpt lat="45.39246" lon="7.03817">
        <ele>2204.859</ele>
        <time>2015-08-22T16:32:26Z</time>
      </trkpt>
      <trkpt lat="45.39241" lon="7.03821">
        <ele>2204.859</ele>
        <time>2015-08-22T16:32:31Z</time>
      </trkpt>
      <trkpt lat="45.39235" lon="7.03826">
        <ele>2202.5134</ele>
        <time>2015-08-22T16:32:41Z</time>
      </trkpt>
      <trkpt lat="45.39233" lon="7.03827">
        <ele>2202.5134</ele>
        <time>2015-08-22T16:32:46Z</time>
      </trkpt>
      <trkpt lat="45.3922" lon="7.03833">
        <ele>2199.9136</ele>
        <time>2015-08-22T16:33:01Z</time>
      </trkpt>
      <trkpt lat="45.39215" lon="7.03835">
        <ele>2199.9136</ele>
        <time>2015-08-22T16:33:06Z</time>
      </trkpt>
      <trkpt lat="45.39212" lon="7.03837">
        <ele>2199.9136</ele>
        <time>2015-08-22T16:33:16Z</time>
      </trkpt>
      <trkpt lat="45.39211" lon="7.03837">
        <ele>2196.8796</ele>
        <time>2015-08-22T16:33:21Z</time>
      </trkpt>
      <trkpt lat="45.39208" lon="7.03833">
        <ele>2196.8796</ele>
        <time>2015-08-22T16:33:31Z</time>
      </trkpt>
      <trkpt lat="45.39207" lon="7.03832">
        <ele>2196.8796</ele>
        <time>2015-08-22T16:33:36Z</time>
      </trkpt>
      <trkpt lat="45.39208" lon="7.03837">
        <ele>2193.9807</ele>
        <time>2015-08-22T16:33:46Z</time>
      </trkpt>
      <trkpt lat="45.39207" lon="7.03835">
        <ele>2193.9807</ele>
        <time>2015-08-22T16:33:51Z</time>
      </trkpt>
      <trkpt lat="45.39204" lon="7.03829">
        <ele>2193.9807</ele>
        <time>2015-08-22T16:34:01Z</time>
      </trkpt>
      <trkpt lat="45.39204" lon="7.03828">
        <ele>2193.9807</ele>
        <time>2015-08-22T16:34:06Z</time>
      </trkpt>
      <trkpt lat="45.39205" lon="7.03828">
        <ele>2193.9807</ele>
        <time>2015-08-22T16:34:16Z</time>
      </trkpt>
      <trkpt lat="45.39203" lon="7.03829">
        <ele>2191.6003</ele>
        <time>2015-08-22T16:35:06Z</time>
      </trkpt>
      <trkpt lat="45.39189" lon="7.03836">
        <ele>2189.5295</ele>
        <time>2015-08-22T16:35:16Z</time>
      </trkpt>
      <trkpt lat="45.39181" lon="7.03837">
        <ele>2189.5295</ele>
        <time>2015-08-22T16:35:21Z</time>
      </trkpt>
      <trkpt lat="45.3917" lon="7.03841">
        <ele>2187.877</ele>
        <time>2015-08-22T16:35:31Z</time>
      </trkpt>
      <trkpt lat="45.39165" lon="7.03845">
        <ele>2187.877</ele>
        <time>2015-08-22T16:35:36Z</time>
      </trkpt>
      <trkpt lat="45.39144" lon="7.0385">
        <ele>2186.4675</ele>
        <time>2015-08-22T16:35:51Z</time>
      </trkpt>
      <trkpt lat="45.39139" lon="7.03853">
        <ele>2186.4675</ele>
        <time>2015-08-22T16:35:56Z</time>
      </trkpt>
      <trkpt lat="45.39128" lon="7.03858">
        <ele>2185.1824</ele>
        <time>2015-08-22T16:36:06Z</time>
      </trkpt>
      <trkpt lat="45.39121" lon="7.03861">
        <ele>2185.1824</ele>
        <time>2015-08-22T16:36:11Z</time>
      </trkpt>
      <trkpt lat="45.39112" lon="7.03868">
        <ele>2183.968</ele>
        <time>2015-08-22T16:36:21Z</time>
      </trkpt>
      <trkpt lat="45.39108" lon="7.03872">
        <ele>2183.968</ele>
        <time>2015-08-22T16:36:26Z</time>
      </trkpt>
      <trkpt lat="45.391" lon="7.0388">
        <ele>2182.6018</ele>
        <time>2015-08-22T16:36:36Z</time>
      </trkpt>
      <trkpt lat="45.39097" lon="7.03882">
        <ele>2182.6018</ele>
        <time>2015-08-22T16:36:41Z</time>
      </trkpt>
      <trkpt lat="45.39084" lon="7.03885">
        <ele>2181.2236</ele>
        <time>2015-08-22T16:36:51Z</time>
      </trkpt>
      <trkpt lat="45.39081" lon="7.03887">
        <ele>2181.2236</ele>
        <time>2015-08-22T16:36:56Z</time>
      </trkpt>
      <trkpt lat="45.39067" lon="7.03889">
        <ele>2179.8335</ele>
        <time>2015-08-22T16:37:06Z</time>
      </trkpt>
      <trkpt lat="45.3906" lon="7.03891">
        <ele>2179.8335</ele>
        <time>2015-08-22T16:37:11Z</time>
      </trkpt>
      <trkpt lat="45.39046" lon="7.03895">
        <ele>2178.4028</ele>
        <time>2015-08-22T16:37:21Z</time>
      </trkpt>
      <trkpt lat="45.39041" lon="7.039">
        <ele>2178.4028</ele>
        <time>2015-08-22T16:37:26Z</time>
      </trkpt>
      <trkpt lat="45.39025" lon="7.0391">
        <ele>2177.1355</ele>
        <time>2015-08-22T16:37:41Z</time>
      </trkpt>
      <trkpt lat="45.39022" lon="7.03913">
        <ele>2177.1355</ele>
        <time>2015-08-22T16:37:46Z</time>
      </trkpt>
      <trkpt lat="45.39009" lon="7.03917">
        <ele>2176.1477</ele>
        <time>2015-08-22T16:37:56Z</time>
      </trkpt>
      <trkpt lat="45.39005" lon="7.0392">
        <ele>2176.1477</ele>
        <time>2015-08-22T16:38:01Z</time>
      </trkpt>
      <trkpt lat="45.3899" lon="7.03929">
        <ele>2175.2295</ele>
        <time>2015-08-22T16:38:11Z</time>
      </trkpt>
      <trkpt lat="45.38986" lon="7.03931">
        <ele>2175.2295</ele>
        <time>2015-08-22T16:38:16Z</time>
      </trkpt>
      <trkpt lat="45.38977" lon="7.03942">
        <ele>2174.5034</ele>
        <time>2015-08-22T16:38:26Z</time>
      </trkpt>
      <trkpt lat="45.38972" lon="7.03947">
        <ele>2174.5034</ele>
        <time>2015-08-22T16:38:31Z</time>
      </trkpt>
      <trkpt lat="45.38964" lon="7.03957">
        <ele>2173.8083</ele>
        <time>2015-08-22T16:38:41Z</time>
      </trkpt>
      <trkpt lat="45.38959" lon="7.03962">
        <ele>2173.8083</ele>
        <time>2015-08-22T16:38:46Z</time>
      </trkpt>
      <trkpt lat="45.3895" lon="7.0397">
        <ele>2173.0667</ele>
        <time>2015-08-22T16:38:56Z</time>
      </trkpt>
      <trkpt lat="45.38945" lon="7.03974">
        <ele>2173.0667</ele>
        <time>2015-08-22T16:39:01Z</time>
      </trkpt>
      <trkpt lat="45.38934" lon="7.03981">
        <ele>2172.2075</ele>
        <time>2015-08-22T16:39:11Z</time>
      </trkpt>
      <trkpt lat="45.38931" lon="7.03983">
        <ele>2172.2075</ele>
        <time>2015-08-22T16:39:16Z</time>
      </trkpt>
      <trkpt lat="45.38919" lon="7.0399">
        <ele>2171.251</ele>
        <time>2015-08-22T16:39:26Z</time>
      </trkpt>
      <trkpt lat="45.38915" lon="7.03994">
        <ele>2171.251</ele>
        <time>2015-08-22T16:39:31Z</time>
      </trkpt>
      <trkpt lat="45.38902" lon="7.04005">
        <ele>2170.217</ele>
        <time>2015-08-22T16:39:41Z</time>
      </trkpt>
      <trkpt lat="45.38897" lon="7.04008">
        <ele>2170.217</ele>
        <time>2015-08-22T16:39:46Z</time>
      </trkpt>
      <trkpt lat="45.38885" lon="7.04022">
        <ele>2169.1377</ele>
        <time>2015-08-22T16:40:01Z</time>
      </trkpt>
      <trkpt lat="45.38881" lon="7.04024">
        <ele>2169.1377</ele>
        <time>2015-08-22T16:40:06Z</time>
      </trkpt>
      <trkpt lat="45.3887" lon="7.04032">
        <ele>2167.9575</ele>
        <time>2015-08-22T16:40:16Z</time>
      </trkpt>
      <trkpt lat="45.38864" lon="7.04034">
        <ele>2167.9575</ele>
        <time>2015-08-22T16:40:21Z</time>
      </trkpt>
      <trkpt lat="45.38851" lon="7.04041">
        <ele>2166.61</ele>
        <time>2015-08-22T16:40:31Z</time>
      </trkpt>
      <trkpt lat="45.38846" lon="7.04042">
        <ele>2166.61</ele>
        <time>2015-08-22T16:40:36Z</time>
      </trkpt>
      <trkpt lat="45.38835" lon="7.04043">
        <ele>2165.2798</ele>
        <time>2015-08-22T16:40:46Z</time>
      </trkpt>
      <trkpt lat="45.3883" lon="7.04045">
        <ele>2165.2798</ele>
        <time>2015-08-22T16:40:51Z</time>
      </trkpt>
      <trkpt lat="45.38817" lon="7.04051">
        <ele>2163.9788</ele>
        <time>2015-08-22T16:41:01Z</time>
      </trkpt>
      <trkpt lat="45.38812" lon="7.04055">
        <ele>2163.9788</ele>
        <time>2015-08-22T16:41:06Z</time>
      </trkpt>
      <trkpt lat="45.38799" lon="7.0406">
        <ele>2162.5454</ele>
        <time>2015-08-22T16:41:16Z</time>
      </trkpt>
      <trkpt lat="45.38794" lon="7.04063">
        <ele>2162.5454</ele>
        <time>2015-08-22T16:41:21Z</time>
      </trkpt>
      <trkpt lat="45.38781" lon="7.04071">
        <ele>2161.018</ele>
        <time>2015-08-22T16:41:36Z</time>
      </trkpt>
      <trkpt lat="45.38776" lon="7.04074">
        <ele>2161.018</ele>
        <time>2015-08-22T16:41:41Z</time>
      </trkpt>
      <trkpt lat="45.38762" lon="7.04079">
        <ele>2159.403</ele>
        <time>2015-08-22T16:41:51Z</time>
      </trkpt>
      <trkpt lat="45.38755" lon="7.0408">
        <ele>2159.403</ele>
        <time>2015-08-22T16:41:56Z</time>
      </trkpt>
      <trkpt lat="45.38742" lon="7.04082">
        <ele>2157.8655</ele>
        <time>2015-08-22T16:42:06Z</time>
      </trkpt>
      <trkpt lat="45.38735" lon="7.04085">
        <ele>2157.8655</ele>
        <time>2015-08-22T16:42:11Z</time>
      </trkpt>
      <trkpt lat="45.3873" lon="7.04092">
        <ele>2156.6587</ele>
        <time>2015-08-22T16:42:21Z</time>
      </trkpt>
      <trkpt lat="45.38729" lon="7.04092">
        <ele>2156.6587</ele>
        <time>2015-08-22T16:42:26Z</time>
      </trkpt>
      <trkpt lat="45.38726" lon="7.04092">
        <ele>2156.6587</ele>
        <time>2015-08-22T16:42:36Z</time>
      </trkpt>
      <trkpt lat="45.38718" lon="7.04095">
        <ele>2155.426</ele>
        <time>2015-08-22T16:42:41Z</time>
      </trkpt>
      <trkpt lat="45.38707" lon="7.04103">
        <ele>2154.2407</ele>
        <time>2015-08-22T16:42:51Z</time>
      </trkpt>
      <trkpt lat="45.38701" lon="7.04106">
        <ele>2154.2407</ele>
        <time>2015-08-22T16:42:56Z</time>
      </trkpt>
      <trkpt lat="45.38688" lon="7.04114">
        <ele>2153.1267</ele>
        <time>2015-08-22T16:43:06Z</time>
      </trkpt>
      <trkpt lat="45.38683" lon="7.04115">
        <ele>2153.1267</ele>
        <time>2015-08-22T16:43:11Z</time>
      </trkpt>
      <trkpt lat="45.38674" lon="7.04124">
        <ele>2152.1353</ele>
        <time>2015-08-22T16:43:21Z</time>
      </trkpt>
      <trkpt lat="45.38669" lon="7.04129">
        <ele>2152.1353</ele>
        <time>2015-08-22T16:43:26Z</time>
      </trkpt>
      <trkpt lat="45.38656" lon="7.04141">
        <ele>2151.3137</ele>
        <time>2015-08-22T16:43:36Z</time>
      </trkpt>
      <trkpt lat="45.38651" lon="7.04144">
        <ele>2151.3137</ele>
        <time>2015-08-22T16:43:41Z</time>
      </trkpt>
      <trkpt lat="45.38638" lon="7.04152">
        <ele>2150.7195</ele>
        <time>2015-08-22T16:43:51Z</time>
      </trkpt>
      <trkpt lat="45.38633" lon="7.04155">
        <ele>2150.7195</ele>
        <time>2015-08-22T16:43:56Z</time>
      </trkpt>
      <trkpt lat="45.38617" lon="7.04162">
        <ele>2150.0308</ele>
        <time>2015-08-22T16:44:11Z</time>
      </trkpt>
      <trkpt lat="45.3861" lon="7.04165">
        <ele>2150.0308</ele>
        <time>2015-08-22T16:44:16Z</time>
      </trkpt>
      <trkpt lat="45.38597" lon="7.04175">
        <ele>2149.4395</ele>
        <time>2015-08-22T16:44:26Z</time>
      </trkpt>
      <trkpt lat="45.38593" lon="7.04179">
        <ele>2149.4395</ele>
        <time>2015-08-22T16:44:31Z</time>
      </trkpt>
      <trkpt lat="45.38581" lon="7.04194">
        <ele>2148.7632</ele>
        <time>2015-08-22T16:44:41Z</time>
      </trkpt>
      <trkpt lat="45.38579" lon="7.04198">
        <ele>2148.7632</ele>
        <time>2015-08-22T16:44:46Z</time>
      </trkpt>
      <trkpt lat="45.38572" lon="7.04209">
        <ele>2147.9048</ele>
        <time>2015-08-22T16:44:56Z</time>
      </trkpt>
      <trkpt lat="45.38569" lon="7.04215">
        <ele>2147.9048</ele>
        <time>2015-08-22T16:45:01Z</time>
      </trkpt>
      <trkpt lat="45.38561" lon="7.04229">
        <ele>2146.934</ele>
        <time>2015-08-22T16:45:11Z</time>
      </trkpt>
      <trkpt lat="45.38556" lon="7.04238">
        <ele>2146.934</ele>
        <time>2015-08-22T16:45:16Z</time>
      </trkpt>
      <trkpt lat="45.38548" lon="7.04247">
        <ele>2146.045</ele>
        <time>2015-08-22T16:45:26Z</time>
      </trkpt>
      <trkpt lat="45.38542" lon="7.04251">
        <ele>2146.045</ele>
        <time>2015-08-22T16:45:31Z</time>
      </trkpt>
      <trkpt lat="45.38531" lon="7.04261">
        <ele>2145.2449</ele>
        <time>2015-08-22T16:45:41Z</time>
      </trkpt>
      <trkpt lat="45.38526" lon="7.04266">
        <ele>2145.2449</ele>
        <time>2015-08-22T16:45:46Z</time>
      </trkpt>
      <trkpt lat="45.38515" lon="7.04276">
        <ele>2144.6116</ele>
        <time>2015-08-22T16:46:01Z</time>
      </trkpt>
      <trkpt lat="45.38511" lon="7.04281">
        <ele>2144.6116</ele>
        <time>2015-08-22T16:46:06Z</time>
      </trkpt>
      <trkpt lat="45.38514" lon="7.04283">
        <ele>2144.6116</ele>
        <time>2015-08-22T16:46:16Z</time>
      </trkpt>
      <trkpt lat="45.38514" lon="7.04283">
        <ele>2144.6116</ele>
        <time>2015-08-22T16:46:21Z</time>
      </trkpt>
      <trkpt lat="45.38517" lon="7.04284">
        <ele>2144.2466</ele>
        <time>2015-08-22T16:46:31Z</time>
      </trkpt>
      <trkpt lat="45.38515" lon="7.04284">
        <ele>2144.2466</ele>
        <time>2015-08-22T16:46:36Z</time>
      </trkpt>
      <trkpt lat="45.3851" lon="7.04282">
        <ele>2144.2466</ele>
        <time>2015-08-22T16:46:46Z</time>
      </trkpt>
      <trkpt lat="45.3851" lon="7.04285">
        <ele>2144.012</ele>
        <time>2015-08-22T16:46:51Z</time>
      </trkpt>
      <trkpt lat="45.38509" lon="7.04283">
        <ele>2144.012</ele>
        <time>2015-08-22T16:47:01Z</time>
      </trkpt>
      <trkpt lat="45.38511" lon="7.04281">
        <ele>2144.012</ele>
        <time>2015-08-22T16:47:06Z</time>
      </trkpt>
      <trkpt lat="45.38514" lon="7.04286">
        <ele>2144.012</ele>
        <time>2015-08-22T16:47:16Z</time>
      </trkpt>
      <trkpt lat="45.38512" lon="7.04284">
        <ele>2143.9524</ele>
        <time>2015-08-22T16:47:21Z</time>
      </trkpt>
      <trkpt lat="45.38511" lon="7.04282">
        <ele>2143.9524</ele>
        <time>2015-08-22T16:47:31Z</time>
      </trkpt>
      <trkpt lat="45.38512" lon="7.04283">
        <ele>2143.9524</ele>
        <time>2015-08-22T16:47:36Z</time>
      </trkpt>
      <trkpt lat="45.38512" lon="7.04283">
        <ele>2143.9524</ele>
        <time>2015-08-22T16:47:46Z</time>
      </trkpt>
      <trkpt lat="45.38494" lon="7.04275">
        <ele>2143.7207</ele>
        <time>2015-08-22T16:48:06Z</time>
      </trkpt>
      <trkpt lat="45.38487" lon="7.04269">
        <ele>2143.7207</ele>
        <time>2015-08-22T16:48:11Z</time>
      </trkpt>
      <trkpt lat="45.38475" lon="7.04261">
        <ele>2144.018</ele>
        <time>2015-08-22T16:48:21Z</time>
      </trkpt>
      <trkpt lat="45.38469" lon="7.0426">
        <ele>2144.018</ele>
        <time>2015-08-22T16:48:26Z</time>
      </trkpt>
      <trkpt lat="45.38463" lon="7.04267">
        <ele>2144.5562</ele>
        <time>2015-08-22T16:48:36Z</time>
      </trkpt>
      <trkpt lat="45.38459" lon="7.04271">
        <ele>2144.5562</ele>
        <time>2015-08-22T16:48:41Z</time>
      </trkpt>
      <trkpt lat="45.3845" lon="7.04287">
        <ele>2144.9521</ele>
        <time>2015-08-22T16:48:51Z</time>
      </trkpt>
      <trkpt lat="45.38447" lon="7.04292">
        <ele>2144.9521</ele>
        <time>2015-08-22T16:48:56Z</time>
      </trkpt>
      <trkpt lat="45.3844" lon="7.04304">
        <ele>2145.1836</ele>
        <time>2015-08-22T16:49:06Z</time>
      </trkpt>
      <trkpt lat="45.38437" lon="7.04312">
        <ele>2145.1836</ele>
        <time>2015-08-22T16:49:11Z</time>
      </trkpt>
      <trkpt lat="45.38426" lon="7.04331">
        <ele>2145.1719</ele>
        <time>2015-08-22T16:49:26Z</time>
      </trkpt>
      <trkpt lat="45.38421" lon="7.04339">
        <ele>2145.1719</ele>
        <time>2015-08-22T16:49:31Z</time>
      </trkpt>
      <trkpt lat="45.38413" lon="7.04351">
        <ele>2145.1912</ele>
        <time>2015-08-22T16:49:41Z</time>
      </trkpt>
      <trkpt lat="45.3841" lon="7.04356">
        <ele>2145.1912</ele>
        <time>2015-08-22T16:49:46Z</time>
      </trkpt>
      <trkpt lat="45.38402" lon="7.04371">
        <ele>2145.1643</ele>
        <time>2015-08-22T16:49:56Z</time>
      </trkpt>
      <trkpt lat="45.38398" lon="7.04377">
        <ele>2145.1643</ele>
        <time>2015-08-22T16:50:01Z</time>
      </trkpt>
      <trkpt lat="45.38392" lon="7.04391">
        <ele>2145.0918</ele>
        <time>2015-08-22T16:50:11Z</time>
      </trkpt>
      <trkpt lat="45.38389" lon="7.04397">
        <ele>2145.0918</ele>
        <time>2015-08-22T16:50:16Z</time>
      </trkpt>
      <trkpt lat="45.38381" lon="7.04411">
        <ele>2144.8877</ele>
        <time>2015-08-22T16:50:26Z</time>
      </trkpt>
      <trkpt lat="45.38377" lon="7.04418">
        <ele>2144.8877</ele>
        <time>2015-08-22T16:50:31Z</time>
      </trkpt>
      <trkpt lat="45.38372" lon="7.0443">
        <ele>2144.6606</ele>
        <time>2015-08-22T16:50:41Z</time>
      </trkpt>
      <trkpt lat="45.3837" lon="7.04437">
        <ele>2144.6606</ele>
        <time>2015-08-22T16:50:46Z</time>
      </trkpt>
      <trkpt lat="45.38364" lon="7.04448">
        <ele>2144.4534</ele>
        <time>2015-08-22T16:50:56Z</time>
      </trkpt>
      <trkpt lat="45.38359" lon="7.04456">
        <ele>2144.4534</ele>
        <time>2015-08-22T16:51:01Z</time>
      </trkpt>
      <trkpt lat="45.38347" lon="7.04473">
        <ele>2144.306</ele>
        <time>2015-08-22T16:51:16Z</time>
      </trkpt>
      <trkpt lat="45.38344" lon="7.04479">
        <ele>2144.306</ele>
        <time>2015-08-22T16:51:21Z</time>
      </trkpt>
      <trkpt lat="45.38335" lon="7.04489">
        <ele>2144.0967</ele>
        <time>2015-08-22T16:51:31Z</time>
      </trkpt>
      <trkpt lat="45.3833" lon="7.04494">
        <ele>2144.0967</ele>
        <time>2015-08-22T16:51:36Z</time>
      </trkpt>
      <trkpt lat="45.3832" lon="7.04507">
        <ele>2143.8572</ele>
        <time>2015-08-22T16:51:46Z</time>
      </trkpt>
      <trkpt lat="45.38316" lon="7.04513">
        <ele>2143.8572</ele>
        <time>2015-08-22T16:51:51Z</time>
      </trkpt>
      <trkpt lat="45.38309" lon="7.04526">
        <ele>2143.6602</ele>
        <time>2015-08-22T16:52:01Z</time>
      </trkpt>
      <trkpt lat="45.38304" lon="7.04532">
        <ele>2143.6602</ele>
        <time>2015-08-22T16:52:06Z</time>
      </trkpt>
      <trkpt lat="45.38295" lon="7.04544">
        <ele>2143.4143</ele>
        <time>2015-08-22T16:52:16Z</time>
      </trkpt>
      <trkpt lat="45.38293" lon="7.04551">
        <ele>2143.4143</ele>
        <time>2015-08-22T16:52:21Z</time>
      </trkpt>
      <trkpt lat="45.38289" lon="7.04565">
        <ele>2143.007</ele>
        <time>2015-08-22T16:52:31Z</time>
      </trkpt>
      <trkpt lat="45.38286" lon="7.04574">
        <ele>2143.007</ele>
        <time>2015-08-22T16:52:36Z</time>
      </trkpt>
      <trkpt lat="45.3828" lon="7.04588">
        <ele>2142.5786</ele>
        <time>2015-08-22T16:52:46Z</time>
      </trkpt>
      <trkpt lat="45.38277" lon="7.04594">
        <ele>2142.5786</ele>
        <time>2015-08-22T16:52:51Z</time>
      </trkpt>
      <trkpt lat="45.38268" lon="7.04615">
        <ele>2142.0728</ele>
        <time>2015-08-22T16:53:06Z</time>
      </trkpt>
      <trkpt lat="45.38264" lon="7.04622">
        <ele>2142.0728</ele>
        <time>2015-08-22T16:53:11Z</time>
      </trkpt>
      <trkpt lat="45.38254" lon="7.04634">
        <ele>2141.5808</ele>
        <time>2015-08-22T16:53:21Z</time>
      </trkpt>
      <trkpt lat="45.38249" lon="7.04639">
        <ele>2141.5808</ele>
        <time>2015-08-22T16:53:26Z</time>
      </trkpt>
      <trkpt lat="45.38237" lon="7.04639">
        <ele>2141.1306</ele>
        <time>2015-08-22T16:53:36Z</time>
      </trkpt>
      <trkpt lat="45.38232" lon="7.04642">
        <ele>2141.1306</ele>
        <time>2015-08-22T16:53:41Z</time>
      </trkpt>
      <trkpt lat="45.3822" lon="7.04651">
        <ele>2140.6753</ele>
        <time>2015-08-22T16:53:51Z</time>
      </trkpt>
      <trkpt lat="45.38217" lon="7.04651">
        <ele>2140.6753</ele>
        <time>2015-08-22T16:53:56Z</time>
      </trkpt>
      <trkpt lat="45.38206" lon="7.04657">
        <ele>2140.2583</ele>
        <time>2015-08-22T16:54:06Z</time>
      </trkpt>
      <trkpt lat="45.382" lon="7.04662">
        <ele>2140.2583</ele>
        <time>2015-08-22T16:54:11Z</time>
      </trkpt>
      <trkpt lat="45.38191" lon="7.04669">
        <ele>2139.9053</ele>
        <time>2015-08-22T16:54:21Z</time>
      </trkpt>
      <trkpt lat="45.38184" lon="7.04673">
        <ele>2139.9053</ele>
        <time>2015-08-22T16:54:26Z</time>
      </trkpt>
      <trkpt lat="45.38173" lon="7.04679">
        <ele>2139.6108</ele>
        <time>2015-08-22T16:54:36Z</time>
      </trkpt>
      <trkpt lat="45.38166" lon="7.04683">
        <ele>2139.6108</ele>
        <time>2015-08-22T16:54:41Z</time>
      </trkpt>
      <trkpt lat="45.38153" lon="7.04698">
        <ele>2139.1543</ele>
        <time>2015-08-22T16:54:56Z</time>
      </trkpt>
      <trkpt lat="45.38147" lon="7.04704">
        <ele>2139.1543</ele>
        <time>2015-08-22T16:55:01Z</time>
      </trkpt>
      <trkpt lat="45.38141" lon="7.04714">
        <ele>2138.6338</ele>
        <time>2015-08-22T16:55:11Z</time>
      </trkpt>
      <trkpt lat="45.3814" lon="7.04717">
        <ele>2138.6338</ele>
        <time>2015-08-22T16:55:16Z</time>
      </trkpt>
      <trkpt lat="45.38137" lon="7.04735">
        <ele>2137.9534</ele>
        <time>2015-08-22T16:55:26Z</time>
      </trkpt>
      <trkpt lat="45.38135" lon="7.04745">
        <ele>2137.9534</ele>
        <time>2015-08-22T16:55:31Z</time>
      </trkpt>
      <trkpt lat="45.38134" lon="7.0476">
        <ele>2137.0964</ele>
        <time>2015-08-22T16:55:41Z</time>
      </trkpt>
      <trkpt lat="45.38134" lon="7.04767">
        <ele>2137.0964</ele>
        <time>2015-08-22T16:55:46Z</time>
      </trkpt>
      <trkpt lat="45.38134" lon="7.04773">
        <ele>2136.1782</ele>
        <time>2015-08-22T16:55:56Z</time>
      </trkpt>
      <trkpt lat="45.38134" lon="7.04773">
        <ele>2136.1782</ele>
        <time>2015-08-22T16:56:01Z</time>
      </trkpt>
      <trkpt lat="45.38132" lon="7.04775">
        <ele>2136.1782</ele>
        <time>2015-08-22T16:56:11Z</time>
      </trkpt>
      <trkpt lat="45.38131" lon="7.04776">
        <ele>2136.1782</ele>
        <time>2015-08-22T16:56:16Z</time>
      </trkpt>
      <trkpt lat="45.38129" lon="7.04772">
        <ele>2136.1782</ele>
        <time>2015-08-22T16:56:31Z</time>
      </trkpt>
      <trkpt lat="45.38129" lon="7.0477">
        <ele>2135.3774</ele>
        <time>2015-08-22T16:56:36Z</time>
      </trkpt>
      <trkpt lat="45.38128" lon="7.04769">
        <ele>2135.3774</ele>
        <time>2015-08-22T16:56:46Z</time>
      </trkpt>
      <trkpt lat="45.38129" lon="7.0477">
        <ele>2135.3774</ele>
        <time>2015-08-22T16:56:51Z</time>
      </trkpt>
      <trkpt lat="45.38129" lon="7.04771">
        <ele>2135.3774</ele>
        <time>2015-08-22T16:57:01Z</time>
      </trkpt>
      <trkpt lat="45.38129" lon="7.04772">
        <ele>2135.3774</ele>
        <time>2015-08-22T16:57:06Z</time>
      </trkpt>
      <trkpt lat="45.3813" lon="7.04772">
        <ele>2135.3774</ele>
        <time>2015-08-22T16:57:11Z</time>
      </trkpt>
      <trkpt lat="45.38131" lon="7.04771">
        <ele>2135.3774</ele>
        <time>2015-08-22T16:57:16Z</time>
      </trkpt>
      <trkpt lat="45.38131" lon="7.0477">
        <ele>2135.3774</ele>
        <time>2015-08-22T16:57:21Z</time>
      </trkpt>
      <trkpt lat="45.3813" lon="7.04768">
        <ele>2135.3774</ele>
        <time>2015-08-22T16:57:26Z</time>
      </trkpt>
      <trkpt lat="45.38132" lon="7.04768">
        <ele>2134.6724</ele>
        <time>2015-08-22T16:57:31Z</time>
      </trkpt>
      <trkpt lat="45.38133" lon="7.04769">
        <ele>2134.6724</ele>
        <time>2015-08-22T16:57:36Z</time>
      </trkpt>
      <trkpt lat="45.38133" lon="7.04772">
        <ele>2134.6724</ele>
        <time>2015-08-22T16:57:46Z</time>
      </trkpt>
      <trkpt lat="45.38134" lon="7.04772">
        <ele>2134.6724</ele>
        <time>2015-08-22T16:57:51Z</time>
      </trkpt>
      <trkpt lat="45.38134" lon="7.04771">
        <ele>2134.6724</ele>
        <time>2015-08-22T16:57:56Z</time>
      </trkpt>
      <trkpt lat="45.38133" lon="7.04771">
        <ele>2134.6724</ele>
        <time>2015-08-22T16:58:01Z</time>
      </trkpt>
      <trkpt lat="45.38132" lon="7.04772">
        <ele>2134.6724</ele>
        <time>2015-08-22T16:58:06Z</time>
      </trkpt>
      <trkpt lat="45.38132" lon="7.04772">
        <ele>2134.6724</ele>
        <time>2015-08-22T16:58:16Z</time>
      </trkpt>
      <trkpt lat="45.38129" lon="7.04777">
        <ele>2133.581</ele>
        <time>2015-08-22T16:58:31Z</time>
      </trkpt>
      <trkpt lat="45.38127" lon="7.04785">
        <ele>2133.581</ele>
        <time>2015-08-22T16:58:36Z</time>
      </trkpt>
      <trkpt lat="45.38125" lon="7.04802">
        <ele>2132.0618</ele>
        <time>2015-08-22T16:58:46Z</time>
      </trkpt>
      <trkpt lat="45.38123" lon="7.04811">
        <ele>2132.0618</ele>
        <time>2015-08-22T16:58:51Z</time>
      </trkpt>
      <trkpt lat="45.38123" lon="7.04823">
        <ele>2130.4084</ele>
        <time>2015-08-22T16:59:01Z</time>
      </trkpt>
      <trkpt lat="45.38125" lon="7.04831">
        <ele>2130.4084</ele>
        <time>2015-08-22T16:59:06Z</time>
      </trkpt>
      <trkpt lat="45.38126" lon="7.04851">
        <ele>2128.577</ele>
        <time>2015-08-22T16:59:16Z</time>
      </trkpt>
      <trkpt lat="45.38127" lon="7.04858">
        <ele>2128.577</ele>
        <time>2015-08-22T16:59:21Z</time>
      </trkpt>
      <trkpt lat="45.3812" lon="7.04869">
        <ele>2126.3826</ele>
        <time>2015-08-22T16:59:31Z</time>
      </trkpt>
      <trkpt lat="45.38115" lon="7.04874">
        <ele>2126.3826</ele>
        <time>2015-08-22T16:59:36Z</time>
      </trkpt>
      <trkpt lat="45.38106" lon="7.04889">
        <ele>2124.246</ele>
        <time>2015-08-22T16:59:46Z</time>
      </trkpt>
      <trkpt lat="45.38103" lon="7.04897">
        <ele>2124.246</ele>
        <time>2015-08-22T16:59:51Z</time>
      </trkpt>
      <trkpt lat="45.38095" lon="7.04908">
        <ele>2122.312</ele>
        <time>2015-08-22T17:00:01Z</time>
      </trkpt>
      <trkpt lat="45.3809" lon="7.04912">
        <ele>2122.312</ele>
        <time>2015-08-22T17:00:06Z</time>
      </trkpt>
      <trkpt lat="45.38091" lon="7.04926">
        <ele>2120.5266</ele>
        <time>2015-08-22T17:00:16Z</time>
      </trkpt>
      <trkpt lat="45.38092" lon="7.04929">
        <ele>2120.5266</ele>
        <time>2015-08-22T17:00:21Z</time>
      </trkpt>
      <trkpt lat="45.38092" lon="7.04942">
        <ele>2118.8682</ele>
        <time>2015-08-22T17:00:31Z</time>
      </trkpt>
      <trkpt lat="45.38091" lon="7.0495">
        <ele>2118.8682</ele>
        <time>2015-08-22T17:00:36Z</time>
      </trkpt>
      <trkpt lat="45.3809" lon="7.04978">
        <ele>2117.1292</ele>
        <time>2015-08-22T17:00:51Z</time>
      </trkpt>
      <trkpt lat="45.38089" lon="7.04986">
        <ele>2117.1292</ele>
        <time>2015-08-22T17:00:56Z</time>
      </trkpt>
      <trkpt lat="45.38084" lon="7.04998">
        <ele>2115.4915</ele>
        <time>2015-08-22T17:01:06Z</time>
      </trkpt>
      <trkpt lat="45.3808" lon="7.05004">
        <ele>2115.4915</ele>
        <time>2015-08-22T17:01:11Z</time>
      </trkpt>
      <trkpt lat="45.3807" lon="7.05015">
        <ele>2114.0232</ele>
        <time>2015-08-22T17:01:21Z</time>
      </trkpt>
      <trkpt lat="45.38065" lon="7.0502">
        <ele>2114.0232</ele>
        <time>2015-08-22T17:01:26Z</time>
      </trkpt>
      <trkpt lat="45.38059" lon="7.05019">
        <ele>2112.671</ele>
        <time>2015-08-22T17:01:36Z</time>
      </trkpt>
      <trkpt lat="45.38059" lon="7.05018">
        <ele>2112.671</ele>
        <time>2015-08-22T17:01:41Z</time>
      </trkpt>
      <trkpt lat="45.38061" lon="7.05021">
        <ele>2112.671</ele>
        <time>2015-08-22T17:01:51Z</time>
      </trkpt>
      <trkpt lat="45.38057" lon="7.05026">
        <ele>2112.671</ele>
        <time>2015-08-22T17:01:56Z</time>
      </trkpt>
      <trkpt lat="45.38057" lon="7.05026">
        <ele>2111.3994</ele>
        <time>2015-08-22T17:02:06Z</time>
      </trkpt>
      <trkpt lat="45.38057" lon="7.05027">
        <ele>2111.3994</ele>
        <time>2015-08-22T17:02:11Z</time>
      </trkpt>
      <trkpt lat="45.38051" lon="7.05032">
        <ele>2111.3994</ele>
        <time>2015-08-22T17:02:21Z</time>
      </trkpt>
      <trkpt lat="45.38051" lon="7.05034">
        <ele>2110.0752</ele>
        <time>2015-08-22T17:02:26Z</time>
      </trkpt>
      <trkpt lat="45.38048" lon="7.05038">
        <ele>2110.0752</ele>
        <time>2015-08-22T17:02:41Z</time>
      </trkpt>
      <trkpt lat="45.38044" lon="7.05038">
        <ele>2110.0752</ele>
        <time>2015-08-22T17:02:46Z</time>
      </trkpt>
      <trkpt lat="45.38036" lon="7.05044">
        <ele>2108.9775</ele>
        <time>2015-08-22T17:02:56Z</time>
      </trkpt>
      <trkpt lat="45.38033" lon="7.05047">
        <ele>2108.9775</ele>
        <time>2015-08-22T17:03:01Z</time>
      </trkpt>
      <trkpt lat="45.38024" lon="7.05054">
        <ele>2107.9329</ele>
        <time>2015-08-22T17:03:11Z</time>
      </trkpt>
      <trkpt lat="45.38022" lon="7.05056">
        <ele>2107.9329</ele>
        <time>2015-08-22T17:03:16Z</time>
      </trkpt>
      <trkpt lat="45.38015" lon="7.05061">
        <ele>2106.707</ele>
        <time>2015-08-22T17:03:26Z</time>
      </trkpt>
      <trkpt lat="45.3801" lon="7.05065">
        <ele>2106.707</ele>
        <time>2015-08-22T17:03:31Z</time>
      </trkpt>
      <trkpt lat="45.38003" lon="7.05069">
        <ele>2105.4739</ele>
        <time>2015-08-22T17:03:41Z</time>
      </trkpt>
      <trkpt lat="45.38" lon="7.05071">
        <ele>2105.4739</ele>
        <time>2015-08-22T17:03:46Z</time>
      </trkpt>
      <trkpt lat="45.37994" lon="7.05072">
        <ele>2104.0334</ele>
        <time>2015-08-22T17:03:56Z</time>
      </trkpt>
      <trkpt lat="45.37991" lon="7.05073">
        <ele>2104.0334</ele>
        <time>2015-08-22T17:04:01Z</time>
      </trkpt>
      <trkpt lat="45.37984" lon="7.05077">
        <ele>2102.1287</ele>
        <time>2015-08-22T17:04:11Z</time>
      </trkpt>
      <trkpt lat="45.3798" lon="7.05082">
        <ele>2102.1287</ele>
        <time>2015-08-22T17:04:16Z</time>
      </trkpt>
      <trkpt lat="45.37975" lon="7.05087">
        <ele>2100.042</ele>
        <time>2015-08-22T17:04:26Z</time>
      </trkpt>
      <trkpt lat="45.37973" lon="7.05093">
        <ele>2100.042</ele>
        <time>2015-08-22T17:04:31Z</time>
      </trkpt>
      <trkpt lat="45.37961" lon="7.05099">
        <ele>2097.5452</ele>
        <time>2015-08-22T17:04:46Z</time>
      </trkpt>
      <trkpt lat="45.37956" lon="7.05099">
        <ele>2097.5452</ele>
        <time>2015-08-22T17:04:51Z</time>
      </trkpt>
      <trkpt lat="45.37946" lon="7.05098">
        <ele>2094.9468</ele>
        <time>2015-08-22T17:05:01Z</time>
      </trkpt>
      <trkpt lat="45.37942" lon="7.05097">
        <ele>2094.9468</ele>
        <time>2015-08-22T17:05:06Z</time>
      </trkpt>
      <trkpt lat="45.37929" lon="7.05098">
        <ele>2092.3455</ele>
        <time>2015-08-22T17:05:16Z</time>
      </trkpt>
      <trkpt lat="45.37925" lon="7.05097">
        <ele>2092.3455</ele>
        <time>2015-08-22T17:05:21Z</time>
      </trkpt>
      <trkpt lat="45.37918" lon="7.05098">
        <ele>2089.804</ele>
        <time>2015-08-22T17:05:31Z</time>
      </trkpt>
      <trkpt lat="45.37916" lon="7.05099">
        <ele>2089.804</ele>
        <time>2015-08-22T17:05:36Z</time>
      </trkpt>
      <trkpt lat="45.37917" lon="7.05097">
        <ele>2089.804</ele>
        <time>2015-08-22T17:05:46Z</time>
      </trkpt>
      <trkpt lat="45.3792" lon="7.05096">
        <ele>2089.804</ele>
        <time>2015-08-22T17:05:51Z</time>
      </trkpt>
      <trkpt lat="45.37922" lon="7.05098">
        <ele>2087.207</ele>
        <time>2015-08-22T17:06:01Z</time>
      </trkpt>
      <trkpt lat="45.37926" lon="7.05102">
        <ele>2087.207</ele>
        <time>2015-08-22T17:06:06Z</time>
      </trkpt>
      <trkpt lat="45.37931" lon="7.05095">
        <ele>2084.4766</ele>
        <time>2015-08-22T17:06:16Z</time>
      </trkpt>
      <trkpt lat="45.37931" lon="7.05096">
        <ele>2084.4766</ele>
        <time>2015-08-22T17:06:21Z</time>
      </trkpt>
      <trkpt lat="45.37923" lon="7.05099">
        <ele>2084.4766</ele>
        <time>2015-08-22T17:06:31Z</time>
      </trkpt>
      <trkpt lat="45.37923" lon="7.051">
        <ele>2081.728</ele>
        <time>2015-08-22T17:06:36Z</time>
      </trkpt>
      <trkpt lat="45.37925" lon="7.05108">
        <ele>2081.728</ele>
        <time>2015-08-22T17:06:46Z</time>
      </trkpt>
      <trkpt lat="45.37921" lon="7.05107">
        <ele>2079.2268</ele>
        <time>2015-08-22T17:06:51Z</time>
      </trkpt>
      <trkpt lat="45.37908" lon="7.05102">
        <ele>2076.973</ele>
        <time>2015-08-22T17:07:01Z</time>
      </trkpt>
      <trkpt lat="45.37901" lon="7.05103">
        <ele>2076.973</ele>
        <time>2015-08-22T17:07:06Z</time>
      </trkpt>
      <trkpt lat="45.37892" lon="7.05102">
        <ele>2074.9082</ele>
        <time>2015-08-22T17:07:16Z</time>
      </trkpt>
      <trkpt lat="45.37888" lon="7.05099">
        <ele>2074.9082</ele>
        <time>2015-08-22T17:07:21Z</time>
      </trkpt>
      <trkpt lat="45.37871" lon="7.05094">
        <ele>2073.0068</ele>
        <time>2015-08-22T17:07:36Z</time>
      </trkpt>
      <trkpt lat="45.37866" lon="7.05092">
        <ele>2073.0068</ele>
        <time>2015-08-22T17:07:41Z</time>
      </trkpt>
      <trkpt lat="45.37861" lon="7.05085">
        <ele>2071.3157</ele>
        <time>2015-08-22T17:07:51Z</time>
      </trkpt>
      <trkpt lat="45.37856" lon="7.05084">
        <ele>2071.3157</ele>
        <time>2015-08-22T17:07:56Z</time>
      </trkpt>
      <trkpt lat="45.37849" lon="7.05081">
        <ele>2069.677</ele>
        <time>2015-08-22T17:08:06Z</time>
      </trkpt>
      <trkpt lat="45.37847" lon="7.0508">
        <ele>2069.677</ele>
        <time>2015-08-22T17:08:11Z</time>
      </trkpt>
      <trkpt lat="45.37845" lon="7.05075">
        <ele>2069.677</ele>
        <time>2015-08-22T17:08:21Z</time>
      </trkpt>
      <trkpt lat="45.37844" lon="7.05073">
        <ele>2069.677</ele>
        <time>2015-08-22T17:08:26Z</time>
      </trkpt>
      <trkpt lat="45.37842" lon="7.05075">
        <ele>2068.0151</ele>
        <time>2015-08-22T17:08:36Z</time>
      </trkpt>
      <trkpt lat="45.37841" lon="7.05076">
        <ele>2068.0151</ele>
        <time>2015-08-22T17:08:41Z</time>
      </trkpt>
      <trkpt lat="45.37839" lon="7.0508">
        <ele>2068.0151</ele>
        <time>2015-08-22T17:08:51Z</time>
      </trkpt>
      <trkpt lat="45.37839" lon="7.05085">
        <ele>2068.0151</ele>
        <time>2015-08-22T17:08:56Z</time>
      </trkpt>
      <trkpt lat="45.3784" lon="7.05094">
        <ele>2066.0588</ele>
        <time>2015-08-22T17:09:06Z</time>
      </trkpt>
      <trkpt lat="45.37841" lon="7.05098">
        <ele>2066.0588</ele>
        <time>2015-08-22T17:09:11Z</time>
      </trkpt>
      <trkpt lat="45.37839" lon="7.05104">
        <ele>2066.0588</ele>
        <time>2015-08-22T17:09:21Z</time>
      </trkpt>
      <trkpt lat="45.37837" lon="7.051">
        <ele>2063.745</ele>
        <time>2015-08-22T17:09:26Z</time>
      </trkpt>
      <trkpt lat="45.37826" lon="7.05095">
        <ele>2061.4194</ele>
        <time>2015-08-22T17:09:41Z</time>
      </trkpt>
      <trkpt lat="45.37824" lon="7.05093">
        <ele>2061.4194</ele>
        <time>2015-08-22T17:09:46Z</time>
      </trkpt>
      <trkpt lat="45.37818" lon="7.0509">
        <ele>2058.9556</ele>
        <time>2015-08-22T17:09:56Z</time>
      </trkpt>
      <trkpt lat="45.37815" lon="7.05088">
        <ele>2058.9556</ele>
        <time>2015-08-22T17:10:01Z</time>
      </trkpt>
      <trkpt lat="45.37809" lon="7.05084">
        <ele>2056.366</ele>
        <time>2015-08-22T17:10:11Z</time>
      </trkpt>
      <trkpt lat="45.37807" lon="7.0508">
        <ele>2056.366</ele>
        <time>2015-08-22T17:10:16Z</time>
      </trkpt>
      <trkpt lat="45.37803" lon="7.0508">
        <ele>2056.366</ele>
        <time>2015-08-22T17:10:26Z</time>
      </trkpt>
      <trkpt lat="45.378" lon="7.05078">
        <ele>2053.4897</ele>
        <time>2015-08-22T17:10:31Z</time>
      </trkpt>
      <trkpt lat="45.37796" lon="7.05076">
        <ele>2053.4897</ele>
        <time>2015-08-22T17:10:41Z</time>
      </trkpt>
      <trkpt lat="45.37794" lon="7.05079">
        <ele>2053.4897</ele>
        <time>2015-08-22T17:10:46Z</time>
      </trkpt>
      <trkpt lat="45.37793" lon="7.05087">
        <ele>2050.1501</ele>
        <time>2015-08-22T17:10:56Z</time>
      </trkpt>
      <trkpt lat="45.37793" lon="7.05087">
        <ele>2050.1501</ele>
        <time>2015-08-22T17:11:01Z</time>
      </trkpt>
      <trkpt lat="45.3779" lon="7.05093">
        <ele>2050.1501</ele>
        <time>2015-08-22T17:11:11Z</time>
      </trkpt>
      <trkpt lat="45.37792" lon="7.05096">
        <ele>2050.1501</ele>
        <time>2015-08-22T17:11:16Z</time>
      </trkpt>
      <trkpt lat="45.37795" lon="7.05104">
        <ele>2046.7894</ele>
        <time>2015-08-22T17:11:26Z</time>
      </trkpt>
      <trkpt lat="45.37796" lon="7.05107">
        <ele>2046.7894</ele>
        <time>2015-08-22T17:11:31Z</time>
      </trkpt>
      <trkpt lat="45.3779" lon="7.0511">
        <ele>2046.7894</ele>
        <time>2015-08-22T17:11:41Z</time>
      </trkpt>
      <trkpt lat="45.37788" lon="7.05109">
        <ele>2043.1976</ele>
        <time>2015-08-22T17:11:46Z</time>
      </trkpt>
      <trkpt lat="45.37784" lon="7.05109">
        <ele>2043.1976</ele>
        <time>2015-08-22T17:12:01Z</time>
      </trkpt>
      <trkpt lat="45.37783" lon="7.05109">
        <ele>2043.1976</ele>
        <time>2015-08-22T17:12:06Z</time>
      </trkpt>
      <trkpt lat="45.37781" lon="7.05112">
        <ele>2043.1976</ele>
        <time>2015-08-22T17:12:16Z</time>
      </trkpt>
      <trkpt lat="45.37782" lon="7.05111">
        <ele>2039.9014</ele>
        <time>2015-08-22T17:12:21Z</time>
      </trkpt>
      <trkpt lat="45.37782" lon="7.05102">
        <ele>2039.9014</ele>
        <time>2015-08-22T17:12:31Z</time>
      </trkpt>
      <trkpt lat="45.3778" lon="7.051">
        <ele>2039.9014</ele>
        <time>2015-08-22T17:12:36Z</time>
      </trkpt>
      <trkpt lat="45.37773" lon="7.05095">
        <ele>2036.3644</ele>
        <time>2015-08-22T17:12:46Z</time>
      </trkpt>
      <trkpt lat="45.37773" lon="7.05095">
        <ele>2036.3644</ele>
        <time>2015-08-22T17:12:51Z</time>
      </trkpt>
      <trkpt lat="45.3777" lon="7.05094">
        <ele>2036.3644</ele>
        <time>2015-08-22T17:13:01Z</time>
      </trkpt>
      <trkpt lat="45.37771" lon="7.05096">
        <ele>2036.3644</ele>
        <time>2015-08-22T17:13:06Z</time>
      </trkpt>
      <trkpt lat="45.37769" lon="7.0509">
        <ele>2032.768</ele>
        <time>2015-08-22T17:13:16Z</time>
      </trkpt>
      <trkpt lat="45.37767" lon="7.0509">
        <ele>2032.768</ele>
        <time>2015-08-22T17:13:21Z</time>
      </trkpt>
      <trkpt lat="45.37766" lon="7.05086">
        <ele>2032.768</ele>
        <time>2015-08-22T17:13:31Z</time>
      </trkpt>
      <trkpt lat="45.37766" lon="7.0509">
        <ele>2032.768</ele>
        <time>2015-08-22T17:13:36Z</time>
      </trkpt>
      <trkpt lat="45.37765" lon="7.05103">
        <ele>2028.9194</ele>
        <time>2015-08-22T17:13:46Z</time>
      </trkpt>
      <trkpt lat="45.37764" lon="7.05105">
        <ele>2028.9194</ele>
        <time>2015-08-22T17:13:51Z</time>
      </trkpt>
      <trkpt lat="45.37761" lon="7.05116">
        <ele>2025.0878</ele>
        <time>2015-08-22T17:14:06Z</time>
      </trkpt>
      <trkpt lat="45.3776" lon="7.0512">
        <ele>2025.0878</ele>
        <time>2015-08-22T17:14:11Z</time>
      </trkpt>
      <trkpt lat="45.37756" lon="7.05131">
        <ele>2021.2051</ele>
        <time>2015-08-22T17:14:21Z</time>
      </trkpt>
      <trkpt lat="45.37754" lon="7.05134">
        <ele>2021.2051</ele>
        <time>2015-08-22T17:14:26Z</time>
      </trkpt>
      <trkpt lat="45.37748" lon="7.05137">
        <ele>2017.0929</ele>
        <time>2015-08-22T17:14:36Z</time>
      </trkpt>
      <trkpt lat="45.37746" lon="7.05132">
        <ele>2017.0929</ele>
        <time>2015-08-22T17:14:41Z</time>
      </trkpt>
      <trkpt lat="45.37743" lon="7.05121">
        <ele>2012.8605</ele>
        <time>2015-08-22T17:14:51Z</time>
      </trkpt>
      <trkpt lat="45.37742" lon="7.05114">
        <ele>2012.8605</ele>
        <time>2015-08-22T17:14:56Z</time>
      </trkpt>
      <trkpt lat="45.37734" lon="7.0511">
        <ele>2008.681</ele>
        <time>2015-08-22T17:15:06Z</time>
      </trkpt>
      <trkpt lat="45.37732" lon="7.05108">
        <ele>2008.681</ele>
        <time>2015-08-22T17:15:11Z</time>
      </trkpt>
      <trkpt lat="45.37725" lon="7.05104">
        <ele>2004.5995</ele>
        <time>2015-08-22T17:15:21Z</time>
      </trkpt>
      <trkpt lat="45.37722" lon="7.05102">
        <ele>2004.5995</ele>
        <time>2015-08-22T17:15:26Z</time>
      </trkpt>
      <trkpt lat="45.37714" lon="7.05098">
        <ele>2000.5995</ele>
        <time>2015-08-22T17:15:36Z</time>
      </trkpt>
      <trkpt lat="45.37711" lon="7.05098">
        <ele>2000.5995</ele>
        <time>2015-08-22T17:15:41Z</time>
      </trkpt>
      <trkpt lat="45.37704" lon="7.05096">
        <ele>1996.6366</ele>
        <time>2015-08-22T17:15:51Z</time>
      </trkpt>
      <trkpt lat="45.37701" lon="7.05096">
        <ele>1996.6366</ele>
        <time>2015-08-22T17:15:56Z</time>
      </trkpt>
      <trkpt lat="45.377" lon="7.05095">
        <ele>1996.6366</ele>
        <time>2015-08-22T17:16:06Z</time>
      </trkpt>
      <trkpt lat="45.37699" lon="7.05091">
        <ele>1996.6366</ele>
        <time>2015-08-22T17:16:11Z</time>
      </trkpt>
      <trkpt lat="45.37696" lon="7.05087">
        <ele>1992.6261</ele>
        <time>2015-08-22T17:16:21Z</time>
      </trkpt>
      <trkpt lat="45.37693" lon="7.05086">
        <ele>1992.6261</ele>
        <time>2015-08-22T17:16:26Z</time>
      </trkpt>
      <trkpt lat="45.37688" lon="7.05085">
        <ele>1992.6261</ele>
        <time>2015-08-22T17:16:41Z</time>
      </trkpt>
      <trkpt lat="45.37687" lon="7.05085">
        <ele>1992.6261</ele>
        <time>2015-08-22T17:16:46Z</time>
      </trkpt>
      <trkpt lat="45.37688" lon="7.05088">
        <ele>1988.3744</ele>
        <time>2015-08-22T17:16:56Z</time>
      </trkpt>
      <trkpt lat="45.37689" lon="7.05088">
        <ele>1988.3744</ele>
        <time>2015-08-22T17:17:01Z</time>
      </trkpt>
      <trkpt lat="45.37689" lon="7.05098">
        <ele>1988.3744</ele>
        <time>2015-08-22T17:17:11Z</time>
      </trkpt>
      <trkpt lat="45.3769" lon="7.05102">
        <ele>1984.1921</ele>
        <time>2015-08-22T17:17:16Z</time>
      </trkpt>
      <trkpt lat="45.37689" lon="7.05112">
        <ele>1984.1921</ele>
        <time>2015-08-22T17:17:26Z</time>
      </trkpt>
      <trkpt lat="45.3769" lon="7.05116">
        <ele>1980.1222</ele>
        <time>2015-08-22T17:17:31Z</time>
      </trkpt>
      <trkpt lat="45.37692" lon="7.05126">
        <ele>1980.1222</ele>
        <time>2015-08-22T17:17:41Z</time>
      </trkpt>
      <trkpt lat="45.37694" lon="7.05132">
        <ele>1976.1748</ele>
        <time>2015-08-22T17:17:46Z</time>
      </trkpt>
      <trkpt lat="45.37696" lon="7.05142">
        <ele>1976.1748</ele>
        <time>2015-08-22T17:17:56Z</time>
      </trkpt>
      <trkpt lat="45.37698" lon="7.05148">
        <ele>1972.5608</ele>
        <time>2015-08-22T17:18:01Z</time>
      </trkpt>
      <trkpt lat="45.37698" lon="7.05154">
        <ele>1972.5608</ele>
        <time>2015-08-22T17:18:11Z</time>
      </trkpt>
      <trkpt lat="45.37697" lon="7.05158">
        <ele>1972.5608</ele>
        <time>2015-08-22T17:18:16Z</time>
      </trkpt>
      <trkpt lat="45.37694" lon="7.05163">
        <ele>1968.9124</ele>
        <time>2015-08-22T17:18:26Z</time>
      </trkpt>
      <trkpt lat="45.37693" lon="7.05163">
        <ele>1968.9124</ele>
        <time>2015-08-22T17:18:31Z</time>
      </trkpt>
      <trkpt lat="45.37691" lon="7.05175">
        <ele>1965.1334</ele>
        <time>2015-08-22T17:18:46Z</time>
      </trkpt>
      <trkpt lat="45.37691" lon="7.05182">
        <ele>1965.1334</ele>
        <time>2015-08-22T17:18:51Z</time>
      </trkpt>
      <trkpt lat="45.3769" lon="7.0519">
        <ele>1961.4236</ele>
        <time>2015-08-22T17:19:01Z</time>
      </trkpt>
      <trkpt lat="45.37691" lon="7.05196">
        <ele>1961.4236</ele>
        <time>2015-08-22T17:19:06Z</time>
      </trkpt>
      <trkpt lat="45.37692" lon="7.05204">
        <ele>1957.8666</ele>
        <time>2015-08-22T17:19:16Z</time>
      </trkpt>
      <trkpt lat="45.37691" lon="7.05206">
        <ele>1957.8666</ele>
        <time>2015-08-22T17:19:21Z</time>
      </trkpt>
      <trkpt lat="45.37688" lon="7.05211">
        <ele>1957.8666</ele>
        <time>2015-08-22T17:19:31Z</time>
      </trkpt>
      <trkpt lat="45.37688" lon="7.05218">
        <ele>1954.0781</ele>
        <time>2015-08-22T17:19:36Z</time>
      </trkpt>
      <trkpt lat="45.37688" lon="7.05229">
        <ele>1954.0781</ele>
        <time>2015-08-22T17:19:46Z</time>
      </trkpt>
      <trkpt lat="45.3769" lon="7.05235">
        <ele>1950.4377</ele>
        <time>2015-08-22T17:19:51Z</time>
      </trkpt>
      <trkpt lat="45.37689" lon="7.05234">
        <ele>1950.4377</ele>
        <time>2015-08-22T17:20:01Z</time>
      </trkpt>
      <trkpt lat="45.37688" lon="7.05239">
        <ele>1950.4377</ele>
        <time>2015-08-22T17:20:06Z</time>
      </trkpt>
      <trkpt lat="45.37689" lon="7.05245">
        <ele>1950.4377</ele>
        <time>2015-08-22T17:20:16Z</time>
      </trkpt>
      <trkpt lat="45.37686" lon="7.05245">
        <ele>1946.8785</ele>
        <time>2015-08-22T17:20:21Z</time>
      </trkpt>
      <trkpt lat="45.37689" lon="7.0525">
        <ele>1946.8785</ele>
        <time>2015-08-22T17:20:36Z</time>
      </trkpt>
      <trkpt lat="45.3769" lon="7.0525">
        <ele>1946.8785</ele>
        <time>2015-08-22T17:20:41Z</time>
      </trkpt>
      <trkpt lat="45.37688" lon="7.05243">
        <ele>1943.3959</ele>
        <time>2015-08-22T17:20:51Z</time>
      </trkpt>
      <trkpt lat="45.37687" lon="7.05243">
        <ele>1943.3959</ele>
        <time>2015-08-22T17:20:56Z</time>
      </trkpt>
      <trkpt lat="45.37686" lon="7.05248">
        <ele>1943.3959</ele>
        <time>2015-08-22T17:21:06Z</time>
      </trkpt>
      <trkpt lat="45.37687" lon="7.05247">
        <ele>1943.3959</ele>
        <time>2015-08-22T17:21:11Z</time>
      </trkpt>
      <trkpt lat="45.37687" lon="7.05245">
        <ele>1943.3959</ele>
        <time>2015-08-22T17:21:21Z</time>
      </trkpt>
      <trkpt lat="45.37687" lon="7.05245">
        <ele>1943.3959</ele>
        <time>2015-08-22T17:21:26Z</time>
      </trkpt>
      <trkpt lat="45.37679" lon="7.05242">
        <ele>1940.1292</ele>
        <time>2015-08-22T17:21:36Z</time>
      </trkpt>
      <trkpt lat="45.37677" lon="7.05237">
        <ele>1940.1292</ele>
        <time>2015-08-22T17:21:41Z</time>
      </trkpt>
      <trkpt lat="45.37675" lon="7.05229">
        <ele>1937.0338</ele>
        <time>2015-08-22T17:21:51Z</time>
      </trkpt>
      <trkpt lat="45.37674" lon="7.05224">
        <ele>1937.0338</ele>
        <time>2015-08-22T17:21:56Z</time>
      </trkpt>
      <trkpt lat="45.37669" lon="7.05217">
        <ele>1933.9385</ele>
        <time>2015-08-22T17:22:06Z</time>
      </trkpt>
      <trkpt lat="45.37666" lon="7.05214">
        <ele>1933.9385</ele>
        <time>2015-08-22T17:22:11Z</time>
      </trkpt>
      <trkpt lat="45.37661" lon="7.05204">
        <ele>1930.9291</ele>
        <time>2015-08-22T17:22:21Z</time>
      </trkpt>
      <trkpt lat="45.37659" lon="7.052">
        <ele>1930.9291</ele>
        <time>2015-08-22T17:22:26Z</time>
      </trkpt>
      <trkpt lat="45.37654" lon="7.05195">
        <ele>1927.9408</ele>
        <time>2015-08-22T17:22:36Z</time>
      </trkpt>
      <trkpt lat="45.37653" lon="7.05191">
        <ele>1927.9408</ele>
        <time>2015-08-22T17:22:41Z</time>
      </trkpt>
      <trkpt lat="45.37647" lon="7.0519">
        <ele>1927.9408</ele>
        <time>2015-08-22T17:22:51Z</time>
      </trkpt>
      <trkpt lat="45.37645" lon="7.05189">
        <ele>1924.8416</ele>
        <time>2015-08-22T17:22:56Z</time>
      </trkpt>
      <trkpt lat="45.37636" lon="7.05185">
        <ele>1921.7827</ele>
        <time>2015-08-22T17:23:11Z</time>
      </trkpt>
      <trkpt lat="45.37633" lon="7.05188">
        <ele>1921.7827</ele>
        <time>2015-08-22T17:23:16Z</time>
      </trkpt>
      <trkpt lat="45.37628" lon="7.05186">
        <ele>1921.7827</ele>
        <time>2015-08-22T17:23:26Z</time>
      </trkpt>
      <trkpt lat="45.37626" lon="7.0518">
        <ele>1918.6598</ele>
        <time>2015-08-22T17:23:31Z</time>
      </trkpt>
      <trkpt lat="45.37621" lon="7.0518">
        <ele>1918.6598</ele>
        <time>2015-08-22T17:23:41Z</time>
      </trkpt>
      <trkpt lat="45.37619" lon="7.05181">
        <ele>1918.6598</ele>
        <time>2015-08-22T17:23:46Z</time>
      </trkpt>
      <trkpt lat="45.37611" lon="7.05177">
        <ele>1915.3179</ele>
        <time>2015-08-22T17:23:56Z</time>
      </trkpt>
      <trkpt lat="45.37607" lon="7.05176">
        <ele>1915.3179</ele>
        <time>2015-08-22T17:24:01Z</time>
      </trkpt>
      <trkpt lat="45.37602" lon="7.05169">
        <ele>1912.018</ele>
        <time>2015-08-22T17:24:11Z</time>
      </trkpt>
      <trkpt lat="45.37599" lon="7.05167">
        <ele>1912.018</ele>
        <time>2015-08-22T17:24:16Z</time>
      </trkpt>
      <trkpt lat="45.37597" lon="7.05165">
        <ele>1912.018</ele>
        <time>2015-08-22T17:24:26Z</time>
      </trkpt>
      <trkpt lat="45.37596" lon="7.05167">
        <ele>1912.018</ele>
        <time>2015-08-22T17:24:31Z</time>
      </trkpt>
      <trkpt lat="45.37591" lon="7.05168">
        <ele>1908.3674</ele>
        <time>2015-08-22T17:24:41Z</time>
      </trkpt>
      <trkpt lat="45.37588" lon="7.05172">
        <ele>1908.3674</ele>
        <time>2015-08-22T17:24:46Z</time>
      </trkpt>
      <trkpt lat="45.37584" lon="7.05175">
        <ele>1908.3674</ele>
        <time>2015-08-22T17:24:56Z</time>
      </trkpt>
      <trkpt lat="45.37581" lon="7.05181">
        <ele>1904.9114</ele>
        <time>2015-08-22T17:25:01Z</time>
      </trkpt>
      <trkpt lat="45.37578" lon="7.05195">
        <ele>1902.0535</ele>
        <time>2015-08-22T17:25:11Z</time>
      </trkpt>
      <trkpt lat="45.37576" lon="7.05202">
        <ele>1902.0535</ele>
        <time>2015-08-22T17:25:16Z</time>
      </trkpt>
      <trkpt lat="45.37574" lon="7.05212">
        <ele>1899.5175</ele>
        <time>2015-08-22T17:25:26Z</time>
      </trkpt>
      <trkpt lat="45.37574" lon="7.05217">
        <ele>1899.5175</ele>
        <time>2015-08-22T17:25:31Z</time>
      </trkpt>
      <trkpt lat="45.37574" lon="7.05225">
        <ele>1896.7437</ele>
        <time>2015-08-22T17:25:46Z</time>
      </trkpt>
      <trkpt lat="45.3757" lon="7.05224">
        <ele>1896.7437</ele>
        <time>2015-08-22T17:25:51Z</time>
      </trkpt>
      <trkpt lat="45.3757" lon="7.05223">
        <ele>1896.7437</ele>
        <time>2015-08-22T17:26:01Z</time>
      </trkpt>
      <trkpt lat="45.3757" lon="7.05225">
        <ele>1896.7437</ele>
        <time>2015-08-22T17:26:06Z</time>
      </trkpt>
      <trkpt lat="45.37572" lon="7.0523">
        <ele>1893.9493</ele>
        <time>2015-08-22T17:26:16Z</time>
      </trkpt>
      <trkpt lat="45.37574" lon="7.05234">
        <ele>1893.9493</ele>
        <time>2015-08-22T17:26:21Z</time>
      </trkpt>
      <trkpt lat="45.37573" lon="7.05236">
        <ele>1893.9493</ele>
        <time>2015-08-22T17:26:31Z</time>
      </trkpt>
      <trkpt lat="45.37569" lon="7.05229">
        <ele>1891.0332</ele>
        <time>2015-08-22T17:26:36Z</time>
      </trkpt>
      <trkpt lat="45.37563" lon="7.05213">
        <ele>1888.1465</ele>
        <time>2015-08-22T17:26:46Z</time>
      </trkpt>
      <trkpt lat="45.37559" lon="7.05205">
        <ele>1888.1465</ele>
        <time>2015-08-22T17:26:51Z</time>
      </trkpt>
      <trkpt lat="45.37555" lon="7.05193">
        <ele>1885.1414</ele>
        <time>2015-08-22T17:27:01Z</time>
      </trkpt>
      <trkpt lat="45.3755" lon="7.05185">
        <ele>1885.1414</ele>
        <time>2015-08-22T17:27:06Z</time>
      </trkpt>
      <trkpt lat="45.37542" lon="7.05174">
        <ele>1882.0538</ele>
        <time>2015-08-22T17:27:16Z</time>
      </trkpt>
      <trkpt lat="45.37537" lon="7.0517">
        <ele>1882.0538</ele>
        <time>2015-08-22T17:27:21Z</time>
      </trkpt>
      <trkpt lat="45.37531" lon="7.05151">
        <ele>1879.0618</ele>
        <time>2015-08-22T17:27:31Z</time>
      </trkpt>
      <trkpt lat="45.37529" lon="7.05143">
        <ele>1879.0618</ele>
        <time>2015-08-22T17:27:36Z</time>
      </trkpt>
      <trkpt lat="45.37514" lon="7.05126">
        <ele>1876.0991</ele>
        <time>2015-08-22T17:27:51Z</time>
      </trkpt>
      <trkpt lat="45.3751" lon="7.05121">
        <ele>1876.0991</ele>
        <time>2015-08-22T17:27:56Z</time>
      </trkpt>
      <trkpt lat="45.37503" lon="7.0511">
        <ele>1873.3063</ele>
        <time>2015-08-22T17:28:06Z</time>
      </trkpt>
      <trkpt lat="45.37501" lon="7.05106">
        <ele>1873.3063</ele>
        <time>2015-08-22T17:28:11Z</time>
      </trkpt>
      <trkpt lat="45.37492" lon="7.05097">
        <ele>1870.6976</ele>
        <time>2015-08-22T17:28:21Z</time>
      </trkpt>
      <trkpt lat="45.3749" lon="7.0509">
        <ele>1870.6976</ele>
        <time>2015-08-22T17:28:26Z</time>
      </trkpt>
      <trkpt lat="45.37485" lon="7.0508">
        <ele>1868.1133</ele>
        <time>2015-08-22T17:28:36Z</time>
      </trkpt>
      <trkpt lat="45.37482" lon="7.05075">
        <ele>1868.1133</ele>
        <time>2015-08-22T17:28:41Z</time>
      </trkpt>
      <trkpt lat="45.37475" lon="7.05063">
        <ele>1865.5344</ele>
        <time>2015-08-22T17:28:51Z</time>
      </trkpt>
      <trkpt lat="45.37473" lon="7.05062">
        <ele>1865.5344</ele>
        <time>2015-08-22T17:28:56Z</time>
      </trkpt>
      <trkpt lat="45.37466" lon="7.05052">
        <ele>1862.7853</ele>
        <time>2015-08-22T17:29:06Z</time>
      </trkpt>
      <trkpt lat="45.37464" lon="7.05048">
        <ele>1862.7853</ele>
        <time>2015-08-22T17:29:11Z</time>
      </trkpt>
      <trkpt lat="45.37455" lon="7.05035">
        <ele>1859.9917</ele>
        <time>2015-08-22T17:29:21Z</time>
      </trkpt>
      <trkpt lat="45.37454" lon="7.05026">
        <ele>1859.9917</ele>
        <time>2015-08-22T17:29:26Z</time>
      </trkpt>
      <trkpt lat="45.37449" lon="7.05009">
        <ele>1857.3282</ele>
        <time>2015-08-22T17:29:36Z</time>
      </trkpt>
      <trkpt lat="45.37447" lon="7.05003">
        <ele>1857.3282</ele>
        <time>2015-08-22T17:29:41Z</time>
      </trkpt>
      <trkpt lat="45.37441" lon="7.04981">
        <ele>1854.7399</ele>
        <time>2015-08-22T17:29:56Z</time>
      </trkpt>
      <trkpt lat="45.37435" lon="7.04973">
        <ele>1854.7399</ele>
        <time>2015-08-22T17:30:01Z</time>
      </trkpt>
      <trkpt lat="45.37424" lon="7.04959">
        <ele>1852.5071</ele>
        <time>2015-08-22T17:30:11Z</time>
      </trkpt>
      <trkpt lat="45.37423" lon="7.04954">
        <ele>1852.5071</ele>
        <time>2015-08-22T17:30:16Z</time>
      </trkpt>
      <trkpt lat="45.37421" lon="7.04941">
        <ele>1850.5573</ele>
        <time>2015-08-22T17:30:26Z</time>
      </trkpt>
      <trkpt lat="45.37418" lon="7.04936">
        <ele>1850.5573</ele>
        <time>2015-08-22T17:30:31Z</time>
      </trkpt>
      <trkpt lat="45.37416" lon="7.04923">
        <ele>1848.7218</ele>
        <time>2015-08-22T17:30:41Z</time>
      </trkpt>
      <trkpt lat="45.37416" lon="7.04918">
        <ele>1848.7218</ele>
        <time>2015-08-22T17:30:46Z</time>
      </trkpt>
      <trkpt lat="45.37411" lon="7.0491">
        <ele>1847.0599</ele>
        <time>2015-08-22T17:30:56Z</time>
      </trkpt>
      <trkpt lat="45.37406" lon="7.04907">
        <ele>1847.0599</ele>
        <time>2015-08-22T17:31:01Z</time>
      </trkpt>
      <trkpt lat="45.37399" lon="7.04884">
        <ele>1845.5687</ele>
        <time>2015-08-22T17:31:16Z</time>
      </trkpt>
      <trkpt lat="45.37399" lon="7.04881">
        <ele>1845.5687</ele>
        <time>2015-08-22T17:31:21Z</time>
      </trkpt>
      <trkpt lat="45.37395" lon="7.04876">
        <ele>1845.5687</ele>
        <time>2015-08-22T17:31:31Z</time>
      </trkpt>
      <trkpt lat="45.3739" lon="7.04873">
        <ele>1844.0723</ele>
        <time>2015-08-22T17:31:36Z</time>
      </trkpt>
      <trkpt lat="45.37387" lon="7.04858">
        <ele>1842.7245</ele>
        <time>2015-08-22T17:31:46Z</time>
      </trkpt>
      <trkpt lat="45.37385" lon="7.04852">
        <ele>1842.7245</ele>
        <time>2015-08-22T17:31:51Z</time>
      </trkpt>
      <trkpt lat="45.37378" lon="7.04843">
        <ele>1841.466</ele>
        <time>2015-08-22T17:32:01Z</time>
      </trkpt>
      <trkpt lat="45.37375" lon="7.04839">
        <ele>1841.466</ele>
        <time>2015-08-22T17:32:06Z</time>
      </trkpt>
      <trkpt lat="45.37369" lon="7.04835">
        <ele>1840.2561</ele>
        <time>2015-08-22T17:32:16Z</time>
      </trkpt>
      <trkpt lat="45.37369" lon="7.04836">
        <ele>1840.2561</ele>
        <time>2015-08-22T17:32:21Z</time>
      </trkpt>
      <trkpt lat="45.37368" lon="7.04836">
        <ele>1840.2561</ele>
        <time>2015-08-22T17:32:31Z</time>
      </trkpt>
      <trkpt lat="45.37366" lon="7.04831">
        <ele>1840.2561</ele>
        <time>2015-08-22T17:32:36Z</time>
      </trkpt>
      <trkpt lat="45.37359" lon="7.04821">
        <ele>1839.0857</ele>
        <time>2015-08-22T17:32:46Z</time>
      </trkpt>
      <trkpt lat="45.37356" lon="7.04813">
        <ele>1839.0857</ele>
        <time>2015-08-22T17:32:51Z</time>
      </trkpt>
      <trkpt lat="45.37351" lon="7.04793">
        <ele>1837.7882</ele>
        <time>2015-08-22T17:33:06Z</time>
      </trkpt>
      <trkpt lat="45.37351" lon="7.04786">
        <ele>1837.7882</ele>
        <time>2015-08-22T17:33:11Z</time>
      </trkpt>
      <trkpt lat="45.37349" lon="7.04777">
        <ele>1836.5408</ele>
        <time>2015-08-22T17:33:21Z</time>
      </trkpt>
      <trkpt lat="45.37347" lon="7.04772">
        <ele>1836.5408</ele>
        <time>2015-08-22T17:33:26Z</time>
      </trkpt>
      <trkpt lat="45.37337" lon="7.04754">
        <ele>1835.4647</ele>
        <time>2015-08-22T17:33:36Z</time>
      </trkpt>
      <trkpt lat="45.37336" lon="7.04748">
        <ele>1835.4647</ele>
        <time>2015-08-22T17:33:41Z</time>
      </trkpt>
      <trkpt lat="45.37329" lon="7.04739">
        <ele>1834.3837</ele>
        <time>2015-08-22T17:33:51Z</time>
      </trkpt>
      <trkpt lat="45.37326" lon="7.04734">
        <ele>1834.3837</ele>
        <time>2015-08-22T17:33:56Z</time>
      </trkpt>
      <trkpt lat="45.3732" lon="7.04719">
        <ele>1833.3071</ele>
        <time>2015-08-22T17:34:06Z</time>
      </trkpt>
      <trkpt lat="45.37316" lon="7.04713">
        <ele>1833.3071</ele>
        <time>2015-08-22T17:34:11Z</time>
      </trkpt>
      <trkpt lat="45.37305" lon="7.04703">
        <ele>1832.23</ele>
        <time>2015-08-22T17:34:21Z</time>
      </trkpt>
      <trkpt lat="45.37303" lon="7.04696">
        <ele>1832.23</ele>
        <time>2015-08-22T17:34:26Z</time>
      </trkpt>
      <trkpt lat="45.373" lon="7.04687">
        <ele>1831.0898</ele>
        <time>2015-08-22T17:34:36Z</time>
      </trkpt>
      <trkpt lat="45.37298" lon="7.04685">
        <ele>1831.0898</ele>
        <time>2015-08-22T17:34:41Z</time>
      </trkpt>
      <trkpt lat="45.37296" lon="7.04675">
        <ele>1829.7571</ele>
        <time>2015-08-22T17:34:51Z</time>
      </trkpt>
      <trkpt lat="45.37294" lon="7.04671">
        <ele>1829.7571</ele>
        <time>2015-08-22T17:34:56Z</time>
      </trkpt>
      <trkpt lat="45.37288" lon="7.04665">
        <ele>1828.3862</ele>
        <time>2015-08-22T17:35:06Z</time>
      </trkpt>
      <trkpt lat="45.37288" lon="7.04665">
        <ele>1828.3862</ele>
        <time>2015-08-22T17:35:11Z</time>
      </trkpt>
      <trkpt lat="45.37287" lon="7.04662">
        <ele>1828.3862</ele>
        <time>2015-08-22T17:35:21Z</time>
      </trkpt>
      <trkpt lat="45.37287" lon="7.0466">
        <ele>1828.3862</ele>
        <time>2015-08-22T17:35:26Z</time>
      </trkpt>
      <trkpt lat="45.3728" lon="7.04659">
        <ele>1826.8325</ele>
        <time>2015-08-22T17:35:41Z</time>
      </trkpt>
      <trkpt lat="45.37276" lon="7.04658">
        <ele>1826.8325</ele>
        <time>2015-08-22T17:35:46Z</time>
      </trkpt>
      <trkpt lat="45.37269" lon="7.04653">
        <ele>1825.1497</ele>
        <time>2015-08-22T17:35:56Z</time>
      </trkpt>
      <trkpt lat="45.37268" lon="7.0465">
        <ele>1825.1497</ele>
        <time>2015-08-22T17:36:01Z</time>
      </trkpt>
      <trkpt lat="45.3726" lon="7.04645">
        <ele>1823.4169</ele>
        <time>2015-08-22T17:36:11Z</time>
      </trkpt>
      <trkpt lat="45.37257" lon="7.04642">
        <ele>1823.4169</ele>
        <time>2015-08-22T17:36:16Z</time>
      </trkpt>
      <trkpt lat="45.37247" lon="7.04636">
        <ele>1821.6792</ele>
        <time>2015-08-22T17:36:26Z</time>
      </trkpt>
      <trkpt lat="45.37242" lon="7.0463">
        <ele>1821.6792</ele>
        <time>2015-08-22T17:36:31Z</time>
      </trkpt>
      <trkpt lat="45.37234" lon="7.04627">
        <ele>1820.0214</ele>
        <time>2015-08-22T17:36:41Z</time>
      </trkpt>
      <trkpt lat="45.37231" lon="7.04627">
        <ele>1820.0214</ele>
        <time>2015-08-22T17:36:46Z</time>
      </trkpt>
      <trkpt lat="45.37226" lon="7.04631">
        <ele>1820.0214</ele>
        <time>2015-08-22T17:36:56Z</time>
      </trkpt>
      <trkpt lat="45.37221" lon="7.04635">
        <ele>1818.2626</ele>
        <time>2015-08-22T17:37:01Z</time>
      </trkpt>
      <trkpt lat="45.3721" lon="7.0464">
        <ele>1816.4666</ele>
        <time>2015-08-22T17:37:16Z</time>
      </trkpt>
      <trkpt lat="45.37208" lon="7.04645">
        <ele>1816.4666</ele>
        <time>2015-08-22T17:37:21Z</time>
      </trkpt>
      <trkpt lat="45.37201" lon="7.04654">
        <ele>1814.6345</ele>
        <time>2015-08-22T17:37:31Z</time>
      </trkpt>
      <trkpt lat="45.37196" lon="7.0466">
        <ele>1814.6345</ele>
        <time>2015-08-22T17:37:36Z</time>
      </trkpt>
      <trkpt lat="45.37187" lon="7.04662">
        <ele>1812.8977</ele>
        <time>2015-08-22T17:37:46Z</time>
      </trkpt>
      <trkpt lat="45.37184" lon="7.04663">
        <ele>1812.8977</ele>
        <time>2015-08-22T17:37:51Z</time>
      </trkpt>
      <trkpt lat="45.37178" lon="7.04663">
        <ele>1812.8977</ele>
        <time>2015-08-22T17:38:01Z</time>
      </trkpt>
      <trkpt lat="45.37174" lon="7.04667">
        <ele>1811.3633</ele>
        <time>2015-08-22T17:38:06Z</time>
      </trkpt>
      <trkpt lat="45.3717" lon="7.04679">
        <ele>1809.9569</ele>
        <time>2015-08-22T17:38:16Z</time>
      </trkpt>
      <trkpt lat="45.37171" lon="7.0468">
        <ele>1809.9569</ele>
        <time>2015-08-22T17:38:21Z</time>
      </trkpt>
      <trkpt lat="45.37172" lon="7.04677">
        <ele>1809.9569</ele>
        <time>2015-08-22T17:38:31Z</time>
      </trkpt>
      <trkpt lat="45.37172" lon="7.04675">
        <ele>1809.9569</ele>
        <time>2015-08-22T17:38:36Z</time>
      </trkpt>
      <trkpt lat="45.37176" lon="7.04676">
        <ele>1809.9569</ele>
        <time>2015-08-22T17:38:51Z</time>
      </trkpt>
      <trkpt lat="45.37176" lon="7.04677">
        <ele>1808.6384</ele>
        <time>2015-08-22T17:38:56Z</time>
      </trkpt>
      <trkpt lat="45.37174" lon="7.04677">
        <ele>1808.6384</ele>
        <time>2015-08-22T17:39:06Z</time>
      </trkpt>
      <trkpt lat="45.37174" lon="7.04679">
        <ele>1808.6384</ele>
        <time>2015-08-22T17:39:11Z</time>
      </trkpt>
      <trkpt lat="45.37175" lon="7.04678">
        <ele>1808.6384</ele>
        <time>2015-08-22T17:39:21Z</time>
      </trkpt>
      <trkpt lat="45.37174" lon="7.04678">
        <ele>1808.6384</ele>
        <time>2015-08-22T17:39:26Z</time>
      </trkpt>
      <trkpt lat="45.37174" lon="7.04678">
        <ele>1808.6384</ele>
        <time>2015-08-22T17:39:31Z</time>
      </trkpt>
      <trkpt lat="45.37175" lon="7.04678">
        <ele>1808.6384</ele>
        <time>2015-08-22T17:39:36Z</time>
      </trkpt>
      <trkpt lat="45.37175" lon="7.04679">
        <ele>1808.6384</ele>
        <time>2015-08-22T17:39:41Z</time>
      </trkpt>
      <trkpt lat="45.37176" lon="7.0468">
        <ele>1808.6384</ele>
        <time>2015-08-22T17:39:46Z</time>
      </trkpt>
      <trkpt lat="45.37176" lon="7.0468">
        <ele>1808.6384</ele>
        <time>2015-08-22T17:39:51Z</time>
      </trkpt>
      <trkpt lat="45.37176" lon="7.04679">
        <ele>1807.3561</ele>
        <time>2015-08-22T17:39:56Z</time>
      </trkpt>
      <trkpt lat="45.37176" lon="7.04679">
        <ele>1807.3561</ele>
        <time>2015-08-22T17:40:01Z</time>
      </trkpt>
    </trkseg>
  </trk>
</gpx>